<?xml version="1.0" encoding="UTF-8" standalone="no" ?>
<gpx xmlns="http://www.topografix.com/GPX/1/1" xmlns:xsi="http://www.w3.org/2001/XMLSchema-instance" xsi:schemaLocation="http://www.topografix.com/GPX/1/1 http://www.topografix.com/GPX/1/1/gpx.xsd" version="1.1" creator="VisuGPX - https://www.visugpx.com">
  <metadata>
    <name>Escoussens-33km-1100m</name>
    <desc><![CDATA[Très belle sortie au départ d'Escoussens en passant par le carrefour du Pas du Sant , des Escudiés, Font Bruno et descente sur Escoussens. Attention certaines descentes sont assez engagées.]]></desc>
  </metadata>
  <trk>
    <name><![CDATA[2019-03-30-13-39-07 on GPSies.com]]></name>
    <trkseg>
      <trkpt lat="43.50111" lon="2.21174">
        <ele>256</ele>
        <time>2019-03-30T13:39:07Z</time>
      </trkpt>
      <trkpt lat="43.5011" lon="2.21172">
        <ele>257</ele>
        <time>2019-03-30T13:39:08Z</time>
      </trkpt>
      <trkpt lat="43.501" lon="2.21162">
        <ele>257</ele>
        <time>2019-03-30T13:39:13Z</time>
      </trkpt>
      <trkpt lat="43.50098" lon="2.2116">
        <ele>257</ele>
        <time>2019-03-30T13:39:14Z</time>
      </trkpt>
      <trkpt lat="43.50084" lon="2.21149">
        <ele>258</ele>
        <time>2019-03-30T13:39:21Z</time>
      </trkpt>
      <trkpt lat="43.50062" lon="2.21133">
        <ele>258</ele>
        <time>2019-03-30T13:39:30Z</time>
      </trkpt>
      <trkpt lat="43.50036" lon="2.21115">
        <ele>258</ele>
        <time>2019-03-30T13:39:40Z</time>
      </trkpt>
      <trkpt lat="43.50034" lon="2.21113">
        <ele>259</ele>
        <time>2019-03-30T13:39:41Z</time>
      </trkpt>
      <trkpt lat="43.50021" lon="2.21105">
        <ele>259</ele>
        <time>2019-03-30T13:39:46Z</time>
      </trkpt>
      <trkpt lat="43.50018" lon="2.21103">
        <ele>259</ele>
        <time>2019-03-30T13:39:47Z</time>
      </trkpt>
      <trkpt lat="43.49995" lon="2.21086">
        <ele>260</ele>
        <time>2019-03-30T13:39:56Z</time>
      </trkpt>
      <trkpt lat="43.49972" lon="2.2107">
        <ele>260</ele>
        <time>2019-03-30T13:40:05Z</time>
      </trkpt>
      <trkpt lat="43.49959" lon="2.21061">
        <ele>261</ele>
        <time>2019-03-30T13:40:10Z</time>
      </trkpt>
      <trkpt lat="43.4995" lon="2.21056">
        <ele>261</ele>
        <time>2019-03-30T13:40:13Z</time>
      </trkpt>
      <trkpt lat="43.49934" lon="2.21046">
        <ele>261</ele>
        <time>2019-03-30T13:40:19Z</time>
      </trkpt>
      <trkpt lat="43.49913" lon="2.21032">
        <ele>262</ele>
        <time>2019-03-30T13:40:27Z</time>
      </trkpt>
      <trkpt lat="43.49911" lon="2.21031">
        <ele>262</ele>
        <time>2019-03-30T13:40:28Z</time>
      </trkpt>
      <trkpt lat="43.49889" lon="2.21019">
        <ele>262</ele>
        <time>2019-03-30T13:40:37Z</time>
      </trkpt>
      <trkpt lat="43.49876" lon="2.21012">
        <ele>263</ele>
        <time>2019-03-30T13:40:42Z</time>
      </trkpt>
      <trkpt lat="43.49867" lon="2.21005">
        <ele>263</ele>
        <time>2019-03-30T13:40:46Z</time>
      </trkpt>
      <trkpt lat="43.49856" lon="2.20996">
        <ele>264</ele>
        <time>2019-03-30T13:40:51Z</time>
      </trkpt>
      <trkpt lat="43.49842" lon="2.20977">
        <ele>264</ele>
        <time>2019-03-30T13:40:58Z</time>
      </trkpt>
      <trkpt lat="43.49835" lon="2.20953">
        <ele>265</ele>
        <time>2019-03-30T13:41:04Z</time>
      </trkpt>
      <trkpt lat="43.49832" lon="2.20941">
        <ele>265</ele>
        <time>2019-03-30T13:41:07Z</time>
      </trkpt>
      <trkpt lat="43.49831" lon="2.20938">
        <ele>265</ele>
        <time>2019-03-30T13:41:08Z</time>
      </trkpt>
      <trkpt lat="43.49827" lon="2.20918">
        <ele>266</ele>
        <time>2019-03-30T13:41:13Z</time>
      </trkpt>
      <trkpt lat="43.49821" lon="2.20884">
        <ele>266</ele>
        <time>2019-03-30T13:41:21Z</time>
      </trkpt>
      <trkpt lat="43.49817" lon="2.20863">
        <ele>267</ele>
        <time>2019-03-30T13:41:26Z</time>
      </trkpt>
      <trkpt lat="43.49816" lon="2.20858">
        <ele>267</ele>
        <time>2019-03-30T13:41:27Z</time>
      </trkpt>
      <trkpt lat="43.49815" lon="2.20854">
        <ele>267</ele>
        <time>2019-03-30T13:41:28Z</time>
      </trkpt>
      <trkpt lat="43.49812" lon="2.20839">
        <ele>268</ele>
        <time>2019-03-30T13:41:32Z</time>
      </trkpt>
      <trkpt lat="43.49811" lon="2.20835">
        <ele>268</ele>
        <time>2019-03-30T13:41:33Z</time>
      </trkpt>
      <trkpt lat="43.49808" lon="2.20822">
        <ele>268</ele>
        <time>2019-03-30T13:41:36Z</time>
      </trkpt>
      <trkpt lat="43.49805" lon="2.20805">
        <ele>269</ele>
        <time>2019-03-30T13:41:40Z</time>
      </trkpt>
      <trkpt lat="43.49803" lon="2.20792">
        <ele>270</ele>
        <time>2019-03-30T13:41:43Z</time>
      </trkpt>
      <trkpt lat="43.49799" lon="2.20771">
        <ele>270</ele>
        <time>2019-03-30T13:41:48Z</time>
      </trkpt>
      <trkpt lat="43.49798" lon="2.20763">
        <ele>271</ele>
        <time>2019-03-30T13:41:50Z</time>
      </trkpt>
      <trkpt lat="43.49793" lon="2.20747">
        <ele>271</ele>
        <time>2019-03-30T13:41:54Z</time>
      </trkpt>
      <trkpt lat="43.49791" lon="2.20743">
        <ele>272</ele>
        <time>2019-03-30T13:41:55Z</time>
      </trkpt>
      <trkpt lat="43.49783" lon="2.20731">
        <ele>272</ele>
        <time>2019-03-30T13:41:59Z</time>
      </trkpt>
      <trkpt lat="43.49778" lon="2.20725">
        <ele>273</ele>
        <time>2019-03-30T13:42:01Z</time>
      </trkpt>
      <trkpt lat="43.49775" lon="2.20723">
        <ele>273</ele>
        <time>2019-03-30T13:42:02Z</time>
      </trkpt>
      <trkpt lat="43.49754" lon="2.20707">
        <ele>274</ele>
        <time>2019-03-30T13:42:10Z</time>
      </trkpt>
      <trkpt lat="43.49738" lon="2.20695">
        <ele>275</ele>
        <time>2019-03-30T13:42:16Z</time>
      </trkpt>
      <trkpt lat="43.49724" lon="2.20686">
        <ele>276</ele>
        <time>2019-03-30T13:42:21Z</time>
      </trkpt>
      <trkpt lat="43.4971" lon="2.20679">
        <ele>276</ele>
        <time>2019-03-30T13:42:26Z</time>
      </trkpt>
      <trkpt lat="43.49701" lon="2.20675">
        <ele>277</ele>
        <time>2019-03-30T13:42:29Z</time>
      </trkpt>
      <trkpt lat="43.4968" lon="2.20666">
        <ele>277</ele>
        <time>2019-03-30T13:42:37Z</time>
      </trkpt>
      <trkpt lat="43.49677" lon="2.20665">
        <ele>277</ele>
        <time>2019-03-30T13:42:38Z</time>
      </trkpt>
      <trkpt lat="43.49659" lon="2.20659">
        <ele>278</ele>
        <time>2019-03-30T13:42:45Z</time>
      </trkpt>
      <trkpt lat="43.49648" lon="2.20656">
        <ele>278</ele>
        <time>2019-03-30T13:42:49Z</time>
      </trkpt>
      <trkpt lat="43.49631" lon="2.2065">
        <ele>279</ele>
        <time>2019-03-30T13:42:55Z</time>
      </trkpt>
      <trkpt lat="43.49611" lon="2.20647">
        <ele>279</ele>
        <time>2019-03-30T13:43:03Z</time>
      </trkpt>
      <trkpt lat="43.49597" lon="2.20644">
        <ele>280</ele>
        <time>2019-03-30T13:43:08Z</time>
      </trkpt>
      <trkpt lat="43.49595" lon="2.20644">
        <ele>280</ele>
        <time>2019-03-30T13:43:09Z</time>
      </trkpt>
      <trkpt lat="43.49586" lon="2.20643">
        <ele>280</ele>
        <time>2019-03-30T13:43:13Z</time>
      </trkpt>
      <trkpt lat="43.4958" lon="2.20641">
        <ele>281</ele>
        <time>2019-03-30T13:43:15Z</time>
      </trkpt>
      <trkpt lat="43.49578" lon="2.2064">
        <ele>281</ele>
        <time>2019-03-30T13:43:16Z</time>
      </trkpt>
      <trkpt lat="43.49565" lon="2.20633">
        <ele>282</ele>
        <time>2019-03-30T13:43:21Z</time>
      </trkpt>
      <trkpt lat="43.4956" lon="2.20631">
        <ele>282</ele>
        <time>2019-03-30T13:43:23Z</time>
      </trkpt>
      <trkpt lat="43.49547" lon="2.20626">
        <ele>283</ele>
        <time>2019-03-30T13:43:28Z</time>
      </trkpt>
      <trkpt lat="43.49544" lon="2.20625">
        <ele>283</ele>
        <time>2019-03-30T13:43:29Z</time>
      </trkpt>
      <trkpt lat="43.49536" lon="2.20616">
        <ele>283</ele>
        <time>2019-03-30T13:43:33Z</time>
      </trkpt>
      <trkpt lat="43.49534" lon="2.20614">
        <ele>284</ele>
        <time>2019-03-30T13:43:34Z</time>
      </trkpt>
      <trkpt lat="43.4953" lon="2.20608">
        <ele>284</ele>
        <time>2019-03-30T13:43:36Z</time>
      </trkpt>
      <trkpt lat="43.49522" lon="2.20596">
        <ele>285</ele>
        <time>2019-03-30T13:43:40Z</time>
      </trkpt>
      <trkpt lat="43.49521" lon="2.20593">
        <ele>285</ele>
        <time>2019-03-30T13:43:41Z</time>
      </trkpt>
      <trkpt lat="43.49511" lon="2.20582">
        <ele>286</ele>
        <time>2019-03-30T13:43:46Z</time>
      </trkpt>
      <trkpt lat="43.49508" lon="2.20579">
        <ele>286</ele>
        <time>2019-03-30T13:43:47Z</time>
      </trkpt>
      <trkpt lat="43.495" lon="2.20572">
        <ele>287</ele>
        <time>2019-03-30T13:43:50Z</time>
      </trkpt>
      <trkpt lat="43.49491" lon="2.20566">
        <ele>287</ele>
        <time>2019-03-30T13:43:54Z</time>
      </trkpt>
      <trkpt lat="43.49488" lon="2.20564">
        <ele>288</ele>
        <time>2019-03-30T13:43:55Z</time>
      </trkpt>
      <trkpt lat="43.49476" lon="2.2056">
        <ele>289</ele>
        <time>2019-03-30T13:43:59Z</time>
      </trkpt>
      <trkpt lat="43.49465" lon="2.20557">
        <ele>289</ele>
        <time>2019-03-30T13:44:03Z</time>
      </trkpt>
      <trkpt lat="43.4945" lon="2.20557">
        <ele>290</ele>
        <time>2019-03-30T13:44:08Z</time>
      </trkpt>
      <trkpt lat="43.49447" lon="2.20557">
        <ele>290</ele>
        <time>2019-03-30T13:44:09Z</time>
      </trkpt>
      <trkpt lat="43.49436" lon="2.20559">
        <ele>291</ele>
        <time>2019-03-30T13:44:13Z</time>
      </trkpt>
      <trkpt lat="43.49433" lon="2.2056">
        <ele>291</ele>
        <time>2019-03-30T13:44:14Z</time>
      </trkpt>
      <trkpt lat="43.49417" lon="2.20567">
        <ele>293</ele>
        <time>2019-03-30T13:44:20Z</time>
      </trkpt>
      <trkpt lat="43.49404" lon="2.20569">
        <ele>293</ele>
        <time>2019-03-30T13:44:24Z</time>
      </trkpt>
      <trkpt lat="43.49399" lon="2.20571">
        <ele>294</ele>
        <time>2019-03-30T13:44:26Z</time>
      </trkpt>
      <trkpt lat="43.49383" lon="2.20581">
        <ele>294</ele>
        <time>2019-03-30T13:44:32Z</time>
      </trkpt>
      <trkpt lat="43.4937" lon="2.20588">
        <ele>295</ele>
        <time>2019-03-30T13:44:36Z</time>
      </trkpt>
      <trkpt lat="43.49364" lon="2.20591">
        <ele>295</ele>
        <time>2019-03-30T13:44:38Z</time>
      </trkpt>
      <trkpt lat="43.49346" lon="2.206">
        <ele>296</ele>
        <time>2019-03-30T13:44:44Z</time>
      </trkpt>
      <trkpt lat="43.4933" lon="2.20603">
        <ele>296</ele>
        <time>2019-03-30T13:44:49Z</time>
      </trkpt>
      <trkpt lat="43.49317" lon="2.20602">
        <ele>296</ele>
        <time>2019-03-30T13:44:53Z</time>
      </trkpt>
      <trkpt lat="43.49305" lon="2.20599">
        <ele>297</ele>
        <time>2019-03-30T13:44:56Z</time>
      </trkpt>
      <trkpt lat="43.49298" lon="2.20596">
        <ele>299</ele>
        <time>2019-03-30T13:44:58Z</time>
      </trkpt>
      <trkpt lat="43.49295" lon="2.20594">
        <ele>299</ele>
        <time>2019-03-30T13:44:59Z</time>
      </trkpt>
      <trkpt lat="43.49288" lon="2.2059">
        <ele>300</ele>
        <time>2019-03-30T13:45:01Z</time>
      </trkpt>
      <trkpt lat="43.49276" lon="2.20582">
        <ele>299</ele>
        <time>2019-03-30T13:45:05Z</time>
      </trkpt>
      <trkpt lat="43.49257" lon="2.20568">
        <ele>299</ele>
        <time>2019-03-30T13:45:11Z</time>
      </trkpt>
      <trkpt lat="43.49249" lon="2.20562">
        <ele>299</ele>
        <time>2019-03-30T13:45:13Z</time>
      </trkpt>
      <trkpt lat="43.49235" lon="2.20551">
        <ele>297</ele>
        <time>2019-03-30T13:45:17Z</time>
      </trkpt>
      <trkpt lat="43.49217" lon="2.2054">
        <ele>297</ele>
        <time>2019-03-30T13:45:22Z</time>
      </trkpt>
      <trkpt lat="43.49199" lon="2.20536">
        <ele>298</ele>
        <time>2019-03-30T13:45:27Z</time>
      </trkpt>
      <trkpt lat="43.49196" lon="2.20535">
        <ele>298</ele>
        <time>2019-03-30T13:45:28Z</time>
      </trkpt>
      <trkpt lat="43.49192" lon="2.20529">
        <ele>298</ele>
        <time>2019-03-30T13:45:30Z</time>
      </trkpt>
      <trkpt lat="43.49191" lon="2.20522">
        <ele>298</ele>
        <time>2019-03-30T13:45:32Z</time>
      </trkpt>
      <trkpt lat="43.49191" lon="2.20518">
        <ele>298</ele>
        <time>2019-03-30T13:45:33Z</time>
      </trkpt>
      <trkpt lat="43.49192" lon="2.20516">
        <ele>298</ele>
        <time>2019-03-30T13:45:34Z</time>
      </trkpt>
      <trkpt lat="43.49193" lon="2.20514">
        <ele>298</ele>
        <time>2019-03-30T13:45:35Z</time>
      </trkpt>
      <trkpt lat="43.49197" lon="2.20512">
        <ele>299</ele>
        <time>2019-03-30T13:45:37Z</time>
      </trkpt>
      <trkpt lat="43.492" lon="2.20512">
        <ele>299</ele>
        <time>2019-03-30T13:45:38Z</time>
      </trkpt>
      <trkpt lat="43.49206" lon="2.20512">
        <ele>300</ele>
        <time>2019-03-30T13:45:40Z</time>
      </trkpt>
      <trkpt lat="43.49212" lon="2.20513">
        <ele>300</ele>
        <time>2019-03-30T13:45:43Z</time>
      </trkpt>
      <trkpt lat="43.49214" lon="2.20513">
        <ele>301</ele>
        <time>2019-03-30T13:45:44Z</time>
      </trkpt>
      <trkpt lat="43.49219" lon="2.20514">
        <ele>302</ele>
        <time>2019-03-30T13:45:47Z</time>
      </trkpt>
      <trkpt lat="43.49221" lon="2.20515">
        <ele>302</ele>
        <time>2019-03-30T13:45:49Z</time>
      </trkpt>
      <trkpt lat="43.49226" lon="2.2052">
        <ele>303</ele>
        <time>2019-03-30T13:45:53Z</time>
      </trkpt>
      <trkpt lat="43.49228" lon="2.20522">
        <ele>304</ele>
        <time>2019-03-30T13:45:55Z</time>
      </trkpt>
      <trkpt lat="43.49229" lon="2.20523">
        <ele>305</ele>
        <time>2019-03-30T13:45:56Z</time>
      </trkpt>
      <trkpt lat="43.49233" lon="2.20527">
        <ele>306</ele>
        <time>2019-03-30T13:45:59Z</time>
      </trkpt>
      <trkpt lat="43.49234" lon="2.20528">
        <ele>306</ele>
        <time>2019-03-30T13:46:00Z</time>
      </trkpt>
      <trkpt lat="43.49239" lon="2.20532">
        <ele>308</ele>
        <time>2019-03-30T13:46:03Z</time>
      </trkpt>
      <trkpt lat="43.49241" lon="2.20534">
        <ele>308</ele>
        <time>2019-03-30T13:46:05Z</time>
      </trkpt>
      <trkpt lat="43.49242" lon="2.20535">
        <ele>309</ele>
        <time>2019-03-30T13:46:06Z</time>
      </trkpt>
      <trkpt lat="43.49244" lon="2.20536">
        <ele>309</ele>
        <time>2019-03-30T13:46:07Z</time>
      </trkpt>
      <trkpt lat="43.49249" lon="2.20539">
        <ele>309</ele>
        <time>2019-03-30T13:46:10Z</time>
      </trkpt>
      <trkpt lat="43.4925" lon="2.2054">
        <ele>310</ele>
        <time>2019-03-30T13:46:11Z</time>
      </trkpt>
      <trkpt lat="43.49256" lon="2.20543">
        <ele>311</ele>
        <time>2019-03-30T13:46:14Z</time>
      </trkpt>
      <trkpt lat="43.49261" lon="2.20546">
        <ele>313</ele>
        <time>2019-03-30T13:46:17Z</time>
      </trkpt>
      <trkpt lat="43.49265" lon="2.20547">
        <ele>314</ele>
        <time>2019-03-30T13:46:19Z</time>
      </trkpt>
      <trkpt lat="43.49271" lon="2.20548">
        <ele>315</ele>
        <time>2019-03-30T13:46:22Z</time>
      </trkpt>
      <trkpt lat="43.49273" lon="2.20548">
        <ele>315</ele>
        <time>2019-03-30T13:46:23Z</time>
      </trkpt>
      <trkpt lat="43.49284" lon="2.2055">
        <ele>316</ele>
        <time>2019-03-30T13:46:29Z</time>
      </trkpt>
      <trkpt lat="43.49291" lon="2.20542">
        <ele>316</ele>
        <time>2019-03-30T13:46:34Z</time>
      </trkpt>
      <trkpt lat="43.49291" lon="2.2054">
        <ele>316</ele>
        <time>2019-03-30T13:46:35Z</time>
      </trkpt>
      <trkpt lat="43.4929" lon="2.20536">
        <ele>317</ele>
        <time>2019-03-30T13:46:37Z</time>
      </trkpt>
      <trkpt lat="43.49289" lon="2.20532">
        <ele>317</ele>
        <time>2019-03-30T13:46:39Z</time>
      </trkpt>
      <trkpt lat="43.49284" lon="2.20519">
        <ele>318</ele>
        <time>2019-03-30T13:46:44Z</time>
      </trkpt>
      <trkpt lat="43.49283" lon="2.20514">
        <ele>318</ele>
        <time>2019-03-30T13:46:46Z</time>
      </trkpt>
      <trkpt lat="43.49276" lon="2.20497">
        <ele>319</ele>
        <time>2019-03-30T13:46:53Z</time>
      </trkpt>
      <trkpt lat="43.49272" lon="2.20484">
        <ele>320</ele>
        <time>2019-03-30T13:46:58Z</time>
      </trkpt>
      <trkpt lat="43.49271" lon="2.20481">
        <ele>321</ele>
        <time>2019-03-30T13:46:59Z</time>
      </trkpt>
      <trkpt lat="43.49267" lon="2.20471">
        <ele>321</ele>
        <time>2019-03-30T13:47:03Z</time>
      </trkpt>
      <trkpt lat="43.49264" lon="2.20466">
        <ele>322</ele>
        <time>2019-03-30T13:47:05Z</time>
      </trkpt>
      <trkpt lat="43.49252" lon="2.20452">
        <ele>322</ele>
        <time>2019-03-30T13:47:12Z</time>
      </trkpt>
      <trkpt lat="43.4925" lon="2.2045">
        <ele>323</ele>
        <time>2019-03-30T13:47:13Z</time>
      </trkpt>
      <trkpt lat="43.49245" lon="2.20444">
        <ele>323</ele>
        <time>2019-03-30T13:47:16Z</time>
      </trkpt>
      <trkpt lat="43.4924" lon="2.20436">
        <ele>324</ele>
        <time>2019-03-30T13:47:20Z</time>
      </trkpt>
      <trkpt lat="43.49239" lon="2.20434">
        <ele>324</ele>
        <time>2019-03-30T13:47:21Z</time>
      </trkpt>
      <trkpt lat="43.49236" lon="2.20428">
        <ele>325</ele>
        <time>2019-03-30T13:47:24Z</time>
      </trkpt>
      <trkpt lat="43.49233" lon="2.20423">
        <ele>326</ele>
        <time>2019-03-30T13:47:27Z</time>
      </trkpt>
      <trkpt lat="43.49232" lon="2.20419">
        <ele>326</ele>
        <time>2019-03-30T13:47:29Z</time>
      </trkpt>
      <trkpt lat="43.4923" lon="2.2041">
        <ele>327</ele>
        <time>2019-03-30T13:47:33Z</time>
      </trkpt>
      <trkpt lat="43.49229" lon="2.20403">
        <ele>328</ele>
        <time>2019-03-30T13:47:36Z</time>
      </trkpt>
      <trkpt lat="43.49229" lon="2.20398">
        <ele>328</ele>
        <time>2019-03-30T13:47:38Z</time>
      </trkpt>
      <trkpt lat="43.49229" lon="2.20387">
        <ele>329</ele>
        <time>2019-03-30T13:47:42Z</time>
      </trkpt>
      <trkpt lat="43.49229" lon="2.20384">
        <ele>330</ele>
        <time>2019-03-30T13:47:43Z</time>
      </trkpt>
      <trkpt lat="43.4923" lon="2.20381">
        <ele>330</ele>
        <time>2019-03-30T13:47:44Z</time>
      </trkpt>
      <trkpt lat="43.49232" lon="2.20376">
        <ele>331</ele>
        <time>2019-03-30T13:47:47Z</time>
      </trkpt>
      <trkpt lat="43.49234" lon="2.20368">
        <ele>332</ele>
        <time>2019-03-30T13:47:50Z</time>
      </trkpt>
      <trkpt lat="43.49235" lon="2.20366">
        <ele>332</ele>
        <time>2019-03-30T13:47:51Z</time>
      </trkpt>
      <trkpt lat="43.49237" lon="2.20361">
        <ele>333</ele>
        <time>2019-03-30T13:47:53Z</time>
      </trkpt>
      <trkpt lat="43.4924" lon="2.20353">
        <ele>334</ele>
        <time>2019-03-30T13:47:56Z</time>
      </trkpt>
      <trkpt lat="43.49243" lon="2.20345">
        <ele>335</ele>
        <time>2019-03-30T13:48:00Z</time>
      </trkpt>
      <trkpt lat="43.49244" lon="2.20343">
        <ele>335</ele>
        <time>2019-03-30T13:48:01Z</time>
      </trkpt>
      <trkpt lat="43.49246" lon="2.20336">
        <ele>336</ele>
        <time>2019-03-30T13:48:04Z</time>
      </trkpt>
      <trkpt lat="43.49247" lon="2.20334">
        <ele>336</ele>
        <time>2019-03-30T13:48:05Z</time>
      </trkpt>
      <trkpt lat="43.49251" lon="2.20319">
        <ele>337</ele>
        <time>2019-03-30T13:48:11Z</time>
      </trkpt>
      <trkpt lat="43.49251" lon="2.20314">
        <ele>338</ele>
        <time>2019-03-30T13:48:13Z</time>
      </trkpt>
      <trkpt lat="43.49252" lon="2.20305">
        <ele>338</ele>
        <time>2019-03-30T13:48:16Z</time>
      </trkpt>
      <trkpt lat="43.49252" lon="2.20297">
        <ele>339</ele>
        <time>2019-03-30T13:48:19Z</time>
      </trkpt>
      <trkpt lat="43.49254" lon="2.20291">
        <ele>339</ele>
        <time>2019-03-30T13:48:22Z</time>
      </trkpt>
      <trkpt lat="43.49254" lon="2.20288">
        <ele>339</ele>
        <time>2019-03-30T13:48:23Z</time>
      </trkpt>
      <trkpt lat="43.49255" lon="2.20287">
        <ele>340</ele>
        <time>2019-03-30T13:48:24Z</time>
      </trkpt>
      <trkpt lat="43.49258" lon="2.2028">
        <ele>340</ele>
        <time>2019-03-30T13:48:28Z</time>
      </trkpt>
      <trkpt lat="43.4926" lon="2.20269">
        <ele>341</ele>
        <time>2019-03-30T13:48:33Z</time>
      </trkpt>
      <trkpt lat="43.49261" lon="2.20267">
        <ele>342</ele>
        <time>2019-03-30T13:48:34Z</time>
      </trkpt>
      <trkpt lat="43.49263" lon="2.20257">
        <ele>343</ele>
        <time>2019-03-30T13:48:39Z</time>
      </trkpt>
      <trkpt lat="43.49269" lon="2.20243">
        <ele>344</ele>
        <time>2019-03-30T13:48:45Z</time>
      </trkpt>
      <trkpt lat="43.4927" lon="2.20235">
        <ele>345</ele>
        <time>2019-03-30T13:48:48Z</time>
      </trkpt>
      <trkpt lat="43.49271" lon="2.2023">
        <ele>345</ele>
        <time>2019-03-30T13:48:50Z</time>
      </trkpt>
      <trkpt lat="43.49272" lon="2.20223">
        <ele>346</ele>
        <time>2019-03-30T13:48:53Z</time>
      </trkpt>
      <trkpt lat="43.49274" lon="2.20216">
        <ele>347</ele>
        <time>2019-03-30T13:48:56Z</time>
      </trkpt>
      <trkpt lat="43.49275" lon="2.2021">
        <ele>347</ele>
        <time>2019-03-30T13:48:58Z</time>
      </trkpt>
      <trkpt lat="43.49276" lon="2.20204">
        <ele>348</ele>
        <time>2019-03-30T13:49:01Z</time>
      </trkpt>
      <trkpt lat="43.49277" lon="2.20202">
        <ele>348</ele>
        <time>2019-03-30T13:49:02Z</time>
      </trkpt>
      <trkpt lat="43.4928" lon="2.20193">
        <ele>349</ele>
        <time>2019-03-30T13:49:06Z</time>
      </trkpt>
      <trkpt lat="43.49282" lon="2.20189">
        <ele>349</ele>
        <time>2019-03-30T13:49:08Z</time>
      </trkpt>
      <trkpt lat="43.49285" lon="2.20186">
        <ele>350</ele>
        <time>2019-03-30T13:49:10Z</time>
      </trkpt>
      <trkpt lat="43.49286" lon="2.20181">
        <ele>350</ele>
        <time>2019-03-30T13:49:12Z</time>
      </trkpt>
      <trkpt lat="43.49287" lon="2.20179">
        <ele>350</ele>
        <time>2019-03-30T13:49:13Z</time>
      </trkpt>
      <trkpt lat="43.49288" lon="2.20174">
        <ele>351</ele>
        <time>2019-03-30T13:49:15Z</time>
      </trkpt>
      <trkpt lat="43.49291" lon="2.20167">
        <ele>351</ele>
        <time>2019-03-30T13:49:18Z</time>
      </trkpt>
      <trkpt lat="43.49292" lon="2.20165">
        <ele>351</ele>
        <time>2019-03-30T13:49:19Z</time>
      </trkpt>
      <trkpt lat="43.49297" lon="2.20155">
        <ele>352</ele>
        <time>2019-03-30T13:49:24Z</time>
      </trkpt>
      <trkpt lat="43.49297" lon="2.20153">
        <ele>352</ele>
        <time>2019-03-30T13:49:25Z</time>
      </trkpt>
      <trkpt lat="43.493" lon="2.20149">
        <ele>353</ele>
        <time>2019-03-30T13:49:28Z</time>
      </trkpt>
      <trkpt lat="43.49303" lon="2.20145">
        <ele>353</ele>
        <time>2019-03-30T13:49:30Z</time>
      </trkpt>
      <trkpt lat="43.49305" lon="2.20142">
        <ele>353</ele>
        <time>2019-03-30T13:49:31Z</time>
      </trkpt>
      <trkpt lat="43.49311" lon="2.20133">
        <ele>354</ele>
        <time>2019-03-30T13:49:35Z</time>
      </trkpt>
      <trkpt lat="43.49314" lon="2.2013">
        <ele>355</ele>
        <time>2019-03-30T13:49:37Z</time>
      </trkpt>
      <trkpt lat="43.49317" lon="2.20124">
        <ele>355</ele>
        <time>2019-03-30T13:49:40Z</time>
      </trkpt>
      <trkpt lat="43.4932" lon="2.20119">
        <ele>356</ele>
        <time>2019-03-30T13:49:43Z</time>
      </trkpt>
      <trkpt lat="43.49321" lon="2.20117">
        <ele>357</ele>
        <time>2019-03-30T13:49:44Z</time>
      </trkpt>
      <trkpt lat="43.49329" lon="2.20107">
        <ele>358</ele>
        <time>2019-03-30T13:49:49Z</time>
      </trkpt>
      <trkpt lat="43.49337" lon="2.20097">
        <ele>359</ele>
        <time>2019-03-30T13:49:54Z</time>
      </trkpt>
      <trkpt lat="43.49339" lon="2.20096">
        <ele>359</ele>
        <time>2019-03-30T13:49:55Z</time>
      </trkpt>
      <trkpt lat="43.49341" lon="2.2009">
        <ele>360</ele>
        <time>2019-03-30T13:49:59Z</time>
      </trkpt>
      <trkpt lat="43.49343" lon="2.20086">
        <ele>360</ele>
        <time>2019-03-30T13:50:01Z</time>
      </trkpt>
      <trkpt lat="43.49348" lon="2.20077">
        <ele>361</ele>
        <time>2019-03-30T13:50:06Z</time>
      </trkpt>
      <trkpt lat="43.4935" lon="2.20076">
        <ele>361</ele>
        <time>2019-03-30T13:50:07Z</time>
      </trkpt>
      <trkpt lat="43.49362" lon="2.20065">
        <ele>362</ele>
        <time>2019-03-30T13:50:14Z</time>
      </trkpt>
      <trkpt lat="43.49364" lon="2.20063">
        <ele>362</ele>
        <time>2019-03-30T13:50:15Z</time>
      </trkpt>
      <trkpt lat="43.49371" lon="2.20059">
        <ele>363</ele>
        <time>2019-03-30T13:50:19Z</time>
      </trkpt>
      <trkpt lat="43.49378" lon="2.20053">
        <ele>364</ele>
        <time>2019-03-30T13:50:22Z</time>
      </trkpt>
      <trkpt lat="43.49386" lon="2.20047">
        <ele>364</ele>
        <time>2019-03-30T13:50:26Z</time>
      </trkpt>
      <trkpt lat="43.49389" lon="2.20043">
        <ele>365</ele>
        <time>2019-03-30T13:50:28Z</time>
      </trkpt>
      <trkpt lat="43.49393" lon="2.20038">
        <ele>366</ele>
        <time>2019-03-30T13:50:30Z</time>
      </trkpt>
      <trkpt lat="43.49399" lon="2.2003">
        <ele>366</ele>
        <time>2019-03-30T13:50:34Z</time>
      </trkpt>
      <trkpt lat="43.494" lon="2.20028">
        <ele>367</ele>
        <time>2019-03-30T13:50:35Z</time>
      </trkpt>
      <trkpt lat="43.49401" lon="2.20025">
        <ele>367</ele>
        <time>2019-03-30T13:50:36Z</time>
      </trkpt>
      <trkpt lat="43.49406" lon="2.20018">
        <ele>368</ele>
        <time>2019-03-30T13:50:39Z</time>
      </trkpt>
      <trkpt lat="43.49413" lon="2.20008">
        <ele>369</ele>
        <time>2019-03-30T13:50:44Z</time>
      </trkpt>
      <trkpt lat="43.49414" lon="2.20006">
        <ele>369</ele>
        <time>2019-03-30T13:50:45Z</time>
      </trkpt>
      <trkpt lat="43.49419" lon="2.19993">
        <ele>370</ele>
        <time>2019-03-30T13:50:50Z</time>
      </trkpt>
      <trkpt lat="43.49421" lon="2.19988">
        <ele>370</ele>
        <time>2019-03-30T13:50:52Z</time>
      </trkpt>
      <trkpt lat="43.49421" lon="2.19981">
        <ele>371</ele>
        <time>2019-03-30T13:50:55Z</time>
      </trkpt>
      <trkpt lat="43.49422" lon="2.19979">
        <ele>372</ele>
        <time>2019-03-30T13:50:56Z</time>
      </trkpt>
      <trkpt lat="43.49425" lon="2.19972">
        <ele>372</ele>
        <time>2019-03-30T13:50:59Z</time>
      </trkpt>
      <trkpt lat="43.49427" lon="2.19967">
        <ele>373</ele>
        <time>2019-03-30T13:51:01Z</time>
      </trkpt>
      <trkpt lat="43.49429" lon="2.19961">
        <ele>374</ele>
        <time>2019-03-30T13:51:04Z</time>
      </trkpt>
      <trkpt lat="43.4943" lon="2.19956">
        <ele>374</ele>
        <time>2019-03-30T13:51:06Z</time>
      </trkpt>
      <trkpt lat="43.49431" lon="2.19951">
        <ele>374</ele>
        <time>2019-03-30T13:51:08Z</time>
      </trkpt>
      <trkpt lat="43.49433" lon="2.19944">
        <ele>374</ele>
        <time>2019-03-30T13:51:10Z</time>
      </trkpt>
      <trkpt lat="43.49435" lon="2.19933">
        <ele>375</ele>
        <time>2019-03-30T13:51:14Z</time>
      </trkpt>
      <trkpt lat="43.49437" lon="2.19927">
        <ele>376</ele>
        <time>2019-03-30T13:51:16Z</time>
      </trkpt>
      <trkpt lat="43.49439" lon="2.19918">
        <ele>376</ele>
        <time>2019-03-30T13:51:19Z</time>
      </trkpt>
      <trkpt lat="43.4944" lon="2.19915">
        <ele>376</ele>
        <time>2019-03-30T13:51:20Z</time>
      </trkpt>
      <trkpt lat="43.49441" lon="2.1991">
        <ele>377</ele>
        <time>2019-03-30T13:51:22Z</time>
      </trkpt>
      <trkpt lat="43.49444" lon="2.19901">
        <ele>377</ele>
        <time>2019-03-30T13:51:26Z</time>
      </trkpt>
      <trkpt lat="43.49445" lon="2.19899">
        <ele>377</ele>
        <time>2019-03-30T13:51:27Z</time>
      </trkpt>
      <trkpt lat="43.4945" lon="2.1989">
        <ele>378</ele>
        <time>2019-03-30T13:51:31Z</time>
      </trkpt>
      <trkpt lat="43.49452" lon="2.19884">
        <ele>379</ele>
        <time>2019-03-30T13:51:34Z</time>
      </trkpt>
      <trkpt lat="43.49453" lon="2.19882">
        <ele>380</ele>
        <time>2019-03-30T13:51:35Z</time>
      </trkpt>
      <trkpt lat="43.49455" lon="2.19873">
        <ele>380</ele>
        <time>2019-03-30T13:51:40Z</time>
      </trkpt>
      <trkpt lat="43.49456" lon="2.19871">
        <ele>381</ele>
        <time>2019-03-30T13:51:41Z</time>
      </trkpt>
      <trkpt lat="43.4946" lon="2.19861">
        <ele>381</ele>
        <time>2019-03-30T13:51:45Z</time>
      </trkpt>
      <trkpt lat="43.49465" lon="2.1985">
        <ele>382</ele>
        <time>2019-03-30T13:51:49Z</time>
      </trkpt>
      <trkpt lat="43.49465" lon="2.19847">
        <ele>382</ele>
        <time>2019-03-30T13:51:50Z</time>
      </trkpt>
      <trkpt lat="43.49469" lon="2.19838">
        <ele>383</ele>
        <time>2019-03-30T13:51:53Z</time>
      </trkpt>
      <trkpt lat="43.4947" lon="2.19832">
        <ele>383</ele>
        <time>2019-03-30T13:51:55Z</time>
      </trkpt>
      <trkpt lat="43.49471" lon="2.19825">
        <ele>384</ele>
        <time>2019-03-30T13:51:57Z</time>
      </trkpt>
      <trkpt lat="43.49474" lon="2.19816">
        <ele>385</ele>
        <time>2019-03-30T13:52:01Z</time>
      </trkpt>
      <trkpt lat="43.49476" lon="2.1981">
        <ele>385</ele>
        <time>2019-03-30T13:52:03Z</time>
      </trkpt>
      <trkpt lat="43.49479" lon="2.19801">
        <ele>386</ele>
        <time>2019-03-30T13:52:07Z</time>
      </trkpt>
      <trkpt lat="43.49481" lon="2.19797">
        <ele>386</ele>
        <time>2019-03-30T13:52:09Z</time>
      </trkpt>
      <trkpt lat="43.49485" lon="2.19787">
        <ele>387</ele>
        <time>2019-03-30T13:52:13Z</time>
      </trkpt>
      <trkpt lat="43.49487" lon="2.19784">
        <ele>388</ele>
        <time>2019-03-30T13:52:14Z</time>
      </trkpt>
      <trkpt lat="43.49489" lon="2.19768">
        <ele>389</ele>
        <time>2019-03-30T13:52:20Z</time>
      </trkpt>
      <trkpt lat="43.49492" lon="2.19754">
        <ele>389</ele>
        <time>2019-03-30T13:52:26Z</time>
      </trkpt>
      <trkpt lat="43.49497" lon="2.19737">
        <ele>390</ele>
        <time>2019-03-30T13:52:32Z</time>
      </trkpt>
      <trkpt lat="43.49499" lon="2.19732">
        <ele>390</ele>
        <time>2019-03-30T13:52:34Z</time>
      </trkpt>
      <trkpt lat="43.49502" lon="2.19721">
        <ele>390</ele>
        <time>2019-03-30T13:52:38Z</time>
      </trkpt>
      <trkpt lat="43.49508" lon="2.19709">
        <ele>390</ele>
        <time>2019-03-30T13:52:43Z</time>
      </trkpt>
      <trkpt lat="43.49513" lon="2.19693">
        <ele>390</ele>
        <time>2019-03-30T13:52:49Z</time>
      </trkpt>
      <trkpt lat="43.49516" lon="2.19682">
        <ele>390</ele>
        <time>2019-03-30T13:52:53Z</time>
      </trkpt>
      <trkpt lat="43.49516" lon="2.1968">
        <ele>390</ele>
        <time>2019-03-30T13:52:54Z</time>
      </trkpt>
      <trkpt lat="43.49519" lon="2.19669">
        <ele>390</ele>
        <time>2019-03-30T13:52:58Z</time>
      </trkpt>
      <trkpt lat="43.49519" lon="2.19661">
        <ele>390</ele>
        <time>2019-03-30T13:53:00Z</time>
      </trkpt>
      <trkpt lat="43.49521" lon="2.19646">
        <ele>390</ele>
        <time>2019-03-30T13:53:04Z</time>
      </trkpt>
      <trkpt lat="43.49521" lon="2.19639">
        <ele>390</ele>
        <time>2019-03-30T13:53:06Z</time>
      </trkpt>
      <trkpt lat="43.49518" lon="2.19625">
        <ele>390</ele>
        <time>2019-03-30T13:53:10Z</time>
      </trkpt>
      <trkpt lat="43.49518" lon="2.19621">
        <ele>390</ele>
        <time>2019-03-30T13:53:11Z</time>
      </trkpt>
      <trkpt lat="43.49516" lon="2.19598">
        <ele>391</ele>
        <time>2019-03-30T13:53:18Z</time>
      </trkpt>
      <trkpt lat="43.49517" lon="2.19585">
        <ele>391</ele>
        <time>2019-03-30T13:53:22Z</time>
      </trkpt>
      <trkpt lat="43.49516" lon="2.19569">
        <ele>392</ele>
        <time>2019-03-30T13:53:26Z</time>
      </trkpt>
      <trkpt lat="43.49515" lon="2.19554">
        <ele>392</ele>
        <time>2019-03-30T13:53:30Z</time>
      </trkpt>
      <trkpt lat="43.49516" lon="2.19541">
        <ele>393</ele>
        <time>2019-03-30T13:53:33Z</time>
      </trkpt>
      <trkpt lat="43.49515" lon="2.19525">
        <ele>393</ele>
        <time>2019-03-30T13:53:38Z</time>
      </trkpt>
      <trkpt lat="43.49515" lon="2.19518">
        <ele>394</ele>
        <time>2019-03-30T13:53:40Z</time>
      </trkpt>
      <trkpt lat="43.49513" lon="2.19509">
        <ele>395</ele>
        <time>2019-03-30T13:53:43Z</time>
      </trkpt>
      <trkpt lat="43.4951" lon="2.19501">
        <ele>395</ele>
        <time>2019-03-30T13:53:47Z</time>
      </trkpt>
      <trkpt lat="43.49505" lon="2.19498">
        <ele>396</ele>
        <time>2019-03-30T13:53:50Z</time>
      </trkpt>
      <trkpt lat="43.49501" lon="2.19499">
        <ele>396</ele>
        <time>2019-03-30T13:53:52Z</time>
      </trkpt>
      <trkpt lat="43.495" lon="2.19501">
        <ele>397</ele>
        <time>2019-03-30T13:53:53Z</time>
      </trkpt>
      <trkpt lat="43.49499" lon="2.19503">
        <ele>397</ele>
        <time>2019-03-30T13:53:54Z</time>
      </trkpt>
      <trkpt lat="43.49498" lon="2.19511">
        <ele>398</ele>
        <time>2019-03-30T13:53:57Z</time>
      </trkpt>
      <trkpt lat="43.49497" lon="2.19516">
        <ele>398</ele>
        <time>2019-03-30T13:53:59Z</time>
      </trkpt>
      <trkpt lat="43.49497" lon="2.19519">
        <ele>399</ele>
        <time>2019-03-30T13:54:00Z</time>
      </trkpt>
      <trkpt lat="43.49495" lon="2.19526">
        <ele>399</ele>
        <time>2019-03-30T13:54:03Z</time>
      </trkpt>
      <trkpt lat="43.49494" lon="2.19533">
        <ele>400</ele>
        <time>2019-03-30T13:54:06Z</time>
      </trkpt>
      <trkpt lat="43.49493" lon="2.19537">
        <ele>401</ele>
        <time>2019-03-30T13:54:08Z</time>
      </trkpt>
      <trkpt lat="43.49493" lon="2.19541">
        <ele>401</ele>
        <time>2019-03-30T13:54:10Z</time>
      </trkpt>
      <trkpt lat="43.49492" lon="2.19545">
        <ele>402</ele>
        <time>2019-03-30T13:54:12Z</time>
      </trkpt>
      <trkpt lat="43.49491" lon="2.19553">
        <ele>402</ele>
        <time>2019-03-30T13:54:15Z</time>
      </trkpt>
      <trkpt lat="43.4949" lon="2.19558">
        <ele>403</ele>
        <time>2019-03-30T13:54:17Z</time>
      </trkpt>
      <trkpt lat="43.49489" lon="2.19562">
        <ele>403</ele>
        <time>2019-03-30T13:54:19Z</time>
      </trkpt>
      <trkpt lat="43.49488" lon="2.19567">
        <ele>403</ele>
        <time>2019-03-30T13:54:21Z</time>
      </trkpt>
      <trkpt lat="43.49485" lon="2.19573">
        <ele>404</ele>
        <time>2019-03-30T13:54:24Z</time>
      </trkpt>
      <trkpt lat="43.49484" lon="2.19575">
        <ele>404</ele>
        <time>2019-03-30T13:54:25Z</time>
      </trkpt>
      <trkpt lat="43.49483" lon="2.19577">
        <ele>404</ele>
        <time>2019-03-30T13:54:26Z</time>
      </trkpt>
      <trkpt lat="43.49479" lon="2.19585">
        <ele>405</ele>
        <time>2019-03-30T13:54:30Z</time>
      </trkpt>
      <trkpt lat="43.49479" lon="2.19587">
        <ele>405</ele>
        <time>2019-03-30T13:54:31Z</time>
      </trkpt>
      <trkpt lat="43.49478" lon="2.19589">
        <ele>405</ele>
        <time>2019-03-30T13:54:32Z</time>
      </trkpt>
      <trkpt lat="43.49477" lon="2.19591">
        <ele>406</ele>
        <time>2019-03-30T13:54:33Z</time>
      </trkpt>
      <trkpt lat="43.49475" lon="2.19595">
        <ele>406</ele>
        <time>2019-03-30T13:54:35Z</time>
      </trkpt>
      <trkpt lat="43.49475" lon="2.19598">
        <ele>406</ele>
        <time>2019-03-30T13:54:36Z</time>
      </trkpt>
      <trkpt lat="43.49474" lon="2.196">
        <ele>407</ele>
        <time>2019-03-30T13:54:37Z</time>
      </trkpt>
      <trkpt lat="43.49469" lon="2.19608">
        <ele>407</ele>
        <time>2019-03-30T13:54:41Z</time>
      </trkpt>
      <trkpt lat="43.49465" lon="2.19623">
        <ele>408</ele>
        <time>2019-03-30T13:54:47Z</time>
      </trkpt>
      <trkpt lat="43.49464" lon="2.19627">
        <ele>408</ele>
        <time>2019-03-30T13:54:49Z</time>
      </trkpt>
      <trkpt lat="43.49462" lon="2.19634">
        <ele>409</ele>
        <time>2019-03-30T13:54:52Z</time>
      </trkpt>
      <trkpt lat="43.49461" lon="2.19636">
        <ele>410</ele>
        <time>2019-03-30T13:54:53Z</time>
      </trkpt>
      <trkpt lat="43.49456" lon="2.19646">
        <ele>411</ele>
        <time>2019-03-30T13:54:58Z</time>
      </trkpt>
      <trkpt lat="43.49454" lon="2.19654">
        <ele>412</ele>
        <time>2019-03-30T13:55:01Z</time>
      </trkpt>
      <trkpt lat="43.49451" lon="2.19658">
        <ele>412</ele>
        <time>2019-03-30T13:55:03Z</time>
      </trkpt>
      <trkpt lat="43.49449" lon="2.19665">
        <ele>412</ele>
        <time>2019-03-30T13:55:06Z</time>
      </trkpt>
      <trkpt lat="43.49446" lon="2.1967">
        <ele>413</ele>
        <time>2019-03-30T13:55:09Z</time>
      </trkpt>
      <trkpt lat="43.49446" lon="2.19672">
        <ele>413</ele>
        <time>2019-03-30T13:55:11Z</time>
      </trkpt>
      <trkpt lat="43.49445" lon="2.19673">
        <ele>414</ele>
        <time>2019-03-30T13:55:12Z</time>
      </trkpt>
      <trkpt lat="43.49443" lon="2.19681">
        <ele>414</ele>
        <time>2019-03-30T13:56:43Z</time>
      </trkpt>
      <trkpt lat="43.49441" lon="2.19684">
        <ele>415</ele>
        <time>2019-03-30T13:56:45Z</time>
      </trkpt>
      <trkpt lat="43.49435" lon="2.19691">
        <ele>415</ele>
        <time>2019-03-30T13:56:49Z</time>
      </trkpt>
      <trkpt lat="43.49434" lon="2.19692">
        <ele>416</ele>
        <time>2019-03-30T13:56:50Z</time>
      </trkpt>
      <trkpt lat="43.49426" lon="2.19701">
        <ele>417</ele>
        <time>2019-03-30T13:56:55Z</time>
      </trkpt>
      <trkpt lat="43.49424" lon="2.19703">
        <ele>417</ele>
        <time>2019-03-30T13:56:56Z</time>
      </trkpt>
      <trkpt lat="43.49419" lon="2.1971">
        <ele>418</ele>
        <time>2019-03-30T13:56:59Z</time>
      </trkpt>
      <trkpt lat="43.49413" lon="2.19716">
        <ele>418</ele>
        <time>2019-03-30T13:57:02Z</time>
      </trkpt>
      <trkpt lat="43.49408" lon="2.19724">
        <ele>419</ele>
        <time>2019-03-30T13:57:05Z</time>
      </trkpt>
      <trkpt lat="43.49401" lon="2.19735">
        <ele>420</ele>
        <time>2019-03-30T13:57:09Z</time>
      </trkpt>
      <trkpt lat="43.49398" lon="2.19736">
        <ele>420</ele>
        <time>2019-03-30T13:57:10Z</time>
      </trkpt>
      <trkpt lat="43.4939" lon="2.19746">
        <ele>421</ele>
        <time>2019-03-30T13:57:15Z</time>
      </trkpt>
      <trkpt lat="43.49389" lon="2.19749">
        <ele>421</ele>
        <time>2019-03-30T13:57:16Z</time>
      </trkpt>
      <trkpt lat="43.49382" lon="2.1976">
        <ele>422</ele>
        <time>2019-03-30T13:57:21Z</time>
      </trkpt>
      <trkpt lat="43.49375" lon="2.1977">
        <ele>423</ele>
        <time>2019-03-30T13:57:27Z</time>
      </trkpt>
      <trkpt lat="43.49368" lon="2.19776">
        <ele>425</ele>
        <time>2019-03-30T13:57:32Z</time>
      </trkpt>
      <trkpt lat="43.49367" lon="2.19777">
        <ele>425</ele>
        <time>2019-03-30T13:57:33Z</time>
      </trkpt>
      <trkpt lat="43.49364" lon="2.19781">
        <ele>425</ele>
        <time>2019-03-30T13:57:35Z</time>
      </trkpt>
      <trkpt lat="43.49363" lon="2.19782">
        <ele>426</ele>
        <time>2019-03-30T13:57:36Z</time>
      </trkpt>
      <trkpt lat="43.49361" lon="2.19783">
        <ele>426</ele>
        <time>2019-03-30T13:57:37Z</time>
      </trkpt>
      <trkpt lat="43.49355" lon="2.19789">
        <ele>427</ele>
        <time>2019-03-30T13:57:42Z</time>
      </trkpt>
      <trkpt lat="43.49351" lon="2.19791">
        <ele>427</ele>
        <time>2019-03-30T13:57:44Z</time>
      </trkpt>
      <trkpt lat="43.4935" lon="2.19792">
        <ele>428</ele>
        <time>2019-03-30T13:57:45Z</time>
      </trkpt>
      <trkpt lat="43.49346" lon="2.19796">
        <ele>428</ele>
        <time>2019-03-30T13:57:48Z</time>
      </trkpt>
      <trkpt lat="43.49343" lon="2.19799">
        <ele>428</ele>
        <time>2019-03-30T13:57:50Z</time>
      </trkpt>
      <trkpt lat="43.4934" lon="2.19804">
        <ele>428</ele>
        <time>2019-03-30T13:57:53Z</time>
      </trkpt>
      <trkpt lat="43.49339" lon="2.19806">
        <ele>429</ele>
        <time>2019-03-30T13:57:55Z</time>
      </trkpt>
      <trkpt lat="43.49337" lon="2.19807">
        <ele>429</ele>
        <time>2019-03-30T13:57:56Z</time>
      </trkpt>
      <trkpt lat="43.49335" lon="2.19815">
        <ele>430</ele>
        <time>2019-03-30T13:57:59Z</time>
      </trkpt>
      <trkpt lat="43.49333" lon="2.19823">
        <ele>431</ele>
        <time>2019-03-30T13:58:02Z</time>
      </trkpt>
      <trkpt lat="43.4933" lon="2.19826">
        <ele>431</ele>
        <time>2019-03-30T13:58:04Z</time>
      </trkpt>
      <trkpt lat="43.49326" lon="2.19834">
        <ele>432</ele>
        <time>2019-03-30T13:58:09Z</time>
      </trkpt>
      <trkpt lat="43.49323" lon="2.19838">
        <ele>432</ele>
        <time>2019-03-30T13:58:12Z</time>
      </trkpt>
      <trkpt lat="43.49316" lon="2.19843">
        <ele>433</ele>
        <time>2019-03-30T13:58:17Z</time>
      </trkpt>
      <trkpt lat="43.49307" lon="2.19852">
        <ele>433</ele>
        <time>2019-03-30T13:58:24Z</time>
      </trkpt>
      <trkpt lat="43.49306" lon="2.19853">
        <ele>433</ele>
        <time>2019-03-30T13:58:25Z</time>
      </trkpt>
      <trkpt lat="43.49302" lon="2.19858">
        <ele>435</ele>
        <time>2019-03-30T13:58:28Z</time>
      </trkpt>
      <trkpt lat="43.49299" lon="2.19861">
        <ele>435</ele>
        <time>2019-03-30T13:58:30Z</time>
      </trkpt>
      <trkpt lat="43.49298" lon="2.19864">
        <ele>436</ele>
        <time>2019-03-30T13:58:32Z</time>
      </trkpt>
      <trkpt lat="43.49294" lon="2.19872">
        <ele>436</ele>
        <time>2019-03-30T13:58:37Z</time>
      </trkpt>
      <trkpt lat="43.4929" lon="2.19876">
        <ele>437</ele>
        <time>2019-03-30T13:58:40Z</time>
      </trkpt>
      <trkpt lat="43.49287" lon="2.19881">
        <ele>438</ele>
        <time>2019-03-30T13:58:43Z</time>
      </trkpt>
      <trkpt lat="43.49286" lon="2.19884">
        <ele>438</ele>
        <time>2019-03-30T13:58:44Z</time>
      </trkpt>
      <trkpt lat="43.49284" lon="2.19888">
        <ele>438</ele>
        <time>2019-03-30T13:58:46Z</time>
      </trkpt>
      <trkpt lat="43.4928" lon="2.19891">
        <ele>439</ele>
        <time>2019-03-30T13:58:49Z</time>
      </trkpt>
      <trkpt lat="43.49275" lon="2.19896">
        <ele>439</ele>
        <time>2019-03-30T13:58:53Z</time>
      </trkpt>
      <trkpt lat="43.49274" lon="2.19897">
        <ele>439</ele>
        <time>2019-03-30T13:58:54Z</time>
      </trkpt>
      <trkpt lat="43.49272" lon="2.19899">
        <ele>439</ele>
        <time>2019-03-30T13:58:55Z</time>
      </trkpt>
      <trkpt lat="43.49268" lon="2.19904">
        <ele>440</ele>
        <time>2019-03-30T13:58:58Z</time>
      </trkpt>
      <trkpt lat="43.49266" lon="2.19907">
        <ele>440</ele>
        <time>2019-03-30T13:59:00Z</time>
      </trkpt>
      <trkpt lat="43.49265" lon="2.19909">
        <ele>440</ele>
        <time>2019-03-30T13:59:01Z</time>
      </trkpt>
      <trkpt lat="43.49259" lon="2.19917">
        <ele>441</ele>
        <time>2019-03-30T13:59:07Z</time>
      </trkpt>
      <trkpt lat="43.49254" lon="2.19929">
        <ele>441</ele>
        <time>2019-03-30T13:59:14Z</time>
      </trkpt>
      <trkpt lat="43.49251" lon="2.19936">
        <ele>441</ele>
        <time>2019-03-30T13:59:18Z</time>
      </trkpt>
      <trkpt lat="43.49248" lon="2.19944">
        <ele>443</ele>
        <time>2019-03-30T13:59:21Z</time>
      </trkpt>
      <trkpt lat="43.49247" lon="2.19945">
        <ele>443</ele>
        <time>2019-03-30T13:59:22Z</time>
      </trkpt>
      <trkpt lat="43.4924" lon="2.19959">
        <ele>444</ele>
        <time>2019-03-30T13:59:29Z</time>
      </trkpt>
      <trkpt lat="43.49237" lon="2.19962">
        <ele>444</ele>
        <time>2019-03-30T13:59:31Z</time>
      </trkpt>
      <trkpt lat="43.49233" lon="2.19971">
        <ele>445</ele>
        <time>2019-03-30T13:59:36Z</time>
      </trkpt>
      <trkpt lat="43.4923" lon="2.19977">
        <ele>445</ele>
        <time>2019-03-30T13:59:39Z</time>
      </trkpt>
      <trkpt lat="43.49225" lon="2.19984">
        <ele>445</ele>
        <time>2019-03-30T13:59:43Z</time>
      </trkpt>
      <trkpt lat="43.49221" lon="2.19991">
        <ele>446</ele>
        <time>2019-03-30T13:59:47Z</time>
      </trkpt>
      <trkpt lat="43.49217" lon="2.19996">
        <ele>446</ele>
        <time>2019-03-30T13:59:51Z</time>
      </trkpt>
      <trkpt lat="43.4921" lon="2.2">
        <ele>447</ele>
        <time>2019-03-30T13:59:56Z</time>
      </trkpt>
      <trkpt lat="43.49206" lon="2.20001">
        <ele>447</ele>
        <time>2019-03-30T13:59:58Z</time>
      </trkpt>
      <trkpt lat="43.49198" lon="2.19999">
        <ele>448</ele>
        <time>2019-03-30T14:00:04Z</time>
      </trkpt>
      <trkpt lat="43.49197" lon="2.19998">
        <ele>449</ele>
        <time>2019-03-30T14:00:05Z</time>
      </trkpt>
      <trkpt lat="43.4919" lon="2.19992">
        <ele>450</ele>
        <time>2019-03-30T14:00:11Z</time>
      </trkpt>
      <trkpt lat="43.49189" lon="2.19991">
        <ele>450</ele>
        <time>2019-03-30T14:00:12Z</time>
      </trkpt>
      <trkpt lat="43.49184" lon="2.19985">
        <ele>450</ele>
        <time>2019-03-30T14:00:18Z</time>
      </trkpt>
      <trkpt lat="43.49183" lon="2.19984">
        <ele>451</ele>
        <time>2019-03-30T14:00:19Z</time>
      </trkpt>
      <trkpt lat="43.49178" lon="2.19977">
        <ele>452</ele>
        <time>2019-03-30T14:00:24Z</time>
      </trkpt>
      <trkpt lat="43.49178" lon="2.19976">
        <ele>452</ele>
        <time>2019-03-30T14:00:25Z</time>
      </trkpt>
      <trkpt lat="43.49173" lon="2.1997">
        <ele>453</ele>
        <time>2019-03-30T14:00:30Z</time>
      </trkpt>
      <trkpt lat="43.49172" lon="2.19969">
        <ele>453</ele>
        <time>2019-03-30T14:00:31Z</time>
      </trkpt>
      <trkpt lat="43.49171" lon="2.19968">
        <ele>453</ele>
        <time>2019-03-30T14:00:32Z</time>
      </trkpt>
      <trkpt lat="43.4917" lon="2.19967">
        <ele>453</ele>
        <time>2019-03-30T14:00:33Z</time>
      </trkpt>
      <trkpt lat="43.49165" lon="2.19963">
        <ele>454</ele>
        <time>2019-03-30T14:00:37Z</time>
      </trkpt>
      <trkpt lat="43.49163" lon="2.19961">
        <ele>454</ele>
        <time>2019-03-30T14:00:39Z</time>
      </trkpt>
      <trkpt lat="43.49159" lon="2.19958">
        <ele>455</ele>
        <time>2019-03-30T14:00:43Z</time>
      </trkpt>
      <trkpt lat="43.49159" lon="2.19957">
        <ele>455</ele>
        <time>2019-03-30T14:00:44Z</time>
      </trkpt>
      <trkpt lat="43.49158" lon="2.19956">
        <ele>455</ele>
        <time>2019-03-30T14:00:45Z</time>
      </trkpt>
      <trkpt lat="43.49155" lon="2.19952">
        <ele>456</ele>
        <time>2019-03-30T14:00:48Z</time>
      </trkpt>
      <trkpt lat="43.49153" lon="2.19949">
        <ele>456</ele>
        <time>2019-03-30T14:00:50Z</time>
      </trkpt>
      <trkpt lat="43.4915" lon="2.19944">
        <ele>457</ele>
        <time>2019-03-30T14:00:54Z</time>
      </trkpt>
      <trkpt lat="43.49143" lon="2.19935">
        <ele>457</ele>
        <time>2019-03-30T14:01:00Z</time>
      </trkpt>
      <trkpt lat="43.49141" lon="2.19931">
        <ele>458</ele>
        <time>2019-03-30T14:01:02Z</time>
      </trkpt>
      <trkpt lat="43.49136" lon="2.19925">
        <ele>458</ele>
        <time>2019-03-30T14:01:06Z</time>
      </trkpt>
      <trkpt lat="43.49135" lon="2.19924">
        <ele>459</ele>
        <time>2019-03-30T14:01:07Z</time>
      </trkpt>
      <trkpt lat="43.49131" lon="2.1992">
        <ele>460</ele>
        <time>2019-03-30T14:01:11Z</time>
      </trkpt>
      <trkpt lat="43.49127" lon="2.19916">
        <ele>460</ele>
        <time>2019-03-30T14:01:14Z</time>
      </trkpt>
      <trkpt lat="43.49125" lon="2.19912">
        <ele>461</ele>
        <time>2019-03-30T14:01:17Z</time>
      </trkpt>
      <trkpt lat="43.49123" lon="2.19909">
        <ele>461</ele>
        <time>2019-03-30T14:01:19Z</time>
      </trkpt>
      <trkpt lat="43.49116" lon="2.19901">
        <ele>462</ele>
        <time>2019-03-30T14:01:24Z</time>
      </trkpt>
      <trkpt lat="43.49115" lon="2.199">
        <ele>462</ele>
        <time>2019-03-30T14:01:25Z</time>
      </trkpt>
      <trkpt lat="43.49111" lon="2.19894">
        <ele>463</ele>
        <time>2019-03-30T14:01:29Z</time>
      </trkpt>
      <trkpt lat="43.49104" lon="2.19889">
        <ele>463</ele>
        <time>2019-03-30T14:01:35Z</time>
      </trkpt>
      <trkpt lat="43.49101" lon="2.19886">
        <ele>463</ele>
        <time>2019-03-30T14:01:38Z</time>
      </trkpt>
      <trkpt lat="43.49098" lon="2.19886">
        <ele>464</ele>
        <time>2019-03-30T14:01:41Z</time>
      </trkpt>
      <trkpt lat="43.49096" lon="2.19885">
        <ele>464</ele>
        <time>2019-03-30T14:01:43Z</time>
      </trkpt>
      <trkpt lat="43.49093" lon="2.19883">
        <ele>465</ele>
        <time>2019-03-30T14:01:46Z</time>
      </trkpt>
      <trkpt lat="43.49092" lon="2.19883">
        <ele>466</ele>
        <time>2019-03-30T14:01:47Z</time>
      </trkpt>
      <trkpt lat="43.49091" lon="2.19883">
        <ele>466</ele>
        <time>2019-03-30T14:01:48Z</time>
      </trkpt>
      <trkpt lat="43.49091" lon="2.19882">
        <ele>466</ele>
        <time>2019-03-30T14:01:49Z</time>
      </trkpt>
      <trkpt lat="43.49089" lon="2.19881">
        <ele>467</ele>
        <time>2019-03-30T14:01:52Z</time>
      </trkpt>
      <trkpt lat="43.49084" lon="2.19882">
        <ele>468</ele>
        <time>2019-03-30T14:01:56Z</time>
      </trkpt>
      <trkpt lat="43.49079" lon="2.19884">
        <ele>469</ele>
        <time>2019-03-30T14:02:00Z</time>
      </trkpt>
      <trkpt lat="43.49072" lon="2.19882">
        <ele>470</ele>
        <time>2019-03-30T14:02:05Z</time>
      </trkpt>
      <trkpt lat="43.49067" lon="2.19885">
        <ele>470</ele>
        <time>2019-03-30T14:02:11Z</time>
      </trkpt>
      <trkpt lat="43.49065" lon="2.19885">
        <ele>470</ele>
        <time>2019-03-30T14:02:12Z</time>
      </trkpt>
      <trkpt lat="43.49062" lon="2.19884">
        <ele>471</ele>
        <time>2019-03-30T14:02:14Z</time>
      </trkpt>
      <trkpt lat="43.49058" lon="2.19886">
        <ele>471</ele>
        <time>2019-03-30T14:02:17Z</time>
      </trkpt>
      <trkpt lat="43.49055" lon="2.19886">
        <ele>472</ele>
        <time>2019-03-30T14:02:19Z</time>
      </trkpt>
      <trkpt lat="43.49052" lon="2.19887">
        <ele>472</ele>
        <time>2019-03-30T14:02:22Z</time>
      </trkpt>
      <trkpt lat="43.49047" lon="2.19886">
        <ele>473</ele>
        <time>2019-03-30T14:02:27Z</time>
      </trkpt>
      <trkpt lat="43.4904" lon="2.19888">
        <ele>474</ele>
        <time>2019-03-30T14:02:32Z</time>
      </trkpt>
      <trkpt lat="43.49038" lon="2.19889">
        <ele>474</ele>
        <time>2019-03-30T14:02:34Z</time>
      </trkpt>
      <trkpt lat="43.4903" lon="2.19892">
        <ele>475</ele>
        <time>2019-03-30T14:02:40Z</time>
      </trkpt>
      <trkpt lat="43.49027" lon="2.19893">
        <ele>475</ele>
        <time>2019-03-30T14:02:42Z</time>
      </trkpt>
      <trkpt lat="43.4902" lon="2.19895">
        <ele>476</ele>
        <time>2019-03-30T14:02:46Z</time>
      </trkpt>
      <trkpt lat="43.49014" lon="2.19897">
        <ele>477</ele>
        <time>2019-03-30T14:02:50Z</time>
      </trkpt>
      <trkpt lat="43.49008" lon="2.19901">
        <ele>477</ele>
        <time>2019-03-30T14:02:54Z</time>
      </trkpt>
      <trkpt lat="43.49003" lon="2.19903">
        <ele>478</ele>
        <time>2019-03-30T14:02:57Z</time>
      </trkpt>
      <trkpt lat="43.48998" lon="2.19904">
        <ele>478</ele>
        <time>2019-03-30T14:03:00Z</time>
      </trkpt>
      <trkpt lat="43.48989" lon="2.19908">
        <ele>479</ele>
        <time>2019-03-30T14:03:05Z</time>
      </trkpt>
      <trkpt lat="43.48977" lon="2.19916">
        <ele>480</ele>
        <time>2019-03-30T14:03:11Z</time>
      </trkpt>
      <trkpt lat="43.48974" lon="2.1992">
        <ele>480</ele>
        <time>2019-03-30T14:03:13Z</time>
      </trkpt>
      <trkpt lat="43.48965" lon="2.19925">
        <ele>481</ele>
        <time>2019-03-30T14:03:19Z</time>
      </trkpt>
      <trkpt lat="43.48959" lon="2.19927">
        <ele>481</ele>
        <time>2019-03-30T14:03:22Z</time>
      </trkpt>
      <trkpt lat="43.48955" lon="2.19932">
        <ele>482</ele>
        <time>2019-03-30T14:03:25Z</time>
      </trkpt>
      <trkpt lat="43.48952" lon="2.19936">
        <ele>483</ele>
        <time>2019-03-30T14:03:27Z</time>
      </trkpt>
      <trkpt lat="43.48946" lon="2.19945">
        <ele>483</ele>
        <time>2019-03-30T14:03:32Z</time>
      </trkpt>
      <trkpt lat="43.48943" lon="2.19947">
        <ele>484</ele>
        <time>2019-03-30T14:03:34Z</time>
      </trkpt>
      <trkpt lat="43.48938" lon="2.19951">
        <ele>484</ele>
        <time>2019-03-30T14:03:38Z</time>
      </trkpt>
      <trkpt lat="43.48933" lon="2.19955">
        <ele>485</ele>
        <time>2019-03-30T14:03:42Z</time>
      </trkpt>
      <trkpt lat="43.48931" lon="2.19955">
        <ele>485</ele>
        <time>2019-03-30T14:03:43Z</time>
      </trkpt>
      <trkpt lat="43.48925" lon="2.19961">
        <ele>486</ele>
        <time>2019-03-30T14:03:47Z</time>
      </trkpt>
      <trkpt lat="43.4892" lon="2.19963">
        <ele>487</ele>
        <time>2019-03-30T14:03:50Z</time>
      </trkpt>
      <trkpt lat="43.48907" lon="2.19968">
        <ele>487</ele>
        <time>2019-03-30T14:03:55Z</time>
      </trkpt>
      <trkpt lat="43.48905" lon="2.19969">
        <ele>488</ele>
        <time>2019-03-30T14:03:56Z</time>
      </trkpt>
      <trkpt lat="43.48902" lon="2.19971">
        <ele>488</ele>
        <time>2019-03-30T14:03:58Z</time>
      </trkpt>
      <trkpt lat="43.48896" lon="2.19974">
        <ele>489</ele>
        <time>2019-03-30T14:04:01Z</time>
      </trkpt>
      <trkpt lat="43.48889" lon="2.19978">
        <ele>489</ele>
        <time>2019-03-30T14:04:05Z</time>
      </trkpt>
      <trkpt lat="43.48888" lon="2.19979">
        <ele>490</ele>
        <time>2019-03-30T14:04:06Z</time>
      </trkpt>
      <trkpt lat="43.48877" lon="2.19985">
        <ele>490</ele>
        <time>2019-03-30T14:04:12Z</time>
      </trkpt>
      <trkpt lat="43.48875" lon="2.19986">
        <ele>491</ele>
        <time>2019-03-30T14:04:13Z</time>
      </trkpt>
      <trkpt lat="43.48865" lon="2.1999">
        <ele>492</ele>
        <time>2019-03-30T14:04:19Z</time>
      </trkpt>
      <trkpt lat="43.48856" lon="2.19996">
        <ele>493</ele>
        <time>2019-03-30T14:04:25Z</time>
      </trkpt>
      <trkpt lat="43.48854" lon="2.19997">
        <ele>493</ele>
        <time>2019-03-30T14:04:26Z</time>
      </trkpt>
      <trkpt lat="43.48847" lon="2.20004">
        <ele>493</ele>
        <time>2019-03-30T14:04:32Z</time>
      </trkpt>
      <trkpt lat="43.48846" lon="2.20005">
        <ele>493</ele>
        <time>2019-03-30T14:04:33Z</time>
      </trkpt>
      <trkpt lat="43.48841" lon="2.20008">
        <ele>494</ele>
        <time>2019-03-30T14:04:36Z</time>
      </trkpt>
      <trkpt lat="43.48839" lon="2.2001">
        <ele>494</ele>
        <time>2019-03-30T14:04:38Z</time>
      </trkpt>
      <trkpt lat="43.4883" lon="2.2001">
        <ele>495</ele>
        <time>2019-03-30T14:04:42Z</time>
      </trkpt>
      <trkpt lat="43.48822" lon="2.20015">
        <ele>495</ele>
        <time>2019-03-30T14:04:46Z</time>
      </trkpt>
      <trkpt lat="43.4882" lon="2.20015">
        <ele>496</ele>
        <time>2019-03-30T14:04:47Z</time>
      </trkpt>
      <trkpt lat="43.48815" lon="2.20015">
        <ele>496</ele>
        <time>2019-03-30T14:04:49Z</time>
      </trkpt>
      <trkpt lat="43.48806" lon="2.20014">
        <ele>497</ele>
        <time>2019-03-30T14:04:53Z</time>
      </trkpt>
      <trkpt lat="43.48801" lon="2.20013">
        <ele>498</ele>
        <time>2019-03-30T14:04:55Z</time>
      </trkpt>
      <trkpt lat="43.4879" lon="2.20013">
        <ele>498</ele>
        <time>2019-03-30T14:05:00Z</time>
      </trkpt>
      <trkpt lat="43.48782" lon="2.20012">
        <ele>499</ele>
        <time>2019-03-30T14:05:04Z</time>
      </trkpt>
      <trkpt lat="43.48776" lon="2.20011">
        <ele>499</ele>
        <time>2019-03-30T14:05:07Z</time>
      </trkpt>
      <trkpt lat="43.48764" lon="2.20013">
        <ele>498</ele>
        <time>2019-03-30T14:05:12Z</time>
      </trkpt>
      <trkpt lat="43.4876" lon="2.20019">
        <ele>497</ele>
        <time>2019-03-30T14:05:15Z</time>
      </trkpt>
      <trkpt lat="43.48759" lon="2.20021">
        <ele>497</ele>
        <time>2019-03-30T14:05:16Z</time>
      </trkpt>
      <trkpt lat="43.48759" lon="2.20026">
        <ele>497</ele>
        <time>2019-03-30T14:05:17Z</time>
      </trkpt>
      <trkpt lat="43.48761" lon="2.20044">
        <ele>496</ele>
        <time>2019-03-30T14:05:20Z</time>
      </trkpt>
      <trkpt lat="43.48761" lon="2.20053">
        <ele>496</ele>
        <time>2019-03-30T14:05:21Z</time>
      </trkpt>
      <trkpt lat="43.48756" lon="2.20076">
        <ele>496</ele>
        <time>2019-03-30T14:05:24Z</time>
      </trkpt>
      <trkpt lat="43.48751" lon="2.20093">
        <ele>496</ele>
        <time>2019-03-30T14:05:28Z</time>
      </trkpt>
      <trkpt lat="43.48746" lon="2.20106">
        <ele>498</ele>
        <time>2019-03-30T14:05:32Z</time>
      </trkpt>
      <trkpt lat="43.48742" lon="2.20118">
        <ele>498</ele>
        <time>2019-03-30T14:05:36Z</time>
      </trkpt>
      <trkpt lat="43.4874" lon="2.20123">
        <ele>499</ele>
        <time>2019-03-30T14:05:38Z</time>
      </trkpt>
      <trkpt lat="43.48737" lon="2.20131">
        <ele>500</ele>
        <time>2019-03-30T14:05:41Z</time>
      </trkpt>
      <trkpt lat="43.48735" lon="2.20138">
        <ele>500</ele>
        <time>2019-03-30T14:05:44Z</time>
      </trkpt>
      <trkpt lat="43.48735" lon="2.20142">
        <ele>500</ele>
        <time>2019-03-30T14:05:46Z</time>
      </trkpt>
      <trkpt lat="43.48733" lon="2.20144">
        <ele>500</ele>
        <time>2019-03-30T14:05:47Z</time>
      </trkpt>
      <trkpt lat="43.4873" lon="2.20152">
        <ele>501</ele>
        <time>2019-03-30T14:05:51Z</time>
      </trkpt>
      <trkpt lat="43.48729" lon="2.20155">
        <ele>501</ele>
        <time>2019-03-30T14:05:52Z</time>
      </trkpt>
      <trkpt lat="43.48721" lon="2.20166">
        <ele>502</ele>
        <time>2019-03-30T14:05:57Z</time>
      </trkpt>
      <trkpt lat="43.4872" lon="2.20168">
        <ele>503</ele>
        <time>2019-03-30T14:05:58Z</time>
      </trkpt>
      <trkpt lat="43.48717" lon="2.20172">
        <ele>503</ele>
        <time>2019-03-30T14:06:00Z</time>
      </trkpt>
      <trkpt lat="43.48714" lon="2.20177">
        <ele>503</ele>
        <time>2019-03-30T14:06:03Z</time>
      </trkpt>
      <trkpt lat="43.48709" lon="2.20184">
        <ele>504</ele>
        <time>2019-03-30T14:06:07Z</time>
      </trkpt>
      <trkpt lat="43.48707" lon="2.20187">
        <ele>504</ele>
        <time>2019-03-30T14:06:09Z</time>
      </trkpt>
      <trkpt lat="43.48704" lon="2.20189">
        <ele>505</ele>
        <time>2019-03-30T14:06:11Z</time>
      </trkpt>
      <trkpt lat="43.487" lon="2.20196">
        <ele>506</ele>
        <time>2019-03-30T14:06:16Z</time>
      </trkpt>
      <trkpt lat="43.48699" lon="2.20197">
        <ele>506</ele>
        <time>2019-03-30T14:06:17Z</time>
      </trkpt>
      <trkpt lat="43.48688" lon="2.2021">
        <ele>507</ele>
        <time>2019-03-30T14:06:26Z</time>
      </trkpt>
      <trkpt lat="43.48687" lon="2.20211">
        <ele>507</ele>
        <time>2019-03-30T14:06:27Z</time>
      </trkpt>
      <trkpt lat="43.48675" lon="2.20221">
        <ele>508</ele>
        <time>2019-03-30T14:06:36Z</time>
      </trkpt>
      <trkpt lat="43.48674" lon="2.20221">
        <ele>508</ele>
        <time>2019-03-30T14:06:37Z</time>
      </trkpt>
      <trkpt lat="43.48671" lon="2.20223">
        <ele>510</ele>
        <time>2019-03-30T14:06:39Z</time>
      </trkpt>
      <trkpt lat="43.48663" lon="2.20224">
        <ele>510</ele>
        <time>2019-03-30T14:06:44Z</time>
      </trkpt>
      <trkpt lat="43.48654" lon="2.20227">
        <ele>511</ele>
        <time>2019-03-30T14:06:50Z</time>
      </trkpt>
      <trkpt lat="43.4865" lon="2.20228">
        <ele>512</ele>
        <time>2019-03-30T14:06:52Z</time>
      </trkpt>
      <trkpt lat="43.48634" lon="2.20228">
        <ele>513</ele>
        <time>2019-03-30T14:07:00Z</time>
      </trkpt>
      <trkpt lat="43.48623" lon="2.20233">
        <ele>514</ele>
        <time>2019-03-30T14:07:06Z</time>
      </trkpt>
      <trkpt lat="43.4862" lon="2.20235">
        <ele>514</ele>
        <time>2019-03-30T14:07:08Z</time>
      </trkpt>
      <trkpt lat="43.48616" lon="2.20239">
        <ele>515</ele>
        <time>2019-03-30T14:07:11Z</time>
      </trkpt>
      <trkpt lat="43.48612" lon="2.20243">
        <ele>515</ele>
        <time>2019-03-30T14:07:14Z</time>
      </trkpt>
      <trkpt lat="43.48609" lon="2.20248">
        <ele>516</ele>
        <time>2019-03-30T14:07:17Z</time>
      </trkpt>
      <trkpt lat="43.48604" lon="2.20254">
        <ele>517</ele>
        <time>2019-03-30T14:07:21Z</time>
      </trkpt>
      <trkpt lat="43.48598" lon="2.20262">
        <ele>518</ele>
        <time>2019-03-30T14:07:26Z</time>
      </trkpt>
      <trkpt lat="43.48596" lon="2.20264">
        <ele>518</ele>
        <time>2019-03-30T14:07:27Z</time>
      </trkpt>
      <trkpt lat="43.48587" lon="2.20276">
        <ele>518</ele>
        <time>2019-03-30T14:07:33Z</time>
      </trkpt>
      <trkpt lat="43.48581" lon="2.20283">
        <ele>519</ele>
        <time>2019-03-30T14:07:38Z</time>
      </trkpt>
      <trkpt lat="43.48579" lon="2.20284">
        <ele>519</ele>
        <time>2019-03-30T14:07:39Z</time>
      </trkpt>
      <trkpt lat="43.48571" lon="2.20286">
        <ele>519</ele>
        <time>2019-03-30T14:07:44Z</time>
      </trkpt>
      <trkpt lat="43.48566" lon="2.20287">
        <ele>520</ele>
        <time>2019-03-30T14:07:47Z</time>
      </trkpt>
      <trkpt lat="43.48561" lon="2.20286">
        <ele>521</ele>
        <time>2019-03-30T14:07:50Z</time>
      </trkpt>
      <trkpt lat="43.48556" lon="2.20286">
        <ele>521</ele>
        <time>2019-03-30T14:07:53Z</time>
      </trkpt>
      <trkpt lat="43.48551" lon="2.20288">
        <ele>522</ele>
        <time>2019-03-30T14:07:56Z</time>
      </trkpt>
      <trkpt lat="43.48549" lon="2.20289">
        <ele>522</ele>
        <time>2019-03-30T14:07:57Z</time>
      </trkpt>
      <trkpt lat="43.48537" lon="2.20298">
        <ele>522</ele>
        <time>2019-03-30T14:08:04Z</time>
      </trkpt>
      <trkpt lat="43.48529" lon="2.20307">
        <ele>523</ele>
        <time>2019-03-30T14:08:11Z</time>
      </trkpt>
      <trkpt lat="43.48527" lon="2.20308">
        <ele>524</ele>
        <time>2019-03-30T14:08:15Z</time>
      </trkpt>
      <trkpt lat="43.48525" lon="2.20309">
        <ele>520</ele>
        <time>2019-03-30T14:10:32Z</time>
      </trkpt>
      <trkpt lat="43.48524" lon="2.2031">
        <ele>526</ele>
        <time>2019-03-30T14:10:33Z</time>
      </trkpt>
      <trkpt lat="43.48524" lon="2.20311">
        <ele>526</ele>
        <time>2019-03-30T14:10:34Z</time>
      </trkpt>
      <trkpt lat="43.48517" lon="2.20316">
        <ele>526</ele>
        <time>2019-03-30T14:10:38Z</time>
      </trkpt>
      <trkpt lat="43.48515" lon="2.20317">
        <ele>526</ele>
        <time>2019-03-30T14:10:39Z</time>
      </trkpt>
      <trkpt lat="43.48508" lon="2.20323">
        <ele>525</ele>
        <time>2019-03-30T14:10:42Z</time>
      </trkpt>
      <trkpt lat="43.48504" lon="2.20325">
        <ele>524</ele>
        <time>2019-03-30T14:10:44Z</time>
      </trkpt>
      <trkpt lat="43.48502" lon="2.20326">
        <ele>524</ele>
        <time>2019-03-30T14:10:45Z</time>
      </trkpt>
      <trkpt lat="43.48489" lon="2.20331">
        <ele>524</ele>
        <time>2019-03-30T14:10:50Z</time>
      </trkpt>
      <trkpt lat="43.48482" lon="2.20332">
        <ele>525</ele>
        <time>2019-03-30T14:10:52Z</time>
      </trkpt>
      <trkpt lat="43.48472" lon="2.20333">
        <ele>525</ele>
        <time>2019-03-30T14:10:55Z</time>
      </trkpt>
      <trkpt lat="43.48461" lon="2.20332">
        <ele>524</ele>
        <time>2019-03-30T14:10:59Z</time>
      </trkpt>
      <trkpt lat="43.48458" lon="2.20331">
        <ele>524</ele>
        <time>2019-03-30T14:11:00Z</time>
      </trkpt>
      <trkpt lat="43.48448" lon="2.20328">
        <ele>524</ele>
        <time>2019-03-30T14:11:03Z</time>
      </trkpt>
      <trkpt lat="43.48438" lon="2.20324">
        <ele>525</ele>
        <time>2019-03-30T14:11:06Z</time>
      </trkpt>
      <trkpt lat="43.48431" lon="2.20322">
        <ele>525</ele>
        <time>2019-03-30T14:11:08Z</time>
      </trkpt>
      <trkpt lat="43.48415" lon="2.20315">
        <ele>524</ele>
        <time>2019-03-30T14:11:13Z</time>
      </trkpt>
      <trkpt lat="43.48403" lon="2.20304">
        <ele>525</ele>
        <time>2019-03-30T14:11:18Z</time>
      </trkpt>
      <trkpt lat="43.48389" lon="2.203">
        <ele>525</ele>
        <time>2019-03-30T14:11:23Z</time>
      </trkpt>
      <trkpt lat="43.48384" lon="2.203">
        <ele>526</ele>
        <time>2019-03-30T14:11:25Z</time>
      </trkpt>
      <trkpt lat="43.48378" lon="2.20304">
        <ele>526</ele>
        <time>2019-03-30T14:11:28Z</time>
      </trkpt>
      <trkpt lat="43.48364" lon="2.20312">
        <ele>526</ele>
        <time>2019-03-30T14:11:34Z</time>
      </trkpt>
      <trkpt lat="43.48349" lon="2.20322">
        <ele>526</ele>
        <time>2019-03-30T14:11:40Z</time>
      </trkpt>
      <trkpt lat="43.48335" lon="2.20331">
        <ele>526</ele>
        <time>2019-03-30T14:11:45Z</time>
      </trkpt>
      <trkpt lat="43.48324" lon="2.20339">
        <ele>527</ele>
        <time>2019-03-30T14:11:49Z</time>
      </trkpt>
      <trkpt lat="43.48318" lon="2.20343">
        <ele>527</ele>
        <time>2019-03-30T14:11:51Z</time>
      </trkpt>
      <trkpt lat="43.48303" lon="2.20356">
        <ele>527</ele>
        <time>2019-03-30T14:11:56Z</time>
      </trkpt>
      <trkpt lat="43.48298" lon="2.2036">
        <ele>527</ele>
        <time>2019-03-30T14:11:58Z</time>
      </trkpt>
      <trkpt lat="43.48287" lon="2.20367">
        <ele>528</ele>
        <time>2019-03-30T14:12:02Z</time>
      </trkpt>
      <trkpt lat="43.48264" lon="2.20371">
        <ele>527</ele>
        <time>2019-03-30T14:12:08Z</time>
      </trkpt>
      <trkpt lat="43.48245" lon="2.20371">
        <ele>526</ele>
        <time>2019-03-30T14:12:12Z</time>
      </trkpt>
      <trkpt lat="43.48241" lon="2.20371">
        <ele>526</ele>
        <time>2019-03-30T14:12:13Z</time>
      </trkpt>
      <trkpt lat="43.48228" lon="2.20372">
        <ele>525</ele>
        <time>2019-03-30T14:12:16Z</time>
      </trkpt>
      <trkpt lat="43.48224" lon="2.20371">
        <ele>525</ele>
        <time>2019-03-30T14:12:17Z</time>
      </trkpt>
      <trkpt lat="43.4822" lon="2.20371">
        <ele>525</ele>
        <time>2019-03-30T14:12:18Z</time>
      </trkpt>
      <trkpt lat="43.48212" lon="2.20372">
        <ele>524</ele>
        <time>2019-03-30T14:12:20Z</time>
      </trkpt>
      <trkpt lat="43.48199" lon="2.20374">
        <ele>524</ele>
        <time>2019-03-30T14:12:23Z</time>
      </trkpt>
      <trkpt lat="43.48179" lon="2.20378">
        <ele>524</ele>
        <time>2019-03-30T14:12:28Z</time>
      </trkpt>
      <trkpt lat="43.48152" lon="2.20375">
        <ele>524</ele>
        <time>2019-03-30T14:12:34Z</time>
      </trkpt>
      <trkpt lat="43.48127" lon="2.20366">
        <ele>524</ele>
        <time>2019-03-30T14:12:40Z</time>
      </trkpt>
      <trkpt lat="43.4811" lon="2.2035">
        <ele>524</ele>
        <time>2019-03-30T14:12:46Z</time>
      </trkpt>
      <trkpt lat="43.48093" lon="2.20331">
        <ele>523</ele>
        <time>2019-03-30T14:12:52Z</time>
      </trkpt>
      <trkpt lat="43.48076" lon="2.20317">
        <ele>524</ele>
        <time>2019-03-30T14:12:57Z</time>
      </trkpt>
      <trkpt lat="43.48072" lon="2.20315">
        <ele>525</ele>
        <time>2019-03-30T14:12:58Z</time>
      </trkpt>
      <trkpt lat="43.48057" lon="2.20304">
        <ele>526</ele>
        <time>2019-03-30T14:13:03Z</time>
      </trkpt>
      <trkpt lat="43.4805" lon="2.20297">
        <ele>527</ele>
        <time>2019-03-30T14:13:06Z</time>
      </trkpt>
      <trkpt lat="43.48046" lon="2.20292">
        <ele>527</ele>
        <time>2019-03-30T14:13:08Z</time>
      </trkpt>
      <trkpt lat="43.48044" lon="2.20289">
        <ele>527</ele>
        <time>2019-03-30T14:13:09Z</time>
      </trkpt>
      <trkpt lat="43.48037" lon="2.20278">
        <ele>528</ele>
        <time>2019-03-30T14:13:13Z</time>
      </trkpt>
      <trkpt lat="43.48036" lon="2.20275">
        <ele>528</ele>
        <time>2019-03-30T14:13:14Z</time>
      </trkpt>
      <trkpt lat="43.48032" lon="2.20271">
        <ele>529</ele>
        <time>2019-03-30T14:13:16Z</time>
      </trkpt>
      <trkpt lat="43.48023" lon="2.20265">
        <ele>530</ele>
        <time>2019-03-30T14:13:19Z</time>
      </trkpt>
      <trkpt lat="43.4802" lon="2.20263">
        <ele>530</ele>
        <time>2019-03-30T14:13:20Z</time>
      </trkpt>
      <trkpt lat="43.48002" lon="2.20257">
        <ele>531</ele>
        <time>2019-03-30T14:13:25Z</time>
      </trkpt>
      <trkpt lat="43.47996" lon="2.20255">
        <ele>531</ele>
        <time>2019-03-30T14:13:27Z</time>
      </trkpt>
      <trkpt lat="43.47987" lon="2.20251">
        <ele>532</ele>
        <time>2019-03-30T14:13:30Z</time>
      </trkpt>
      <trkpt lat="43.47985" lon="2.2025">
        <ele>533</ele>
        <time>2019-03-30T14:13:31Z</time>
      </trkpt>
      <trkpt lat="43.47981" lon="2.20248">
        <ele>534</ele>
        <time>2019-03-30T14:13:33Z</time>
      </trkpt>
      <trkpt lat="43.47975" lon="2.20244">
        <ele>535</ele>
        <time>2019-03-30T14:13:36Z</time>
      </trkpt>
      <trkpt lat="43.47974" lon="2.20242">
        <ele>535</ele>
        <time>2019-03-30T14:13:37Z</time>
      </trkpt>
      <trkpt lat="43.47962" lon="2.20229">
        <ele>536</ele>
        <time>2019-03-30T14:13:43Z</time>
      </trkpt>
      <trkpt lat="43.47957" lon="2.20224">
        <ele>536</ele>
        <time>2019-03-30T14:13:45Z</time>
      </trkpt>
      <trkpt lat="43.47949" lon="2.20217">
        <ele>538</ele>
        <time>2019-03-30T14:13:48Z</time>
      </trkpt>
      <trkpt lat="43.47938" lon="2.2021">
        <ele>539</ele>
        <time>2019-03-30T14:13:52Z</time>
      </trkpt>
      <trkpt lat="43.47928" lon="2.20205">
        <ele>539</ele>
        <time>2019-03-30T14:13:55Z</time>
      </trkpt>
      <trkpt lat="43.47911" lon="2.20199">
        <ele>539</ele>
        <time>2019-03-30T14:14:01Z</time>
      </trkpt>
      <trkpt lat="43.47897" lon="2.2021">
        <ele>539</ele>
        <time>2019-03-30T14:14:06Z</time>
      </trkpt>
      <trkpt lat="43.47887" lon="2.20229">
        <ele>540</ele>
        <time>2019-03-30T14:14:11Z</time>
      </trkpt>
      <trkpt lat="43.47877" lon="2.2025">
        <ele>540</ele>
        <time>2019-03-30T14:14:16Z</time>
      </trkpt>
      <trkpt lat="43.47863" lon="2.2026">
        <ele>539</ele>
        <time>2019-03-30T14:14:20Z</time>
      </trkpt>
      <trkpt lat="43.47848" lon="2.20253">
        <ele>538</ele>
        <time>2019-03-30T14:14:25Z</time>
      </trkpt>
      <trkpt lat="43.47843" lon="2.20248">
        <ele>538</ele>
        <time>2019-03-30T14:14:27Z</time>
      </trkpt>
      <trkpt lat="43.47836" lon="2.20241">
        <ele>538</ele>
        <time>2019-03-30T14:14:30Z</time>
      </trkpt>
      <trkpt lat="43.47831" lon="2.20237">
        <ele>538</ele>
        <time>2019-03-30T14:14:32Z</time>
      </trkpt>
      <trkpt lat="43.47825" lon="2.20233">
        <ele>537</ele>
        <time>2019-03-30T14:14:34Z</time>
      </trkpt>
      <trkpt lat="43.47817" lon="2.20231">
        <ele>537</ele>
        <time>2019-03-30T14:14:36Z</time>
      </trkpt>
      <trkpt lat="43.47805" lon="2.20231">
        <ele>537</ele>
        <time>2019-03-30T14:14:39Z</time>
      </trkpt>
      <trkpt lat="43.47787" lon="2.20235">
        <ele>537</ele>
        <time>2019-03-30T14:14:44Z</time>
      </trkpt>
      <trkpt lat="43.47776" lon="2.20235">
        <ele>537</ele>
        <time>2019-03-30T14:14:47Z</time>
      </trkpt>
      <trkpt lat="43.47759" lon="2.20233">
        <ele>536</ele>
        <time>2019-03-30T14:14:51Z</time>
      </trkpt>
      <trkpt lat="43.47755" lon="2.20232">
        <ele>536</ele>
        <time>2019-03-30T14:14:52Z</time>
      </trkpt>
      <trkpt lat="43.4774" lon="2.20224">
        <ele>537</ele>
        <time>2019-03-30T14:14:56Z</time>
      </trkpt>
      <trkpt lat="43.47733" lon="2.20221">
        <ele>538</ele>
        <time>2019-03-30T14:14:58Z</time>
      </trkpt>
      <trkpt lat="43.47729" lon="2.2022">
        <ele>538</ele>
        <time>2019-03-30T14:14:59Z</time>
      </trkpt>
      <trkpt lat="43.47717" lon="2.2022">
        <ele>539</ele>
        <time>2019-03-30T14:15:02Z</time>
      </trkpt>
      <trkpt lat="43.47713" lon="2.20221">
        <ele>539</ele>
        <time>2019-03-30T14:15:03Z</time>
      </trkpt>
      <trkpt lat="43.47692" lon="2.20232">
        <ele>541</ele>
        <time>2019-03-30T14:15:09Z</time>
      </trkpt>
      <trkpt lat="43.47689" lon="2.20234">
        <ele>541</ele>
        <time>2019-03-30T14:15:10Z</time>
      </trkpt>
      <trkpt lat="43.4767" lon="2.20246">
        <ele>541</ele>
        <time>2019-03-30T14:15:16Z</time>
      </trkpt>
      <trkpt lat="43.47658" lon="2.20253">
        <ele>542</ele>
        <time>2019-03-30T14:15:20Z</time>
      </trkpt>
      <trkpt lat="43.4765" lon="2.2026">
        <ele>541</ele>
        <time>2019-03-30T14:15:23Z</time>
      </trkpt>
      <trkpt lat="43.4764" lon="2.20268">
        <ele>542</ele>
        <time>2019-03-30T14:15:27Z</time>
      </trkpt>
      <trkpt lat="43.47634" lon="2.20273">
        <ele>543</ele>
        <time>2019-03-30T14:15:29Z</time>
      </trkpt>
      <trkpt lat="43.47629" lon="2.20277">
        <ele>545</ele>
        <time>2019-03-30T14:15:31Z</time>
      </trkpt>
      <trkpt lat="43.47623" lon="2.20279">
        <ele>546</ele>
        <time>2019-03-30T14:15:33Z</time>
      </trkpt>
      <trkpt lat="43.47617" lon="2.2028">
        <ele>546</ele>
        <time>2019-03-30T14:15:35Z</time>
      </trkpt>
      <trkpt lat="43.47604" lon="2.20279">
        <ele>545</ele>
        <time>2019-03-30T14:15:39Z</time>
      </trkpt>
      <trkpt lat="43.47592" lon="2.20276">
        <ele>546</ele>
        <time>2019-03-30T14:15:43Z</time>
      </trkpt>
      <trkpt lat="43.47582" lon="2.20274">
        <ele>547</ele>
        <time>2019-03-30T14:15:46Z</time>
      </trkpt>
      <trkpt lat="43.47569" lon="2.20271">
        <ele>548</ele>
        <time>2019-03-30T14:15:50Z</time>
      </trkpt>
      <trkpt lat="43.47556" lon="2.20268">
        <ele>549</ele>
        <time>2019-03-30T14:15:54Z</time>
      </trkpt>
      <trkpt lat="43.47553" lon="2.20267">
        <ele>549</ele>
        <time>2019-03-30T14:15:55Z</time>
      </trkpt>
      <trkpt lat="43.47542" lon="2.20261">
        <ele>550</ele>
        <time>2019-03-30T14:15:58Z</time>
      </trkpt>
      <trkpt lat="43.47537" lon="2.20255">
        <ele>551</ele>
        <time>2019-03-30T14:16:00Z</time>
      </trkpt>
      <trkpt lat="43.47531" lon="2.20246">
        <ele>551</ele>
        <time>2019-03-30T14:16:04Z</time>
      </trkpt>
      <trkpt lat="43.47529" lon="2.20245">
        <ele>552</ele>
        <time>2019-03-30T14:16:05Z</time>
      </trkpt>
      <trkpt lat="43.47527" lon="2.20243">
        <ele>552</ele>
        <time>2019-03-30T14:16:06Z</time>
      </trkpt>
      <trkpt lat="43.47523" lon="2.20239">
        <ele>553</ele>
        <time>2019-03-30T14:16:08Z</time>
      </trkpt>
      <trkpt lat="43.47521" lon="2.20238">
        <ele>553</ele>
        <time>2019-03-30T14:16:09Z</time>
      </trkpt>
      <trkpt lat="43.4751" lon="2.2023">
        <ele>554</ele>
        <time>2019-03-30T14:16:13Z</time>
      </trkpt>
      <trkpt lat="43.47506" lon="2.20228">
        <ele>554</ele>
        <time>2019-03-30T14:16:15Z</time>
      </trkpt>
      <trkpt lat="43.47493" lon="2.20222">
        <ele>554</ele>
        <time>2019-03-30T14:16:19Z</time>
      </trkpt>
      <trkpt lat="43.47472" lon="2.2022">
        <ele>554</ele>
        <time>2019-03-30T14:16:25Z</time>
      </trkpt>
      <trkpt lat="43.4746" lon="2.20226">
        <ele>554</ele>
        <time>2019-03-30T14:16:29Z</time>
      </trkpt>
      <trkpt lat="43.47447" lon="2.20236">
        <ele>554</ele>
        <time>2019-03-30T14:16:34Z</time>
      </trkpt>
      <trkpt lat="43.4743" lon="2.20252">
        <ele>554</ele>
        <time>2019-03-30T14:16:39Z</time>
      </trkpt>
      <trkpt lat="43.47427" lon="2.20256">
        <ele>554</ele>
        <time>2019-03-30T14:16:40Z</time>
      </trkpt>
      <trkpt lat="43.47419" lon="2.20264">
        <ele>554</ele>
        <time>2019-03-30T14:16:42Z</time>
      </trkpt>
      <trkpt lat="43.47417" lon="2.20269">
        <ele>555</ele>
        <time>2019-03-30T14:16:43Z</time>
      </trkpt>
      <trkpt lat="43.47409" lon="2.20294">
        <ele>555</ele>
        <time>2019-03-30T14:16:48Z</time>
      </trkpt>
      <trkpt lat="43.47406" lon="2.20305">
        <ele>554</ele>
        <time>2019-03-30T14:16:50Z</time>
      </trkpt>
      <trkpt lat="43.47405" lon="2.20316">
        <ele>553</ele>
        <time>2019-03-30T14:16:52Z</time>
      </trkpt>
      <trkpt lat="43.47405" lon="2.20332">
        <ele>553</ele>
        <time>2019-03-30T14:16:55Z</time>
      </trkpt>
      <trkpt lat="43.47406" lon="2.20337">
        <ele>553</ele>
        <time>2019-03-30T14:16:56Z</time>
      </trkpt>
      <trkpt lat="43.47407" lon="2.20349">
        <ele>552</ele>
        <time>2019-03-30T14:16:58Z</time>
      </trkpt>
      <trkpt lat="43.47403" lon="2.20362">
        <ele>551</ele>
        <time>2019-03-30T14:17:00Z</time>
      </trkpt>
      <trkpt lat="43.47392" lon="2.20373">
        <ele>550</ele>
        <time>2019-03-30T14:17:02Z</time>
      </trkpt>
      <trkpt lat="43.47385" lon="2.20379">
        <ele>549</ele>
        <time>2019-03-30T14:17:03Z</time>
      </trkpt>
      <trkpt lat="43.47379" lon="2.20386">
        <ele>549</ele>
        <time>2019-03-30T14:17:04Z</time>
      </trkpt>
      <trkpt lat="43.47375" lon="2.20395">
        <ele>548</ele>
        <time>2019-03-30T14:17:05Z</time>
      </trkpt>
      <trkpt lat="43.47373" lon="2.20407">
        <ele>547</ele>
        <time>2019-03-30T14:17:06Z</time>
      </trkpt>
      <trkpt lat="43.47379" lon="2.20433">
        <ele>545</ele>
        <time>2019-03-30T14:17:08Z</time>
      </trkpt>
      <trkpt lat="43.47385" lon="2.20445">
        <ele>543</ele>
        <time>2019-03-30T14:17:09Z</time>
      </trkpt>
      <trkpt lat="43.47393" lon="2.20457">
        <ele>542</ele>
        <time>2019-03-30T14:17:10Z</time>
      </trkpt>
      <trkpt lat="43.474" lon="2.20469">
        <ele>541</ele>
        <time>2019-03-30T14:17:11Z</time>
      </trkpt>
      <trkpt lat="43.47407" lon="2.2048">
        <ele>540</ele>
        <time>2019-03-30T14:17:12Z</time>
      </trkpt>
      <trkpt lat="43.47413" lon="2.20492">
        <ele>538</ele>
        <time>2019-03-30T14:17:13Z</time>
      </trkpt>
      <trkpt lat="43.47415" lon="2.20504">
        <ele>537</ele>
        <time>2019-03-30T14:17:14Z</time>
      </trkpt>
      <trkpt lat="43.47414" lon="2.20515">
        <ele>537</ele>
        <time>2019-03-30T14:17:15Z</time>
      </trkpt>
      <trkpt lat="43.4741" lon="2.20527">
        <ele>536</ele>
        <time>2019-03-30T14:17:16Z</time>
      </trkpt>
      <trkpt lat="43.47404" lon="2.20538">
        <ele>535</ele>
        <time>2019-03-30T14:17:17Z</time>
      </trkpt>
      <trkpt lat="43.47398" lon="2.2055">
        <ele>534</ele>
        <time>2019-03-30T14:17:18Z</time>
      </trkpt>
      <trkpt lat="43.47392" lon="2.20563">
        <ele>533</ele>
        <time>2019-03-30T14:17:19Z</time>
      </trkpt>
      <trkpt lat="43.47386" lon="2.20577">
        <ele>532</ele>
        <time>2019-03-30T14:17:20Z</time>
      </trkpt>
      <trkpt lat="43.47381" lon="2.20592">
        <ele>531</ele>
        <time>2019-03-30T14:17:21Z</time>
      </trkpt>
      <trkpt lat="43.47377" lon="2.20609">
        <ele>530</ele>
        <time>2019-03-30T14:17:22Z</time>
      </trkpt>
      <trkpt lat="43.47372" lon="2.20625">
        <ele>529</ele>
        <time>2019-03-30T14:17:23Z</time>
      </trkpt>
      <trkpt lat="43.47366" lon="2.20641">
        <ele>527</ele>
        <time>2019-03-30T14:17:24Z</time>
      </trkpt>
      <trkpt lat="43.47361" lon="2.20659">
        <ele>526</ele>
        <time>2019-03-30T14:17:25Z</time>
      </trkpt>
      <trkpt lat="43.47358" lon="2.20677">
        <ele>525</ele>
        <time>2019-03-30T14:17:26Z</time>
      </trkpt>
      <trkpt lat="43.47355" lon="2.20695">
        <ele>523</ele>
        <time>2019-03-30T14:17:27Z</time>
      </trkpt>
      <trkpt lat="43.47353" lon="2.20715">
        <ele>520</ele>
        <time>2019-03-30T14:17:28Z</time>
      </trkpt>
      <trkpt lat="43.47351" lon="2.20734">
        <ele>518</ele>
        <time>2019-03-30T14:17:29Z</time>
      </trkpt>
      <trkpt lat="43.47349" lon="2.20751">
        <ele>517</ele>
        <time>2019-03-30T14:17:30Z</time>
      </trkpt>
      <trkpt lat="43.47347" lon="2.20766">
        <ele>516</ele>
        <time>2019-03-30T14:17:31Z</time>
      </trkpt>
      <trkpt lat="43.47345" lon="2.20779">
        <ele>515</ele>
        <time>2019-03-30T14:17:32Z</time>
      </trkpt>
      <trkpt lat="43.47344" lon="2.20798">
        <ele>514</ele>
        <time>2019-03-30T14:17:34Z</time>
      </trkpt>
      <trkpt lat="43.47347" lon="2.20811">
        <ele>513</ele>
        <time>2019-03-30T14:17:36Z</time>
      </trkpt>
      <trkpt lat="43.47358" lon="2.20818">
        <ele>513</ele>
        <time>2019-03-30T14:17:38Z</time>
      </trkpt>
      <trkpt lat="43.47362" lon="2.20818">
        <ele>513</ele>
        <time>2019-03-30T14:17:39Z</time>
      </trkpt>
      <trkpt lat="43.47367" lon="2.20815">
        <ele>512</ele>
        <time>2019-03-30T14:17:42Z</time>
      </trkpt>
      <trkpt lat="43.47367" lon="2.20815">
        <ele>512</ele>
        <time>2019-03-30T14:17:44Z</time>
      </trkpt>
      <trkpt lat="43.47375" lon="2.20805">
        <ele>511</ele>
        <time>2019-03-30T14:18:00Z</time>
      </trkpt>
      <trkpt lat="43.47376" lon="2.20802">
        <ele>511</ele>
        <time>2019-03-30T14:18:01Z</time>
      </trkpt>
      <trkpt lat="43.47378" lon="2.208">
        <ele>510</ele>
        <time>2019-03-30T14:18:02Z</time>
      </trkpt>
      <trkpt lat="43.47389" lon="2.20787">
        <ele>510</ele>
        <time>2019-03-30T14:18:08Z</time>
      </trkpt>
      <trkpt lat="43.47396" lon="2.20781">
        <ele>510</ele>
        <time>2019-03-30T14:18:11Z</time>
      </trkpt>
      <trkpt lat="43.47398" lon="2.20779">
        <ele>510</ele>
        <time>2019-03-30T14:18:12Z</time>
      </trkpt>
      <trkpt lat="43.47409" lon="2.20771">
        <ele>510</ele>
        <time>2019-03-30T14:18:17Z</time>
      </trkpt>
      <trkpt lat="43.47417" lon="2.20767">
        <ele>511</ele>
        <time>2019-03-30T14:18:21Z</time>
      </trkpt>
      <trkpt lat="43.47419" lon="2.20766">
        <ele>511</ele>
        <time>2019-03-30T14:18:23Z</time>
      </trkpt>
      <trkpt lat="43.47424" lon="2.20765">
        <ele>511</ele>
        <time>2019-03-30T14:18:25Z</time>
      </trkpt>
      <trkpt lat="43.47429" lon="2.20763">
        <ele>512</ele>
        <time>2019-03-30T14:18:28Z</time>
      </trkpt>
      <trkpt lat="43.4743" lon="2.20763">
        <ele>512</ele>
        <time>2019-03-30T14:18:29Z</time>
      </trkpt>
      <trkpt lat="43.47435" lon="2.2076">
        <ele>513</ele>
        <time>2019-03-30T14:18:33Z</time>
      </trkpt>
      <trkpt lat="43.47442" lon="2.20764">
        <ele>513</ele>
        <time>2019-03-30T14:19:26Z</time>
      </trkpt>
      <trkpt lat="43.47445" lon="2.20763">
        <ele>513</ele>
        <time>2019-03-30T14:19:27Z</time>
      </trkpt>
      <trkpt lat="43.47452" lon="2.2076">
        <ele>513</ele>
        <time>2019-03-30T14:19:30Z</time>
      </trkpt>
      <trkpt lat="43.47456" lon="2.20759">
        <ele>514</ele>
        <time>2019-03-30T14:19:32Z</time>
      </trkpt>
      <trkpt lat="43.47463" lon="2.20756">
        <ele>514</ele>
        <time>2019-03-30T14:19:35Z</time>
      </trkpt>
      <trkpt lat="43.47469" lon="2.20755">
        <ele>515</ele>
        <time>2019-03-30T14:19:38Z</time>
      </trkpt>
      <trkpt lat="43.47473" lon="2.20753">
        <ele>516</ele>
        <time>2019-03-30T14:19:40Z</time>
      </trkpt>
      <trkpt lat="43.47477" lon="2.20752">
        <ele>516</ele>
        <time>2019-03-30T14:19:42Z</time>
      </trkpt>
      <trkpt lat="43.47483" lon="2.20752">
        <ele>516</ele>
        <time>2019-03-30T14:19:45Z</time>
      </trkpt>
      <trkpt lat="43.47488" lon="2.20752">
        <ele>517</ele>
        <time>2019-03-30T14:19:47Z</time>
      </trkpt>
      <trkpt lat="43.47496" lon="2.20752">
        <ele>517</ele>
        <time>2019-03-30T14:19:51Z</time>
      </trkpt>
      <trkpt lat="43.47498" lon="2.20751">
        <ele>518</ele>
        <time>2019-03-30T14:19:52Z</time>
      </trkpt>
      <trkpt lat="43.47504" lon="2.20753">
        <ele>518</ele>
        <time>2019-03-30T14:19:55Z</time>
      </trkpt>
      <trkpt lat="43.47507" lon="2.20754">
        <ele>518</ele>
        <time>2019-03-30T14:19:57Z</time>
      </trkpt>
      <trkpt lat="43.47511" lon="2.20753">
        <ele>519</ele>
        <time>2019-03-30T14:19:59Z</time>
      </trkpt>
      <trkpt lat="43.47513" lon="2.20753">
        <ele>519</ele>
        <time>2019-03-30T14:20:00Z</time>
      </trkpt>
      <trkpt lat="43.47517" lon="2.20755">
        <ele>519</ele>
        <time>2019-03-30T14:20:03Z</time>
      </trkpt>
      <trkpt lat="43.47522" lon="2.20758">
        <ele>520</ele>
        <time>2019-03-30T14:20:06Z</time>
      </trkpt>
      <trkpt lat="43.47523" lon="2.20761">
        <ele>520</ele>
        <time>2019-03-30T14:20:08Z</time>
      </trkpt>
      <trkpt lat="43.47527" lon="2.20764">
        <ele>520</ele>
        <time>2019-03-30T14:20:10Z</time>
      </trkpt>
      <trkpt lat="43.47531" lon="2.2077">
        <ele>521</ele>
        <time>2019-03-30T14:20:13Z</time>
      </trkpt>
      <trkpt lat="43.47533" lon="2.20774">
        <ele>521</ele>
        <time>2019-03-30T14:20:15Z</time>
      </trkpt>
      <trkpt lat="43.47537" lon="2.20782">
        <ele>522</ele>
        <time>2019-03-30T14:20:18Z</time>
      </trkpt>
      <trkpt lat="43.4754" lon="2.20791">
        <ele>523</ele>
        <time>2019-03-30T14:20:21Z</time>
      </trkpt>
      <trkpt lat="43.47543" lon="2.208">
        <ele>525</ele>
        <time>2019-03-30T14:20:24Z</time>
      </trkpt>
      <trkpt lat="43.47545" lon="2.20804">
        <ele>525</ele>
        <time>2019-03-30T14:20:25Z</time>
      </trkpt>
      <trkpt lat="43.47546" lon="2.2081">
        <ele>526</ele>
        <time>2019-03-30T14:20:27Z</time>
      </trkpt>
      <trkpt lat="43.47551" lon="2.20825">
        <ele>527</ele>
        <time>2019-03-30T14:20:31Z</time>
      </trkpt>
      <trkpt lat="43.47553" lon="2.20829">
        <ele>527</ele>
        <time>2019-03-30T14:20:32Z</time>
      </trkpt>
      <trkpt lat="43.47556" lon="2.2084">
        <ele>528</ele>
        <time>2019-03-30T14:20:35Z</time>
      </trkpt>
      <trkpt lat="43.47559" lon="2.20851">
        <ele>529</ele>
        <time>2019-03-30T14:20:38Z</time>
      </trkpt>
      <trkpt lat="43.47559" lon="2.20856">
        <ele>529</ele>
        <time>2019-03-30T14:20:40Z</time>
      </trkpt>
      <trkpt lat="43.47562" lon="2.2086">
        <ele>530</ele>
        <time>2019-03-30T14:20:42Z</time>
      </trkpt>
      <trkpt lat="43.47564" lon="2.20864">
        <ele>531</ele>
        <time>2019-03-30T14:20:44Z</time>
      </trkpt>
      <trkpt lat="43.47566" lon="2.20869">
        <ele>531</ele>
        <time>2019-03-30T14:20:46Z</time>
      </trkpt>
      <trkpt lat="43.47567" lon="2.20873">
        <ele>532</ele>
        <time>2019-03-30T14:20:48Z</time>
      </trkpt>
      <trkpt lat="43.47567" lon="2.20877">
        <ele>532</ele>
        <time>2019-03-30T14:20:50Z</time>
      </trkpt>
      <trkpt lat="43.47569" lon="2.20885">
        <ele>533</ele>
        <time>2019-03-30T14:20:54Z</time>
      </trkpt>
      <trkpt lat="43.47572" lon="2.20888">
        <ele>533</ele>
        <time>2019-03-30T14:20:55Z</time>
      </trkpt>
      <trkpt lat="43.47572" lon="2.20891">
        <ele>533</ele>
        <time>2019-03-30T14:20:56Z</time>
      </trkpt>
      <trkpt lat="43.47576" lon="2.20898">
        <ele>534</ele>
        <time>2019-03-30T14:20:59Z</time>
      </trkpt>
      <trkpt lat="43.47578" lon="2.209">
        <ele>534</ele>
        <time>2019-03-30T14:21:00Z</time>
      </trkpt>
      <trkpt lat="43.47582" lon="2.20904">
        <ele>535</ele>
        <time>2019-03-30T14:21:02Z</time>
      </trkpt>
      <trkpt lat="43.47589" lon="2.20911">
        <ele>535</ele>
        <time>2019-03-30T14:21:07Z</time>
      </trkpt>
      <trkpt lat="43.47591" lon="2.20912">
        <ele>536</ele>
        <time>2019-03-30T14:21:08Z</time>
      </trkpt>
      <trkpt lat="43.47605" lon="2.20924">
        <ele>537</ele>
        <time>2019-03-30T14:21:16Z</time>
      </trkpt>
      <trkpt lat="43.47618" lon="2.20933">
        <ele>537</ele>
        <time>2019-03-30T14:21:23Z</time>
      </trkpt>
      <trkpt lat="43.47629" lon="2.20941">
        <ele>538</ele>
        <time>2019-03-30T14:21:28Z</time>
      </trkpt>
      <trkpt lat="43.47631" lon="2.20942">
        <ele>538</ele>
        <time>2019-03-30T14:21:29Z</time>
      </trkpt>
      <trkpt lat="43.47642" lon="2.20952">
        <ele>539</ele>
        <time>2019-03-30T14:21:34Z</time>
      </trkpt>
      <trkpt lat="43.47648" lon="2.20961">
        <ele>540</ele>
        <time>2019-03-30T14:21:40Z</time>
      </trkpt>
      <trkpt lat="43.47655" lon="2.20974">
        <ele>541</ele>
        <time>2019-03-30T14:21:45Z</time>
      </trkpt>
      <trkpt lat="43.47663" lon="2.20975">
        <ele>542</ele>
        <time>2019-03-30T14:21:47Z</time>
      </trkpt>
      <trkpt lat="43.47665" lon="2.2098">
        <ele>543</ele>
        <time>2019-03-30T14:21:49Z</time>
      </trkpt>
      <trkpt lat="43.47676" lon="2.20993">
        <ele>544</ele>
        <time>2019-03-30T14:21:55Z</time>
      </trkpt>
      <trkpt lat="43.47687" lon="2.2101">
        <ele>545</ele>
        <time>2019-03-30T14:22:02Z</time>
      </trkpt>
      <trkpt lat="43.47692" lon="2.21019">
        <ele>545</ele>
        <time>2019-03-30T14:22:06Z</time>
      </trkpt>
      <trkpt lat="43.47693" lon="2.21022">
        <ele>546</ele>
        <time>2019-03-30T14:22:07Z</time>
      </trkpt>
      <trkpt lat="43.47698" lon="2.21032">
        <ele>546</ele>
        <time>2019-03-30T14:22:12Z</time>
      </trkpt>
      <trkpt lat="43.47698" lon="2.21037">
        <ele>547</ele>
        <time>2019-03-30T14:22:14Z</time>
      </trkpt>
      <trkpt lat="43.47702" lon="2.21049">
        <ele>548</ele>
        <time>2019-03-30T14:22:19Z</time>
      </trkpt>
      <trkpt lat="43.47707" lon="2.21063">
        <ele>549</ele>
        <time>2019-03-30T14:22:24Z</time>
      </trkpt>
      <trkpt lat="43.47707" lon="2.21073">
        <ele>549</ele>
        <time>2019-03-30T14:22:28Z</time>
      </trkpt>
      <trkpt lat="43.47708" lon="2.21076">
        <ele>550</ele>
        <time>2019-03-30T14:22:29Z</time>
      </trkpt>
      <trkpt lat="43.47703" lon="2.21086">
        <ele>550</ele>
        <time>2019-03-30T14:22:33Z</time>
      </trkpt>
      <trkpt lat="43.47701" lon="2.21088">
        <ele>551</ele>
        <time>2019-03-30T14:22:34Z</time>
      </trkpt>
      <trkpt lat="43.47696" lon="2.21088">
        <ele>552</ele>
        <time>2019-03-30T14:22:37Z</time>
      </trkpt>
      <trkpt lat="43.47695" lon="2.21086">
        <ele>552</ele>
        <time>2019-03-30T14:22:38Z</time>
      </trkpt>
      <trkpt lat="43.47692" lon="2.21081">
        <ele>553</ele>
        <time>2019-03-30T14:22:41Z</time>
      </trkpt>
      <trkpt lat="43.47692" lon="2.2108">
        <ele>553</ele>
        <time>2019-03-30T14:22:42Z</time>
      </trkpt>
      <trkpt lat="43.47689" lon="2.21076">
        <ele>554</ele>
        <time>2019-03-30T14:22:45Z</time>
      </trkpt>
      <trkpt lat="43.47686" lon="2.21072">
        <ele>554</ele>
        <time>2019-03-30T14:22:47Z</time>
      </trkpt>
      <trkpt lat="43.47683" lon="2.21069">
        <ele>554</ele>
        <time>2019-03-30T14:22:49Z</time>
      </trkpt>
      <trkpt lat="43.47681" lon="2.21068">
        <ele>555</ele>
        <time>2019-03-30T14:22:51Z</time>
      </trkpt>
      <trkpt lat="43.47681" lon="2.21068">
        <ele>555</ele>
        <time>2019-03-30T14:22:52Z</time>
      </trkpt>
      <trkpt lat="43.47675" lon="2.21061">
        <ele>555</ele>
        <time>2019-03-30T14:23:07Z</time>
      </trkpt>
      <trkpt lat="43.47671" lon="2.21059">
        <ele>556</ele>
        <time>2019-03-30T14:23:09Z</time>
      </trkpt>
      <trkpt lat="43.47664" lon="2.21055">
        <ele>557</ele>
        <time>2019-03-30T14:23:13Z</time>
      </trkpt>
      <trkpt lat="43.47662" lon="2.21054">
        <ele>557</ele>
        <time>2019-03-30T14:23:14Z</time>
      </trkpt>
      <trkpt lat="43.47656" lon="2.21048">
        <ele>558</ele>
        <time>2019-03-30T14:23:18Z</time>
      </trkpt>
      <trkpt lat="43.47653" lon="2.21045">
        <ele>558</ele>
        <time>2019-03-30T14:23:20Z</time>
      </trkpt>
      <trkpt lat="43.47649" lon="2.21039">
        <ele>559</ele>
        <time>2019-03-30T14:23:23Z</time>
      </trkpt>
      <trkpt lat="43.47646" lon="2.21037">
        <ele>559</ele>
        <time>2019-03-30T14:23:24Z</time>
      </trkpt>
      <trkpt lat="43.47644" lon="2.21035">
        <ele>559</ele>
        <time>2019-03-30T14:23:25Z</time>
      </trkpt>
      <trkpt lat="43.47638" lon="2.21025">
        <ele>560</ele>
        <time>2019-03-30T14:23:29Z</time>
      </trkpt>
      <trkpt lat="43.47632" lon="2.21017">
        <ele>561</ele>
        <time>2019-03-30T14:23:33Z</time>
      </trkpt>
      <trkpt lat="43.47629" lon="2.21012">
        <ele>561</ele>
        <time>2019-03-30T14:23:35Z</time>
      </trkpt>
      <trkpt lat="43.47626" lon="2.21008">
        <ele>562</ele>
        <time>2019-03-30T14:23:37Z</time>
      </trkpt>
      <trkpt lat="43.47617" lon="2.21002">
        <ele>563</ele>
        <time>2019-03-30T14:23:41Z</time>
      </trkpt>
      <trkpt lat="43.47615" lon="2.21001">
        <ele>563</ele>
        <time>2019-03-30T14:23:42Z</time>
      </trkpt>
      <trkpt lat="43.47605" lon="2.21">
        <ele>564</ele>
        <time>2019-03-30T14:23:47Z</time>
      </trkpt>
      <trkpt lat="43.47602" lon="2.21">
        <ele>564</ele>
        <time>2019-03-30T14:23:48Z</time>
      </trkpt>
      <trkpt lat="43.47595" lon="2.20999">
        <ele>566</ele>
        <time>2019-03-30T14:23:51Z</time>
      </trkpt>
      <trkpt lat="43.4759" lon="2.20998">
        <ele>566</ele>
        <time>2019-03-30T14:23:53Z</time>
      </trkpt>
      <trkpt lat="43.4758" lon="2.20997">
        <ele>567</ele>
        <time>2019-03-30T14:23:56Z</time>
      </trkpt>
      <trkpt lat="43.47571" lon="2.20997">
        <ele>567</ele>
        <time>2019-03-30T14:23:59Z</time>
      </trkpt>
      <trkpt lat="43.47569" lon="2.20997">
        <ele>568</ele>
        <time>2019-03-30T14:24:00Z</time>
      </trkpt>
      <trkpt lat="43.47559" lon="2.20996">
        <ele>569</ele>
        <time>2019-03-30T14:24:04Z</time>
      </trkpt>
      <trkpt lat="43.47557" lon="2.20995">
        <ele>569</ele>
        <time>2019-03-30T14:24:05Z</time>
      </trkpt>
      <trkpt lat="43.4755" lon="2.20995">
        <ele>570</ele>
        <time>2019-03-30T14:24:08Z</time>
      </trkpt>
      <trkpt lat="43.47543" lon="2.20995">
        <ele>571</ele>
        <time>2019-03-30T14:24:11Z</time>
      </trkpt>
      <trkpt lat="43.47537" lon="2.20994">
        <ele>572</ele>
        <time>2019-03-30T14:24:14Z</time>
      </trkpt>
      <trkpt lat="43.47532" lon="2.20993">
        <ele>573</ele>
        <time>2019-03-30T14:24:17Z</time>
      </trkpt>
      <trkpt lat="43.47529" lon="2.20991">
        <ele>573</ele>
        <time>2019-03-30T14:24:18Z</time>
      </trkpt>
      <trkpt lat="43.47519" lon="2.20987">
        <ele>574</ele>
        <time>2019-03-30T14:24:22Z</time>
      </trkpt>
      <trkpt lat="43.47511" lon="2.20984">
        <ele>575</ele>
        <time>2019-03-30T14:24:25Z</time>
      </trkpt>
      <trkpt lat="43.47507" lon="2.20981">
        <ele>576</ele>
        <time>2019-03-30T14:24:27Z</time>
      </trkpt>
      <trkpt lat="43.47498" lon="2.20976">
        <ele>577</ele>
        <time>2019-03-30T14:24:31Z</time>
      </trkpt>
      <trkpt lat="43.47495" lon="2.20975">
        <ele>577</ele>
        <time>2019-03-30T14:24:32Z</time>
      </trkpt>
      <trkpt lat="43.47485" lon="2.20964">
        <ele>579</ele>
        <time>2019-03-30T14:24:37Z</time>
      </trkpt>
      <trkpt lat="43.47484" lon="2.20961">
        <ele>579</ele>
        <time>2019-03-30T14:24:38Z</time>
      </trkpt>
      <trkpt lat="43.47479" lon="2.20953">
        <ele>580</ele>
        <time>2019-03-30T14:24:41Z</time>
      </trkpt>
      <trkpt lat="43.47474" lon="2.20946">
        <ele>580</ele>
        <time>2019-03-30T14:24:44Z</time>
      </trkpt>
      <trkpt lat="43.47473" lon="2.20943">
        <ele>581</ele>
        <time>2019-03-30T14:24:45Z</time>
      </trkpt>
      <trkpt lat="43.47468" lon="2.20938">
        <ele>582</ele>
        <time>2019-03-30T14:24:48Z</time>
      </trkpt>
      <trkpt lat="43.47467" lon="2.20935">
        <ele>582</ele>
        <time>2019-03-30T14:24:49Z</time>
      </trkpt>
      <trkpt lat="43.47461" lon="2.20924">
        <ele>583</ele>
        <time>2019-03-30T14:24:53Z</time>
      </trkpt>
      <trkpt lat="43.47456" lon="2.20917">
        <ele>584</ele>
        <time>2019-03-30T14:24:56Z</time>
      </trkpt>
      <trkpt lat="43.47453" lon="2.20916">
        <ele>584</ele>
        <time>2019-03-30T14:24:58Z</time>
      </trkpt>
      <trkpt lat="43.47452" lon="2.20916">
        <ele>584</ele>
        <time>2019-03-30T14:25:00Z</time>
      </trkpt>
      <trkpt lat="43.47451" lon="2.20916">
        <ele>585</ele>
        <time>2019-03-30T14:25:01Z</time>
      </trkpt>
      <trkpt lat="43.4745" lon="2.20916">
        <ele>585</ele>
        <time>2019-03-30T14:25:02Z</time>
      </trkpt>
      <trkpt lat="43.47446" lon="2.20918">
        <ele>585</ele>
        <time>2019-03-30T14:25:06Z</time>
      </trkpt>
      <trkpt lat="43.47446" lon="2.20922">
        <ele>585</ele>
        <time>2019-03-30T14:25:09Z</time>
      </trkpt>
      <trkpt lat="43.47447" lon="2.20925">
        <ele>585</ele>
        <time>2019-03-30T14:25:13Z</time>
      </trkpt>
      <trkpt lat="43.47448" lon="2.20927">
        <ele>585</ele>
        <time>2019-03-30T14:25:15Z</time>
      </trkpt>
      <trkpt lat="43.4745" lon="2.20929">
        <ele>586</ele>
        <time>2019-03-30T14:25:19Z</time>
      </trkpt>
      <trkpt lat="43.47451" lon="2.2093">
        <ele>586</ele>
        <time>2019-03-30T14:25:20Z</time>
      </trkpt>
      <trkpt lat="43.47454" lon="2.20934">
        <ele>586</ele>
        <time>2019-03-30T14:25:25Z</time>
      </trkpt>
      <trkpt lat="43.47456" lon="2.20935">
        <ele>587</ele>
        <time>2019-03-30T14:25:27Z</time>
      </trkpt>
      <trkpt lat="43.47455" lon="2.20935">
        <ele>587</ele>
        <time>2019-03-30T14:25:42Z</time>
      </trkpt>
      <trkpt lat="43.47454" lon="2.20935">
        <ele>587</ele>
        <time>2019-03-30T14:25:44Z</time>
      </trkpt>
      <trkpt lat="43.47454" lon="2.20935">
        <ele>587</ele>
        <time>2019-03-30T14:25:46Z</time>
      </trkpt>
      <trkpt lat="43.47454" lon="2.20935">
        <ele>587</ele>
        <time>2019-03-30T14:25:48Z</time>
      </trkpt>
      <trkpt lat="43.47453" lon="2.20938">
        <ele>587</ele>
        <time>2019-03-30T14:26:54Z</time>
      </trkpt>
      <trkpt lat="43.47453" lon="2.20939">
        <ele>587</ele>
        <time>2019-03-30T14:26:55Z</time>
      </trkpt>
      <trkpt lat="43.47454" lon="2.20942">
        <ele>587</ele>
        <time>2019-03-30T14:26:57Z</time>
      </trkpt>
      <trkpt lat="43.47454" lon="2.20943">
        <ele>587</ele>
        <time>2019-03-30T14:26:58Z</time>
      </trkpt>
      <trkpt lat="43.47459" lon="2.20951">
        <ele>588</ele>
        <time>2019-03-30T14:27:03Z</time>
      </trkpt>
      <trkpt lat="43.47459" lon="2.20953">
        <ele>588</ele>
        <time>2019-03-30T14:27:04Z</time>
      </trkpt>
      <trkpt lat="43.47465" lon="2.20964">
        <ele>588</ele>
        <time>2019-03-30T14:27:09Z</time>
      </trkpt>
      <trkpt lat="43.47466" lon="2.20966">
        <ele>588</ele>
        <time>2019-03-30T14:27:10Z</time>
      </trkpt>
      <trkpt lat="43.47469" lon="2.20974">
        <ele>589</ele>
        <time>2019-03-30T14:27:14Z</time>
      </trkpt>
      <trkpt lat="43.47469" lon="2.20984">
        <ele>590</ele>
        <time>2019-03-30T14:27:18Z</time>
      </trkpt>
      <trkpt lat="43.47473" lon="2.21002">
        <ele>590</ele>
        <time>2019-03-30T14:27:25Z</time>
      </trkpt>
      <trkpt lat="43.47475" lon="2.21008">
        <ele>590</ele>
        <time>2019-03-30T14:27:27Z</time>
      </trkpt>
      <trkpt lat="43.47479" lon="2.2102">
        <ele>591</ele>
        <time>2019-03-30T14:27:32Z</time>
      </trkpt>
      <trkpt lat="43.47481" lon="2.21025">
        <ele>592</ele>
        <time>2019-03-30T14:27:34Z</time>
      </trkpt>
      <trkpt lat="43.47483" lon="2.21031">
        <ele>593</ele>
        <time>2019-03-30T14:27:36Z</time>
      </trkpt>
      <trkpt lat="43.47484" lon="2.21036">
        <ele>594</ele>
        <time>2019-03-30T14:27:38Z</time>
      </trkpt>
      <trkpt lat="43.47487" lon="2.21041">
        <ele>595</ele>
        <time>2019-03-30T14:27:40Z</time>
      </trkpt>
      <trkpt lat="43.47491" lon="2.2105">
        <ele>596</ele>
        <time>2019-03-30T14:27:43Z</time>
      </trkpt>
      <trkpt lat="43.47494" lon="2.21057">
        <ele>597</ele>
        <time>2019-03-30T14:27:46Z</time>
      </trkpt>
      <trkpt lat="43.47496" lon="2.21062">
        <ele>597</ele>
        <time>2019-03-30T14:27:48Z</time>
      </trkpt>
      <trkpt lat="43.475" lon="2.21078">
        <ele>598</ele>
        <time>2019-03-30T14:27:54Z</time>
      </trkpt>
      <trkpt lat="43.475" lon="2.21083">
        <ele>598</ele>
        <time>2019-03-30T14:27:56Z</time>
      </trkpt>
      <trkpt lat="43.47503" lon="2.21092">
        <ele>599</ele>
        <time>2019-03-30T14:28:00Z</time>
      </trkpt>
      <trkpt lat="43.47505" lon="2.21096">
        <ele>599</ele>
        <time>2019-03-30T14:28:02Z</time>
      </trkpt>
      <trkpt lat="43.47506" lon="2.21107">
        <ele>600</ele>
        <time>2019-03-30T14:28:06Z</time>
      </trkpt>
      <trkpt lat="43.47508" lon="2.21121">
        <ele>601</ele>
        <time>2019-03-30T14:28:11Z</time>
      </trkpt>
      <trkpt lat="43.47508" lon="2.21127">
        <ele>601</ele>
        <time>2019-03-30T14:28:13Z</time>
      </trkpt>
      <trkpt lat="43.47507" lon="2.2113">
        <ele>601</ele>
        <time>2019-03-30T14:28:14Z</time>
      </trkpt>
      <trkpt lat="43.47507" lon="2.21132">
        <ele>602</ele>
        <time>2019-03-30T14:28:15Z</time>
      </trkpt>
      <trkpt lat="43.47507" lon="2.21138">
        <ele>603</ele>
        <time>2019-03-30T14:28:17Z</time>
      </trkpt>
      <trkpt lat="43.47506" lon="2.21141">
        <ele>603</ele>
        <time>2019-03-30T14:28:18Z</time>
      </trkpt>
      <trkpt lat="43.47505" lon="2.21144">
        <ele>604</ele>
        <time>2019-03-30T14:28:19Z</time>
      </trkpt>
      <trkpt lat="43.47503" lon="2.21152">
        <ele>605</ele>
        <time>2019-03-30T14:28:22Z</time>
      </trkpt>
      <trkpt lat="43.475" lon="2.21159">
        <ele>605</ele>
        <time>2019-03-30T14:28:25Z</time>
      </trkpt>
      <trkpt lat="43.47499" lon="2.21161">
        <ele>605</ele>
        <time>2019-03-30T14:28:26Z</time>
      </trkpt>
      <trkpt lat="43.47495" lon="2.21174">
        <ele>606</ele>
        <time>2019-03-30T14:28:31Z</time>
      </trkpt>
      <trkpt lat="43.47492" lon="2.21181">
        <ele>607</ele>
        <time>2019-03-30T14:28:34Z</time>
      </trkpt>
      <trkpt lat="43.47491" lon="2.21183">
        <ele>607</ele>
        <time>2019-03-30T14:28:35Z</time>
      </trkpt>
      <trkpt lat="43.47487" lon="2.21195">
        <ele>608</ele>
        <time>2019-03-30T14:28:40Z</time>
      </trkpt>
      <trkpt lat="43.47483" lon="2.21203">
        <ele>608</ele>
        <time>2019-03-30T14:28:44Z</time>
      </trkpt>
      <trkpt lat="43.47481" lon="2.21206">
        <ele>609</ele>
        <time>2019-03-30T14:28:46Z</time>
      </trkpt>
      <trkpt lat="43.47479" lon="2.21211">
        <ele>609</ele>
        <time>2019-03-30T14:28:48Z</time>
      </trkpt>
      <trkpt lat="43.47478" lon="2.21213">
        <ele>610</ele>
        <time>2019-03-30T14:28:49Z</time>
      </trkpt>
      <trkpt lat="43.47477" lon="2.21217">
        <ele>610</ele>
        <time>2019-03-30T14:28:51Z</time>
      </trkpt>
      <trkpt lat="43.47477" lon="2.21221">
        <ele>611</ele>
        <time>2019-03-30T14:28:53Z</time>
      </trkpt>
      <trkpt lat="43.47476" lon="2.21223">
        <ele>611</ele>
        <time>2019-03-30T14:28:54Z</time>
      </trkpt>
      <trkpt lat="43.47473" lon="2.2123">
        <ele>612</ele>
        <time>2019-03-30T14:28:57Z</time>
      </trkpt>
      <trkpt lat="43.47472" lon="2.21232">
        <ele>612</ele>
        <time>2019-03-30T14:28:58Z</time>
      </trkpt>
      <trkpt lat="43.47465" lon="2.21245">
        <ele>614</ele>
        <time>2019-03-30T14:29:04Z</time>
      </trkpt>
      <trkpt lat="43.4746" lon="2.21258">
        <ele>615</ele>
        <time>2019-03-30T14:29:09Z</time>
      </trkpt>
      <trkpt lat="43.47459" lon="2.21261">
        <ele>615</ele>
        <time>2019-03-30T14:29:10Z</time>
      </trkpt>
      <trkpt lat="43.47456" lon="2.21266">
        <ele>616</ele>
        <time>2019-03-30T14:29:12Z</time>
      </trkpt>
      <trkpt lat="43.47451" lon="2.21274">
        <ele>617</ele>
        <time>2019-03-30T14:29:16Z</time>
      </trkpt>
      <trkpt lat="43.4745" lon="2.21276">
        <ele>617</ele>
        <time>2019-03-30T14:29:17Z</time>
      </trkpt>
      <trkpt lat="43.47445" lon="2.21286">
        <ele>618</ele>
        <time>2019-03-30T14:29:21Z</time>
      </trkpt>
      <trkpt lat="43.47441" lon="2.21295">
        <ele>619</ele>
        <time>2019-03-30T14:29:25Z</time>
      </trkpt>
      <trkpt lat="43.47439" lon="2.21297">
        <ele>619</ele>
        <time>2019-03-30T14:29:26Z</time>
      </trkpt>
      <trkpt lat="43.47439" lon="2.21299">
        <ele>619</ele>
        <time>2019-03-30T14:29:27Z</time>
      </trkpt>
      <trkpt lat="43.47436" lon="2.21304">
        <ele>619</ele>
        <time>2019-03-30T14:29:29Z</time>
      </trkpt>
      <trkpt lat="43.47435" lon="2.21306">
        <ele>619</ele>
        <time>2019-03-30T14:29:30Z</time>
      </trkpt>
      <trkpt lat="43.47431" lon="2.21314">
        <ele>620</ele>
        <time>2019-03-30T14:29:34Z</time>
      </trkpt>
      <trkpt lat="43.47428" lon="2.2132">
        <ele>620</ele>
        <time>2019-03-30T14:29:37Z</time>
      </trkpt>
      <trkpt lat="43.47425" lon="2.21327">
        <ele>621</ele>
        <time>2019-03-30T14:29:40Z</time>
      </trkpt>
      <trkpt lat="43.47424" lon="2.2133">
        <ele>622</ele>
        <time>2019-03-30T14:29:41Z</time>
      </trkpt>
      <trkpt lat="43.4742" lon="2.21336">
        <ele>623</ele>
        <time>2019-03-30T14:29:44Z</time>
      </trkpt>
      <trkpt lat="43.47419" lon="2.2134">
        <ele>623</ele>
        <time>2019-03-30T14:29:46Z</time>
      </trkpt>
      <trkpt lat="43.47418" lon="2.21341">
        <ele>623</ele>
        <time>2019-03-30T14:29:47Z</time>
      </trkpt>
      <trkpt lat="43.47417" lon="2.21343">
        <ele>624</ele>
        <time>2019-03-30T14:29:49Z</time>
      </trkpt>
      <trkpt lat="43.47417" lon="2.21344">
        <ele>624</ele>
        <time>2019-03-30T14:29:50Z</time>
      </trkpt>
      <trkpt lat="43.47411" lon="2.21356">
        <ele>625</ele>
        <time>2019-03-30T14:29:56Z</time>
      </trkpt>
      <trkpt lat="43.47411" lon="2.21358">
        <ele>625</ele>
        <time>2019-03-30T14:29:57Z</time>
      </trkpt>
      <trkpt lat="43.47406" lon="2.21367">
        <ele>626</ele>
        <time>2019-03-30T14:30:02Z</time>
      </trkpt>
      <trkpt lat="43.47405" lon="2.21369">
        <ele>626</ele>
        <time>2019-03-30T14:30:03Z</time>
      </trkpt>
      <trkpt lat="43.47405" lon="2.2137">
        <ele>626</ele>
        <time>2019-03-30T14:30:04Z</time>
      </trkpt>
      <trkpt lat="43.47402" lon="2.21375">
        <ele>627</ele>
        <time>2019-03-30T14:30:07Z</time>
      </trkpt>
      <trkpt lat="43.47399" lon="2.21377">
        <ele>627</ele>
        <time>2019-03-30T14:30:09Z</time>
      </trkpt>
      <trkpt lat="43.47398" lon="2.21378">
        <ele>627</ele>
        <time>2019-03-30T14:30:10Z</time>
      </trkpt>
      <trkpt lat="43.47394" lon="2.21375">
        <ele>628</ele>
        <time>2019-03-30T14:30:13Z</time>
      </trkpt>
      <trkpt lat="43.47394" lon="2.21372">
        <ele>628</ele>
        <time>2019-03-30T14:30:14Z</time>
      </trkpt>
      <trkpt lat="43.47395" lon="2.21367">
        <ele>629</ele>
        <time>2019-03-30T14:30:16Z</time>
      </trkpt>
      <trkpt lat="43.47397" lon="2.21364">
        <ele>629</ele>
        <time>2019-03-30T14:30:17Z</time>
      </trkpt>
      <trkpt lat="43.47399" lon="2.21358">
        <ele>629</ele>
        <time>2019-03-30T14:30:19Z</time>
      </trkpt>
      <trkpt lat="43.47402" lon="2.2134">
        <ele>628</ele>
        <time>2019-03-30T14:30:24Z</time>
      </trkpt>
      <trkpt lat="43.47405" lon="2.21321">
        <ele>629</ele>
        <time>2019-03-30T14:30:30Z</time>
      </trkpt>
      <trkpt lat="43.47407" lon="2.21309">
        <ele>630</ele>
        <time>2019-03-30T14:30:34Z</time>
      </trkpt>
      <trkpt lat="43.47408" lon="2.21302">
        <ele>630</ele>
        <time>2019-03-30T14:30:36Z</time>
      </trkpt>
      <trkpt lat="43.47412" lon="2.21288">
        <ele>631</ele>
        <time>2019-03-30T14:30:41Z</time>
      </trkpt>
      <trkpt lat="43.47412" lon="2.21284">
        <ele>631</ele>
        <time>2019-03-30T14:30:42Z</time>
      </trkpt>
      <trkpt lat="43.47413" lon="2.21275">
        <ele>632</ele>
        <time>2019-03-30T14:30:45Z</time>
      </trkpt>
      <trkpt lat="43.47414" lon="2.2127">
        <ele>632</ele>
        <time>2019-03-30T14:30:47Z</time>
      </trkpt>
      <trkpt lat="43.47417" lon="2.21252">
        <ele>633</ele>
        <time>2019-03-30T14:30:53Z</time>
      </trkpt>
      <trkpt lat="43.47417" lon="2.21249">
        <ele>633</ele>
        <time>2019-03-30T14:30:54Z</time>
      </trkpt>
      <trkpt lat="43.47417" lon="2.21234">
        <ele>634</ele>
        <time>2019-03-30T14:30:59Z</time>
      </trkpt>
      <trkpt lat="43.47417" lon="2.2123">
        <ele>634</ele>
        <time>2019-03-30T14:31:00Z</time>
      </trkpt>
      <trkpt lat="43.47418" lon="2.21224">
        <ele>635</ele>
        <time>2019-03-30T14:31:02Z</time>
      </trkpt>
      <trkpt lat="43.47418" lon="2.21219">
        <ele>635</ele>
        <time>2019-03-30T14:31:04Z</time>
      </trkpt>
      <trkpt lat="43.47419" lon="2.21216">
        <ele>636</ele>
        <time>2019-03-30T14:31:05Z</time>
      </trkpt>
      <trkpt lat="43.4742" lon="2.21211">
        <ele>636</ele>
        <time>2019-03-30T14:31:07Z</time>
      </trkpt>
      <trkpt lat="43.47422" lon="2.21205">
        <ele>637</ele>
        <time>2019-03-30T14:31:09Z</time>
      </trkpt>
      <trkpt lat="43.47421" lon="2.21197">
        <ele>637</ele>
        <time>2019-03-30T14:31:12Z</time>
      </trkpt>
      <trkpt lat="43.47418" lon="2.21183">
        <ele>638</ele>
        <time>2019-03-30T14:31:17Z</time>
      </trkpt>
      <trkpt lat="43.47417" lon="2.21172">
        <ele>638</ele>
        <time>2019-03-30T14:31:20Z</time>
      </trkpt>
      <trkpt lat="43.47414" lon="2.21159">
        <ele>639</ele>
        <time>2019-03-30T14:31:24Z</time>
      </trkpt>
      <trkpt lat="43.4741" lon="2.21148">
        <ele>639</ele>
        <time>2019-03-30T14:31:28Z</time>
      </trkpt>
      <trkpt lat="43.47399" lon="2.21135">
        <ele>640</ele>
        <time>2019-03-30T14:31:34Z</time>
      </trkpt>
      <trkpt lat="43.47392" lon="2.21134">
        <ele>641</ele>
        <time>2019-03-30T14:31:37Z</time>
      </trkpt>
      <trkpt lat="43.47388" lon="2.21136">
        <ele>641</ele>
        <time>2019-03-30T14:31:39Z</time>
      </trkpt>
      <trkpt lat="43.47385" lon="2.21139">
        <ele>642</ele>
        <time>2019-03-30T14:31:41Z</time>
      </trkpt>
      <trkpt lat="43.47382" lon="2.21146">
        <ele>643</ele>
        <time>2019-03-30T14:31:44Z</time>
      </trkpt>
      <trkpt lat="43.47378" lon="2.2116">
        <ele>643</ele>
        <time>2019-03-30T14:31:49Z</time>
      </trkpt>
      <trkpt lat="43.47377" lon="2.21166">
        <ele>644</ele>
        <time>2019-03-30T14:31:51Z</time>
      </trkpt>
      <trkpt lat="43.47377" lon="2.21168">
        <ele>644</ele>
        <time>2019-03-30T14:31:52Z</time>
      </trkpt>
      <trkpt lat="43.47375" lon="2.21191">
        <ele>644</ele>
        <time>2019-03-30T14:32:00Z</time>
      </trkpt>
      <trkpt lat="43.47374" lon="2.21197">
        <ele>645</ele>
        <time>2019-03-30T14:32:02Z</time>
      </trkpt>
      <trkpt lat="43.4737" lon="2.2121">
        <ele>646</ele>
        <time>2019-03-30T14:32:07Z</time>
      </trkpt>
      <trkpt lat="43.4737" lon="2.21213">
        <ele>647</ele>
        <time>2019-03-30T14:32:08Z</time>
      </trkpt>
      <trkpt lat="43.47368" lon="2.21217">
        <ele>648</ele>
        <time>2019-03-30T14:32:10Z</time>
      </trkpt>
      <trkpt lat="43.47365" lon="2.21225">
        <ele>649</ele>
        <time>2019-03-30T14:32:13Z</time>
      </trkpt>
      <trkpt lat="43.47361" lon="2.21232">
        <ele>650</ele>
        <time>2019-03-30T14:32:16Z</time>
      </trkpt>
      <trkpt lat="43.47358" lon="2.21236">
        <ele>651</ele>
        <time>2019-03-30T14:32:18Z</time>
      </trkpt>
      <trkpt lat="43.47351" lon="2.21245">
        <ele>651</ele>
        <time>2019-03-30T14:32:22Z</time>
      </trkpt>
      <trkpt lat="43.47349" lon="2.2125">
        <ele>651</ele>
        <time>2019-03-30T14:32:24Z</time>
      </trkpt>
      <trkpt lat="43.47342" lon="2.2126">
        <ele>651</ele>
        <time>2019-03-30T14:32:29Z</time>
      </trkpt>
      <trkpt lat="43.4734" lon="2.21263">
        <ele>652</ele>
        <time>2019-03-30T14:32:31Z</time>
      </trkpt>
      <trkpt lat="43.47335" lon="2.21271">
        <ele>652</ele>
        <time>2019-03-30T14:32:35Z</time>
      </trkpt>
      <trkpt lat="43.47331" lon="2.21276">
        <ele>653</ele>
        <time>2019-03-30T14:32:38Z</time>
      </trkpt>
      <trkpt lat="43.47326" lon="2.21281">
        <ele>654</ele>
        <time>2019-03-30T14:32:42Z</time>
      </trkpt>
      <trkpt lat="43.47325" lon="2.21282">
        <ele>654</ele>
        <time>2019-03-30T14:32:43Z</time>
      </trkpt>
      <trkpt lat="43.47321" lon="2.21285">
        <ele>655</ele>
        <time>2019-03-30T14:32:46Z</time>
      </trkpt>
      <trkpt lat="43.4732" lon="2.21286">
        <ele>656</ele>
        <time>2019-03-30T14:32:47Z</time>
      </trkpt>
      <trkpt lat="43.47319" lon="2.21288">
        <ele>656</ele>
        <time>2019-03-30T14:32:48Z</time>
      </trkpt>
      <trkpt lat="43.47307" lon="2.21293">
        <ele>657</ele>
        <time>2019-03-30T14:32:54Z</time>
      </trkpt>
      <trkpt lat="43.47301" lon="2.21297">
        <ele>658</ele>
        <time>2019-03-30T14:32:57Z</time>
      </trkpt>
      <trkpt lat="43.47293" lon="2.21299">
        <ele>659</ele>
        <time>2019-03-30T14:33:00Z</time>
      </trkpt>
      <trkpt lat="43.47292" lon="2.213">
        <ele>659</ele>
        <time>2019-03-30T14:33:01Z</time>
      </trkpt>
      <trkpt lat="43.47283" lon="2.21303">
        <ele>660</ele>
        <time>2019-03-30T14:33:06Z</time>
      </trkpt>
      <trkpt lat="43.47279" lon="2.21306">
        <ele>661</ele>
        <time>2019-03-30T14:33:08Z</time>
      </trkpt>
      <trkpt lat="43.47272" lon="2.21311">
        <ele>661</ele>
        <time>2019-03-30T14:33:11Z</time>
      </trkpt>
      <trkpt lat="43.47265" lon="2.21318">
        <ele>661</ele>
        <time>2019-03-30T14:33:14Z</time>
      </trkpt>
      <trkpt lat="43.47257" lon="2.2133">
        <ele>661</ele>
        <time>2019-03-30T14:33:20Z</time>
      </trkpt>
      <trkpt lat="43.47254" lon="2.21335">
        <ele>663</ele>
        <time>2019-03-30T14:33:24Z</time>
      </trkpt>
      <trkpt lat="43.47253" lon="2.21338">
        <ele>663</ele>
        <time>2019-03-30T14:33:26Z</time>
      </trkpt>
      <trkpt lat="43.47251" lon="2.21341">
        <ele>664</ele>
        <time>2019-03-30T14:33:28Z</time>
      </trkpt>
      <trkpt lat="43.4725" lon="2.21342">
        <ele>664</ele>
        <time>2019-03-30T14:33:29Z</time>
      </trkpt>
      <trkpt lat="43.47247" lon="2.21344">
        <ele>665</ele>
        <time>2019-03-30T14:33:31Z</time>
      </trkpt>
      <trkpt lat="43.47245" lon="2.21343">
        <ele>665</ele>
        <time>2019-03-30T14:33:32Z</time>
      </trkpt>
      <trkpt lat="43.47239" lon="2.2134">
        <ele>666</ele>
        <time>2019-03-30T14:33:36Z</time>
      </trkpt>
      <trkpt lat="43.47236" lon="2.21339">
        <ele>666</ele>
        <time>2019-03-30T14:33:38Z</time>
      </trkpt>
      <trkpt lat="43.47231" lon="2.21337">
        <ele>667</ele>
        <time>2019-03-30T14:33:41Z</time>
      </trkpt>
      <trkpt lat="43.47229" lon="2.21335">
        <ele>667</ele>
        <time>2019-03-30T14:33:43Z</time>
      </trkpt>
      <trkpt lat="43.47229" lon="2.21332">
        <ele>668</ele>
        <time>2019-03-30T14:33:45Z</time>
      </trkpt>
      <trkpt lat="43.47229" lon="2.21326">
        <ele>668</ele>
        <time>2019-03-30T14:33:51Z</time>
      </trkpt>
      <trkpt lat="43.47229" lon="2.21324">
        <ele>668</ele>
        <time>2019-03-30T14:33:52Z</time>
      </trkpt>
      <trkpt lat="43.47228" lon="2.21318">
        <ele>668</ele>
        <time>2019-03-30T14:33:57Z</time>
      </trkpt>
      <trkpt lat="43.47225" lon="2.21311">
        <ele>668</ele>
        <time>2019-03-30T14:34:02Z</time>
      </trkpt>
      <trkpt lat="43.47223" lon="2.21303">
        <ele>669</ele>
        <time>2019-03-30T14:34:07Z</time>
      </trkpt>
      <trkpt lat="43.47223" lon="2.21301">
        <ele>669</ele>
        <time>2019-03-30T14:34:08Z</time>
      </trkpt>
      <trkpt lat="43.4722" lon="2.2129">
        <ele>669</ele>
        <time>2019-03-30T14:34:15Z</time>
      </trkpt>
      <trkpt lat="43.47217" lon="2.21276">
        <ele>670</ele>
        <time>2019-03-30T14:34:22Z</time>
      </trkpt>
      <trkpt lat="43.47216" lon="2.21268">
        <ele>670</ele>
        <time>2019-03-30T14:34:26Z</time>
      </trkpt>
      <trkpt lat="43.47213" lon="2.21261">
        <ele>670</ele>
        <time>2019-03-30T14:34:30Z</time>
      </trkpt>
      <trkpt lat="43.47212" lon="2.21257">
        <ele>670</ele>
        <time>2019-03-30T14:34:32Z</time>
      </trkpt>
      <trkpt lat="43.47211" lon="2.21255">
        <ele>670</ele>
        <time>2019-03-30T14:34:33Z</time>
      </trkpt>
      <trkpt lat="43.47205" lon="2.21239">
        <ele>670</ele>
        <time>2019-03-30T14:34:40Z</time>
      </trkpt>
      <trkpt lat="43.47204" lon="2.21237">
        <ele>670</ele>
        <time>2019-03-30T14:34:41Z</time>
      </trkpt>
      <trkpt lat="43.47201" lon="2.21226">
        <ele>670</ele>
        <time>2019-03-30T14:34:45Z</time>
      </trkpt>
      <trkpt lat="43.472" lon="2.21217">
        <ele>670</ele>
        <time>2019-03-30T14:34:49Z</time>
      </trkpt>
      <trkpt lat="43.47201" lon="2.21214">
        <ele>670</ele>
        <time>2019-03-30T14:34:50Z</time>
      </trkpt>
      <trkpt lat="43.47201" lon="2.21212">
        <ele>670</ele>
        <time>2019-03-30T14:34:51Z</time>
      </trkpt>
      <trkpt lat="43.47201" lon="2.21197">
        <ele>670</ele>
        <time>2019-03-30T14:34:57Z</time>
      </trkpt>
      <trkpt lat="43.47201" lon="2.21195">
        <ele>670</ele>
        <time>2019-03-30T14:34:58Z</time>
      </trkpt>
      <trkpt lat="43.472" lon="2.21191">
        <ele>670</ele>
        <time>2019-03-30T14:35:00Z</time>
      </trkpt>
      <trkpt lat="43.47199" lon="2.21184">
        <ele>670</ele>
        <time>2019-03-30T14:35:03Z</time>
      </trkpt>
      <trkpt lat="43.47197" lon="2.21167">
        <ele>671</ele>
        <time>2019-03-30T14:35:09Z</time>
      </trkpt>
      <trkpt lat="43.47196" lon="2.21164">
        <ele>672</ele>
        <time>2019-03-30T14:35:10Z</time>
      </trkpt>
      <trkpt lat="43.47195" lon="2.21154">
        <ele>673</ele>
        <time>2019-03-30T14:35:14Z</time>
      </trkpt>
      <trkpt lat="43.47194" lon="2.21149">
        <ele>673</ele>
        <time>2019-03-30T14:35:16Z</time>
      </trkpt>
      <trkpt lat="43.47194" lon="2.21145">
        <ele>673</ele>
        <time>2019-03-30T14:35:18Z</time>
      </trkpt>
      <trkpt lat="43.47194" lon="2.21135">
        <ele>673</ele>
        <time>2019-03-30T14:35:22Z</time>
      </trkpt>
      <trkpt lat="43.47193" lon="2.21123">
        <ele>674</ele>
        <time>2019-03-30T14:35:27Z</time>
      </trkpt>
      <trkpt lat="43.47189" lon="2.21111">
        <ele>674</ele>
        <time>2019-03-30T14:35:32Z</time>
      </trkpt>
      <trkpt lat="43.47187" lon="2.21105">
        <ele>674</ele>
        <time>2019-03-30T14:35:34Z</time>
      </trkpt>
      <trkpt lat="43.47181" lon="2.21091">
        <ele>675</ele>
        <time>2019-03-30T14:35:39Z</time>
      </trkpt>
      <trkpt lat="43.4718" lon="2.21088">
        <ele>675</ele>
        <time>2019-03-30T14:35:40Z</time>
      </trkpt>
      <trkpt lat="43.47175" lon="2.21074">
        <ele>675</ele>
        <time>2019-03-30T14:35:45Z</time>
      </trkpt>
      <trkpt lat="43.47168" lon="2.21057">
        <ele>676</ele>
        <time>2019-03-30T14:35:52Z</time>
      </trkpt>
      <trkpt lat="43.47167" lon="2.21055">
        <ele>676</ele>
        <time>2019-03-30T14:35:53Z</time>
      </trkpt>
      <trkpt lat="43.47164" lon="2.21042">
        <ele>676</ele>
        <time>2019-03-30T14:35:58Z</time>
      </trkpt>
      <trkpt lat="43.47158" lon="2.21027">
        <ele>677</ele>
        <time>2019-03-30T14:36:04Z</time>
      </trkpt>
      <trkpt lat="43.47157" lon="2.21024">
        <ele>677</ele>
        <time>2019-03-30T14:36:05Z</time>
      </trkpt>
      <trkpt lat="43.4715" lon="2.21011">
        <ele>677</ele>
        <time>2019-03-30T14:36:10Z</time>
      </trkpt>
      <trkpt lat="43.47146" lon="2.21003">
        <ele>678</ele>
        <time>2019-03-30T14:36:13Z</time>
      </trkpt>
      <trkpt lat="43.47143" lon="2.20997">
        <ele>678</ele>
        <time>2019-03-30T14:36:15Z</time>
      </trkpt>
      <trkpt lat="43.47135" lon="2.20983">
        <ele>679</ele>
        <time>2019-03-30T14:36:20Z</time>
      </trkpt>
      <trkpt lat="43.47124" lon="2.20952">
        <ele>680</ele>
        <time>2019-03-30T14:36:30Z</time>
      </trkpt>
      <trkpt lat="43.47121" lon="2.20944">
        <ele>680</ele>
        <time>2019-03-30T14:36:33Z</time>
      </trkpt>
      <trkpt lat="43.47116" lon="2.20935">
        <ele>680</ele>
        <time>2019-03-30T14:36:36Z</time>
      </trkpt>
      <trkpt lat="43.4711" lon="2.20927">
        <ele>681</ele>
        <time>2019-03-30T14:36:39Z</time>
      </trkpt>
      <trkpt lat="43.47105" lon="2.20918">
        <ele>681</ele>
        <time>2019-03-30T14:36:42Z</time>
      </trkpt>
      <trkpt lat="43.47097" lon="2.20902">
        <ele>681</ele>
        <time>2019-03-30T14:36:48Z</time>
      </trkpt>
      <trkpt lat="43.47094" lon="2.20895">
        <ele>681</ele>
        <time>2019-03-30T14:36:51Z</time>
      </trkpt>
      <trkpt lat="43.47091" lon="2.20887">
        <ele>682</ele>
        <time>2019-03-30T14:36:54Z</time>
      </trkpt>
      <trkpt lat="43.47085" lon="2.20869">
        <ele>682</ele>
        <time>2019-03-30T14:37:01Z</time>
      </trkpt>
      <trkpt lat="43.47084" lon="2.20866">
        <ele>682</ele>
        <time>2019-03-30T14:37:02Z</time>
      </trkpt>
      <trkpt lat="43.47082" lon="2.20857">
        <ele>683</ele>
        <time>2019-03-30T14:37:06Z</time>
      </trkpt>
      <trkpt lat="43.47082" lon="2.20857">
        <ele>683</ele>
        <time>2019-03-30T14:37:07Z</time>
      </trkpt>
      <trkpt lat="43.47082" lon="2.20856">
        <ele>683</ele>
        <time>2019-03-30T14:37:08Z</time>
      </trkpt>
      <trkpt lat="43.47081" lon="2.20854">
        <ele>683</ele>
        <time>2019-03-30T14:37:25Z</time>
      </trkpt>
      <trkpt lat="43.47081" lon="2.20853">
        <ele>683</ele>
        <time>2019-03-30T14:37:28Z</time>
      </trkpt>
      <trkpt lat="43.4708" lon="2.20852">
        <ele>684</ele>
        <time>2019-03-30T14:40:09Z</time>
      </trkpt>
      <trkpt lat="43.47079" lon="2.20851">
        <ele>684</ele>
        <time>2019-03-30T14:40:10Z</time>
      </trkpt>
      <trkpt lat="43.47078" lon="2.20842">
        <ele>684</ele>
        <time>2019-03-30T14:40:14Z</time>
      </trkpt>
      <trkpt lat="43.47074" lon="2.2083">
        <ele>683</ele>
        <time>2019-03-30T14:40:18Z</time>
      </trkpt>
      <trkpt lat="43.47074" lon="2.20826">
        <ele>683</ele>
        <time>2019-03-30T14:40:19Z</time>
      </trkpt>
      <trkpt lat="43.4707" lon="2.20802">
        <ele>684</ele>
        <time>2019-03-30T14:40:26Z</time>
      </trkpt>
      <trkpt lat="43.47062" lon="2.20785">
        <ele>684</ele>
        <time>2019-03-30T14:40:32Z</time>
      </trkpt>
      <trkpt lat="43.47052" lon="2.20785">
        <ele>685</ele>
        <time>2019-03-30T14:40:36Z</time>
      </trkpt>
      <trkpt lat="43.47046" lon="2.20794">
        <ele>685</ele>
        <time>2019-03-30T14:40:39Z</time>
      </trkpt>
      <trkpt lat="43.4704" lon="2.20803">
        <ele>685</ele>
        <time>2019-03-30T14:40:42Z</time>
      </trkpt>
      <trkpt lat="43.47026" lon="2.20816">
        <ele>685</ele>
        <time>2019-03-30T14:40:48Z</time>
      </trkpt>
      <trkpt lat="43.47019" lon="2.20822">
        <ele>686</ele>
        <time>2019-03-30T14:40:51Z</time>
      </trkpt>
      <trkpt lat="43.47014" lon="2.20827">
        <ele>687</ele>
        <time>2019-03-30T14:40:54Z</time>
      </trkpt>
      <trkpt lat="43.47002" lon="2.20842">
        <ele>687</ele>
        <time>2019-03-30T14:41:01Z</time>
      </trkpt>
      <trkpt lat="43.46998" lon="2.20845">
        <ele>687</ele>
        <time>2019-03-30T14:41:03Z</time>
      </trkpt>
      <trkpt lat="43.46991" lon="2.20851">
        <ele>689</ele>
        <time>2019-03-30T14:41:06Z</time>
      </trkpt>
      <trkpt lat="43.46989" lon="2.20853">
        <ele>689</ele>
        <time>2019-03-30T14:41:07Z</time>
      </trkpt>
      <trkpt lat="43.46985" lon="2.20857">
        <ele>690</ele>
        <time>2019-03-30T14:41:09Z</time>
      </trkpt>
      <trkpt lat="43.46978" lon="2.20863">
        <ele>691</ele>
        <time>2019-03-30T14:41:12Z</time>
      </trkpt>
      <trkpt lat="43.46975" lon="2.20866">
        <ele>691</ele>
        <time>2019-03-30T14:41:13Z</time>
      </trkpt>
      <trkpt lat="43.46968" lon="2.20875">
        <ele>691</ele>
        <time>2019-03-30T14:41:17Z</time>
      </trkpt>
      <trkpt lat="43.46958" lon="2.20885">
        <ele>692</ele>
        <time>2019-03-30T14:41:22Z</time>
      </trkpt>
      <trkpt lat="43.46956" lon="2.20887">
        <ele>692</ele>
        <time>2019-03-30T14:41:23Z</time>
      </trkpt>
      <trkpt lat="43.46945" lon="2.20896">
        <ele>693</ele>
        <time>2019-03-30T14:41:28Z</time>
      </trkpt>
      <trkpt lat="43.46943" lon="2.20899">
        <ele>693</ele>
        <time>2019-03-30T14:41:29Z</time>
      </trkpt>
      <trkpt lat="43.46935" lon="2.20906">
        <ele>693</ele>
        <time>2019-03-30T14:41:32Z</time>
      </trkpt>
      <trkpt lat="43.46931" lon="2.20911">
        <ele>693</ele>
        <time>2019-03-30T14:41:34Z</time>
      </trkpt>
      <trkpt lat="43.46917" lon="2.20929">
        <ele>693</ele>
        <time>2019-03-30T14:41:40Z</time>
      </trkpt>
      <trkpt lat="43.46908" lon="2.20946">
        <ele>694</ele>
        <time>2019-03-30T14:41:45Z</time>
      </trkpt>
      <trkpt lat="43.469" lon="2.20966">
        <ele>694</ele>
        <time>2019-03-30T14:41:51Z</time>
      </trkpt>
      <trkpt lat="43.4689" lon="2.20988">
        <ele>694</ele>
        <time>2019-03-30T14:41:57Z</time>
      </trkpt>
      <trkpt lat="43.46889" lon="2.20992">
        <ele>695</ele>
        <time>2019-03-30T14:41:58Z</time>
      </trkpt>
      <trkpt lat="43.4688" lon="2.21006">
        <ele>695</ele>
        <time>2019-03-30T14:42:02Z</time>
      </trkpt>
      <trkpt lat="43.46869" lon="2.21028">
        <ele>696</ele>
        <time>2019-03-30T14:42:08Z</time>
      </trkpt>
      <trkpt lat="43.46867" lon="2.21032">
        <ele>696</ele>
        <time>2019-03-30T14:42:09Z</time>
      </trkpt>
      <trkpt lat="43.4685" lon="2.21058">
        <ele>697</ele>
        <time>2019-03-30T14:42:16Z</time>
      </trkpt>
      <trkpt lat="43.46846" lon="2.21061">
        <ele>697</ele>
        <time>2019-03-30T14:42:17Z</time>
      </trkpt>
      <trkpt lat="43.46831" lon="2.21074">
        <ele>697</ele>
        <time>2019-03-30T14:42:21Z</time>
      </trkpt>
      <trkpt lat="43.46815" lon="2.21077">
        <ele>698</ele>
        <time>2019-03-30T14:42:25Z</time>
      </trkpt>
      <trkpt lat="43.46807" lon="2.21066">
        <ele>698</ele>
        <time>2019-03-30T14:42:28Z</time>
      </trkpt>
      <trkpt lat="43.46805" lon="2.21056">
        <ele>698</ele>
        <time>2019-03-30T14:42:30Z</time>
      </trkpt>
      <trkpt lat="43.46804" lon="2.21047">
        <ele>699</ele>
        <time>2019-03-30T14:42:32Z</time>
      </trkpt>
      <trkpt lat="43.46803" lon="2.21043">
        <ele>699</ele>
        <time>2019-03-30T14:42:33Z</time>
      </trkpt>
      <trkpt lat="43.46797" lon="2.21022">
        <ele>700</ele>
        <time>2019-03-30T14:42:38Z</time>
      </trkpt>
      <trkpt lat="43.4679" lon="2.21012">
        <ele>701</ele>
        <time>2019-03-30T14:42:41Z</time>
      </trkpt>
      <trkpt lat="43.46782" lon="2.21">
        <ele>702</ele>
        <time>2019-03-30T14:42:44Z</time>
      </trkpt>
      <trkpt lat="43.46771" lon="2.20975">
        <ele>702</ele>
        <time>2019-03-30T14:42:51Z</time>
      </trkpt>
      <trkpt lat="43.46761" lon="2.20955">
        <ele>703</ele>
        <time>2019-03-30T14:42:58Z</time>
      </trkpt>
      <trkpt lat="43.46756" lon="2.2095">
        <ele>704</ele>
        <time>2019-03-30T14:43:00Z</time>
      </trkpt>
      <trkpt lat="43.46751" lon="2.20941">
        <ele>704</ele>
        <time>2019-03-30T14:43:03Z</time>
      </trkpt>
      <trkpt lat="43.46748" lon="2.20932">
        <ele>705</ele>
        <time>2019-03-30T14:43:06Z</time>
      </trkpt>
      <trkpt lat="43.46743" lon="2.20915">
        <ele>706</ele>
        <time>2019-03-30T14:43:11Z</time>
      </trkpt>
      <trkpt lat="43.46734" lon="2.20896">
        <ele>707</ele>
        <time>2019-03-30T14:43:17Z</time>
      </trkpt>
      <trkpt lat="43.46731" lon="2.20872">
        <ele>707</ele>
        <time>2019-03-30T14:43:24Z</time>
      </trkpt>
      <trkpt lat="43.46731" lon="2.20868">
        <ele>707</ele>
        <time>2019-03-30T14:43:25Z</time>
      </trkpt>
      <trkpt lat="43.4673" lon="2.2086">
        <ele>708</ele>
        <time>2019-03-30T14:43:28Z</time>
      </trkpt>
      <trkpt lat="43.46728" lon="2.20854">
        <ele>708</ele>
        <time>2019-03-30T14:43:30Z</time>
      </trkpt>
      <trkpt lat="43.46724" lon="2.20846">
        <ele>709</ele>
        <time>2019-03-30T14:43:32Z</time>
      </trkpt>
      <trkpt lat="43.46723" lon="2.20838">
        <ele>710</ele>
        <time>2019-03-30T14:43:34Z</time>
      </trkpt>
      <trkpt lat="43.46721" lon="2.20832">
        <ele>711</ele>
        <time>2019-03-30T14:43:36Z</time>
      </trkpt>
      <trkpt lat="43.4672" lon="2.20829">
        <ele>711</ele>
        <time>2019-03-30T14:43:37Z</time>
      </trkpt>
      <trkpt lat="43.46712" lon="2.20812">
        <ele>711</ele>
        <time>2019-03-30T14:43:43Z</time>
      </trkpt>
      <trkpt lat="43.46706" lon="2.20799">
        <ele>712</ele>
        <time>2019-03-30T14:43:47Z</time>
      </trkpt>
      <trkpt lat="43.46696" lon="2.20787">
        <ele>713</ele>
        <time>2019-03-30T14:43:52Z</time>
      </trkpt>
      <trkpt lat="43.46687" lon="2.20783">
        <ele>713</ele>
        <time>2019-03-30T14:43:57Z</time>
      </trkpt>
      <trkpt lat="43.46677" lon="2.20783">
        <ele>714</ele>
        <time>2019-03-30T14:44:03Z</time>
      </trkpt>
      <trkpt lat="43.46675" lon="2.20783">
        <ele>714</ele>
        <time>2019-03-30T14:44:04Z</time>
      </trkpt>
      <trkpt lat="43.4667" lon="2.20781">
        <ele>715</ele>
        <time>2019-03-30T14:44:07Z</time>
      </trkpt>
      <trkpt lat="43.46666" lon="2.20781">
        <ele>715</ele>
        <time>2019-03-30T14:44:09Z</time>
      </trkpt>
      <trkpt lat="43.46657" lon="2.20779">
        <ele>716</ele>
        <time>2019-03-30T14:44:13Z</time>
      </trkpt>
      <trkpt lat="43.4665" lon="2.20777">
        <ele>717</ele>
        <time>2019-03-30T14:44:16Z</time>
      </trkpt>
      <trkpt lat="43.46646" lon="2.20775">
        <ele>717</ele>
        <time>2019-03-30T14:44:18Z</time>
      </trkpt>
      <trkpt lat="43.46635" lon="2.2077">
        <ele>718</ele>
        <time>2019-03-30T14:44:23Z</time>
      </trkpt>
      <trkpt lat="43.46627" lon="2.20765">
        <ele>718</ele>
        <time>2019-03-30T14:44:27Z</time>
      </trkpt>
      <trkpt lat="43.46623" lon="2.20763">
        <ele>718</ele>
        <time>2019-03-30T14:44:29Z</time>
      </trkpt>
      <trkpt lat="43.46608" lon="2.20757">
        <ele>718</ele>
        <time>2019-03-30T14:44:35Z</time>
      </trkpt>
      <trkpt lat="43.46593" lon="2.20749">
        <ele>719</ele>
        <time>2019-03-30T14:44:41Z</time>
      </trkpt>
      <trkpt lat="43.46579" lon="2.2074">
        <ele>720</ele>
        <time>2019-03-30T14:44:47Z</time>
      </trkpt>
      <trkpt lat="43.4657" lon="2.20736">
        <ele>720</ele>
        <time>2019-03-30T14:44:51Z</time>
      </trkpt>
      <trkpt lat="43.46565" lon="2.20735">
        <ele>721</ele>
        <time>2019-03-30T14:44:53Z</time>
      </trkpt>
      <trkpt lat="43.46557" lon="2.2073">
        <ele>721</ele>
        <time>2019-03-30T14:44:57Z</time>
      </trkpt>
      <trkpt lat="43.46551" lon="2.20731">
        <ele>722</ele>
        <time>2019-03-30T14:45:00Z</time>
      </trkpt>
      <trkpt lat="43.4655" lon="2.20731">
        <ele>722</ele>
        <time>2019-03-30T14:45:01Z</time>
      </trkpt>
      <trkpt lat="43.46542" lon="2.20731">
        <ele>723</ele>
        <time>2019-03-30T14:45:05Z</time>
      </trkpt>
      <trkpt lat="43.46536" lon="2.2073">
        <ele>723</ele>
        <time>2019-03-30T14:45:08Z</time>
      </trkpt>
      <trkpt lat="43.46529" lon="2.2073">
        <ele>724</ele>
        <time>2019-03-30T14:45:11Z</time>
      </trkpt>
      <trkpt lat="43.46519" lon="2.2073">
        <ele>724</ele>
        <time>2019-03-30T14:45:16Z</time>
      </trkpt>
      <trkpt lat="43.46513" lon="2.20729">
        <ele>724</ele>
        <time>2019-03-30T14:45:19Z</time>
      </trkpt>
      <trkpt lat="43.4651" lon="2.20729">
        <ele>724</ele>
        <time>2019-03-30T14:45:21Z</time>
      </trkpt>
      <trkpt lat="43.46499" lon="2.20728">
        <ele>724</ele>
        <time>2019-03-30T14:45:26Z</time>
      </trkpt>
      <trkpt lat="43.46483" lon="2.2073">
        <ele>726</ele>
        <time>2019-03-30T14:45:31Z</time>
      </trkpt>
      <trkpt lat="43.46481" lon="2.20731">
        <ele>726</ele>
        <time>2019-03-30T14:45:32Z</time>
      </trkpt>
      <trkpt lat="43.46463" lon="2.2074">
        <ele>727</ele>
        <time>2019-03-30T14:45:39Z</time>
      </trkpt>
      <trkpt lat="43.4646" lon="2.20741">
        <ele>727</ele>
        <time>2019-03-30T14:45:40Z</time>
      </trkpt>
      <trkpt lat="43.46453" lon="2.20747">
        <ele>728</ele>
        <time>2019-03-30T14:45:44Z</time>
      </trkpt>
      <trkpt lat="43.46447" lon="2.20754">
        <ele>729</ele>
        <time>2019-03-30T14:45:47Z</time>
      </trkpt>
      <trkpt lat="43.46442" lon="2.2076">
        <ele>729</ele>
        <time>2019-03-30T14:45:50Z</time>
      </trkpt>
      <trkpt lat="43.4644" lon="2.20765">
        <ele>729</ele>
        <time>2019-03-30T14:45:52Z</time>
      </trkpt>
      <trkpt lat="43.46431" lon="2.2078">
        <ele>730</ele>
        <time>2019-03-30T14:45:59Z</time>
      </trkpt>
      <trkpt lat="43.46427" lon="2.20788">
        <ele>730</ele>
        <time>2019-03-30T14:46:02Z</time>
      </trkpt>
      <trkpt lat="43.46425" lon="2.2079">
        <ele>731</ele>
        <time>2019-03-30T14:46:03Z</time>
      </trkpt>
      <trkpt lat="43.46422" lon="2.20797">
        <ele>731</ele>
        <time>2019-03-30T14:46:06Z</time>
      </trkpt>
      <trkpt lat="43.46417" lon="2.20806">
        <ele>732</ele>
        <time>2019-03-30T14:46:10Z</time>
      </trkpt>
      <trkpt lat="43.46413" lon="2.20814">
        <ele>732</ele>
        <time>2019-03-30T14:46:14Z</time>
      </trkpt>
      <trkpt lat="43.46411" lon="2.20817">
        <ele>733</ele>
        <time>2019-03-30T14:46:15Z</time>
      </trkpt>
      <trkpt lat="43.46404" lon="2.20829">
        <ele>734</ele>
        <time>2019-03-30T14:46:21Z</time>
      </trkpt>
      <trkpt lat="43.46396" lon="2.20844">
        <ele>734</ele>
        <time>2019-03-30T14:46:27Z</time>
      </trkpt>
      <trkpt lat="43.46395" lon="2.20847">
        <ele>734</ele>
        <time>2019-03-30T14:46:28Z</time>
      </trkpt>
      <trkpt lat="43.4639" lon="2.20853">
        <ele>735</ele>
        <time>2019-03-30T14:46:31Z</time>
      </trkpt>
      <trkpt lat="43.46389" lon="2.20856">
        <ele>735</ele>
        <time>2019-03-30T14:46:32Z</time>
      </trkpt>
      <trkpt lat="43.46385" lon="2.20862">
        <ele>736</ele>
        <time>2019-03-30T14:46:35Z</time>
      </trkpt>
      <trkpt lat="43.46385" lon="2.20864">
        <ele>737</ele>
        <time>2019-03-30T14:46:36Z</time>
      </trkpt>
      <trkpt lat="43.46383" lon="2.20866">
        <ele>737</ele>
        <time>2019-03-30T14:46:37Z</time>
      </trkpt>
      <trkpt lat="43.4638" lon="2.20875">
        <ele>738</ele>
        <time>2019-03-30T14:46:40Z</time>
      </trkpt>
      <trkpt lat="43.46378" lon="2.20881">
        <ele>738</ele>
        <time>2019-03-30T14:46:42Z</time>
      </trkpt>
      <trkpt lat="43.46373" lon="2.20902">
        <ele>738</ele>
        <time>2019-03-30T14:46:49Z</time>
      </trkpt>
      <trkpt lat="43.46372" lon="2.20913">
        <ele>739</ele>
        <time>2019-03-30T14:46:53Z</time>
      </trkpt>
      <trkpt lat="43.46372" lon="2.20921">
        <ele>739</ele>
        <time>2019-03-30T14:46:56Z</time>
      </trkpt>
      <trkpt lat="43.46371" lon="2.20933">
        <ele>739</ele>
        <time>2019-03-30T14:47:00Z</time>
      </trkpt>
      <trkpt lat="43.4637" lon="2.20936">
        <ele>739</ele>
        <time>2019-03-30T14:47:01Z</time>
      </trkpt>
      <trkpt lat="43.46368" lon="2.20945">
        <ele>740</ele>
        <time>2019-03-30T14:47:04Z</time>
      </trkpt>
      <trkpt lat="43.46366" lon="2.20954">
        <ele>741</ele>
        <time>2019-03-30T14:47:07Z</time>
      </trkpt>
      <trkpt lat="43.46364" lon="2.2096">
        <ele>741</ele>
        <time>2019-03-30T14:47:10Z</time>
      </trkpt>
      <trkpt lat="43.46361" lon="2.20969">
        <ele>742</ele>
        <time>2019-03-30T14:47:13Z</time>
      </trkpt>
      <trkpt lat="43.46361" lon="2.20972">
        <ele>742</ele>
        <time>2019-03-30T14:47:14Z</time>
      </trkpt>
      <trkpt lat="43.46363" lon="2.20982">
        <ele>743</ele>
        <time>2019-03-30T14:47:18Z</time>
      </trkpt>
      <trkpt lat="43.46365" lon="2.20983">
        <ele>743</ele>
        <time>2019-03-30T14:47:20Z</time>
      </trkpt>
      <trkpt lat="43.46367" lon="2.20982">
        <ele>743</ele>
        <time>2019-03-30T14:47:22Z</time>
      </trkpt>
      <trkpt lat="43.46369" lon="2.20979">
        <ele>744</ele>
        <time>2019-03-30T14:47:26Z</time>
      </trkpt>
      <trkpt lat="43.46369" lon="2.20975">
        <ele>744</ele>
        <time>2019-03-30T14:47:29Z</time>
      </trkpt>
      <trkpt lat="43.46371" lon="2.20968">
        <ele>744</ele>
        <time>2019-03-30T14:47:44Z</time>
      </trkpt>
      <trkpt lat="43.46374" lon="2.20953">
        <ele>745</ele>
        <time>2019-03-30T14:47:50Z</time>
      </trkpt>
      <trkpt lat="43.46375" lon="2.20947">
        <ele>745</ele>
        <time>2019-03-30T14:47:52Z</time>
      </trkpt>
      <trkpt lat="43.46379" lon="2.20937">
        <ele>745</ele>
        <time>2019-03-30T14:47:56Z</time>
      </trkpt>
      <trkpt lat="43.46384" lon="2.20927">
        <ele>746</ele>
        <time>2019-03-30T14:48:01Z</time>
      </trkpt>
      <trkpt lat="43.46387" lon="2.20923">
        <ele>746</ele>
        <time>2019-03-30T14:48:03Z</time>
      </trkpt>
      <trkpt lat="43.46388" lon="2.20921">
        <ele>746</ele>
        <time>2019-03-30T14:48:04Z</time>
      </trkpt>
      <trkpt lat="43.4639" lon="2.20917">
        <ele>746</ele>
        <time>2019-03-30T14:48:06Z</time>
      </trkpt>
      <trkpt lat="43.46398" lon="2.20905">
        <ele>747</ele>
        <time>2019-03-30T14:48:11Z</time>
      </trkpt>
      <trkpt lat="43.46402" lon="2.20898">
        <ele>747</ele>
        <time>2019-03-30T14:48:13Z</time>
      </trkpt>
      <trkpt lat="43.46406" lon="2.20893">
        <ele>747</ele>
        <time>2019-03-30T14:48:15Z</time>
      </trkpt>
      <trkpt lat="43.4641" lon="2.2089">
        <ele>748</ele>
        <time>2019-03-30T14:48:17Z</time>
      </trkpt>
      <trkpt lat="43.46422" lon="2.20884">
        <ele>749</ele>
        <time>2019-03-30T14:48:22Z</time>
      </trkpt>
      <trkpt lat="43.46425" lon="2.20882">
        <ele>749</ele>
        <time>2019-03-30T14:48:23Z</time>
      </trkpt>
      <trkpt lat="43.46434" lon="2.20879">
        <ele>750</ele>
        <time>2019-03-30T14:48:27Z</time>
      </trkpt>
      <trkpt lat="43.46439" lon="2.20878">
        <ele>750</ele>
        <time>2019-03-30T14:48:29Z</time>
      </trkpt>
      <trkpt lat="43.46445" lon="2.20877">
        <ele>751</ele>
        <time>2019-03-30T14:48:33Z</time>
      </trkpt>
      <trkpt lat="43.46447" lon="2.20876">
        <ele>751</ele>
        <time>2019-03-30T14:48:34Z</time>
      </trkpt>
      <trkpt lat="43.46458" lon="2.20876">
        <ele>752</ele>
        <time>2019-03-30T14:48:42Z</time>
      </trkpt>
      <trkpt lat="43.46463" lon="2.20877">
        <ele>752</ele>
        <time>2019-03-30T14:48:46Z</time>
      </trkpt>
      <trkpt lat="43.46465" lon="2.20878">
        <ele>753</ele>
        <time>2019-03-30T14:48:48Z</time>
      </trkpt>
      <trkpt lat="43.46475" lon="2.2088">
        <ele>753</ele>
        <time>2019-03-30T14:48:53Z</time>
      </trkpt>
      <trkpt lat="43.46477" lon="2.2088">
        <ele>753</ele>
        <time>2019-03-30T14:48:54Z</time>
      </trkpt>
      <trkpt lat="43.46481" lon="2.20883">
        <ele>753</ele>
        <time>2019-03-30T14:48:56Z</time>
      </trkpt>
      <trkpt lat="43.46488" lon="2.20885">
        <ele>754</ele>
        <time>2019-03-30T14:48:59Z</time>
      </trkpt>
      <trkpt lat="43.46491" lon="2.20887">
        <ele>754</ele>
        <time>2019-03-30T14:49:01Z</time>
      </trkpt>
      <trkpt lat="43.46498" lon="2.2089">
        <ele>755</ele>
        <time>2019-03-30T14:49:04Z</time>
      </trkpt>
      <trkpt lat="43.46506" lon="2.20894">
        <ele>756</ele>
        <time>2019-03-30T14:49:07Z</time>
      </trkpt>
      <trkpt lat="43.46513" lon="2.20898">
        <ele>757</ele>
        <time>2019-03-30T14:49:11Z</time>
      </trkpt>
      <trkpt lat="43.46521" lon="2.20905">
        <ele>758</ele>
        <time>2019-03-30T14:49:16Z</time>
      </trkpt>
      <trkpt lat="43.46523" lon="2.20907">
        <ele>758</ele>
        <time>2019-03-30T14:49:17Z</time>
      </trkpt>
      <trkpt lat="43.46534" lon="2.20914">
        <ele>759</ele>
        <time>2019-03-30T14:49:23Z</time>
      </trkpt>
      <trkpt lat="43.46548" lon="2.20923">
        <ele>760</ele>
        <time>2019-03-30T14:49:29Z</time>
      </trkpt>
      <trkpt lat="43.46549" lon="2.20925">
        <ele>760</ele>
        <time>2019-03-30T14:49:30Z</time>
      </trkpt>
      <trkpt lat="43.4656" lon="2.20933">
        <ele>761</ele>
        <time>2019-03-30T14:49:34Z</time>
      </trkpt>
      <trkpt lat="43.46564" lon="2.20937">
        <ele>761</ele>
        <time>2019-03-30T14:49:36Z</time>
      </trkpt>
      <trkpt lat="43.46572" lon="2.20945">
        <ele>762</ele>
        <time>2019-03-30T14:49:40Z</time>
      </trkpt>
      <trkpt lat="43.46576" lon="2.2095">
        <ele>762</ele>
        <time>2019-03-30T14:49:42Z</time>
      </trkpt>
      <trkpt lat="43.46585" lon="2.20959">
        <ele>763</ele>
        <time>2019-03-30T14:49:46Z</time>
      </trkpt>
      <trkpt lat="43.46592" lon="2.20968">
        <ele>763</ele>
        <time>2019-03-30T14:49:50Z</time>
      </trkpt>
      <trkpt lat="43.46597" lon="2.20977">
        <ele>764</ele>
        <time>2019-03-30T14:49:53Z</time>
      </trkpt>
      <trkpt lat="43.46598" lon="2.2098">
        <ele>765</ele>
        <time>2019-03-30T14:49:54Z</time>
      </trkpt>
      <trkpt lat="43.46604" lon="2.20995">
        <ele>765</ele>
        <time>2019-03-30T14:49:59Z</time>
      </trkpt>
      <trkpt lat="43.46608" lon="2.21015">
        <ele>767</ele>
        <time>2019-03-30T14:50:06Z</time>
      </trkpt>
      <trkpt lat="43.46608" lon="2.21018">
        <ele>767</ele>
        <time>2019-03-30T14:50:07Z</time>
      </trkpt>
      <trkpt lat="43.46609" lon="2.21033">
        <ele>768</ele>
        <time>2019-03-30T14:50:12Z</time>
      </trkpt>
      <trkpt lat="43.46609" lon="2.21036">
        <ele>768</ele>
        <time>2019-03-30T14:50:13Z</time>
      </trkpt>
      <trkpt lat="43.4661" lon="2.2105">
        <ele>769</ele>
        <time>2019-03-30T14:50:17Z</time>
      </trkpt>
      <trkpt lat="43.46611" lon="2.21053">
        <ele>769</ele>
        <time>2019-03-30T14:50:18Z</time>
      </trkpt>
      <trkpt lat="43.46614" lon="2.21073">
        <ele>770</ele>
        <time>2019-03-30T14:50:24Z</time>
      </trkpt>
      <trkpt lat="43.46616" lon="2.21082">
        <ele>770</ele>
        <time>2019-03-30T14:50:27Z</time>
      </trkpt>
      <trkpt lat="43.46617" lon="2.21091">
        <ele>770</ele>
        <time>2019-03-30T14:50:30Z</time>
      </trkpt>
      <trkpt lat="43.46616" lon="2.211">
        <ele>771</ele>
        <time>2019-03-30T14:50:33Z</time>
      </trkpt>
      <trkpt lat="43.46615" lon="2.21106">
        <ele>771</ele>
        <time>2019-03-30T14:50:35Z</time>
      </trkpt>
      <trkpt lat="43.46613" lon="2.21107">
        <ele>771</ele>
        <time>2019-03-30T14:50:36Z</time>
      </trkpt>
      <trkpt lat="43.46611" lon="2.21106">
        <ele>772</ele>
        <time>2019-03-30T14:50:37Z</time>
      </trkpt>
      <trkpt lat="43.46606" lon="2.21102">
        <ele>773</ele>
        <time>2019-03-30T14:50:40Z</time>
      </trkpt>
      <trkpt lat="43.46604" lon="2.21096">
        <ele>774</ele>
        <time>2019-03-30T14:50:42Z</time>
      </trkpt>
      <trkpt lat="43.46602" lon="2.21091">
        <ele>774</ele>
        <time>2019-03-30T14:50:44Z</time>
      </trkpt>
      <trkpt lat="43.46601" lon="2.21088">
        <ele>774</ele>
        <time>2019-03-30T14:50:45Z</time>
      </trkpt>
      <trkpt lat="43.46596" lon="2.21074">
        <ele>774</ele>
        <time>2019-03-30T14:50:50Z</time>
      </trkpt>
      <trkpt lat="43.46589" lon="2.21059">
        <ele>775</ele>
        <time>2019-03-30T14:50:56Z</time>
      </trkpt>
      <trkpt lat="43.46583" lon="2.21051">
        <ele>776</ele>
        <time>2019-03-30T14:51:00Z</time>
      </trkpt>
      <trkpt lat="43.46579" lon="2.21048">
        <ele>776</ele>
        <time>2019-03-30T14:51:02Z</time>
      </trkpt>
      <trkpt lat="43.46571" lon="2.21038">
        <ele>776</ele>
        <time>2019-03-30T14:51:07Z</time>
      </trkpt>
      <trkpt lat="43.46565" lon="2.21036">
        <ele>777</ele>
        <time>2019-03-30T14:51:09Z</time>
      </trkpt>
      <trkpt lat="43.4655" lon="2.2103">
        <ele>777</ele>
        <time>2019-03-30T14:51:16Z</time>
      </trkpt>
      <trkpt lat="43.46544" lon="2.21028">
        <ele>779</ele>
        <time>2019-03-30T14:51:19Z</time>
      </trkpt>
      <trkpt lat="43.46535" lon="2.21027">
        <ele>779</ele>
        <time>2019-03-30T14:51:23Z</time>
      </trkpt>
      <trkpt lat="43.46532" lon="2.21027">
        <ele>780</ele>
        <time>2019-03-30T14:51:24Z</time>
      </trkpt>
      <trkpt lat="43.46524" lon="2.21026">
        <ele>781</ele>
        <time>2019-03-30T14:51:28Z</time>
      </trkpt>
      <trkpt lat="43.46517" lon="2.21027">
        <ele>782</ele>
        <time>2019-03-30T14:51:31Z</time>
      </trkpt>
      <trkpt lat="43.46501" lon="2.21029">
        <ele>782</ele>
        <time>2019-03-30T14:51:38Z</time>
      </trkpt>
      <trkpt lat="43.46486" lon="2.21034">
        <ele>783</ele>
        <time>2019-03-30T14:51:46Z</time>
      </trkpt>
      <trkpt lat="43.46484" lon="2.21036">
        <ele>783</ele>
        <time>2019-03-30T14:51:47Z</time>
      </trkpt>
      <trkpt lat="43.46477" lon="2.21043">
        <ele>785</ele>
        <time>2019-03-30T14:51:51Z</time>
      </trkpt>
      <trkpt lat="43.46473" lon="2.21047">
        <ele>785</ele>
        <time>2019-03-30T14:51:53Z</time>
      </trkpt>
      <trkpt lat="43.46466" lon="2.21057">
        <ele>786</ele>
        <time>2019-03-30T14:51:58Z</time>
      </trkpt>
      <trkpt lat="43.46465" lon="2.21058">
        <ele>786</ele>
        <time>2019-03-30T14:51:59Z</time>
      </trkpt>
      <trkpt lat="43.46458" lon="2.21073">
        <ele>787</ele>
        <time>2019-03-30T14:52:06Z</time>
      </trkpt>
      <trkpt lat="43.4645" lon="2.21085">
        <ele>788</ele>
        <time>2019-03-30T14:52:12Z</time>
      </trkpt>
      <trkpt lat="43.46448" lon="2.21087">
        <ele>788</ele>
        <time>2019-03-30T14:52:13Z</time>
      </trkpt>
      <trkpt lat="43.46437" lon="2.21108">
        <ele>789</ele>
        <time>2019-03-30T14:52:22Z</time>
      </trkpt>
      <trkpt lat="43.46433" lon="2.21115">
        <ele>789</ele>
        <time>2019-03-30T14:52:25Z</time>
      </trkpt>
      <trkpt lat="43.46428" lon="2.21123">
        <ele>790</ele>
        <time>2019-03-30T14:52:29Z</time>
      </trkpt>
      <trkpt lat="43.46422" lon="2.21133">
        <ele>791</ele>
        <time>2019-03-30T14:52:33Z</time>
      </trkpt>
      <trkpt lat="43.46418" lon="2.21137">
        <ele>791</ele>
        <time>2019-03-30T14:52:35Z</time>
      </trkpt>
      <trkpt lat="43.46407" lon="2.2115">
        <ele>791</ele>
        <time>2019-03-30T14:52:40Z</time>
      </trkpt>
      <trkpt lat="43.46394" lon="2.21163">
        <ele>792</ele>
        <time>2019-03-30T14:52:46Z</time>
      </trkpt>
      <trkpt lat="43.46382" lon="2.21173">
        <ele>792</ele>
        <time>2019-03-30T14:52:51Z</time>
      </trkpt>
      <trkpt lat="43.46365" lon="2.21179">
        <ele>791</ele>
        <time>2019-03-30T14:52:55Z</time>
      </trkpt>
      <trkpt lat="43.46354" lon="2.2118">
        <ele>789</ele>
        <time>2019-03-30T14:52:57Z</time>
      </trkpt>
      <trkpt lat="43.4633" lon="2.21184">
        <ele>788</ele>
        <time>2019-03-30T14:53:01Z</time>
      </trkpt>
      <trkpt lat="43.46316" lon="2.21185">
        <ele>787</ele>
        <time>2019-03-30T14:53:03Z</time>
      </trkpt>
      <trkpt lat="43.46303" lon="2.21187">
        <ele>786</ele>
        <time>2019-03-30T14:53:05Z</time>
      </trkpt>
      <trkpt lat="43.46291" lon="2.2119">
        <ele>785</ele>
        <time>2019-03-30T14:53:07Z</time>
      </trkpt>
      <trkpt lat="43.46285" lon="2.21191">
        <ele>784</ele>
        <time>2019-03-30T14:53:08Z</time>
      </trkpt>
      <trkpt lat="43.4627" lon="2.21196">
        <ele>784</ele>
        <time>2019-03-30T14:53:11Z</time>
      </trkpt>
      <trkpt lat="43.46266" lon="2.21197">
        <ele>784</ele>
        <time>2019-03-30T14:53:12Z</time>
      </trkpt>
      <trkpt lat="43.46257" lon="2.21198">
        <ele>784</ele>
        <time>2019-03-30T14:53:14Z</time>
      </trkpt>
      <trkpt lat="43.46244" lon="2.21191">
        <ele>785</ele>
        <time>2019-03-30T14:53:17Z</time>
      </trkpt>
      <trkpt lat="43.46241" lon="2.21187">
        <ele>785</ele>
        <time>2019-03-30T14:53:18Z</time>
      </trkpt>
      <trkpt lat="43.46238" lon="2.21184">
        <ele>785</ele>
        <time>2019-03-30T14:53:19Z</time>
      </trkpt>
      <trkpt lat="43.46231" lon="2.21174">
        <ele>784</ele>
        <time>2019-03-30T14:53:22Z</time>
      </trkpt>
      <trkpt lat="43.46225" lon="2.21164">
        <ele>784</ele>
        <time>2019-03-30T14:53:27Z</time>
      </trkpt>
      <trkpt lat="43.46223" lon="2.21158">
        <ele>784</ele>
        <time>2019-03-30T14:53:28Z</time>
      </trkpt>
      <trkpt lat="43.46215" lon="2.21146">
        <ele>783</ele>
        <time>2019-03-30T14:53:33Z</time>
      </trkpt>
      <trkpt lat="43.46212" lon="2.21143">
        <ele>783</ele>
        <time>2019-03-30T14:53:34Z</time>
      </trkpt>
      <trkpt lat="43.46196" lon="2.21119">
        <ele>784</ele>
        <time>2019-03-30T14:53:41Z</time>
      </trkpt>
      <trkpt lat="43.46184" lon="2.21104">
        <ele>783</ele>
        <time>2019-03-30T14:53:45Z</time>
      </trkpt>
      <trkpt lat="43.46178" lon="2.21095">
        <ele>783</ele>
        <time>2019-03-30T14:53:46Z</time>
      </trkpt>
      <trkpt lat="43.46175" lon="2.2109">
        <ele>783</ele>
        <time>2019-03-30T14:53:47Z</time>
      </trkpt>
      <trkpt lat="43.46169" lon="2.2108">
        <ele>783</ele>
        <time>2019-03-30T14:53:50Z</time>
      </trkpt>
      <trkpt lat="43.46158" lon="2.21059">
        <ele>783</ele>
        <time>2019-03-30T14:53:54Z</time>
      </trkpt>
      <trkpt lat="43.46155" lon="2.21055">
        <ele>783</ele>
        <time>2019-03-30T14:53:55Z</time>
      </trkpt>
      <trkpt lat="43.46148" lon="2.21047">
        <ele>782</ele>
        <time>2019-03-30T14:53:57Z</time>
      </trkpt>
      <trkpt lat="43.46139" lon="2.21043">
        <ele>782</ele>
        <time>2019-03-30T14:53:59Z</time>
      </trkpt>
      <trkpt lat="43.46131" lon="2.21041">
        <ele>782</ele>
        <time>2019-03-30T14:54:01Z</time>
      </trkpt>
      <trkpt lat="43.46116" lon="2.21045">
        <ele>782</ele>
        <time>2019-03-30T14:54:05Z</time>
      </trkpt>
      <trkpt lat="43.46104" lon="2.21053">
        <ele>782</ele>
        <time>2019-03-30T14:54:09Z</time>
      </trkpt>
      <trkpt lat="43.461" lon="2.21056">
        <ele>782</ele>
        <time>2019-03-30T14:54:10Z</time>
      </trkpt>
      <trkpt lat="43.4609" lon="2.21068">
        <ele>781</ele>
        <time>2019-03-30T14:54:13Z</time>
      </trkpt>
      <trkpt lat="43.46087" lon="2.21073">
        <ele>781</ele>
        <time>2019-03-30T14:54:14Z</time>
      </trkpt>
      <trkpt lat="43.46072" lon="2.21098">
        <ele>782</ele>
        <time>2019-03-30T14:54:20Z</time>
      </trkpt>
      <trkpt lat="43.46069" lon="2.21101">
        <ele>783</ele>
        <time>2019-03-30T14:54:21Z</time>
      </trkpt>
      <trkpt lat="43.46056" lon="2.2111">
        <ele>783</ele>
        <time>2019-03-30T14:54:25Z</time>
      </trkpt>
      <trkpt lat="43.46043" lon="2.21115">
        <ele>784</ele>
        <time>2019-03-30T14:54:29Z</time>
      </trkpt>
      <trkpt lat="43.46036" lon="2.21117">
        <ele>784</ele>
        <time>2019-03-30T14:54:31Z</time>
      </trkpt>
      <trkpt lat="43.4602" lon="2.21125">
        <ele>784</ele>
        <time>2019-03-30T14:54:36Z</time>
      </trkpt>
      <trkpt lat="43.46004" lon="2.2113">
        <ele>785</ele>
        <time>2019-03-30T14:54:41Z</time>
      </trkpt>
      <trkpt lat="43.45993" lon="2.2113">
        <ele>785</ele>
        <time>2019-03-30T14:54:44Z</time>
      </trkpt>
      <trkpt lat="43.45975" lon="2.21119">
        <ele>785</ele>
        <time>2019-03-30T14:54:49Z</time>
      </trkpt>
      <trkpt lat="43.45968" lon="2.21112">
        <ele>785</ele>
        <time>2019-03-30T14:54:51Z</time>
      </trkpt>
      <trkpt lat="43.45956" lon="2.21101">
        <ele>784</ele>
        <time>2019-03-30T14:54:54Z</time>
      </trkpt>
      <trkpt lat="43.45946" lon="2.21093">
        <ele>782</ele>
        <time>2019-03-30T14:54:56Z</time>
      </trkpt>
      <trkpt lat="43.45931" lon="2.21081">
        <ele>781</ele>
        <time>2019-03-30T14:54:59Z</time>
      </trkpt>
      <trkpt lat="43.45919" lon="2.21072">
        <ele>780</ele>
        <time>2019-03-30T14:55:00Z</time>
      </trkpt>
      <trkpt lat="43.45907" lon="2.21063">
        <ele>780</ele>
        <time>2019-03-30T14:55:02Z</time>
      </trkpt>
      <trkpt lat="43.45892" lon="2.21054">
        <ele>778</ele>
        <time>2019-03-30T14:55:04Z</time>
      </trkpt>
      <trkpt lat="43.45884" lon="2.21049">
        <ele>777</ele>
        <time>2019-03-30T14:55:06Z</time>
      </trkpt>
      <trkpt lat="43.4586" lon="2.21036">
        <ele>776</ele>
        <time>2019-03-30T14:55:08Z</time>
      </trkpt>
      <trkpt lat="43.45836" lon="2.2103">
        <ele>775</ele>
        <time>2019-03-30T14:55:11Z</time>
      </trkpt>
      <trkpt lat="43.45816" lon="2.21023">
        <ele>774</ele>
        <time>2019-03-30T14:55:14Z</time>
      </trkpt>
      <trkpt lat="43.45809" lon="2.21021">
        <ele>776</ele>
        <time>2019-03-30T14:55:16Z</time>
      </trkpt>
      <trkpt lat="43.45802" lon="2.21019">
        <ele>776</ele>
        <time>2019-03-30T14:55:17Z</time>
      </trkpt>
      <trkpt lat="43.45776" lon="2.21012">
        <ele>776</ele>
        <time>2019-03-30T14:55:20Z</time>
      </trkpt>
      <trkpt lat="43.45757" lon="2.21006">
        <ele>777</ele>
        <time>2019-03-30T14:55:23Z</time>
      </trkpt>
      <trkpt lat="43.45741" lon="2.21">
        <ele>778</ele>
        <time>2019-03-30T14:55:26Z</time>
      </trkpt>
      <trkpt lat="43.45726" lon="2.20996">
        <ele>779</ele>
        <time>2019-03-30T14:55:29Z</time>
      </trkpt>
      <trkpt lat="43.45694" lon="2.20987">
        <ele>779</ele>
        <time>2019-03-30T14:55:36Z</time>
      </trkpt>
      <trkpt lat="43.45685" lon="2.20986">
        <ele>779</ele>
        <time>2019-03-30T14:55:39Z</time>
      </trkpt>
      <trkpt lat="43.45657" lon="2.20979">
        <ele>780</ele>
        <time>2019-03-30T14:55:45Z</time>
      </trkpt>
      <trkpt lat="43.45648" lon="2.20979">
        <ele>780</ele>
        <time>2019-03-30T14:55:46Z</time>
      </trkpt>
      <trkpt lat="43.45639" lon="2.20981">
        <ele>780</ele>
        <time>2019-03-30T14:55:48Z</time>
      </trkpt>
      <trkpt lat="43.45623" lon="2.20987">
        <ele>780</ele>
        <time>2019-03-30T14:55:52Z</time>
      </trkpt>
      <trkpt lat="43.45617" lon="2.20994">
        <ele>780</ele>
        <time>2019-03-30T14:55:54Z</time>
      </trkpt>
      <trkpt lat="43.456" lon="2.21014">
        <ele>779</ele>
        <time>2019-03-30T14:56:00Z</time>
      </trkpt>
      <trkpt lat="43.45595" lon="2.21024">
        <ele>779</ele>
        <time>2019-03-30T14:56:02Z</time>
      </trkpt>
      <trkpt lat="43.4559" lon="2.21032">
        <ele>779</ele>
        <time>2019-03-30T14:56:04Z</time>
      </trkpt>
      <trkpt lat="43.45585" lon="2.21042">
        <ele>779</ele>
        <time>2019-03-30T14:56:06Z</time>
      </trkpt>
      <trkpt lat="43.4557" lon="2.21077">
        <ele>777</ele>
        <time>2019-03-30T14:56:13Z</time>
      </trkpt>
      <trkpt lat="43.45565" lon="2.21091">
        <ele>777</ele>
        <time>2019-03-30T14:56:14Z</time>
      </trkpt>
      <trkpt lat="43.45557" lon="2.21115">
        <ele>774</ele>
        <time>2019-03-30T14:56:17Z</time>
      </trkpt>
      <trkpt lat="43.45554" lon="2.21124">
        <ele>773</ele>
        <time>2019-03-30T14:56:18Z</time>
      </trkpt>
      <trkpt lat="43.45549" lon="2.21142">
        <ele>771</ele>
        <time>2019-03-30T14:56:20Z</time>
      </trkpt>
      <trkpt lat="43.45549" lon="2.21159">
        <ele>769</ele>
        <time>2019-03-30T14:56:22Z</time>
      </trkpt>
      <trkpt lat="43.45553" lon="2.21176">
        <ele>768</ele>
        <time>2019-03-30T14:56:24Z</time>
      </trkpt>
      <trkpt lat="43.45559" lon="2.21197">
        <ele>767</ele>
        <time>2019-03-30T14:56:26Z</time>
      </trkpt>
      <trkpt lat="43.45565" lon="2.2123">
        <ele>766</ele>
        <time>2019-03-30T14:56:29Z</time>
      </trkpt>
      <trkpt lat="43.45572" lon="2.21287">
        <ele>767</ele>
        <time>2019-03-30T14:56:35Z</time>
      </trkpt>
      <trkpt lat="43.45574" lon="2.21295">
        <ele>768</ele>
        <time>2019-03-30T14:56:37Z</time>
      </trkpt>
      <trkpt lat="43.45576" lon="2.21309">
        <ele>769</ele>
        <time>2019-03-30T14:56:38Z</time>
      </trkpt>
      <trkpt lat="43.45579" lon="2.21327">
        <ele>769</ele>
        <time>2019-03-30T14:56:41Z</time>
      </trkpt>
      <trkpt lat="43.4558" lon="2.21344">
        <ele>770</ele>
        <time>2019-03-30T14:56:44Z</time>
      </trkpt>
      <trkpt lat="43.4558" lon="2.21355">
        <ele>770</ele>
        <time>2019-03-30T14:56:46Z</time>
      </trkpt>
      <trkpt lat="43.45578" lon="2.21368">
        <ele>770</ele>
        <time>2019-03-30T14:56:48Z</time>
      </trkpt>
      <trkpt lat="43.45574" lon="2.21382">
        <ele>769</ele>
        <time>2019-03-30T14:56:50Z</time>
      </trkpt>
      <trkpt lat="43.45569" lon="2.21394">
        <ele>769</ele>
        <time>2019-03-30T14:56:52Z</time>
      </trkpt>
      <trkpt lat="43.45559" lon="2.21403">
        <ele>769</ele>
        <time>2019-03-30T14:56:56Z</time>
      </trkpt>
      <trkpt lat="43.45547" lon="2.21402">
        <ele>768</ele>
        <time>2019-03-30T14:56:58Z</time>
      </trkpt>
      <trkpt lat="43.45539" lon="2.21402">
        <ele>768</ele>
        <time>2019-03-30T14:57:00Z</time>
      </trkpt>
      <trkpt lat="43.4553" lon="2.21404">
        <ele>767</ele>
        <time>2019-03-30T14:57:03Z</time>
      </trkpt>
      <trkpt lat="43.45516" lon="2.21407">
        <ele>766</ele>
        <time>2019-03-30T14:57:05Z</time>
      </trkpt>
      <trkpt lat="43.4551" lon="2.2141">
        <ele>766</ele>
        <time>2019-03-30T14:57:06Z</time>
      </trkpt>
      <trkpt lat="43.45498" lon="2.21419">
        <ele>765</ele>
        <time>2019-03-30T14:57:08Z</time>
      </trkpt>
      <trkpt lat="43.45486" lon="2.21431">
        <ele>765</ele>
        <time>2019-03-30T14:57:10Z</time>
      </trkpt>
      <trkpt lat="43.4548" lon="2.21439">
        <ele>764</ele>
        <time>2019-03-30T14:57:11Z</time>
      </trkpt>
      <trkpt lat="43.45475" lon="2.21447">
        <ele>763</ele>
        <time>2019-03-30T14:57:13Z</time>
      </trkpt>
      <trkpt lat="43.45467" lon="2.21465">
        <ele>762</ele>
        <time>2019-03-30T14:57:14Z</time>
      </trkpt>
      <trkpt lat="43.45459" lon="2.21485">
        <ele>759</ele>
        <time>2019-03-30T14:57:16Z</time>
      </trkpt>
      <trkpt lat="43.45455" lon="2.21496">
        <ele>757</ele>
        <time>2019-03-30T14:57:18Z</time>
      </trkpt>
      <trkpt lat="43.45441" lon="2.21525">
        <ele>756</ele>
        <time>2019-03-30T14:57:20Z</time>
      </trkpt>
      <trkpt lat="43.45435" lon="2.21543">
        <ele>755</ele>
        <time>2019-03-30T14:57:22Z</time>
      </trkpt>
      <trkpt lat="43.45431" lon="2.21563">
        <ele>754</ele>
        <time>2019-03-30T14:57:24Z</time>
      </trkpt>
      <trkpt lat="43.45432" lon="2.2158">
        <ele>752</ele>
        <time>2019-03-30T14:57:26Z</time>
      </trkpt>
      <trkpt lat="43.45433" lon="2.21588">
        <ele>752</ele>
        <time>2019-03-30T14:57:28Z</time>
      </trkpt>
      <trkpt lat="43.45437" lon="2.21589">
        <ele>752</ele>
        <time>2019-03-30T14:57:32Z</time>
      </trkpt>
      <trkpt lat="43.45438" lon="2.2159">
        <ele>752</ele>
        <time>2019-03-30T15:05:18Z</time>
      </trkpt>
      <trkpt lat="43.45437" lon="2.21589">
        <ele>752</ele>
        <time>2019-03-30T15:05:20Z</time>
      </trkpt>
      <trkpt lat="43.45435" lon="2.21587">
        <ele>752</ele>
        <time>2019-03-30T15:05:22Z</time>
      </trkpt>
      <trkpt lat="43.45425" lon="2.21574">
        <ele>753</ele>
        <time>2019-03-30T15:05:29Z</time>
      </trkpt>
      <trkpt lat="43.45411" lon="2.21553">
        <ele>752</ele>
        <time>2019-03-30T15:05:36Z</time>
      </trkpt>
      <trkpt lat="43.45397" lon="2.21538">
        <ele>751</ele>
        <time>2019-03-30T15:05:42Z</time>
      </trkpt>
      <trkpt lat="43.4538" lon="2.21513">
        <ele>751</ele>
        <time>2019-03-30T15:05:49Z</time>
      </trkpt>
      <trkpt lat="43.45349" lon="2.21475">
        <ele>750</ele>
        <time>2019-03-30T15:05:56Z</time>
      </trkpt>
      <trkpt lat="43.45337" lon="2.21463">
        <ele>750</ele>
        <time>2019-03-30T15:05:59Z</time>
      </trkpt>
      <trkpt lat="43.45324" lon="2.21453">
        <ele>750</ele>
        <time>2019-03-30T15:06:03Z</time>
      </trkpt>
      <trkpt lat="43.45316" lon="2.21445">
        <ele>750</ele>
        <time>2019-03-30T15:06:04Z</time>
      </trkpt>
      <trkpt lat="43.45298" lon="2.21432">
        <ele>749</ele>
        <time>2019-03-30T15:06:08Z</time>
      </trkpt>
      <trkpt lat="43.45259" lon="2.21402">
        <ele>748</ele>
        <time>2019-03-30T15:06:16Z</time>
      </trkpt>
      <trkpt lat="43.45247" lon="2.21395">
        <ele>748</ele>
        <time>2019-03-30T15:06:18Z</time>
      </trkpt>
      <trkpt lat="43.45235" lon="2.21392">
        <ele>748</ele>
        <time>2019-03-30T15:06:20Z</time>
      </trkpt>
      <trkpt lat="43.45216" lon="2.2139">
        <ele>748</ele>
        <time>2019-03-30T15:06:23Z</time>
      </trkpt>
      <trkpt lat="43.45209" lon="2.21389">
        <ele>747</ele>
        <time>2019-03-30T15:06:24Z</time>
      </trkpt>
      <trkpt lat="43.45197" lon="2.21389">
        <ele>747</ele>
        <time>2019-03-30T15:06:26Z</time>
      </trkpt>
      <trkpt lat="43.45185" lon="2.21383">
        <ele>747</ele>
        <time>2019-03-30T15:06:28Z</time>
      </trkpt>
      <trkpt lat="43.45181" lon="2.21376">
        <ele>746</ele>
        <time>2019-03-30T15:06:29Z</time>
      </trkpt>
      <trkpt lat="43.45181" lon="2.21351">
        <ele>746</ele>
        <time>2019-03-30T15:06:32Z</time>
      </trkpt>
      <trkpt lat="43.45182" lon="2.21342">
        <ele>745</ele>
        <time>2019-03-30T15:06:33Z</time>
      </trkpt>
      <trkpt lat="43.45185" lon="2.21317">
        <ele>745</ele>
        <time>2019-03-30T15:06:36Z</time>
      </trkpt>
      <trkpt lat="43.45184" lon="2.21299">
        <ele>745</ele>
        <time>2019-03-30T15:06:38Z</time>
      </trkpt>
      <trkpt lat="43.4518" lon="2.2128">
        <ele>744</ele>
        <time>2019-03-30T15:06:40Z</time>
      </trkpt>
      <trkpt lat="43.45177" lon="2.2127">
        <ele>744</ele>
        <time>2019-03-30T15:06:41Z</time>
      </trkpt>
      <trkpt lat="43.45165" lon="2.21243">
        <ele>743</ele>
        <time>2019-03-30T15:06:44Z</time>
      </trkpt>
      <trkpt lat="43.45146" lon="2.21212">
        <ele>743</ele>
        <time>2019-03-30T15:06:49Z</time>
      </trkpt>
      <trkpt lat="43.45135" lon="2.21198">
        <ele>743</ele>
        <time>2019-03-30T15:06:50Z</time>
      </trkpt>
      <trkpt lat="43.45124" lon="2.21184">
        <ele>742</ele>
        <time>2019-03-30T15:06:52Z</time>
      </trkpt>
      <trkpt lat="43.451" lon="2.21157">
        <ele>742</ele>
        <time>2019-03-30T15:06:56Z</time>
      </trkpt>
      <trkpt lat="43.45083" lon="2.21135">
        <ele>741</ele>
        <time>2019-03-30T15:06:59Z</time>
      </trkpt>
      <trkpt lat="43.45069" lon="2.21111">
        <ele>741</ele>
        <time>2019-03-30T15:07:02Z</time>
      </trkpt>
      <trkpt lat="43.45063" lon="2.21091">
        <ele>741</ele>
        <time>2019-03-30T15:07:04Z</time>
      </trkpt>
      <trkpt lat="43.45061" lon="2.2107">
        <ele>741</ele>
        <time>2019-03-30T15:07:06Z</time>
      </trkpt>
      <trkpt lat="43.45059" lon="2.21049">
        <ele>740</ele>
        <time>2019-03-30T15:07:08Z</time>
      </trkpt>
      <trkpt lat="43.45056" lon="2.21028">
        <ele>739</ele>
        <time>2019-03-30T15:07:10Z</time>
      </trkpt>
      <trkpt lat="43.45053" lon="2.21018">
        <ele>739</ele>
        <time>2019-03-30T15:07:11Z</time>
      </trkpt>
      <trkpt lat="43.45041" lon="2.20989">
        <ele>738</ele>
        <time>2019-03-30T15:07:14Z</time>
      </trkpt>
      <trkpt lat="43.4503" lon="2.20973">
        <ele>738</ele>
        <time>2019-03-30T15:07:16Z</time>
      </trkpt>
      <trkpt lat="43.44983" lon="2.20917">
        <ele>738</ele>
        <time>2019-03-30T15:07:23Z</time>
      </trkpt>
      <trkpt lat="43.44975" lon="2.20911">
        <ele>737</ele>
        <time>2019-03-30T15:07:24Z</time>
      </trkpt>
      <trkpt lat="43.44959" lon="2.20899">
        <ele>737</ele>
        <time>2019-03-30T15:07:26Z</time>
      </trkpt>
      <trkpt lat="43.44935" lon="2.20881">
        <ele>736</ele>
        <time>2019-03-30T15:07:29Z</time>
      </trkpt>
      <trkpt lat="43.44928" lon="2.20874">
        <ele>735</ele>
        <time>2019-03-30T15:07:31Z</time>
      </trkpt>
      <trkpt lat="43.44914" lon="2.20857">
        <ele>735</ele>
        <time>2019-03-30T15:07:32Z</time>
      </trkpt>
      <trkpt lat="43.44904" lon="2.20835">
        <ele>735</ele>
        <time>2019-03-30T15:07:34Z</time>
      </trkpt>
      <trkpt lat="43.44896" lon="2.20813">
        <ele>734</ele>
        <time>2019-03-30T15:07:36Z</time>
      </trkpt>
      <trkpt lat="43.44889" lon="2.20789">
        <ele>732</ele>
        <time>2019-03-30T15:07:39Z</time>
      </trkpt>
      <trkpt lat="43.44882" lon="2.20766">
        <ele>732</ele>
        <time>2019-03-30T15:07:40Z</time>
      </trkpt>
      <trkpt lat="43.44872" lon="2.20746">
        <ele>732</ele>
        <time>2019-03-30T15:07:42Z</time>
      </trkpt>
      <trkpt lat="43.44861" lon="2.20728">
        <ele>731</ele>
        <time>2019-03-30T15:07:44Z</time>
      </trkpt>
      <trkpt lat="43.44847" lon="2.20716">
        <ele>731</ele>
        <time>2019-03-30T15:07:46Z</time>
      </trkpt>
      <trkpt lat="43.44818" lon="2.20695">
        <ele>732</ele>
        <time>2019-03-30T15:07:50Z</time>
      </trkpt>
      <trkpt lat="43.4481" lon="2.20676">
        <ele>732</ele>
        <time>2019-03-30T15:07:52Z</time>
      </trkpt>
      <trkpt lat="43.44808" lon="2.20665">
        <ele>732</ele>
        <time>2019-03-30T15:07:53Z</time>
      </trkpt>
      <trkpt lat="43.448" lon="2.20636">
        <ele>731</ele>
        <time>2019-03-30T15:07:56Z</time>
      </trkpt>
      <trkpt lat="43.44792" lon="2.20619">
        <ele>731</ele>
        <time>2019-03-30T15:07:58Z</time>
      </trkpt>
      <trkpt lat="43.44771" lon="2.20587">
        <ele>731</ele>
        <time>2019-03-30T15:08:02Z</time>
      </trkpt>
      <trkpt lat="43.44759" lon="2.20573">
        <ele>731</ele>
        <time>2019-03-30T15:08:04Z</time>
      </trkpt>
      <trkpt lat="43.44747" lon="2.20559">
        <ele>730</ele>
        <time>2019-03-30T15:08:06Z</time>
      </trkpt>
      <trkpt lat="43.44712" lon="2.20519">
        <ele>729</ele>
        <time>2019-03-30T15:08:12Z</time>
      </trkpt>
      <trkpt lat="43.447" lon="2.20507">
        <ele>729</ele>
        <time>2019-03-30T15:08:14Z</time>
      </trkpt>
      <trkpt lat="43.44687" lon="2.20498">
        <ele>728</ele>
        <time>2019-03-30T15:08:16Z</time>
      </trkpt>
      <trkpt lat="43.4468" lon="2.20495">
        <ele>728</ele>
        <time>2019-03-30T15:08:17Z</time>
      </trkpt>
      <trkpt lat="43.44638" lon="2.20484">
        <ele>727</ele>
        <time>2019-03-30T15:08:23Z</time>
      </trkpt>
      <trkpt lat="43.44632" lon="2.20481">
        <ele>727</ele>
        <time>2019-03-30T15:08:24Z</time>
      </trkpt>
      <trkpt lat="43.44621" lon="2.20469">
        <ele>727</ele>
        <time>2019-03-30T15:08:26Z</time>
      </trkpt>
      <trkpt lat="43.44616" lon="2.2045">
        <ele>726</ele>
        <time>2019-03-30T15:08:28Z</time>
      </trkpt>
      <trkpt lat="43.44617" lon="2.2044">
        <ele>725</ele>
        <time>2019-03-30T15:08:29Z</time>
      </trkpt>
      <trkpt lat="43.44619" lon="2.2043">
        <ele>724</ele>
        <time>2019-03-30T15:08:30Z</time>
      </trkpt>
      <trkpt lat="43.44623" lon="2.20411">
        <ele>723</ele>
        <time>2019-03-30T15:08:32Z</time>
      </trkpt>
      <trkpt lat="43.44621" lon="2.2039">
        <ele>723</ele>
        <time>2019-03-30T15:08:34Z</time>
      </trkpt>
      <trkpt lat="43.44618" lon="2.20381">
        <ele>722</ele>
        <time>2019-03-30T15:08:35Z</time>
      </trkpt>
      <trkpt lat="43.44603" lon="2.20355">
        <ele>721</ele>
        <time>2019-03-30T15:08:38Z</time>
      </trkpt>
      <trkpt lat="43.44589" lon="2.20341">
        <ele>721</ele>
        <time>2019-03-30T15:08:40Z</time>
      </trkpt>
      <trkpt lat="43.44575" lon="2.20328">
        <ele>720</ele>
        <time>2019-03-30T15:08:42Z</time>
      </trkpt>
      <trkpt lat="43.44547" lon="2.20296">
        <ele>719</ele>
        <time>2019-03-30T15:08:46Z</time>
      </trkpt>
      <trkpt lat="43.44542" lon="2.20287">
        <ele>719</ele>
        <time>2019-03-30T15:08:47Z</time>
      </trkpt>
      <trkpt lat="43.44537" lon="2.20277">
        <ele>718</ele>
        <time>2019-03-30T15:08:49Z</time>
      </trkpt>
      <trkpt lat="43.44517" lon="2.20235">
        <ele>717</ele>
        <time>2019-03-30T15:08:52Z</time>
      </trkpt>
      <trkpt lat="43.44491" lon="2.2019">
        <ele>715</ele>
        <time>2019-03-30T15:08:56Z</time>
      </trkpt>
      <trkpt lat="43.44479" lon="2.20168">
        <ele>715</ele>
        <time>2019-03-30T15:08:58Z</time>
      </trkpt>
      <trkpt lat="43.4447" lon="2.20144">
        <ele>714</ele>
        <time>2019-03-30T15:09:00Z</time>
      </trkpt>
      <trkpt lat="43.44466" lon="2.2012">
        <ele>713</ele>
        <time>2019-03-30T15:09:02Z</time>
      </trkpt>
      <trkpt lat="43.44462" lon="2.20096">
        <ele>712</ele>
        <time>2019-03-30T15:09:04Z</time>
      </trkpt>
      <trkpt lat="43.44454" lon="2.20075">
        <ele>711</ele>
        <time>2019-03-30T15:09:06Z</time>
      </trkpt>
      <trkpt lat="43.4444" lon="2.20058">
        <ele>710</ele>
        <time>2019-03-30T15:09:08Z</time>
      </trkpt>
      <trkpt lat="43.4443" lon="2.2004">
        <ele>709</ele>
        <time>2019-03-30T15:09:10Z</time>
      </trkpt>
      <trkpt lat="43.44422" lon="2.20019">
        <ele>707</ele>
        <time>2019-03-30T15:09:12Z</time>
      </trkpt>
      <trkpt lat="43.44414" lon="2.19998">
        <ele>707</ele>
        <time>2019-03-30T15:09:14Z</time>
      </trkpt>
      <trkpt lat="43.44402" lon="2.19982">
        <ele>706</ele>
        <time>2019-03-30T15:09:16Z</time>
      </trkpt>
      <trkpt lat="43.44374" lon="2.19956">
        <ele>706</ele>
        <time>2019-03-30T15:09:20Z</time>
      </trkpt>
      <trkpt lat="43.44363" lon="2.19939">
        <ele>706</ele>
        <time>2019-03-30T15:09:22Z</time>
      </trkpt>
      <trkpt lat="43.44356" lon="2.19921">
        <ele>705</ele>
        <time>2019-03-30T15:09:24Z</time>
      </trkpt>
      <trkpt lat="43.44353" lon="2.199">
        <ele>705</ele>
        <time>2019-03-30T15:09:26Z</time>
      </trkpt>
      <trkpt lat="43.44353" lon="2.19882">
        <ele>705</ele>
        <time>2019-03-30T15:09:28Z</time>
      </trkpt>
      <trkpt lat="43.44358" lon="2.19863">
        <ele>704</ele>
        <time>2019-03-30T15:09:30Z</time>
      </trkpt>
      <trkpt lat="43.44364" lon="2.19846">
        <ele>704</ele>
        <time>2019-03-30T15:09:32Z</time>
      </trkpt>
      <trkpt lat="43.44374" lon="2.19826">
        <ele>704</ele>
        <time>2019-03-30T15:09:35Z</time>
      </trkpt>
      <trkpt lat="43.44375" lon="2.19822">
        <ele>704</ele>
        <time>2019-03-30T15:09:36Z</time>
      </trkpt>
      <trkpt lat="43.44372" lon="2.19816">
        <ele>705</ele>
        <time>2019-03-30T15:09:39Z</time>
      </trkpt>
      <trkpt lat="43.44365" lon="2.19816">
        <ele>705</ele>
        <time>2019-03-30T15:09:40Z</time>
      </trkpt>
      <trkpt lat="43.44357" lon="2.19819">
        <ele>705</ele>
        <time>2019-03-30T15:09:42Z</time>
      </trkpt>
      <trkpt lat="43.44349" lon="2.19822">
        <ele>705</ele>
        <time>2019-03-30T15:09:45Z</time>
      </trkpt>
      <trkpt lat="43.44339" lon="2.19822">
        <ele>705</ele>
        <time>2019-03-30T15:09:46Z</time>
      </trkpt>
      <trkpt lat="43.44329" lon="2.19823">
        <ele>705</ele>
        <time>2019-03-30T15:09:48Z</time>
      </trkpt>
      <trkpt lat="43.44319" lon="2.19822">
        <ele>705</ele>
        <time>2019-03-30T15:09:50Z</time>
      </trkpt>
      <trkpt lat="43.44306" lon="2.1982">
        <ele>705</ele>
        <time>2019-03-30T15:09:53Z</time>
      </trkpt>
      <trkpt lat="43.44301" lon="2.19819">
        <ele>706</ele>
        <time>2019-03-30T15:09:54Z</time>
      </trkpt>
      <trkpt lat="43.44293" lon="2.19818">
        <ele>706</ele>
        <time>2019-03-30T15:09:56Z</time>
      </trkpt>
      <trkpt lat="43.44284" lon="2.19817">
        <ele>706</ele>
        <time>2019-03-30T15:09:58Z</time>
      </trkpt>
      <trkpt lat="43.44276" lon="2.19818">
        <ele>707</ele>
        <time>2019-03-30T15:10:00Z</time>
      </trkpt>
      <trkpt lat="43.44269" lon="2.19817">
        <ele>707</ele>
        <time>2019-03-30T15:10:02Z</time>
      </trkpt>
      <trkpt lat="43.44252" lon="2.19819">
        <ele>708</ele>
        <time>2019-03-30T15:10:07Z</time>
      </trkpt>
      <trkpt lat="43.44244" lon="2.19822">
        <ele>708</ele>
        <time>2019-03-30T15:10:08Z</time>
      </trkpt>
      <trkpt lat="43.44233" lon="2.19829">
        <ele>708</ele>
        <time>2019-03-30T15:10:11Z</time>
      </trkpt>
      <trkpt lat="43.44229" lon="2.19832">
        <ele>708</ele>
        <time>2019-03-30T15:10:12Z</time>
      </trkpt>
      <trkpt lat="43.44207" lon="2.19858">
        <ele>709</ele>
        <time>2019-03-30T15:10:19Z</time>
      </trkpt>
      <trkpt lat="43.442" lon="2.19865">
        <ele>709</ele>
        <time>2019-03-30T15:10:20Z</time>
      </trkpt>
      <trkpt lat="43.44192" lon="2.19869">
        <ele>710</ele>
        <time>2019-03-30T15:10:22Z</time>
      </trkpt>
      <trkpt lat="43.44184" lon="2.19872">
        <ele>710</ele>
        <time>2019-03-30T15:10:24Z</time>
      </trkpt>
      <trkpt lat="43.44167" lon="2.19873">
        <ele>710</ele>
        <time>2019-03-30T15:10:28Z</time>
      </trkpt>
      <trkpt lat="43.44159" lon="2.19873">
        <ele>711</ele>
        <time>2019-03-30T15:10:30Z</time>
      </trkpt>
      <trkpt lat="43.44135" lon="2.19872">
        <ele>712</ele>
        <time>2019-03-30T15:10:36Z</time>
      </trkpt>
      <trkpt lat="43.44115" lon="2.19869">
        <ele>712</ele>
        <time>2019-03-30T15:10:41Z</time>
      </trkpt>
      <trkpt lat="43.44089" lon="2.19862">
        <ele>713</ele>
        <time>2019-03-30T15:10:48Z</time>
      </trkpt>
      <trkpt lat="43.44063" lon="2.19848">
        <ele>714</ele>
        <time>2019-03-30T15:10:56Z</time>
      </trkpt>
      <trkpt lat="43.44054" lon="2.19831">
        <ele>714</ele>
        <time>2019-03-30T15:11:01Z</time>
      </trkpt>
      <trkpt lat="43.44049" lon="2.19803">
        <ele>715</ele>
        <time>2019-03-30T15:11:06Z</time>
      </trkpt>
      <trkpt lat="43.44045" lon="2.19782">
        <ele>716</ele>
        <time>2019-03-30T15:11:11Z</time>
      </trkpt>
      <trkpt lat="43.44044" lon="2.19778">
        <ele>716</ele>
        <time>2019-03-30T15:11:13Z</time>
      </trkpt>
      <trkpt lat="43.44038" lon="2.19756">
        <ele>717</ele>
        <time>2019-03-30T15:11:19Z</time>
      </trkpt>
      <trkpt lat="43.44037" lon="2.19749">
        <ele>717</ele>
        <time>2019-03-30T15:11:20Z</time>
      </trkpt>
      <trkpt lat="43.44035" lon="2.19734">
        <ele>717</ele>
        <time>2019-03-30T15:11:25Z</time>
      </trkpt>
      <trkpt lat="43.44031" lon="2.19703">
        <ele>716</ele>
        <time>2019-03-30T15:11:31Z</time>
      </trkpt>
      <trkpt lat="43.44029" lon="2.19691">
        <ele>716</ele>
        <time>2019-03-30T15:11:32Z</time>
      </trkpt>
      <trkpt lat="43.44027" lon="2.19677">
        <ele>715</ele>
        <time>2019-03-30T15:11:34Z</time>
      </trkpt>
      <trkpt lat="43.44026" lon="2.19662">
        <ele>714</ele>
        <time>2019-03-30T15:11:36Z</time>
      </trkpt>
      <trkpt lat="43.44025" lon="2.19647">
        <ele>714</ele>
        <time>2019-03-30T15:11:38Z</time>
      </trkpt>
      <trkpt lat="43.44025" lon="2.19638">
        <ele>714</ele>
        <time>2019-03-30T15:11:39Z</time>
      </trkpt>
      <trkpt lat="43.44025" lon="2.19612">
        <ele>713</ele>
        <time>2019-03-30T15:11:42Z</time>
      </trkpt>
      <trkpt lat="43.44025" lon="2.19557">
        <ele>712</ele>
        <time>2019-03-30T15:11:49Z</time>
      </trkpt>
      <trkpt lat="43.44025" lon="2.19536">
        <ele>712</ele>
        <time>2019-03-30T15:11:50Z</time>
      </trkpt>
      <trkpt lat="43.44024" lon="2.19506">
        <ele>711</ele>
        <time>2019-03-30T15:11:53Z</time>
      </trkpt>
      <trkpt lat="43.44022" lon="2.19497">
        <ele>711</ele>
        <time>2019-03-30T15:11:55Z</time>
      </trkpt>
      <trkpt lat="43.4402" lon="2.19479">
        <ele>710</ele>
        <time>2019-03-30T15:11:56Z</time>
      </trkpt>
      <trkpt lat="43.44015" lon="2.19444">
        <ele>710</ele>
        <time>2019-03-30T15:12:00Z</time>
      </trkpt>
      <trkpt lat="43.44008" lon="2.19414">
        <ele>710</ele>
        <time>2019-03-30T15:12:04Z</time>
      </trkpt>
      <trkpt lat="43.43999" lon="2.19407">
        <ele>710</ele>
        <time>2019-03-30T15:12:07Z</time>
      </trkpt>
      <trkpt lat="43.43989" lon="2.1941">
        <ele>710</ele>
        <time>2019-03-30T15:12:08Z</time>
      </trkpt>
      <trkpt lat="43.43977" lon="2.19415">
        <ele>710</ele>
        <time>2019-03-30T15:12:10Z</time>
      </trkpt>
      <trkpt lat="43.43954" lon="2.19423">
        <ele>711</ele>
        <time>2019-03-30T15:12:14Z</time>
      </trkpt>
      <trkpt lat="43.43944" lon="2.19425">
        <ele>711</ele>
        <time>2019-03-30T15:12:16Z</time>
      </trkpt>
      <trkpt lat="43.43936" lon="2.19428">
        <ele>712</ele>
        <time>2019-03-30T15:12:18Z</time>
      </trkpt>
      <trkpt lat="43.43929" lon="2.19432">
        <ele>713</ele>
        <time>2019-03-30T15:12:21Z</time>
      </trkpt>
      <trkpt lat="43.43922" lon="2.19436">
        <ele>713</ele>
        <time>2019-03-30T15:12:22Z</time>
      </trkpt>
      <trkpt lat="43.43915" lon="2.19437">
        <ele>714</ele>
        <time>2019-03-30T15:12:24Z</time>
      </trkpt>
      <trkpt lat="43.43909" lon="2.19438">
        <ele>714</ele>
        <time>2019-03-30T15:12:26Z</time>
      </trkpt>
      <trkpt lat="43.43896" lon="2.1944">
        <ele>716</ele>
        <time>2019-03-30T15:12:31Z</time>
      </trkpt>
      <trkpt lat="43.43885" lon="2.19441">
        <ele>717</ele>
        <time>2019-03-30T15:12:34Z</time>
      </trkpt>
      <trkpt lat="43.43879" lon="2.19442">
        <ele>718</ele>
        <time>2019-03-30T15:12:37Z</time>
      </trkpt>
      <trkpt lat="43.43873" lon="2.19442">
        <ele>718</ele>
        <time>2019-03-30T15:12:39Z</time>
      </trkpt>
      <trkpt lat="43.43862" lon="2.19442">
        <ele>720</ele>
        <time>2019-03-30T15:12:43Z</time>
      </trkpt>
      <trkpt lat="43.43849" lon="2.19441">
        <ele>720</ele>
        <time>2019-03-30T15:12:46Z</time>
      </trkpt>
      <trkpt lat="43.43846" lon="2.19441">
        <ele>721</ele>
        <time>2019-03-30T15:12:47Z</time>
      </trkpt>
      <trkpt lat="43.43828" lon="2.19443">
        <ele>722</ele>
        <time>2019-03-30T15:12:53Z</time>
      </trkpt>
      <trkpt lat="43.43814" lon="2.19443">
        <ele>722</ele>
        <time>2019-03-30T15:12:58Z</time>
      </trkpt>
      <trkpt lat="43.43803" lon="2.19443">
        <ele>723</ele>
        <time>2019-03-30T15:13:02Z</time>
      </trkpt>
      <trkpt lat="43.43796" lon="2.19443">
        <ele>724</ele>
        <time>2019-03-30T15:13:04Z</time>
      </trkpt>
      <trkpt lat="43.4379" lon="2.19443">
        <ele>724</ele>
        <time>2019-03-30T15:13:06Z</time>
      </trkpt>
      <trkpt lat="43.43785" lon="2.19442">
        <ele>725</ele>
        <time>2019-03-30T15:13:09Z</time>
      </trkpt>
      <trkpt lat="43.43778" lon="2.1944">
        <ele>725</ele>
        <time>2019-03-30T15:13:11Z</time>
      </trkpt>
      <trkpt lat="43.4377" lon="2.19438">
        <ele>726</ele>
        <time>2019-03-30T15:13:14Z</time>
      </trkpt>
      <trkpt lat="43.43759" lon="2.19436">
        <ele>727</ele>
        <time>2019-03-30T15:13:18Z</time>
      </trkpt>
      <trkpt lat="43.43753" lon="2.19434">
        <ele>727</ele>
        <time>2019-03-30T15:13:20Z</time>
      </trkpt>
      <trkpt lat="43.43743" lon="2.19428">
        <ele>727</ele>
        <time>2019-03-30T15:13:25Z</time>
      </trkpt>
      <trkpt lat="43.43733" lon="2.19423">
        <ele>728</ele>
        <time>2019-03-30T15:13:28Z</time>
      </trkpt>
      <trkpt lat="43.43728" lon="2.1942">
        <ele>729</ele>
        <time>2019-03-30T15:13:31Z</time>
      </trkpt>
      <trkpt lat="43.43719" lon="2.19417">
        <ele>729</ele>
        <time>2019-03-30T15:13:34Z</time>
      </trkpt>
      <trkpt lat="43.43713" lon="2.19414">
        <ele>729</ele>
        <time>2019-03-30T15:13:36Z</time>
      </trkpt>
      <trkpt lat="43.43703" lon="2.1941">
        <ele>730</ele>
        <time>2019-03-30T15:13:40Z</time>
      </trkpt>
      <trkpt lat="43.437" lon="2.19409">
        <ele>731</ele>
        <time>2019-03-30T15:13:41Z</time>
      </trkpt>
      <trkpt lat="43.43689" lon="2.19407">
        <ele>731</ele>
        <time>2019-03-30T15:13:45Z</time>
      </trkpt>
      <trkpt lat="43.43678" lon="2.19405">
        <ele>732</ele>
        <time>2019-03-30T15:13:49Z</time>
      </trkpt>
      <trkpt lat="43.43672" lon="2.19405">
        <ele>733</ele>
        <time>2019-03-30T15:13:51Z</time>
      </trkpt>
      <trkpt lat="43.43658" lon="2.19405">
        <ele>734</ele>
        <time>2019-03-30T15:13:57Z</time>
      </trkpt>
      <trkpt lat="43.43642" lon="2.19405">
        <ele>735</ele>
        <time>2019-03-30T15:14:02Z</time>
      </trkpt>
      <trkpt lat="43.43627" lon="2.19407">
        <ele>736</ele>
        <time>2019-03-30T15:14:08Z</time>
      </trkpt>
      <trkpt lat="43.43621" lon="2.19408">
        <ele>736</ele>
        <time>2019-03-30T15:14:10Z</time>
      </trkpt>
      <trkpt lat="43.43616" lon="2.19409">
        <ele>737</ele>
        <time>2019-03-30T15:14:12Z</time>
      </trkpt>
      <trkpt lat="43.43612" lon="2.1941">
        <ele>738</ele>
        <time>2019-03-30T15:14:14Z</time>
      </trkpt>
      <trkpt lat="43.43603" lon="2.19414">
        <ele>738</ele>
        <time>2019-03-30T15:14:18Z</time>
      </trkpt>
      <trkpt lat="43.43595" lon="2.19416">
        <ele>739</ele>
        <time>2019-03-30T15:14:22Z</time>
      </trkpt>
      <trkpt lat="43.43594" lon="2.19417">
        <ele>739</ele>
        <time>2019-03-30T15:14:23Z</time>
      </trkpt>
      <trkpt lat="43.43588" lon="2.1942">
        <ele>740</ele>
        <time>2019-03-30T15:14:27Z</time>
      </trkpt>
      <trkpt lat="43.43581" lon="2.19424">
        <ele>740</ele>
        <time>2019-03-30T15:14:29Z</time>
      </trkpt>
      <trkpt lat="43.43571" lon="2.19431">
        <ele>740</ele>
        <time>2019-03-30T15:14:33Z</time>
      </trkpt>
      <trkpt lat="43.43569" lon="2.19432">
        <ele>741</ele>
        <time>2019-03-30T15:14:34Z</time>
      </trkpt>
      <trkpt lat="43.43565" lon="2.19437">
        <ele>742</ele>
        <time>2019-03-30T15:14:37Z</time>
      </trkpt>
      <trkpt lat="43.43561" lon="2.1944">
        <ele>743</ele>
        <time>2019-03-30T15:14:38Z</time>
      </trkpt>
      <trkpt lat="43.43559" lon="2.19442">
        <ele>743</ele>
        <time>2019-03-30T15:14:39Z</time>
      </trkpt>
      <trkpt lat="43.43557" lon="2.19443">
        <ele>744</ele>
        <time>2019-03-30T15:14:40Z</time>
      </trkpt>
      <trkpt lat="43.43552" lon="2.19446">
        <ele>744</ele>
        <time>2019-03-30T15:14:42Z</time>
      </trkpt>
      <trkpt lat="43.43548" lon="2.1945">
        <ele>744</ele>
        <time>2019-03-30T15:14:44Z</time>
      </trkpt>
      <trkpt lat="43.43537" lon="2.1946">
        <ele>745</ele>
        <time>2019-03-30T15:14:49Z</time>
      </trkpt>
      <trkpt lat="43.43528" lon="2.19472">
        <ele>746</ele>
        <time>2019-03-30T15:14:54Z</time>
      </trkpt>
      <trkpt lat="43.43517" lon="2.19481">
        <ele>747</ele>
        <time>2019-03-30T15:14:59Z</time>
      </trkpt>
      <trkpt lat="43.43509" lon="2.19489">
        <ele>747</ele>
        <time>2019-03-30T15:15:03Z</time>
      </trkpt>
      <trkpt lat="43.43505" lon="2.19493">
        <ele>748</ele>
        <time>2019-03-30T15:15:05Z</time>
      </trkpt>
      <trkpt lat="43.43498" lon="2.195">
        <ele>748</ele>
        <time>2019-03-30T15:15:09Z</time>
      </trkpt>
      <trkpt lat="43.43495" lon="2.19504">
        <ele>749</ele>
        <time>2019-03-30T15:15:11Z</time>
      </trkpt>
      <trkpt lat="43.43488" lon="2.19512">
        <ele>750</ele>
        <time>2019-03-30T15:15:15Z</time>
      </trkpt>
      <trkpt lat="43.43486" lon="2.19514">
        <ele>750</ele>
        <time>2019-03-30T15:15:16Z</time>
      </trkpt>
      <trkpt lat="43.43478" lon="2.19524">
        <ele>751</ele>
        <time>2019-03-30T15:15:20Z</time>
      </trkpt>
      <trkpt lat="43.43472" lon="2.19529">
        <ele>751</ele>
        <time>2019-03-30T15:15:23Z</time>
      </trkpt>
      <trkpt lat="43.43456" lon="2.19543">
        <ele>752</ele>
        <time>2019-03-30T15:15:29Z</time>
      </trkpt>
      <trkpt lat="43.43436" lon="2.19546">
        <ele>753</ele>
        <time>2019-03-30T15:15:36Z</time>
      </trkpt>
      <trkpt lat="43.43417" lon="2.19543">
        <ele>754</ele>
        <time>2019-03-30T15:15:43Z</time>
      </trkpt>
      <trkpt lat="43.43414" lon="2.19543">
        <ele>755</ele>
        <time>2019-03-30T15:15:44Z</time>
      </trkpt>
      <trkpt lat="43.43409" lon="2.19543">
        <ele>755</ele>
        <time>2019-03-30T15:15:46Z</time>
      </trkpt>
      <trkpt lat="43.434" lon="2.19546">
        <ele>756</ele>
        <time>2019-03-30T15:15:50Z</time>
      </trkpt>
      <trkpt lat="43.43398" lon="2.19548">
        <ele>756</ele>
        <time>2019-03-30T15:15:51Z</time>
      </trkpt>
      <trkpt lat="43.43386" lon="2.19555">
        <ele>757</ele>
        <time>2019-03-30T15:15:56Z</time>
      </trkpt>
      <trkpt lat="43.43379" lon="2.19561">
        <ele>757</ele>
        <time>2019-03-30T15:15:59Z</time>
      </trkpt>
      <trkpt lat="43.43377" lon="2.19562">
        <ele>758</ele>
        <time>2019-03-30T15:16:00Z</time>
      </trkpt>
      <trkpt lat="43.4337" lon="2.19566">
        <ele>758</ele>
        <time>2019-03-30T15:16:03Z</time>
      </trkpt>
      <trkpt lat="43.43364" lon="2.1957">
        <ele>759</ele>
        <time>2019-03-30T15:16:05Z</time>
      </trkpt>
      <trkpt lat="43.43358" lon="2.19575">
        <ele>759</ele>
        <time>2019-03-30T15:16:08Z</time>
      </trkpt>
      <trkpt lat="43.43353" lon="2.19579">
        <ele>760</ele>
        <time>2019-03-30T15:16:10Z</time>
      </trkpt>
      <trkpt lat="43.43348" lon="2.19588">
        <ele>761</ele>
        <time>2019-03-30T15:16:13Z</time>
      </trkpt>
      <trkpt lat="43.43344" lon="2.19597">
        <ele>761</ele>
        <time>2019-03-30T15:16:16Z</time>
      </trkpt>
      <trkpt lat="43.43343" lon="2.19606">
        <ele>762</ele>
        <time>2019-03-30T15:16:19Z</time>
      </trkpt>
      <trkpt lat="43.43343" lon="2.1961">
        <ele>762</ele>
        <time>2019-03-30T15:16:20Z</time>
      </trkpt>
      <trkpt lat="43.43343" lon="2.19613">
        <ele>762</ele>
        <time>2019-03-30T15:16:21Z</time>
      </trkpt>
      <trkpt lat="43.43342" lon="2.19626">
        <ele>763</ele>
        <time>2019-03-30T15:16:25Z</time>
      </trkpt>
      <trkpt lat="43.43343" lon="2.19643">
        <ele>763</ele>
        <time>2019-03-30T15:16:29Z</time>
      </trkpt>
      <trkpt lat="43.43344" lon="2.19651">
        <ele>764</ele>
        <time>2019-03-30T15:16:31Z</time>
      </trkpt>
      <trkpt lat="43.43344" lon="2.19667">
        <ele>765</ele>
        <time>2019-03-30T15:16:35Z</time>
      </trkpt>
      <trkpt lat="43.43343" lon="2.19675">
        <ele>765</ele>
        <time>2019-03-30T15:16:37Z</time>
      </trkpt>
      <trkpt lat="43.43342" lon="2.1969">
        <ele>766</ele>
        <time>2019-03-30T15:16:41Z</time>
      </trkpt>
      <trkpt lat="43.43341" lon="2.19698">
        <ele>767</ele>
        <time>2019-03-30T15:16:43Z</time>
      </trkpt>
      <trkpt lat="43.4334" lon="2.19706">
        <ele>768</ele>
        <time>2019-03-30T15:16:45Z</time>
      </trkpt>
      <trkpt lat="43.43338" lon="2.1972">
        <ele>769</ele>
        <time>2019-03-30T15:16:49Z</time>
      </trkpt>
      <trkpt lat="43.43337" lon="2.19727">
        <ele>769</ele>
        <time>2019-03-30T15:16:51Z</time>
      </trkpt>
      <trkpt lat="43.43336" lon="2.19738">
        <ele>770</ele>
        <time>2019-03-30T15:16:54Z</time>
      </trkpt>
      <trkpt lat="43.43336" lon="2.19742">
        <ele>770</ele>
        <time>2019-03-30T15:16:55Z</time>
      </trkpt>
      <trkpt lat="43.43335" lon="2.19757">
        <ele>771</ele>
        <time>2019-03-30T15:16:59Z</time>
      </trkpt>
      <trkpt lat="43.43334" lon="2.1976">
        <ele>771</ele>
        <time>2019-03-30T15:17:00Z</time>
      </trkpt>
      <trkpt lat="43.43332" lon="2.19767">
        <ele>772</ele>
        <time>2019-03-30T15:17:02Z</time>
      </trkpt>
      <trkpt lat="43.43332" lon="2.1977">
        <ele>773</ele>
        <time>2019-03-30T15:17:03Z</time>
      </trkpt>
      <trkpt lat="43.4333" lon="2.19788">
        <ele>773</ele>
        <time>2019-03-30T15:17:08Z</time>
      </trkpt>
      <trkpt lat="43.43326" lon="2.19803">
        <ele>774</ele>
        <time>2019-03-30T15:17:12Z</time>
      </trkpt>
      <trkpt lat="43.43325" lon="2.19807">
        <ele>775</ele>
        <time>2019-03-30T15:17:13Z</time>
      </trkpt>
      <trkpt lat="43.43324" lon="2.19818">
        <ele>775</ele>
        <time>2019-03-30T15:17:16Z</time>
      </trkpt>
      <trkpt lat="43.43323" lon="2.1983">
        <ele>775</ele>
        <time>2019-03-30T15:17:20Z</time>
      </trkpt>
      <trkpt lat="43.43321" lon="2.19839">
        <ele>775</ele>
        <time>2019-03-30T15:17:23Z</time>
      </trkpt>
      <trkpt lat="43.43321" lon="2.19842">
        <ele>776</ele>
        <time>2019-03-30T15:17:24Z</time>
      </trkpt>
      <trkpt lat="43.43318" lon="2.19848">
        <ele>777</ele>
        <time>2019-03-30T15:17:27Z</time>
      </trkpt>
      <trkpt lat="43.43313" lon="2.19856">
        <ele>778</ele>
        <time>2019-03-30T15:17:32Z</time>
      </trkpt>
      <trkpt lat="43.43309" lon="2.19863">
        <ele>778</ele>
        <time>2019-03-30T15:17:34Z</time>
      </trkpt>
      <trkpt lat="43.43303" lon="2.19878">
        <ele>779</ele>
        <time>2019-03-30T15:17:37Z</time>
      </trkpt>
      <trkpt lat="43.43301" lon="2.19882">
        <ele>779</ele>
        <time>2019-03-30T15:17:38Z</time>
      </trkpt>
      <trkpt lat="43.43294" lon="2.19894">
        <ele>780</ele>
        <time>2019-03-30T15:17:41Z</time>
      </trkpt>
      <trkpt lat="43.43288" lon="2.19899">
        <ele>781</ele>
        <time>2019-03-30T15:17:43Z</time>
      </trkpt>
      <trkpt lat="43.4327" lon="2.1992">
        <ele>781</ele>
        <time>2019-03-30T15:17:50Z</time>
      </trkpt>
      <trkpt lat="43.43258" lon="2.19927">
        <ele>782</ele>
        <time>2019-03-30T15:17:55Z</time>
      </trkpt>
      <trkpt lat="43.43252" lon="2.19933">
        <ele>782</ele>
        <time>2019-03-30T15:17:57Z</time>
      </trkpt>
      <trkpt lat="43.43245" lon="2.19938">
        <ele>784</ele>
        <time>2019-03-30T15:18:00Z</time>
      </trkpt>
      <trkpt lat="43.43243" lon="2.19939">
        <ele>784</ele>
        <time>2019-03-30T15:18:01Z</time>
      </trkpt>
      <trkpt lat="43.43235" lon="2.19943">
        <ele>785</ele>
        <time>2019-03-30T15:18:04Z</time>
      </trkpt>
      <trkpt lat="43.43228" lon="2.19944">
        <ele>785</ele>
        <time>2019-03-30T15:18:07Z</time>
      </trkpt>
      <trkpt lat="43.43226" lon="2.19945">
        <ele>786</ele>
        <time>2019-03-30T15:18:08Z</time>
      </trkpt>
      <trkpt lat="43.43213" lon="2.19951">
        <ele>787</ele>
        <time>2019-03-30T15:18:13Z</time>
      </trkpt>
      <trkpt lat="43.43202" lon="2.19953">
        <ele>788</ele>
        <time>2019-03-30T15:18:18Z</time>
      </trkpt>
      <trkpt lat="43.43189" lon="2.19962">
        <ele>789</ele>
        <time>2019-03-30T15:18:23Z</time>
      </trkpt>
      <trkpt lat="43.43181" lon="2.19968">
        <ele>789</ele>
        <time>2019-03-30T15:18:26Z</time>
      </trkpt>
      <trkpt lat="43.43179" lon="2.19973">
        <ele>790</ele>
        <time>2019-03-30T15:18:28Z</time>
      </trkpt>
      <trkpt lat="43.43178" lon="2.19974">
        <ele>791</ele>
        <time>2019-03-30T15:18:30Z</time>
      </trkpt>
      <trkpt lat="43.43174" lon="2.19975">
        <ele>791</ele>
        <time>2019-03-30T15:18:42Z</time>
      </trkpt>
      <trkpt lat="43.43172" lon="2.19976">
        <ele>791</ele>
        <time>2019-03-30T15:18:43Z</time>
      </trkpt>
      <trkpt lat="43.43164" lon="2.19982">
        <ele>791</ele>
        <time>2019-03-30T15:18:47Z</time>
      </trkpt>
      <trkpt lat="43.43159" lon="2.19987">
        <ele>791</ele>
        <time>2019-03-30T15:18:49Z</time>
      </trkpt>
      <trkpt lat="43.43155" lon="2.19994">
        <ele>791</ele>
        <time>2019-03-30T15:18:51Z</time>
      </trkpt>
      <trkpt lat="43.43147" lon="2.20004">
        <ele>793</ele>
        <time>2019-03-30T15:18:56Z</time>
      </trkpt>
      <trkpt lat="43.43139" lon="2.20011">
        <ele>794</ele>
        <time>2019-03-30T15:19:00Z</time>
      </trkpt>
      <trkpt lat="43.43135" lon="2.20013">
        <ele>794</ele>
        <time>2019-03-30T15:19:02Z</time>
      </trkpt>
      <trkpt lat="43.43132" lon="2.20016">
        <ele>793</ele>
        <time>2019-03-30T15:19:04Z</time>
      </trkpt>
      <trkpt lat="43.4313" lon="2.20017">
        <ele>794</ele>
        <time>2019-03-30T15:19:05Z</time>
      </trkpt>
      <trkpt lat="43.43128" lon="2.20019">
        <ele>794</ele>
        <time>2019-03-30T15:19:06Z</time>
      </trkpt>
      <trkpt lat="43.43126" lon="2.20021">
        <ele>794</ele>
        <time>2019-03-30T15:19:07Z</time>
      </trkpt>
      <trkpt lat="43.43122" lon="2.20023">
        <ele>794</ele>
        <time>2019-03-30T15:19:09Z</time>
      </trkpt>
      <trkpt lat="43.43121" lon="2.20026">
        <ele>794</ele>
        <time>2019-03-30T15:19:10Z</time>
      </trkpt>
      <trkpt lat="43.43118" lon="2.20029">
        <ele>795</ele>
        <time>2019-03-30T15:19:11Z</time>
      </trkpt>
      <trkpt lat="43.43114" lon="2.20034">
        <ele>796</ele>
        <time>2019-03-30T15:19:13Z</time>
      </trkpt>
      <trkpt lat="43.43105" lon="2.20046">
        <ele>796</ele>
        <time>2019-03-30T15:19:17Z</time>
      </trkpt>
      <trkpt lat="43.43103" lon="2.20048">
        <ele>797</ele>
        <time>2019-03-30T15:19:18Z</time>
      </trkpt>
      <trkpt lat="43.43098" lon="2.20058">
        <ele>798</ele>
        <time>2019-03-30T15:19:22Z</time>
      </trkpt>
      <trkpt lat="43.43097" lon="2.20061">
        <ele>798</ele>
        <time>2019-03-30T15:19:23Z</time>
      </trkpt>
      <trkpt lat="43.43093" lon="2.20069">
        <ele>799</ele>
        <time>2019-03-30T15:19:26Z</time>
      </trkpt>
      <trkpt lat="43.4309" lon="2.20075">
        <ele>799</ele>
        <time>2019-03-30T15:19:29Z</time>
      </trkpt>
      <trkpt lat="43.43089" lon="2.20077">
        <ele>799</ele>
        <time>2019-03-30T15:19:30Z</time>
      </trkpt>
      <trkpt lat="43.43085" lon="2.20085">
        <ele>800</ele>
        <time>2019-03-30T15:19:33Z</time>
      </trkpt>
      <trkpt lat="43.4308" lon="2.20094">
        <ele>800</ele>
        <time>2019-03-30T15:19:36Z</time>
      </trkpt>
      <trkpt lat="43.43066" lon="2.20118">
        <ele>800</ele>
        <time>2019-03-30T15:19:42Z</time>
      </trkpt>
      <trkpt lat="43.43062" lon="2.20127">
        <ele>801</ele>
        <time>2019-03-30T15:19:44Z</time>
      </trkpt>
      <trkpt lat="43.43053" lon="2.20141">
        <ele>802</ele>
        <time>2019-03-30T15:19:48Z</time>
      </trkpt>
      <trkpt lat="43.43038" lon="2.20152">
        <ele>802</ele>
        <time>2019-03-30T15:19:53Z</time>
      </trkpt>
      <trkpt lat="43.43013" lon="2.2016">
        <ele>801</ele>
        <time>2019-03-30T15:20:00Z</time>
      </trkpt>
      <trkpt lat="43.43002" lon="2.20163">
        <ele>802</ele>
        <time>2019-03-30T15:20:03Z</time>
      </trkpt>
      <trkpt lat="43.42993" lon="2.20166">
        <ele>802</ele>
        <time>2019-03-30T15:20:05Z</time>
      </trkpt>
      <trkpt lat="43.42972" lon="2.20168">
        <ele>802</ele>
        <time>2019-03-30T15:20:10Z</time>
      </trkpt>
      <trkpt lat="43.42952" lon="2.20165">
        <ele>802</ele>
        <time>2019-03-30T15:20:15Z</time>
      </trkpt>
      <trkpt lat="43.42948" lon="2.20164">
        <ele>802</ele>
        <time>2019-03-30T15:20:16Z</time>
      </trkpt>
      <trkpt lat="43.42944" lon="2.20162">
        <ele>803</ele>
        <time>2019-03-30T15:20:17Z</time>
      </trkpt>
      <trkpt lat="43.42932" lon="2.20158">
        <ele>804</ele>
        <time>2019-03-30T15:20:20Z</time>
      </trkpt>
      <trkpt lat="43.42923" lon="2.20158">
        <ele>804</ele>
        <time>2019-03-30T15:20:22Z</time>
      </trkpt>
      <trkpt lat="43.42906" lon="2.20158">
        <ele>804</ele>
        <time>2019-03-30T15:20:26Z</time>
      </trkpt>
      <trkpt lat="43.42895" lon="2.20157">
        <ele>804</ele>
        <time>2019-03-30T15:20:29Z</time>
      </trkpt>
      <trkpt lat="43.42888" lon="2.20158">
        <ele>805</ele>
        <time>2019-03-30T15:20:31Z</time>
      </trkpt>
      <trkpt lat="43.42876" lon="2.20166">
        <ele>806</ele>
        <time>2019-03-30T15:20:34Z</time>
      </trkpt>
      <trkpt lat="43.42872" lon="2.2017">
        <ele>806</ele>
        <time>2019-03-30T15:20:35Z</time>
      </trkpt>
      <trkpt lat="43.42869" lon="2.20174">
        <ele>807</ele>
        <time>2019-03-30T15:20:36Z</time>
      </trkpt>
      <trkpt lat="43.42855" lon="2.20189">
        <ele>808</ele>
        <time>2019-03-30T15:20:40Z</time>
      </trkpt>
      <trkpt lat="43.42848" lon="2.20197">
        <ele>809</ele>
        <time>2019-03-30T15:20:42Z</time>
      </trkpt>
      <trkpt lat="43.42834" lon="2.2021">
        <ele>810</ele>
        <time>2019-03-30T15:20:47Z</time>
      </trkpt>
      <trkpt lat="43.42823" lon="2.20218">
        <ele>810</ele>
        <time>2019-03-30T15:20:52Z</time>
      </trkpt>
      <trkpt lat="43.42817" lon="2.20226">
        <ele>810</ele>
        <time>2019-03-30T15:20:58Z</time>
      </trkpt>
      <trkpt lat="43.42814" lon="2.20231">
        <ele>810</ele>
        <time>2019-03-30T15:21:03Z</time>
      </trkpt>
      <trkpt lat="43.42814" lon="2.20231">
        <ele>810</ele>
        <time>2019-03-30T15:21:04Z</time>
      </trkpt>
      <trkpt lat="43.42814" lon="2.20235">
        <ele>810</ele>
        <time>2019-03-30T15:22:45Z</time>
      </trkpt>
      <trkpt lat="43.42814" lon="2.20235">
        <ele>810</ele>
        <time>2019-03-30T15:22:46Z</time>
      </trkpt>
      <trkpt lat="43.42814" lon="2.20237">
        <ele>810</ele>
        <time>2019-03-30T15:22:47Z</time>
      </trkpt>
      <trkpt lat="43.42815" lon="2.20238">
        <ele>810</ele>
        <time>2019-03-30T15:22:49Z</time>
      </trkpt>
      <trkpt lat="43.42816" lon="2.2024">
        <ele>810</ele>
        <time>2019-03-30T15:22:51Z</time>
      </trkpt>
      <trkpt lat="43.42817" lon="2.2024">
        <ele>811</ele>
        <time>2019-03-30T15:22:54Z</time>
      </trkpt>
      <trkpt lat="43.42817" lon="2.20238">
        <ele>811</ele>
        <time>2019-03-30T15:26:18Z</time>
      </trkpt>
      <trkpt lat="43.42817" lon="2.20239">
        <ele>811</ele>
        <time>2019-03-30T15:26:19Z</time>
      </trkpt>
      <trkpt lat="43.42819" lon="2.20243">
        <ele>811</ele>
        <time>2019-03-30T15:26:22Z</time>
      </trkpt>
      <trkpt lat="43.42819" lon="2.20245">
        <ele>811</ele>
        <time>2019-03-30T15:26:23Z</time>
      </trkpt>
      <trkpt lat="43.4282" lon="2.2025">
        <ele>811</ele>
        <time>2019-03-30T15:26:25Z</time>
      </trkpt>
      <trkpt lat="43.42823" lon="2.20259">
        <ele>812</ele>
        <time>2019-03-30T15:26:29Z</time>
      </trkpt>
      <trkpt lat="43.42825" lon="2.20264">
        <ele>812</ele>
        <time>2019-03-30T15:26:31Z</time>
      </trkpt>
      <trkpt lat="43.42828" lon="2.20272">
        <ele>812</ele>
        <time>2019-03-30T15:26:34Z</time>
      </trkpt>
      <trkpt lat="43.42835" lon="2.20293">
        <ele>813</ele>
        <time>2019-03-30T15:26:41Z</time>
      </trkpt>
      <trkpt lat="43.42836" lon="2.20296">
        <ele>813</ele>
        <time>2019-03-30T15:26:42Z</time>
      </trkpt>
      <trkpt lat="43.42843" lon="2.20312">
        <ele>814</ele>
        <time>2019-03-30T15:26:48Z</time>
      </trkpt>
      <trkpt lat="43.42847" lon="2.20319">
        <ele>814</ele>
        <time>2019-03-30T15:26:51Z</time>
      </trkpt>
      <trkpt lat="43.4285" lon="2.20328">
        <ele>815</ele>
        <time>2019-03-30T15:26:54Z</time>
      </trkpt>
      <trkpt lat="43.42851" lon="2.20333">
        <ele>815</ele>
        <time>2019-03-30T15:26:56Z</time>
      </trkpt>
      <trkpt lat="43.42855" lon="2.20346">
        <ele>817</ele>
        <time>2019-03-30T15:27:01Z</time>
      </trkpt>
      <trkpt lat="43.42858" lon="2.20354">
        <ele>817</ele>
        <time>2019-03-30T15:27:04Z</time>
      </trkpt>
      <trkpt lat="43.42861" lon="2.20362">
        <ele>818</ele>
        <time>2019-03-30T15:27:07Z</time>
      </trkpt>
      <trkpt lat="43.42866" lon="2.20374">
        <ele>819</ele>
        <time>2019-03-30T15:27:11Z</time>
      </trkpt>
      <trkpt lat="43.42869" lon="2.20382">
        <ele>819</ele>
        <time>2019-03-30T15:27:14Z</time>
      </trkpt>
      <trkpt lat="43.42873" lon="2.20393">
        <ele>820</ele>
        <time>2019-03-30T15:27:18Z</time>
      </trkpt>
      <trkpt lat="43.42875" lon="2.204">
        <ele>821</ele>
        <time>2019-03-30T15:27:21Z</time>
      </trkpt>
      <trkpt lat="43.42876" lon="2.20403">
        <ele>821</ele>
        <time>2019-03-30T15:27:22Z</time>
      </trkpt>
      <trkpt lat="43.42879" lon="2.20413">
        <ele>822</ele>
        <time>2019-03-30T15:27:26Z</time>
      </trkpt>
      <trkpt lat="43.42879" lon="2.20414">
        <ele>822</ele>
        <time>2019-03-30T15:27:27Z</time>
      </trkpt>
      <trkpt lat="43.42883" lon="2.20423">
        <ele>823</ele>
        <time>2019-03-30T15:27:32Z</time>
      </trkpt>
      <trkpt lat="43.42884" lon="2.20425">
        <ele>823</ele>
        <time>2019-03-30T15:27:33Z</time>
      </trkpt>
      <trkpt lat="43.42884" lon="2.20428">
        <ele>823</ele>
        <time>2019-03-30T15:27:35Z</time>
      </trkpt>
      <trkpt lat="43.42887" lon="2.20433">
        <ele>824</ele>
        <time>2019-03-30T15:27:37Z</time>
      </trkpt>
      <trkpt lat="43.42888" lon="2.20435">
        <ele>824</ele>
        <time>2019-03-30T15:27:38Z</time>
      </trkpt>
      <trkpt lat="43.42891" lon="2.20443">
        <ele>825</ele>
        <time>2019-03-30T15:27:42Z</time>
      </trkpt>
      <trkpt lat="43.42893" lon="2.20446">
        <ele>826</ele>
        <time>2019-03-30T15:27:44Z</time>
      </trkpt>
      <trkpt lat="43.42896" lon="2.20456">
        <ele>826</ele>
        <time>2019-03-30T15:27:49Z</time>
      </trkpt>
      <trkpt lat="43.42902" lon="2.20467">
        <ele>827</ele>
        <time>2019-03-30T15:27:55Z</time>
      </trkpt>
      <trkpt lat="43.42903" lon="2.20469">
        <ele>828</ele>
        <time>2019-03-30T15:27:56Z</time>
      </trkpt>
      <trkpt lat="43.42904" lon="2.20477">
        <ele>829</ele>
        <time>2019-03-30T15:28:00Z</time>
      </trkpt>
      <trkpt lat="43.42906" lon="2.20481">
        <ele>829</ele>
        <time>2019-03-30T15:28:02Z</time>
      </trkpt>
      <trkpt lat="43.42907" lon="2.20484">
        <ele>830</ele>
        <time>2019-03-30T15:28:04Z</time>
      </trkpt>
      <trkpt lat="43.42909" lon="2.20491">
        <ele>831</ele>
        <time>2019-03-30T15:28:08Z</time>
      </trkpt>
      <trkpt lat="43.4291" lon="2.20495">
        <ele>831</ele>
        <time>2019-03-30T15:28:10Z</time>
      </trkpt>
      <trkpt lat="43.42913" lon="2.20504">
        <ele>832</ele>
        <time>2019-03-30T15:28:14Z</time>
      </trkpt>
      <trkpt lat="43.42914" lon="2.20509">
        <ele>832</ele>
        <time>2019-03-30T15:28:17Z</time>
      </trkpt>
      <trkpt lat="43.42916" lon="2.20515">
        <ele>833</ele>
        <time>2019-03-30T15:28:20Z</time>
      </trkpt>
      <trkpt lat="43.42918" lon="2.20519">
        <ele>833</ele>
        <time>2019-03-30T15:28:22Z</time>
      </trkpt>
      <trkpt lat="43.4292" lon="2.20526">
        <ele>835</ele>
        <time>2019-03-30T15:28:26Z</time>
      </trkpt>
      <trkpt lat="43.42921" lon="2.20528">
        <ele>835</ele>
        <time>2019-03-30T15:28:27Z</time>
      </trkpt>
      <trkpt lat="43.42925" lon="2.2054">
        <ele>836</ele>
        <time>2019-03-30T15:28:32Z</time>
      </trkpt>
      <trkpt lat="43.42927" lon="2.20547">
        <ele>837</ele>
        <time>2019-03-30T15:28:35Z</time>
      </trkpt>
      <trkpt lat="43.4293" lon="2.20554">
        <ele>839</ele>
        <time>2019-03-30T15:28:38Z</time>
      </trkpt>
      <trkpt lat="43.42931" lon="2.20558">
        <ele>839</ele>
        <time>2019-03-30T15:28:40Z</time>
      </trkpt>
      <trkpt lat="43.42934" lon="2.20566">
        <ele>840</ele>
        <time>2019-03-30T15:28:43Z</time>
      </trkpt>
      <trkpt lat="43.42934" lon="2.20568">
        <ele>840</ele>
        <time>2019-03-30T15:28:44Z</time>
      </trkpt>
      <trkpt lat="43.42935" lon="2.2057">
        <ele>840</ele>
        <time>2019-03-30T15:28:45Z</time>
      </trkpt>
      <trkpt lat="43.42937" lon="2.20573">
        <ele>841</ele>
        <time>2019-03-30T15:28:47Z</time>
      </trkpt>
      <trkpt lat="43.42939" lon="2.20578">
        <ele>842</ele>
        <time>2019-03-30T15:28:50Z</time>
      </trkpt>
      <trkpt lat="43.4294" lon="2.2058">
        <ele>842</ele>
        <time>2019-03-30T15:28:51Z</time>
      </trkpt>
      <trkpt lat="43.42941" lon="2.20587">
        <ele>843</ele>
        <time>2019-03-30T15:28:54Z</time>
      </trkpt>
      <trkpt lat="43.42942" lon="2.20589">
        <ele>843</ele>
        <time>2019-03-30T15:28:55Z</time>
      </trkpt>
      <trkpt lat="43.42946" lon="2.20597">
        <ele>844</ele>
        <time>2019-03-30T15:29:00Z</time>
      </trkpt>
      <trkpt lat="43.42948" lon="2.20607">
        <ele>845</ele>
        <time>2019-03-30T15:29:05Z</time>
      </trkpt>
      <trkpt lat="43.42949" lon="2.20609">
        <ele>845</ele>
        <time>2019-03-30T15:29:06Z</time>
      </trkpt>
      <trkpt lat="43.42949" lon="2.20611">
        <ele>846</ele>
        <time>2019-03-30T15:29:07Z</time>
      </trkpt>
      <trkpt lat="43.42951" lon="2.20615">
        <ele>847</ele>
        <time>2019-03-30T15:29:09Z</time>
      </trkpt>
      <trkpt lat="43.42952" lon="2.20621">
        <ele>847</ele>
        <time>2019-03-30T15:29:12Z</time>
      </trkpt>
      <trkpt lat="43.42953" lon="2.20623">
        <ele>848</ele>
        <time>2019-03-30T15:29:13Z</time>
      </trkpt>
      <trkpt lat="43.42954" lon="2.2063">
        <ele>849</ele>
        <time>2019-03-30T15:29:16Z</time>
      </trkpt>
      <trkpt lat="43.42956" lon="2.20634">
        <ele>849</ele>
        <time>2019-03-30T15:29:18Z</time>
      </trkpt>
      <trkpt lat="43.42957" lon="2.20639">
        <ele>850</ele>
        <time>2019-03-30T15:29:21Z</time>
      </trkpt>
      <trkpt lat="43.4296" lon="2.20645">
        <ele>851</ele>
        <time>2019-03-30T15:29:24Z</time>
      </trkpt>
      <trkpt lat="43.4296" lon="2.20647">
        <ele>851</ele>
        <time>2019-03-30T15:29:25Z</time>
      </trkpt>
      <trkpt lat="43.42961" lon="2.2065">
        <ele>851</ele>
        <time>2019-03-30T15:29:27Z</time>
      </trkpt>
      <trkpt lat="43.42965" lon="2.2066">
        <ele>852</ele>
        <time>2019-03-30T15:29:31Z</time>
      </trkpt>
      <trkpt lat="43.42966" lon="2.20664">
        <ele>853</ele>
        <time>2019-03-30T15:29:33Z</time>
      </trkpt>
      <trkpt lat="43.42968" lon="2.20669">
        <ele>853</ele>
        <time>2019-03-30T15:29:35Z</time>
      </trkpt>
      <trkpt lat="43.42972" lon="2.20681">
        <ele>855</ele>
        <time>2019-03-30T15:29:41Z</time>
      </trkpt>
      <trkpt lat="43.4298" lon="2.207">
        <ele>856</ele>
        <time>2019-03-30T15:29:49Z</time>
      </trkpt>
      <trkpt lat="43.42981" lon="2.20703">
        <ele>856</ele>
        <time>2019-03-30T15:29:50Z</time>
      </trkpt>
      <trkpt lat="43.42987" lon="2.20719">
        <ele>857</ele>
        <time>2019-03-30T15:29:56Z</time>
      </trkpt>
      <trkpt lat="43.42994" lon="2.20737">
        <ele>858</ele>
        <time>2019-03-30T15:30:03Z</time>
      </trkpt>
      <trkpt lat="43.42996" lon="2.20742">
        <ele>858</ele>
        <time>2019-03-30T15:30:05Z</time>
      </trkpt>
      <trkpt lat="43.42998" lon="2.20748">
        <ele>859</ele>
        <time>2019-03-30T15:30:08Z</time>
      </trkpt>
      <trkpt lat="43.43002" lon="2.20759">
        <ele>860</ele>
        <time>2019-03-30T15:30:14Z</time>
      </trkpt>
      <trkpt lat="43.43002" lon="2.20761">
        <ele>860</ele>
        <time>2019-03-30T15:30:15Z</time>
      </trkpt>
      <trkpt lat="43.43002" lon="2.20763">
        <ele>860</ele>
        <time>2019-03-30T15:30:16Z</time>
      </trkpt>
      <trkpt lat="43.43002" lon="2.20767">
        <ele>860</ele>
        <time>2019-03-30T15:30:19Z</time>
      </trkpt>
      <trkpt lat="43.43002" lon="2.20769">
        <ele>860</ele>
        <time>2019-03-30T15:30:20Z</time>
      </trkpt>
      <trkpt lat="43.43007" lon="2.20771">
        <ele>860</ele>
        <time>2019-03-30T15:30:25Z</time>
      </trkpt>
      <trkpt lat="43.43008" lon="2.20771">
        <ele>860</ele>
        <time>2019-03-30T15:30:26Z</time>
      </trkpt>
      <trkpt lat="43.43013" lon="2.20769">
        <ele>861</ele>
        <time>2019-03-30T15:30:31Z</time>
      </trkpt>
      <trkpt lat="43.43013" lon="2.20769">
        <ele>861</ele>
        <time>2019-03-30T15:30:32Z</time>
      </trkpt>
      <trkpt lat="43.43015" lon="2.20769">
        <ele>860</ele>
        <time>2019-03-30T15:33:49Z</time>
      </trkpt>
      <trkpt lat="43.43016" lon="2.20769">
        <ele>860</ele>
        <time>2019-03-30T15:33:50Z</time>
      </trkpt>
      <trkpt lat="43.43022" lon="2.20767">
        <ele>860</ele>
        <time>2019-03-30T15:33:54Z</time>
      </trkpt>
      <trkpt lat="43.43026" lon="2.20766">
        <ele>860</ele>
        <time>2019-03-30T15:33:56Z</time>
      </trkpt>
      <trkpt lat="43.43048" lon="2.20759">
        <ele>859</ele>
        <time>2019-03-30T15:34:04Z</time>
      </trkpt>
      <trkpt lat="43.43071" lon="2.20746">
        <ele>858</ele>
        <time>2019-03-30T15:34:10Z</time>
      </trkpt>
      <trkpt lat="43.43081" lon="2.20737">
        <ele>857</ele>
        <time>2019-03-30T15:34:12Z</time>
      </trkpt>
      <trkpt lat="43.43085" lon="2.20732">
        <ele>857</ele>
        <time>2019-03-30T15:34:13Z</time>
      </trkpt>
      <trkpt lat="43.43094" lon="2.20721">
        <ele>856</ele>
        <time>2019-03-30T15:34:15Z</time>
      </trkpt>
      <trkpt lat="43.43099" lon="2.20715">
        <ele>856</ele>
        <time>2019-03-30T15:34:16Z</time>
      </trkpt>
      <trkpt lat="43.43121" lon="2.20696">
        <ele>855</ele>
        <time>2019-03-30T15:34:20Z</time>
      </trkpt>
      <trkpt lat="43.43139" lon="2.20683">
        <ele>853</ele>
        <time>2019-03-30T15:34:23Z</time>
      </trkpt>
      <trkpt lat="43.43158" lon="2.20668">
        <ele>853</ele>
        <time>2019-03-30T15:34:26Z</time>
      </trkpt>
      <trkpt lat="43.43165" lon="2.20665">
        <ele>853</ele>
        <time>2019-03-30T15:34:27Z</time>
      </trkpt>
      <trkpt lat="43.43172" lon="2.20662">
        <ele>852</ele>
        <time>2019-03-30T15:34:28Z</time>
      </trkpt>
      <trkpt lat="43.43178" lon="2.20662">
        <ele>851</ele>
        <time>2019-03-30T15:34:29Z</time>
      </trkpt>
      <trkpt lat="43.43185" lon="2.20663">
        <ele>851</ele>
        <time>2019-03-30T15:34:30Z</time>
      </trkpt>
      <trkpt lat="43.43198" lon="2.20671">
        <ele>850</ele>
        <time>2019-03-30T15:34:32Z</time>
      </trkpt>
      <trkpt lat="43.43204" lon="2.20676">
        <ele>849</ele>
        <time>2019-03-30T15:34:33Z</time>
      </trkpt>
      <trkpt lat="43.43216" lon="2.20689">
        <ele>848</ele>
        <time>2019-03-30T15:34:35Z</time>
      </trkpt>
      <trkpt lat="43.43222" lon="2.20696">
        <ele>847</ele>
        <time>2019-03-30T15:34:36Z</time>
      </trkpt>
      <trkpt lat="43.43228" lon="2.20703">
        <ele>846</ele>
        <time>2019-03-30T15:34:37Z</time>
      </trkpt>
      <trkpt lat="43.43238" lon="2.20719">
        <ele>844</ele>
        <time>2019-03-30T15:34:39Z</time>
      </trkpt>
      <trkpt lat="43.43243" lon="2.20727">
        <ele>843</ele>
        <time>2019-03-30T15:34:40Z</time>
      </trkpt>
      <trkpt lat="43.43248" lon="2.20734">
        <ele>843</ele>
        <time>2019-03-30T15:34:41Z</time>
      </trkpt>
      <trkpt lat="43.43268" lon="2.20748">
        <ele>842</ele>
        <time>2019-03-30T15:34:44Z</time>
      </trkpt>
      <trkpt lat="43.43274" lon="2.20752">
        <ele>841</ele>
        <time>2019-03-30T15:34:45Z</time>
      </trkpt>
      <trkpt lat="43.43289" lon="2.2076">
        <ele>841</ele>
        <time>2019-03-30T15:34:47Z</time>
      </trkpt>
      <trkpt lat="43.43302" lon="2.2077">
        <ele>841</ele>
        <time>2019-03-30T15:34:49Z</time>
      </trkpt>
      <trkpt lat="43.43319" lon="2.20774">
        <ele>841</ele>
        <time>2019-03-30T15:34:51Z</time>
      </trkpt>
      <trkpt lat="43.43328" lon="2.20774">
        <ele>840</ele>
        <time>2019-03-30T15:34:52Z</time>
      </trkpt>
      <trkpt lat="43.43345" lon="2.20771">
        <ele>839</ele>
        <time>2019-03-30T15:34:54Z</time>
      </trkpt>
      <trkpt lat="43.43372" lon="2.20763">
        <ele>838</ele>
        <time>2019-03-30T15:34:57Z</time>
      </trkpt>
      <trkpt lat="43.43399" lon="2.20755">
        <ele>837</ele>
        <time>2019-03-30T15:35:00Z</time>
      </trkpt>
      <trkpt lat="43.43415" lon="2.20753">
        <ele>837</ele>
        <time>2019-03-30T15:35:02Z</time>
      </trkpt>
      <trkpt lat="43.4343" lon="2.20752">
        <ele>836</ele>
        <time>2019-03-30T15:35:04Z</time>
      </trkpt>
      <trkpt lat="43.43437" lon="2.20754">
        <ele>836</ele>
        <time>2019-03-30T15:35:05Z</time>
      </trkpt>
      <trkpt lat="43.43477" lon="2.20767">
        <ele>837</ele>
        <time>2019-03-30T15:35:11Z</time>
      </trkpt>
      <trkpt lat="43.4351" lon="2.20784">
        <ele>838</ele>
        <time>2019-03-30T15:35:17Z</time>
      </trkpt>
      <trkpt lat="43.43523" lon="2.20791">
        <ele>839</ele>
        <time>2019-03-30T15:35:20Z</time>
      </trkpt>
      <trkpt lat="43.43527" lon="2.20792">
        <ele>840</ele>
        <time>2019-03-30T15:35:21Z</time>
      </trkpt>
      <trkpt lat="43.43536" lon="2.20793">
        <ele>841</ele>
        <time>2019-03-30T15:35:23Z</time>
      </trkpt>
      <trkpt lat="43.43549" lon="2.20787">
        <ele>841</ele>
        <time>2019-03-30T15:35:26Z</time>
      </trkpt>
      <trkpt lat="43.43556" lon="2.20781">
        <ele>841</ele>
        <time>2019-03-30T15:35:28Z</time>
      </trkpt>
      <trkpt lat="43.43563" lon="2.20776">
        <ele>842</ele>
        <time>2019-03-30T15:35:30Z</time>
      </trkpt>
      <trkpt lat="43.4357" lon="2.20771">
        <ele>843</ele>
        <time>2019-03-30T15:35:32Z</time>
      </trkpt>
      <trkpt lat="43.4358" lon="2.2076">
        <ele>843</ele>
        <time>2019-03-30T15:35:35Z</time>
      </trkpt>
      <trkpt lat="43.43589" lon="2.20751">
        <ele>844</ele>
        <time>2019-03-30T15:35:38Z</time>
      </trkpt>
      <trkpt lat="43.43592" lon="2.20749">
        <ele>845</ele>
        <time>2019-03-30T15:35:39Z</time>
      </trkpt>
      <trkpt lat="43.43598" lon="2.20744">
        <ele>846</ele>
        <time>2019-03-30T15:35:41Z</time>
      </trkpt>
      <trkpt lat="43.43601" lon="2.2074">
        <ele>846</ele>
        <time>2019-03-30T15:35:42Z</time>
      </trkpt>
      <trkpt lat="43.43605" lon="2.20736">
        <ele>846</ele>
        <time>2019-03-30T15:35:43Z</time>
      </trkpt>
      <trkpt lat="43.43611" lon="2.20729">
        <ele>847</ele>
        <time>2019-03-30T15:35:45Z</time>
      </trkpt>
      <trkpt lat="43.43614" lon="2.20727">
        <ele>847</ele>
        <time>2019-03-30T15:35:46Z</time>
      </trkpt>
      <trkpt lat="43.43621" lon="2.2072">
        <ele>847</ele>
        <time>2019-03-30T15:35:48Z</time>
      </trkpt>
      <trkpt lat="43.43624" lon="2.20717">
        <ele>848</ele>
        <time>2019-03-30T15:35:49Z</time>
      </trkpt>
      <trkpt lat="43.43638" lon="2.20702">
        <ele>849</ele>
        <time>2019-03-30T15:35:53Z</time>
      </trkpt>
      <trkpt lat="43.43646" lon="2.20693">
        <ele>850</ele>
        <time>2019-03-30T15:35:57Z</time>
      </trkpt>
      <trkpt lat="43.43663" lon="2.20675">
        <ele>850</ele>
        <time>2019-03-30T15:36:02Z</time>
      </trkpt>
      <trkpt lat="43.43675" lon="2.20665">
        <ele>850</ele>
        <time>2019-03-30T15:36:05Z</time>
      </trkpt>
      <trkpt lat="43.43686" lon="2.20656">
        <ele>850</ele>
        <time>2019-03-30T15:36:08Z</time>
      </trkpt>
      <trkpt lat="43.43715" lon="2.20636">
        <ele>850</ele>
        <time>2019-03-30T15:36:14Z</time>
      </trkpt>
      <trkpt lat="43.43742" lon="2.20623">
        <ele>850</ele>
        <time>2019-03-30T15:36:20Z</time>
      </trkpt>
      <trkpt lat="43.43754" lon="2.20616">
        <ele>852</ele>
        <time>2019-03-30T15:36:24Z</time>
      </trkpt>
      <trkpt lat="43.43759" lon="2.20613">
        <ele>852</ele>
        <time>2019-03-30T15:36:26Z</time>
      </trkpt>
      <trkpt lat="43.43767" lon="2.20611">
        <ele>853</ele>
        <time>2019-03-30T15:36:30Z</time>
      </trkpt>
      <trkpt lat="43.4377" lon="2.20607">
        <ele>853</ele>
        <time>2019-03-30T15:36:32Z</time>
      </trkpt>
      <trkpt lat="43.43771" lon="2.20605">
        <ele>853</ele>
        <time>2019-03-30T15:36:33Z</time>
      </trkpt>
      <trkpt lat="43.43773" lon="2.20599">
        <ele>853</ele>
        <time>2019-03-30T15:36:36Z</time>
      </trkpt>
      <trkpt lat="43.43773" lon="2.20596">
        <ele>854</ele>
        <time>2019-03-30T15:36:38Z</time>
      </trkpt>
      <trkpt lat="43.43777" lon="2.2059">
        <ele>854</ele>
        <time>2019-03-30T15:36:43Z</time>
      </trkpt>
      <trkpt lat="43.43777" lon="2.2059">
        <ele>854</ele>
        <time>2019-03-30T15:36:44Z</time>
      </trkpt>
      <trkpt lat="43.43784" lon="2.20588">
        <ele>853</ele>
        <time>2019-03-30T15:36:54Z</time>
      </trkpt>
      <trkpt lat="43.43785" lon="2.20589">
        <ele>853</ele>
        <time>2019-03-30T15:36:56Z</time>
      </trkpt>
      <trkpt lat="43.43786" lon="2.20591">
        <ele>853</ele>
        <time>2019-03-30T15:36:58Z</time>
      </trkpt>
      <trkpt lat="43.43786" lon="2.20592">
        <ele>853</ele>
        <time>2019-03-30T15:36:59Z</time>
      </trkpt>
      <trkpt lat="43.43788" lon="2.20594">
        <ele>853</ele>
        <time>2019-03-30T15:37:03Z</time>
      </trkpt>
      <trkpt lat="43.43788" lon="2.20595">
        <ele>853</ele>
        <time>2019-03-30T15:37:05Z</time>
      </trkpt>
      <trkpt lat="43.43792" lon="2.20598">
        <ele>853</ele>
        <time>2019-03-30T15:37:14Z</time>
      </trkpt>
      <trkpt lat="43.43792" lon="2.20595">
        <ele>853</ele>
        <time>2019-03-30T15:37:17Z</time>
      </trkpt>
      <trkpt lat="43.43794" lon="2.20591">
        <ele>853</ele>
        <time>2019-03-30T15:37:20Z</time>
      </trkpt>
      <trkpt lat="43.43795" lon="2.2059">
        <ele>853</ele>
        <time>2019-03-30T15:37:21Z</time>
      </trkpt>
      <trkpt lat="43.43803" lon="2.2059">
        <ele>853</ele>
        <time>2019-03-30T15:37:26Z</time>
      </trkpt>
      <trkpt lat="43.43814" lon="2.20594">
        <ele>853</ele>
        <time>2019-03-30T15:37:29Z</time>
      </trkpt>
      <trkpt lat="43.43819" lon="2.20595">
        <ele>852</ele>
        <time>2019-03-30T15:37:30Z</time>
      </trkpt>
      <trkpt lat="43.43828" lon="2.20598">
        <ele>852</ele>
        <time>2019-03-30T15:37:33Z</time>
      </trkpt>
      <trkpt lat="43.43831" lon="2.20597">
        <ele>851</ele>
        <time>2019-03-30T15:37:34Z</time>
      </trkpt>
      <trkpt lat="43.43844" lon="2.20599">
        <ele>851</ele>
        <time>2019-03-30T15:37:39Z</time>
      </trkpt>
      <trkpt lat="43.43855" lon="2.20605">
        <ele>851</ele>
        <time>2019-03-30T15:37:43Z</time>
      </trkpt>
      <trkpt lat="43.43862" lon="2.20608">
        <ele>850</ele>
        <time>2019-03-30T15:37:45Z</time>
      </trkpt>
      <trkpt lat="43.43865" lon="2.20609">
        <ele>850</ele>
        <time>2019-03-30T15:37:46Z</time>
      </trkpt>
      <trkpt lat="43.43873" lon="2.20611">
        <ele>850</ele>
        <time>2019-03-30T15:37:48Z</time>
      </trkpt>
      <trkpt lat="43.43877" lon="2.20611">
        <ele>850</ele>
        <time>2019-03-30T15:37:49Z</time>
      </trkpt>
      <trkpt lat="43.43885" lon="2.20612">
        <ele>850</ele>
        <time>2019-03-30T15:37:51Z</time>
      </trkpt>
      <trkpt lat="43.43894" lon="2.20617">
        <ele>849</ele>
        <time>2019-03-30T15:37:54Z</time>
      </trkpt>
      <trkpt lat="43.43917" lon="2.20629">
        <ele>850</ele>
        <time>2019-03-30T15:38:00Z</time>
      </trkpt>
      <trkpt lat="43.43936" lon="2.20635">
        <ele>850</ele>
        <time>2019-03-30T15:38:05Z</time>
      </trkpt>
      <trkpt lat="43.43952" lon="2.20639">
        <ele>850</ele>
        <time>2019-03-30T15:38:10Z</time>
      </trkpt>
      <trkpt lat="43.43971" lon="2.20643">
        <ele>851</ele>
        <time>2019-03-30T15:38:16Z</time>
      </trkpt>
      <trkpt lat="43.43986" lon="2.20648">
        <ele>852</ele>
        <time>2019-03-30T15:38:21Z</time>
      </trkpt>
      <trkpt lat="43.43993" lon="2.20651">
        <ele>852</ele>
        <time>2019-03-30T15:38:24Z</time>
      </trkpt>
      <trkpt lat="43.44007" lon="2.20656">
        <ele>853</ele>
        <time>2019-03-30T15:38:29Z</time>
      </trkpt>
      <trkpt lat="43.4401" lon="2.20658">
        <ele>854</ele>
        <time>2019-03-30T15:38:30Z</time>
      </trkpt>
      <trkpt lat="43.44025" lon="2.20661">
        <ele>854</ele>
        <time>2019-03-30T15:38:35Z</time>
      </trkpt>
      <trkpt lat="43.44038" lon="2.20664">
        <ele>854</ele>
        <time>2019-03-30T15:38:40Z</time>
      </trkpt>
      <trkpt lat="43.4404" lon="2.20665">
        <ele>854</ele>
        <time>2019-03-30T15:38:41Z</time>
      </trkpt>
      <trkpt lat="43.44047" lon="2.2067">
        <ele>855</ele>
        <time>2019-03-30T15:38:45Z</time>
      </trkpt>
      <trkpt lat="43.44047" lon="2.2067">
        <ele>855</ele>
        <time>2019-03-30T15:38:46Z</time>
      </trkpt>
      <trkpt lat="43.44058" lon="2.2068">
        <ele>855</ele>
        <time>2019-03-30T15:38:53Z</time>
      </trkpt>
      <trkpt lat="43.44062" lon="2.20684">
        <ele>855</ele>
        <time>2019-03-30T15:38:55Z</time>
      </trkpt>
      <trkpt lat="43.44065" lon="2.20685">
        <ele>856</ele>
        <time>2019-03-30T15:38:56Z</time>
      </trkpt>
      <trkpt lat="43.44073" lon="2.20691">
        <ele>857</ele>
        <time>2019-03-30T15:39:00Z</time>
      </trkpt>
      <trkpt lat="43.44077" lon="2.20694">
        <ele>857</ele>
        <time>2019-03-30T15:39:02Z</time>
      </trkpt>
      <trkpt lat="43.44081" lon="2.20697">
        <ele>857</ele>
        <time>2019-03-30T15:39:04Z</time>
      </trkpt>
      <trkpt lat="43.44084" lon="2.20699">
        <ele>857</ele>
        <time>2019-03-30T15:39:05Z</time>
      </trkpt>
      <trkpt lat="43.44097" lon="2.20711">
        <ele>858</ele>
        <time>2019-03-30T15:39:11Z</time>
      </trkpt>
      <trkpt lat="43.44098" lon="2.20712">
        <ele>858</ele>
        <time>2019-03-30T15:39:12Z</time>
      </trkpt>
      <trkpt lat="43.44104" lon="2.20717">
        <ele>859</ele>
        <time>2019-03-30T15:39:15Z</time>
      </trkpt>
      <trkpt lat="43.44106" lon="2.20718">
        <ele>859</ele>
        <time>2019-03-30T15:39:16Z</time>
      </trkpt>
      <trkpt lat="43.44112" lon="2.20723">
        <ele>860</ele>
        <time>2019-03-30T15:39:19Z</time>
      </trkpt>
      <trkpt lat="43.44118" lon="2.20728">
        <ele>861</ele>
        <time>2019-03-30T15:39:22Z</time>
      </trkpt>
      <trkpt lat="43.44125" lon="2.20733">
        <ele>861</ele>
        <time>2019-03-30T15:39:25Z</time>
      </trkpt>
      <trkpt lat="43.4413" lon="2.20739">
        <ele>862</ele>
        <time>2019-03-30T15:39:28Z</time>
      </trkpt>
      <trkpt lat="43.44143" lon="2.20747">
        <ele>862</ele>
        <time>2019-03-30T15:39:34Z</time>
      </trkpt>
      <trkpt lat="43.44148" lon="2.2075">
        <ele>863</ele>
        <time>2019-03-30T15:39:37Z</time>
      </trkpt>
      <trkpt lat="43.44154" lon="2.20753">
        <ele>864</ele>
        <time>2019-03-30T15:39:40Z</time>
      </trkpt>
      <trkpt lat="43.44155" lon="2.20754">
        <ele>864</ele>
        <time>2019-03-30T15:39:41Z</time>
      </trkpt>
      <trkpt lat="43.44157" lon="2.20756">
        <ele>865</ele>
        <time>2019-03-30T15:39:43Z</time>
      </trkpt>
      <trkpt lat="43.44158" lon="2.20757">
        <ele>865</ele>
        <time>2019-03-30T15:39:44Z</time>
      </trkpt>
      <trkpt lat="43.44166" lon="2.20773">
        <ele>867</ele>
        <time>2019-03-30T15:39:52Z</time>
      </trkpt>
      <trkpt lat="43.44171" lon="2.20783">
        <ele>867</ele>
        <time>2019-03-30T15:39:58Z</time>
      </trkpt>
      <trkpt lat="43.44172" lon="2.20785">
        <ele>867</ele>
        <time>2019-03-30T15:39:59Z</time>
      </trkpt>
      <trkpt lat="43.44175" lon="2.20793">
        <ele>869</ele>
        <time>2019-03-30T15:40:09Z</time>
      </trkpt>
      <trkpt lat="43.44177" lon="2.208">
        <ele>869</ele>
        <time>2019-03-30T15:40:13Z</time>
      </trkpt>
      <trkpt lat="43.44181" lon="2.20812">
        <ele>871</ele>
        <time>2019-03-30T15:40:17Z</time>
      </trkpt>
      <trkpt lat="43.44181" lon="2.20817">
        <ele>871</ele>
        <time>2019-03-30T15:40:19Z</time>
      </trkpt>
      <trkpt lat="43.44183" lon="2.2082">
        <ele>871</ele>
        <time>2019-03-30T15:40:20Z</time>
      </trkpt>
      <trkpt lat="43.44184" lon="2.20823">
        <ele>871</ele>
        <time>2019-03-30T15:40:21Z</time>
      </trkpt>
      <trkpt lat="43.44189" lon="2.20831">
        <ele>872</ele>
        <time>2019-03-30T15:40:24Z</time>
      </trkpt>
      <trkpt lat="43.44193" lon="2.20843">
        <ele>872</ele>
        <time>2019-03-30T15:40:29Z</time>
      </trkpt>
      <trkpt lat="43.44197" lon="2.20854">
        <ele>872</ele>
        <time>2019-03-30T15:40:33Z</time>
      </trkpt>
      <trkpt lat="43.44199" lon="2.20857">
        <ele>872</ele>
        <time>2019-03-30T15:40:34Z</time>
      </trkpt>
      <trkpt lat="43.442" lon="2.2086">
        <ele>872</ele>
        <time>2019-03-30T15:40:35Z</time>
      </trkpt>
      <trkpt lat="43.44204" lon="2.20873">
        <ele>874</ele>
        <time>2019-03-30T15:40:39Z</time>
      </trkpt>
      <trkpt lat="43.44206" lon="2.20877">
        <ele>874</ele>
        <time>2019-03-30T15:40:40Z</time>
      </trkpt>
      <trkpt lat="43.44211" lon="2.2089">
        <ele>874</ele>
        <time>2019-03-30T15:40:45Z</time>
      </trkpt>
      <trkpt lat="43.44212" lon="2.20892">
        <ele>875</ele>
        <time>2019-03-30T15:40:46Z</time>
      </trkpt>
      <trkpt lat="43.44215" lon="2.209">
        <ele>876</ele>
        <time>2019-03-30T15:40:49Z</time>
      </trkpt>
      <trkpt lat="43.44216" lon="2.20903">
        <ele>876</ele>
        <time>2019-03-30T15:40:50Z</time>
      </trkpt>
      <trkpt lat="43.44219" lon="2.20912">
        <ele>877</ele>
        <time>2019-03-30T15:40:54Z</time>
      </trkpt>
      <trkpt lat="43.44222" lon="2.20919">
        <ele>877</ele>
        <time>2019-03-30T15:40:57Z</time>
      </trkpt>
      <trkpt lat="43.44228" lon="2.20929">
        <ele>878</ele>
        <time>2019-03-30T15:41:03Z</time>
      </trkpt>
      <trkpt lat="43.44233" lon="2.20942">
        <ele>879</ele>
        <time>2019-03-30T15:41:08Z</time>
      </trkpt>
      <trkpt lat="43.4424" lon="2.20959">
        <ele>879</ele>
        <time>2019-03-30T15:41:14Z</time>
      </trkpt>
      <trkpt lat="43.44242" lon="2.20967">
        <ele>880</ele>
        <time>2019-03-30T15:41:18Z</time>
      </trkpt>
      <trkpt lat="43.44246" lon="2.20977">
        <ele>880</ele>
        <time>2019-03-30T15:41:22Z</time>
      </trkpt>
      <trkpt lat="43.44248" lon="2.20984">
        <ele>881</ele>
        <time>2019-03-30T15:41:26Z</time>
      </trkpt>
      <trkpt lat="43.44248" lon="2.20986">
        <ele>881</ele>
        <time>2019-03-30T15:41:27Z</time>
      </trkpt>
      <trkpt lat="43.44249" lon="2.20988">
        <ele>881</ele>
        <time>2019-03-30T15:41:28Z</time>
      </trkpt>
      <trkpt lat="43.44254" lon="2.21002">
        <ele>882</ele>
        <time>2019-03-30T15:41:34Z</time>
      </trkpt>
      <trkpt lat="43.44256" lon="2.21006">
        <ele>882</ele>
        <time>2019-03-30T15:41:36Z</time>
      </trkpt>
      <trkpt lat="43.44261" lon="2.21021">
        <ele>883</ele>
        <time>2019-03-30T15:41:42Z</time>
      </trkpt>
      <trkpt lat="43.44262" lon="2.21027">
        <ele>884</ele>
        <time>2019-03-30T15:41:45Z</time>
      </trkpt>
      <trkpt lat="43.44266" lon="2.21036">
        <ele>885</ele>
        <time>2019-03-30T15:41:49Z</time>
      </trkpt>
      <trkpt lat="43.44268" lon="2.2104">
        <ele>885</ele>
        <time>2019-03-30T15:41:51Z</time>
      </trkpt>
      <trkpt lat="43.44272" lon="2.21051">
        <ele>886</ele>
        <time>2019-03-30T15:41:56Z</time>
      </trkpt>
      <trkpt lat="43.44275" lon="2.21056">
        <ele>886</ele>
        <time>2019-03-30T15:41:58Z</time>
      </trkpt>
      <trkpt lat="43.44277" lon="2.21066">
        <ele>886</ele>
        <time>2019-03-30T15:42:01Z</time>
      </trkpt>
      <trkpt lat="43.44279" lon="2.21074">
        <ele>887</ele>
        <time>2019-03-30T15:42:04Z</time>
      </trkpt>
      <trkpt lat="43.44281" lon="2.21079">
        <ele>887</ele>
        <time>2019-03-30T15:42:06Z</time>
      </trkpt>
      <trkpt lat="43.44283" lon="2.21084">
        <ele>887</ele>
        <time>2019-03-30T15:42:08Z</time>
      </trkpt>
      <trkpt lat="43.44287" lon="2.21089">
        <ele>887</ele>
        <time>2019-03-30T15:42:10Z</time>
      </trkpt>
      <trkpt lat="43.44294" lon="2.21096">
        <ele>887</ele>
        <time>2019-03-30T15:42:14Z</time>
      </trkpt>
      <trkpt lat="43.44305" lon="2.2111">
        <ele>886</ele>
        <time>2019-03-30T15:42:19Z</time>
      </trkpt>
      <trkpt lat="43.44318" lon="2.21123">
        <ele>886</ele>
        <time>2019-03-30T15:42:24Z</time>
      </trkpt>
      <trkpt lat="43.44333" lon="2.21139">
        <ele>885</ele>
        <time>2019-03-30T15:42:29Z</time>
      </trkpt>
      <trkpt lat="43.44349" lon="2.21151">
        <ele>883</ele>
        <time>2019-03-30T15:42:33Z</time>
      </trkpt>
      <trkpt lat="43.44352" lon="2.21155">
        <ele>883</ele>
        <time>2019-03-30T15:42:34Z</time>
      </trkpt>
      <trkpt lat="43.44364" lon="2.21169">
        <ele>883</ele>
        <time>2019-03-30T15:42:37Z</time>
      </trkpt>
      <trkpt lat="43.44368" lon="2.21174">
        <ele>882</ele>
        <time>2019-03-30T15:42:38Z</time>
      </trkpt>
      <trkpt lat="43.44371" lon="2.21178">
        <ele>882</ele>
        <time>2019-03-30T15:42:39Z</time>
      </trkpt>
      <trkpt lat="43.44376" lon="2.21182">
        <ele>881</ele>
        <time>2019-03-30T15:42:40Z</time>
      </trkpt>
      <trkpt lat="43.44382" lon="2.21185">
        <ele>881</ele>
        <time>2019-03-30T15:42:41Z</time>
      </trkpt>
      <trkpt lat="43.44393" lon="2.21191">
        <ele>881</ele>
        <time>2019-03-30T15:42:43Z</time>
      </trkpt>
      <trkpt lat="43.44398" lon="2.21194">
        <ele>880</ele>
        <time>2019-03-30T15:42:44Z</time>
      </trkpt>
      <trkpt lat="43.44408" lon="2.212">
        <ele>879</ele>
        <time>2019-03-30T15:42:46Z</time>
      </trkpt>
      <trkpt lat="43.44413" lon="2.21202">
        <ele>879</ele>
        <time>2019-03-30T15:42:47Z</time>
      </trkpt>
      <trkpt lat="43.44432" lon="2.21214">
        <ele>878</ele>
        <time>2019-03-30T15:42:51Z</time>
      </trkpt>
      <trkpt lat="43.44442" lon="2.21218">
        <ele>878</ele>
        <time>2019-03-30T15:42:53Z</time>
      </trkpt>
      <trkpt lat="43.44464" lon="2.2123">
        <ele>878</ele>
        <time>2019-03-30T15:42:58Z</time>
      </trkpt>
      <trkpt lat="43.4448" lon="2.21239">
        <ele>878</ele>
        <time>2019-03-30T15:43:01Z</time>
      </trkpt>
      <trkpt lat="43.44486" lon="2.21242">
        <ele>878</ele>
        <time>2019-03-30T15:43:02Z</time>
      </trkpt>
      <trkpt lat="43.44518" lon="2.21263">
        <ele>878</ele>
        <time>2019-03-30T15:43:08Z</time>
      </trkpt>
      <trkpt lat="43.44523" lon="2.21266">
        <ele>878</ele>
        <time>2019-03-30T15:43:09Z</time>
      </trkpt>
      <trkpt lat="43.44542" lon="2.21279">
        <ele>879</ele>
        <time>2019-03-30T15:43:14Z</time>
      </trkpt>
      <trkpt lat="43.44545" lon="2.21282">
        <ele>879</ele>
        <time>2019-03-30T15:43:15Z</time>
      </trkpt>
      <trkpt lat="43.44556" lon="2.21288">
        <ele>879</ele>
        <time>2019-03-30T15:43:18Z</time>
      </trkpt>
      <trkpt lat="43.44575" lon="2.21301">
        <ele>878</ele>
        <time>2019-03-30T15:43:24Z</time>
      </trkpt>
      <trkpt lat="43.44591" lon="2.21311">
        <ele>879</ele>
        <time>2019-03-30T15:43:29Z</time>
      </trkpt>
      <trkpt lat="43.44594" lon="2.21315">
        <ele>879</ele>
        <time>2019-03-30T15:43:30Z</time>
      </trkpt>
      <trkpt lat="43.44597" lon="2.21318">
        <ele>879</ele>
        <time>2019-03-30T15:43:31Z</time>
      </trkpt>
      <trkpt lat="43.446" lon="2.21322">
        <ele>879</ele>
        <time>2019-03-30T15:43:32Z</time>
      </trkpt>
      <trkpt lat="43.44601" lon="2.21327">
        <ele>879</ele>
        <time>2019-03-30T15:43:33Z</time>
      </trkpt>
      <trkpt lat="43.44605" lon="2.21335">
        <ele>879</ele>
        <time>2019-03-30T15:43:35Z</time>
      </trkpt>
      <trkpt lat="43.44612" lon="2.21348">
        <ele>879</ele>
        <time>2019-03-30T15:43:39Z</time>
      </trkpt>
      <trkpt lat="43.44621" lon="2.21368">
        <ele>879</ele>
        <time>2019-03-30T15:43:44Z</time>
      </trkpt>
      <trkpt lat="43.44626" lon="2.21381">
        <ele>878</ele>
        <time>2019-03-30T15:43:47Z</time>
      </trkpt>
      <trkpt lat="43.44629" lon="2.21385">
        <ele>878</ele>
        <time>2019-03-30T15:43:48Z</time>
      </trkpt>
      <trkpt lat="43.44631" lon="2.21391">
        <ele>878</ele>
        <time>2019-03-30T15:43:49Z</time>
      </trkpt>
      <trkpt lat="43.44637" lon="2.21401">
        <ele>877</ele>
        <time>2019-03-30T15:43:51Z</time>
      </trkpt>
      <trkpt lat="43.44643" lon="2.21411">
        <ele>877</ele>
        <time>2019-03-30T15:43:53Z</time>
      </trkpt>
      <trkpt lat="43.44646" lon="2.21417">
        <ele>877</ele>
        <time>2019-03-30T15:43:54Z</time>
      </trkpt>
      <trkpt lat="43.44652" lon="2.21427">
        <ele>876</ele>
        <time>2019-03-30T15:43:56Z</time>
      </trkpt>
      <trkpt lat="43.44655" lon="2.21433">
        <ele>874</ele>
        <time>2019-03-30T15:43:57Z</time>
      </trkpt>
      <trkpt lat="43.44657" lon="2.2144">
        <ele>874</ele>
        <time>2019-03-30T15:43:58Z</time>
      </trkpt>
      <trkpt lat="43.44658" lon="2.21445">
        <ele>873</ele>
        <time>2019-03-30T15:43:59Z</time>
      </trkpt>
      <trkpt lat="43.44658" lon="2.21451">
        <ele>872</ele>
        <time>2019-03-30T15:44:00Z</time>
      </trkpt>
      <trkpt lat="43.44659" lon="2.21465">
        <ele>871</ele>
        <time>2019-03-30T15:44:02Z</time>
      </trkpt>
      <trkpt lat="43.44663" lon="2.21492">
        <ele>870</ele>
        <time>2019-03-30T15:44:06Z</time>
      </trkpt>
      <trkpt lat="43.44664" lon="2.215">
        <ele>869</ele>
        <time>2019-03-30T15:44:07Z</time>
      </trkpt>
      <trkpt lat="43.44664" lon="2.21507">
        <ele>868</ele>
        <time>2019-03-30T15:44:08Z</time>
      </trkpt>
      <trkpt lat="43.44665" lon="2.2152">
        <ele>867</ele>
        <time>2019-03-30T15:44:10Z</time>
      </trkpt>
      <trkpt lat="43.44665" lon="2.21525">
        <ele>867</ele>
        <time>2019-03-30T15:44:11Z</time>
      </trkpt>
      <trkpt lat="43.44667" lon="2.21538">
        <ele>868</ele>
        <time>2019-03-30T15:44:14Z</time>
      </trkpt>
      <trkpt lat="43.44669" lon="2.21543">
        <ele>869</ele>
        <time>2019-03-30T15:44:16Z</time>
      </trkpt>
      <trkpt lat="43.44668" lon="2.21554">
        <ele>871</ele>
        <time>2019-03-30T15:44:19Z</time>
      </trkpt>
      <trkpt lat="43.44666" lon="2.21565">
        <ele>871</ele>
        <time>2019-03-30T15:44:22Z</time>
      </trkpt>
      <trkpt lat="43.44666" lon="2.21576">
        <ele>872</ele>
        <time>2019-03-30T15:44:26Z</time>
      </trkpt>
      <trkpt lat="43.44666" lon="2.21586">
        <ele>873</ele>
        <time>2019-03-30T15:44:30Z</time>
      </trkpt>
      <trkpt lat="43.44666" lon="2.2159">
        <ele>874</ele>
        <time>2019-03-30T15:44:32Z</time>
      </trkpt>
      <trkpt lat="43.44666" lon="2.21597">
        <ele>875</ele>
        <time>2019-03-30T15:44:35Z</time>
      </trkpt>
      <trkpt lat="43.44666" lon="2.21602">
        <ele>875</ele>
        <time>2019-03-30T15:44:37Z</time>
      </trkpt>
      <trkpt lat="43.44667" lon="2.21604">
        <ele>875</ele>
        <time>2019-03-30T15:44:38Z</time>
      </trkpt>
      <trkpt lat="43.44669" lon="2.21611">
        <ele>876</ele>
        <time>2019-03-30T15:44:42Z</time>
      </trkpt>
      <trkpt lat="43.4467" lon="2.21618">
        <ele>877</ele>
        <time>2019-03-30T15:44:46Z</time>
      </trkpt>
      <trkpt lat="43.4467" lon="2.21623">
        <ele>878</ele>
        <time>2019-03-30T15:44:50Z</time>
      </trkpt>
      <trkpt lat="43.4467" lon="2.21644">
        <ele>881</ele>
        <time>2019-03-30T15:45:02Z</time>
      </trkpt>
      <trkpt lat="43.4467" lon="2.21652">
        <ele>882</ele>
        <time>2019-03-30T15:45:06Z</time>
      </trkpt>
      <trkpt lat="43.4467" lon="2.21655">
        <ele>882</ele>
        <time>2019-03-30T15:45:07Z</time>
      </trkpt>
      <trkpt lat="43.4467" lon="2.21661">
        <ele>883</ele>
        <time>2019-03-30T15:45:10Z</time>
      </trkpt>
      <trkpt lat="43.44671" lon="2.2167">
        <ele>884</ele>
        <time>2019-03-30T15:45:15Z</time>
      </trkpt>
      <trkpt lat="43.4467" lon="2.21676">
        <ele>884</ele>
        <time>2019-03-30T15:45:18Z</time>
      </trkpt>
      <trkpt lat="43.4467" lon="2.21683">
        <ele>885</ele>
        <time>2019-03-30T15:45:22Z</time>
      </trkpt>
      <trkpt lat="43.44668" lon="2.217">
        <ele>886</ele>
        <time>2019-03-30T15:45:31Z</time>
      </trkpt>
      <trkpt lat="43.44667" lon="2.21702">
        <ele>887</ele>
        <time>2019-03-30T15:45:32Z</time>
      </trkpt>
      <trkpt lat="43.44664" lon="2.21711">
        <ele>888</ele>
        <time>2019-03-30T15:45:38Z</time>
      </trkpt>
      <trkpt lat="43.44663" lon="2.21716">
        <ele>889</ele>
        <time>2019-03-30T15:45:41Z</time>
      </trkpt>
      <trkpt lat="43.44661" lon="2.21726">
        <ele>890</ele>
        <time>2019-03-30T15:45:46Z</time>
      </trkpt>
      <trkpt lat="43.44659" lon="2.21729">
        <ele>890</ele>
        <time>2019-03-30T15:45:47Z</time>
      </trkpt>
      <trkpt lat="43.44653" lon="2.21742">
        <ele>891</ele>
        <time>2019-03-30T15:45:53Z</time>
      </trkpt>
      <trkpt lat="43.44652" lon="2.21747">
        <ele>891</ele>
        <time>2019-03-30T15:45:55Z</time>
      </trkpt>
      <trkpt lat="43.44652" lon="2.21752">
        <ele>892</ele>
        <time>2019-03-30T15:45:58Z</time>
      </trkpt>
      <trkpt lat="43.4465" lon="2.21761">
        <ele>892</ele>
        <time>2019-03-30T15:46:02Z</time>
      </trkpt>
      <trkpt lat="43.44646" lon="2.21773">
        <ele>893</ele>
        <time>2019-03-30T15:46:08Z</time>
      </trkpt>
      <trkpt lat="43.44641" lon="2.21784">
        <ele>893</ele>
        <time>2019-03-30T15:46:13Z</time>
      </trkpt>
      <trkpt lat="43.44637" lon="2.21793">
        <ele>894</ele>
        <time>2019-03-30T15:46:16Z</time>
      </trkpt>
      <trkpt lat="43.44633" lon="2.218">
        <ele>895</ele>
        <time>2019-03-30T15:46:19Z</time>
      </trkpt>
      <trkpt lat="43.44631" lon="2.21804">
        <ele>895</ele>
        <time>2019-03-30T15:46:21Z</time>
      </trkpt>
      <trkpt lat="43.44629" lon="2.21811">
        <ele>896</ele>
        <time>2019-03-30T15:46:24Z</time>
      </trkpt>
      <trkpt lat="43.44627" lon="2.21819">
        <ele>896</ele>
        <time>2019-03-30T15:46:28Z</time>
      </trkpt>
      <trkpt lat="43.44626" lon="2.21822">
        <ele>897</ele>
        <time>2019-03-30T15:46:30Z</time>
      </trkpt>
      <trkpt lat="43.44621" lon="2.21835">
        <ele>897</ele>
        <time>2019-03-30T15:46:34Z</time>
      </trkpt>
      <trkpt lat="43.44617" lon="2.21848">
        <ele>898</ele>
        <time>2019-03-30T15:46:39Z</time>
      </trkpt>
      <trkpt lat="43.44616" lon="2.2185">
        <ele>898</ele>
        <time>2019-03-30T15:46:40Z</time>
      </trkpt>
      <trkpt lat="43.44614" lon="2.21853">
        <ele>898</ele>
        <time>2019-03-30T15:46:41Z</time>
      </trkpt>
      <trkpt lat="43.44611" lon="2.21862">
        <ele>899</ele>
        <time>2019-03-30T15:46:44Z</time>
      </trkpt>
      <trkpt lat="43.4461" lon="2.21864">
        <ele>899</ele>
        <time>2019-03-30T15:46:45Z</time>
      </trkpt>
      <trkpt lat="43.4461" lon="2.21868">
        <ele>899</ele>
        <time>2019-03-30T15:46:47Z</time>
      </trkpt>
      <trkpt lat="43.44609" lon="2.21873">
        <ele>900</ele>
        <time>2019-03-30T15:46:49Z</time>
      </trkpt>
      <trkpt lat="43.44606" lon="2.21881">
        <ele>900</ele>
        <time>2019-03-30T15:46:52Z</time>
      </trkpt>
      <trkpt lat="43.44604" lon="2.21888">
        <ele>901</ele>
        <time>2019-03-30T15:46:55Z</time>
      </trkpt>
      <trkpt lat="43.44604" lon="2.2189">
        <ele>901</ele>
        <time>2019-03-30T15:46:56Z</time>
      </trkpt>
      <trkpt lat="43.44602" lon="2.21893">
        <ele>901</ele>
        <time>2019-03-30T15:46:57Z</time>
      </trkpt>
      <trkpt lat="43.44599" lon="2.21904">
        <ele>902</ele>
        <time>2019-03-30T15:47:02Z</time>
      </trkpt>
      <trkpt lat="43.44596" lon="2.21912">
        <ele>902</ele>
        <time>2019-03-30T15:47:05Z</time>
      </trkpt>
      <trkpt lat="43.44596" lon="2.21913">
        <ele>903</ele>
        <time>2019-03-30T15:47:06Z</time>
      </trkpt>
      <trkpt lat="43.4459" lon="2.21926">
        <ele>904</ele>
        <time>2019-03-30T15:47:11Z</time>
      </trkpt>
      <trkpt lat="43.44588" lon="2.21933">
        <ele>904</ele>
        <time>2019-03-30T15:47:14Z</time>
      </trkpt>
      <trkpt lat="43.44586" lon="2.21937">
        <ele>904</ele>
        <time>2019-03-30T15:47:16Z</time>
      </trkpt>
      <trkpt lat="43.44585" lon="2.21941">
        <ele>905</ele>
        <time>2019-03-30T15:47:18Z</time>
      </trkpt>
      <trkpt lat="43.44584" lon="2.21943">
        <ele>905</ele>
        <time>2019-03-30T15:47:19Z</time>
      </trkpt>
      <trkpt lat="43.44581" lon="2.21951">
        <ele>905</ele>
        <time>2019-03-30T15:47:22Z</time>
      </trkpt>
      <trkpt lat="43.44577" lon="2.2196">
        <ele>906</ele>
        <time>2019-03-30T15:47:26Z</time>
      </trkpt>
      <trkpt lat="43.44577" lon="2.21963">
        <ele>906</ele>
        <time>2019-03-30T15:47:27Z</time>
      </trkpt>
      <trkpt lat="43.44572" lon="2.21976">
        <ele>906</ele>
        <time>2019-03-30T15:47:34Z</time>
      </trkpt>
      <trkpt lat="43.44573" lon="2.21983">
        <ele>906</ele>
        <time>2019-03-30T15:47:39Z</time>
      </trkpt>
      <trkpt lat="43.44579" lon="2.21991">
        <ele>906</ele>
        <time>2019-03-30T15:47:46Z</time>
      </trkpt>
      <trkpt lat="43.4458" lon="2.21991">
        <ele>906</ele>
        <time>2019-03-30T15:47:47Z</time>
      </trkpt>
      <trkpt lat="43.44583" lon="2.21995">
        <ele>907</ele>
        <time>2019-03-30T15:48:43Z</time>
      </trkpt>
      <trkpt lat="43.44585" lon="2.21994">
        <ele>907</ele>
        <time>2019-03-30T15:48:46Z</time>
      </trkpt>
      <trkpt lat="43.44586" lon="2.21995">
        <ele>907</ele>
        <time>2019-03-30T15:48:50Z</time>
      </trkpt>
      <trkpt lat="43.44587" lon="2.21995">
        <ele>907</ele>
        <time>2019-03-30T15:48:52Z</time>
      </trkpt>
      <trkpt lat="43.44587" lon="2.21995">
        <ele>907</ele>
        <time>2019-03-30T15:48:53Z</time>
      </trkpt>
      <trkpt lat="43.44588" lon="2.21996">
        <ele>907</ele>
        <time>2019-03-30T15:48:55Z</time>
      </trkpt>
      <trkpt lat="43.44588" lon="2.21996">
        <ele>907</ele>
        <time>2019-03-30T15:48:59Z</time>
      </trkpt>
      <trkpt lat="43.44588" lon="2.21995">
        <ele>908</ele>
        <time>2019-03-30T15:52:57Z</time>
      </trkpt>
      <trkpt lat="43.44589" lon="2.21995">
        <ele>908</ele>
        <time>2019-03-30T15:52:58Z</time>
      </trkpt>
      <trkpt lat="43.44591" lon="2.21995">
        <ele>908</ele>
        <time>2019-03-30T15:53:02Z</time>
      </trkpt>
      <trkpt lat="43.44595" lon="2.21995">
        <ele>908</ele>
        <time>2019-03-30T15:53:04Z</time>
      </trkpt>
      <trkpt lat="43.44597" lon="2.21995">
        <ele>908</ele>
        <time>2019-03-30T15:53:05Z</time>
      </trkpt>
      <trkpt lat="43.44605" lon="2.21993">
        <ele>908</ele>
        <time>2019-03-30T15:53:10Z</time>
      </trkpt>
      <trkpt lat="43.4461" lon="2.21992">
        <ele>908</ele>
        <time>2019-03-30T15:53:15Z</time>
      </trkpt>
      <trkpt lat="43.44613" lon="2.2199">
        <ele>908</ele>
        <time>2019-03-30T15:53:17Z</time>
      </trkpt>
      <trkpt lat="43.44625" lon="2.21987">
        <ele>908</ele>
        <time>2019-03-30T15:53:22Z</time>
      </trkpt>
      <trkpt lat="43.44639" lon="2.21992">
        <ele>909</ele>
        <time>2019-03-30T15:53:28Z</time>
      </trkpt>
      <trkpt lat="43.44653" lon="2.21993">
        <ele>910</ele>
        <time>2019-03-30T15:53:33Z</time>
      </trkpt>
      <trkpt lat="43.44659" lon="2.21993">
        <ele>910</ele>
        <time>2019-03-30T15:53:35Z</time>
      </trkpt>
      <trkpt lat="43.44672" lon="2.21994">
        <ele>910</ele>
        <time>2019-03-30T15:53:39Z</time>
      </trkpt>
      <trkpt lat="43.44684" lon="2.21995">
        <ele>910</ele>
        <time>2019-03-30T15:53:43Z</time>
      </trkpt>
      <trkpt lat="43.44705" lon="2.21996">
        <ele>911</ele>
        <time>2019-03-30T15:53:49Z</time>
      </trkpt>
      <trkpt lat="43.44719" lon="2.21999">
        <ele>912</ele>
        <time>2019-03-30T15:53:53Z</time>
      </trkpt>
      <trkpt lat="43.44726" lon="2.21999">
        <ele>913</ele>
        <time>2019-03-30T15:53:56Z</time>
      </trkpt>
      <trkpt lat="43.44731" lon="2.21999">
        <ele>913</ele>
        <time>2019-03-30T15:53:58Z</time>
      </trkpt>
      <trkpt lat="43.44741" lon="2.22005">
        <ele>913</ele>
        <time>2019-03-30T15:54:02Z</time>
      </trkpt>
      <trkpt lat="43.44744" lon="2.22008">
        <ele>913</ele>
        <time>2019-03-30T15:54:04Z</time>
      </trkpt>
      <trkpt lat="43.44751" lon="2.22011">
        <ele>913</ele>
        <time>2019-03-30T15:54:06Z</time>
      </trkpt>
      <trkpt lat="43.44767" lon="2.2202">
        <ele>911</ele>
        <time>2019-03-30T15:54:10Z</time>
      </trkpt>
      <trkpt lat="43.44779" lon="2.22032">
        <ele>910</ele>
        <time>2019-03-30T15:54:13Z</time>
      </trkpt>
      <trkpt lat="43.44784" lon="2.22037">
        <ele>909</ele>
        <time>2019-03-30T15:54:14Z</time>
      </trkpt>
      <trkpt lat="43.44789" lon="2.22042">
        <ele>909</ele>
        <time>2019-03-30T15:54:15Z</time>
      </trkpt>
      <trkpt lat="43.44799" lon="2.2205">
        <ele>907</ele>
        <time>2019-03-30T15:54:17Z</time>
      </trkpt>
      <trkpt lat="43.44809" lon="2.22057">
        <ele>906</ele>
        <time>2019-03-30T15:54:19Z</time>
      </trkpt>
      <trkpt lat="43.44814" lon="2.22061">
        <ele>905</ele>
        <time>2019-03-30T15:54:20Z</time>
      </trkpt>
      <trkpt lat="43.44818" lon="2.22065">
        <ele>904</ele>
        <time>2019-03-30T15:54:21Z</time>
      </trkpt>
      <trkpt lat="43.44828" lon="2.22073">
        <ele>903</ele>
        <time>2019-03-30T15:54:23Z</time>
      </trkpt>
      <trkpt lat="43.44833" lon="2.22078">
        <ele>902</ele>
        <time>2019-03-30T15:54:24Z</time>
      </trkpt>
      <trkpt lat="43.44842" lon="2.22086">
        <ele>901</ele>
        <time>2019-03-30T15:54:26Z</time>
      </trkpt>
      <trkpt lat="43.44851" lon="2.22093">
        <ele>900</ele>
        <time>2019-03-30T15:54:28Z</time>
      </trkpt>
      <trkpt lat="43.44857" lon="2.22098">
        <ele>899</ele>
        <time>2019-03-30T15:54:29Z</time>
      </trkpt>
      <trkpt lat="43.44863" lon="2.22102">
        <ele>899</ele>
        <time>2019-03-30T15:54:30Z</time>
      </trkpt>
      <trkpt lat="43.44869" lon="2.22106">
        <ele>898</ele>
        <time>2019-03-30T15:54:31Z</time>
      </trkpt>
      <trkpt lat="43.44875" lon="2.22111">
        <ele>898</ele>
        <time>2019-03-30T15:54:32Z</time>
      </trkpt>
      <trkpt lat="43.44885" lon="2.22119">
        <ele>896</ele>
        <time>2019-03-30T15:54:34Z</time>
      </trkpt>
      <trkpt lat="43.44894" lon="2.22129">
        <ele>895</ele>
        <time>2019-03-30T15:54:36Z</time>
      </trkpt>
      <trkpt lat="43.449" lon="2.22133">
        <ele>894</ele>
        <time>2019-03-30T15:54:37Z</time>
      </trkpt>
      <trkpt lat="43.44904" lon="2.22138">
        <ele>894</ele>
        <time>2019-03-30T15:54:38Z</time>
      </trkpt>
      <trkpt lat="43.44908" lon="2.22142">
        <ele>893</ele>
        <time>2019-03-30T15:54:39Z</time>
      </trkpt>
      <trkpt lat="43.44911" lon="2.22146">
        <ele>893</ele>
        <time>2019-03-30T15:54:40Z</time>
      </trkpt>
      <trkpt lat="43.44924" lon="2.22164">
        <ele>893</ele>
        <time>2019-03-30T15:54:45Z</time>
      </trkpt>
      <trkpt lat="43.44936" lon="2.22185">
        <ele>894</ele>
        <time>2019-03-30T15:54:50Z</time>
      </trkpt>
      <trkpt lat="43.44945" lon="2.22207">
        <ele>894</ele>
        <time>2019-03-30T15:54:55Z</time>
      </trkpt>
      <trkpt lat="43.44949" lon="2.22214">
        <ele>894</ele>
        <time>2019-03-30T15:54:57Z</time>
      </trkpt>
      <trkpt lat="43.44951" lon="2.22217">
        <ele>895</ele>
        <time>2019-03-30T15:54:58Z</time>
      </trkpt>
      <trkpt lat="43.44955" lon="2.22228">
        <ele>895</ele>
        <time>2019-03-30T15:55:01Z</time>
      </trkpt>
      <trkpt lat="43.44961" lon="2.22243">
        <ele>896</ele>
        <time>2019-03-30T15:55:05Z</time>
      </trkpt>
      <trkpt lat="43.44963" lon="2.2225">
        <ele>896</ele>
        <time>2019-03-30T15:55:07Z</time>
      </trkpt>
      <trkpt lat="43.44968" lon="2.22266">
        <ele>897</ele>
        <time>2019-03-30T15:55:12Z</time>
      </trkpt>
      <trkpt lat="43.44969" lon="2.2227">
        <ele>897</ele>
        <time>2019-03-30T15:55:13Z</time>
      </trkpt>
      <trkpt lat="43.44973" lon="2.22282">
        <ele>897</ele>
        <time>2019-03-30T15:55:16Z</time>
      </trkpt>
      <trkpt lat="43.44978" lon="2.22297">
        <ele>898</ele>
        <time>2019-03-30T15:55:20Z</time>
      </trkpt>
      <trkpt lat="43.44979" lon="2.22304">
        <ele>899</ele>
        <time>2019-03-30T15:55:22Z</time>
      </trkpt>
      <trkpt lat="43.44985" lon="2.22322">
        <ele>899</ele>
        <time>2019-03-30T15:55:27Z</time>
      </trkpt>
      <trkpt lat="43.4499" lon="2.22334">
        <ele>899</ele>
        <time>2019-03-30T15:55:30Z</time>
      </trkpt>
      <trkpt lat="43.44992" lon="2.22345">
        <ele>900</ele>
        <time>2019-03-30T15:55:33Z</time>
      </trkpt>
      <trkpt lat="43.44992" lon="2.22349">
        <ele>901</ele>
        <time>2019-03-30T15:55:34Z</time>
      </trkpt>
      <trkpt lat="43.44994" lon="2.22371">
        <ele>900</ele>
        <time>2019-03-30T15:55:39Z</time>
      </trkpt>
      <trkpt lat="43.44994" lon="2.22395">
        <ele>900</ele>
        <time>2019-03-30T15:55:44Z</time>
      </trkpt>
      <trkpt lat="43.44993" lon="2.22417">
        <ele>900</ele>
        <time>2019-03-30T15:55:48Z</time>
      </trkpt>
      <trkpt lat="43.44993" lon="2.22423">
        <ele>899</ele>
        <time>2019-03-30T15:55:49Z</time>
      </trkpt>
      <trkpt lat="43.44991" lon="2.22454">
        <ele>898</ele>
        <time>2019-03-30T15:55:53Z</time>
      </trkpt>
      <trkpt lat="43.44992" lon="2.22461">
        <ele>897</ele>
        <time>2019-03-30T15:55:54Z</time>
      </trkpt>
      <trkpt lat="43.44993" lon="2.22469">
        <ele>896</ele>
        <time>2019-03-30T15:55:55Z</time>
      </trkpt>
      <trkpt lat="43.44996" lon="2.22484">
        <ele>896</ele>
        <time>2019-03-30T15:55:57Z</time>
      </trkpt>
      <trkpt lat="43.44999" lon="2.22491">
        <ele>895</ele>
        <time>2019-03-30T15:55:58Z</time>
      </trkpt>
      <trkpt lat="43.45007" lon="2.22506">
        <ele>894</ele>
        <time>2019-03-30T15:56:00Z</time>
      </trkpt>
      <trkpt lat="43.45023" lon="2.22523">
        <ele>893</ele>
        <time>2019-03-30T15:56:03Z</time>
      </trkpt>
      <trkpt lat="43.45035" lon="2.2253">
        <ele>893</ele>
        <time>2019-03-30T15:56:05Z</time>
      </trkpt>
      <trkpt lat="43.45054" lon="2.22541">
        <ele>892</ele>
        <time>2019-03-30T15:56:08Z</time>
      </trkpt>
      <trkpt lat="43.45063" lon="2.22542">
        <ele>891</ele>
        <time>2019-03-30T15:56:09Z</time>
      </trkpt>
      <trkpt lat="43.45071" lon="2.22545">
        <ele>890</ele>
        <time>2019-03-30T15:56:10Z</time>
      </trkpt>
      <trkpt lat="43.4508" lon="2.22548">
        <ele>890</ele>
        <time>2019-03-30T15:56:11Z</time>
      </trkpt>
      <trkpt lat="43.45087" lon="2.22551">
        <ele>889</ele>
        <time>2019-03-30T15:56:12Z</time>
      </trkpt>
      <trkpt lat="43.45103" lon="2.22554">
        <ele>888</ele>
        <time>2019-03-30T15:56:14Z</time>
      </trkpt>
      <trkpt lat="43.45111" lon="2.22555">
        <ele>888</ele>
        <time>2019-03-30T15:56:15Z</time>
      </trkpt>
      <trkpt lat="43.45128" lon="2.22554">
        <ele>887</ele>
        <time>2019-03-30T15:56:17Z</time>
      </trkpt>
      <trkpt lat="43.45137" lon="2.22552">
        <ele>887</ele>
        <time>2019-03-30T15:56:18Z</time>
      </trkpt>
      <trkpt lat="43.45182" lon="2.22541">
        <ele>886</ele>
        <time>2019-03-30T15:56:23Z</time>
      </trkpt>
      <trkpt lat="43.4519" lon="2.22539">
        <ele>886</ele>
        <time>2019-03-30T15:56:24Z</time>
      </trkpt>
      <trkpt lat="43.45204" lon="2.22532">
        <ele>884</ele>
        <time>2019-03-30T15:56:26Z</time>
      </trkpt>
      <trkpt lat="43.45214" lon="2.22526">
        <ele>884</ele>
        <time>2019-03-30T15:56:27Z</time>
      </trkpt>
      <trkpt lat="43.45224" lon="2.22522">
        <ele>883</ele>
        <time>2019-03-30T15:56:28Z</time>
      </trkpt>
      <trkpt lat="43.45233" lon="2.22518">
        <ele>883</ele>
        <time>2019-03-30T15:56:29Z</time>
      </trkpt>
      <trkpt lat="43.45242" lon="2.22516">
        <ele>883</ele>
        <time>2019-03-30T15:56:30Z</time>
      </trkpt>
      <trkpt lat="43.45249" lon="2.22516">
        <ele>882</ele>
        <time>2019-03-30T15:56:31Z</time>
      </trkpt>
      <trkpt lat="43.45263" lon="2.22523">
        <ele>881</ele>
        <time>2019-03-30T15:56:33Z</time>
      </trkpt>
      <trkpt lat="43.45268" lon="2.22529">
        <ele>881</ele>
        <time>2019-03-30T15:56:34Z</time>
      </trkpt>
      <trkpt lat="43.45276" lon="2.22544">
        <ele>880</ele>
        <time>2019-03-30T15:56:36Z</time>
      </trkpt>
      <trkpt lat="43.45288" lon="2.22565">
        <ele>879</ele>
        <time>2019-03-30T15:56:39Z</time>
      </trkpt>
      <trkpt lat="43.45298" lon="2.22587">
        <ele>879</ele>
        <time>2019-03-30T15:56:42Z</time>
      </trkpt>
      <trkpt lat="43.45301" lon="2.22593">
        <ele>878</ele>
        <time>2019-03-30T15:56:43Z</time>
      </trkpt>
      <trkpt lat="43.45305" lon="2.22598">
        <ele>878</ele>
        <time>2019-03-30T15:56:44Z</time>
      </trkpt>
      <trkpt lat="43.45315" lon="2.22607">
        <ele>878</ele>
        <time>2019-03-30T15:56:46Z</time>
      </trkpt>
      <trkpt lat="43.45332" lon="2.22624">
        <ele>878</ele>
        <time>2019-03-30T15:56:50Z</time>
      </trkpt>
      <trkpt lat="43.45337" lon="2.22629">
        <ele>877</ele>
        <time>2019-03-30T15:56:51Z</time>
      </trkpt>
      <trkpt lat="43.45341" lon="2.22634">
        <ele>877</ele>
        <time>2019-03-30T15:56:52Z</time>
      </trkpt>
      <trkpt lat="43.4535" lon="2.22646">
        <ele>877</ele>
        <time>2019-03-30T15:56:54Z</time>
      </trkpt>
      <trkpt lat="43.45359" lon="2.22659">
        <ele>876</ele>
        <time>2019-03-30T15:56:56Z</time>
      </trkpt>
      <trkpt lat="43.4537" lon="2.22675">
        <ele>876</ele>
        <time>2019-03-30T15:56:59Z</time>
      </trkpt>
      <trkpt lat="43.45377" lon="2.22683">
        <ele>876</ele>
        <time>2019-03-30T15:57:01Z</time>
      </trkpt>
      <trkpt lat="43.45386" lon="2.22693">
        <ele>876</ele>
        <time>2019-03-30T15:57:04Z</time>
      </trkpt>
      <trkpt lat="43.45389" lon="2.22699">
        <ele>876</ele>
        <time>2019-03-30T15:57:06Z</time>
      </trkpt>
      <trkpt lat="43.45389" lon="2.22703">
        <ele>876</ele>
        <time>2019-03-30T15:57:08Z</time>
      </trkpt>
      <trkpt lat="43.45392" lon="2.22709">
        <ele>876</ele>
        <time>2019-03-30T15:57:12Z</time>
      </trkpt>
      <trkpt lat="43.45392" lon="2.22709">
        <ele>876</ele>
        <time>2019-03-30T15:57:13Z</time>
      </trkpt>
      <trkpt lat="43.45393" lon="2.22709">
        <ele>876</ele>
        <time>2019-03-30T15:57:15Z</time>
      </trkpt>
      <trkpt lat="43.45395" lon="2.22714">
        <ele>876</ele>
        <time>2019-03-30T15:58:36Z</time>
      </trkpt>
      <trkpt lat="43.45396" lon="2.22716">
        <ele>876</ele>
        <time>2019-03-30T15:58:37Z</time>
      </trkpt>
      <trkpt lat="43.45396" lon="2.22718">
        <ele>876</ele>
        <time>2019-03-30T15:58:38Z</time>
      </trkpt>
      <trkpt lat="43.45401" lon="2.22727">
        <ele>876</ele>
        <time>2019-03-30T15:58:42Z</time>
      </trkpt>
      <trkpt lat="43.45402" lon="2.22738">
        <ele>876</ele>
        <time>2019-03-30T15:58:46Z</time>
      </trkpt>
      <trkpt lat="43.45402" lon="2.22741">
        <ele>877</ele>
        <time>2019-03-30T15:58:47Z</time>
      </trkpt>
      <trkpt lat="43.45402" lon="2.22756">
        <ele>877</ele>
        <time>2019-03-30T15:58:52Z</time>
      </trkpt>
      <trkpt lat="43.45404" lon="2.22775">
        <ele>877</ele>
        <time>2019-03-30T15:58:58Z</time>
      </trkpt>
      <trkpt lat="43.45404" lon="2.22782">
        <ele>877</ele>
        <time>2019-03-30T15:59:00Z</time>
      </trkpt>
      <trkpt lat="43.45408" lon="2.2279">
        <ele>879</ele>
        <time>2019-03-30T15:59:03Z</time>
      </trkpt>
      <trkpt lat="43.45409" lon="2.22793">
        <ele>879</ele>
        <time>2019-03-30T15:59:04Z</time>
      </trkpt>
      <trkpt lat="43.45411" lon="2.228">
        <ele>880</ele>
        <time>2019-03-30T15:59:06Z</time>
      </trkpt>
      <trkpt lat="43.45412" lon="2.22806">
        <ele>880</ele>
        <time>2019-03-30T15:59:08Z</time>
      </trkpt>
      <trkpt lat="43.45417" lon="2.22819">
        <ele>881</ele>
        <time>2019-03-30T15:59:12Z</time>
      </trkpt>
      <trkpt lat="43.45418" lon="2.22829">
        <ele>881</ele>
        <time>2019-03-30T15:59:15Z</time>
      </trkpt>
      <trkpt lat="43.45418" lon="2.22832">
        <ele>881</ele>
        <time>2019-03-30T15:59:16Z</time>
      </trkpt>
      <trkpt lat="43.45419" lon="2.22835">
        <ele>881</ele>
        <time>2019-03-30T15:59:17Z</time>
      </trkpt>
      <trkpt lat="43.45423" lon="2.22847">
        <ele>881</ele>
        <time>2019-03-30T15:59:21Z</time>
      </trkpt>
      <trkpt lat="43.45424" lon="2.22852">
        <ele>882</ele>
        <time>2019-03-30T15:59:23Z</time>
      </trkpt>
      <trkpt lat="43.45423" lon="2.22855">
        <ele>882</ele>
        <time>2019-03-30T15:59:24Z</time>
      </trkpt>
      <trkpt lat="43.45424" lon="2.22861">
        <ele>883</ele>
        <time>2019-03-30T15:59:26Z</time>
      </trkpt>
      <trkpt lat="43.45423" lon="2.22867">
        <ele>883</ele>
        <time>2019-03-30T15:59:28Z</time>
      </trkpt>
      <trkpt lat="43.45423" lon="2.22875">
        <ele>884</ele>
        <time>2019-03-30T15:59:31Z</time>
      </trkpt>
      <trkpt lat="43.45424" lon="2.22878">
        <ele>884</ele>
        <time>2019-03-30T15:59:32Z</time>
      </trkpt>
      <trkpt lat="43.45425" lon="2.2288">
        <ele>885</ele>
        <time>2019-03-30T15:59:33Z</time>
      </trkpt>
      <trkpt lat="43.45426" lon="2.22889">
        <ele>886</ele>
        <time>2019-03-30T15:59:37Z</time>
      </trkpt>
      <trkpt lat="43.45426" lon="2.22891">
        <ele>886</ele>
        <time>2019-03-30T15:59:38Z</time>
      </trkpt>
      <trkpt lat="43.45427" lon="2.22894">
        <ele>887</ele>
        <time>2019-03-30T15:59:39Z</time>
      </trkpt>
      <trkpt lat="43.45431" lon="2.22902">
        <ele>887</ele>
        <time>2019-03-30T15:59:41Z</time>
      </trkpt>
      <trkpt lat="43.45433" lon="2.22904">
        <ele>887</ele>
        <time>2019-03-30T15:59:42Z</time>
      </trkpt>
      <trkpt lat="43.45435" lon="2.22908">
        <ele>888</ele>
        <time>2019-03-30T15:59:44Z</time>
      </trkpt>
      <trkpt lat="43.45442" lon="2.22913">
        <ele>889</ele>
        <time>2019-03-30T15:59:47Z</time>
      </trkpt>
      <trkpt lat="43.45445" lon="2.22914">
        <ele>889</ele>
        <time>2019-03-30T15:59:48Z</time>
      </trkpt>
      <trkpt lat="43.45448" lon="2.22917">
        <ele>890</ele>
        <time>2019-03-30T15:59:50Z</time>
      </trkpt>
      <trkpt lat="43.45449" lon="2.22918">
        <ele>890</ele>
        <time>2019-03-30T15:59:51Z</time>
      </trkpt>
      <trkpt lat="43.45461" lon="2.22924">
        <ele>891</ele>
        <time>2019-03-30T15:59:56Z</time>
      </trkpt>
      <trkpt lat="43.45465" lon="2.22925">
        <ele>891</ele>
        <time>2019-03-30T15:59:58Z</time>
      </trkpt>
      <trkpt lat="43.45475" lon="2.22929">
        <ele>892</ele>
        <time>2019-03-30T16:00:03Z</time>
      </trkpt>
      <trkpt lat="43.45481" lon="2.22935">
        <ele>893</ele>
        <time>2019-03-30T16:00:09Z</time>
      </trkpt>
      <trkpt lat="43.45483" lon="2.22935">
        <ele>893</ele>
        <time>2019-03-30T16:00:10Z</time>
      </trkpt>
      <trkpt lat="43.45488" lon="2.22938">
        <ele>893</ele>
        <time>2019-03-30T16:00:14Z</time>
      </trkpt>
      <trkpt lat="43.45492" lon="2.22939">
        <ele>894</ele>
        <time>2019-03-30T16:00:16Z</time>
      </trkpt>
      <trkpt lat="43.45494" lon="2.2294">
        <ele>894</ele>
        <time>2019-03-30T16:00:17Z</time>
      </trkpt>
      <trkpt lat="43.45498" lon="2.22942">
        <ele>895</ele>
        <time>2019-03-30T16:00:19Z</time>
      </trkpt>
      <trkpt lat="43.45506" lon="2.22947">
        <ele>895</ele>
        <time>2019-03-30T16:00:24Z</time>
      </trkpt>
      <trkpt lat="43.45509" lon="2.22948">
        <ele>896</ele>
        <time>2019-03-30T16:00:25Z</time>
      </trkpt>
      <trkpt lat="43.45516" lon="2.22952">
        <ele>897</ele>
        <time>2019-03-30T16:00:29Z</time>
      </trkpt>
      <trkpt lat="43.45519" lon="2.22954">
        <ele>897</ele>
        <time>2019-03-30T16:00:31Z</time>
      </trkpt>
      <trkpt lat="43.45523" lon="2.22955">
        <ele>897</ele>
        <time>2019-03-30T16:00:33Z</time>
      </trkpt>
      <trkpt lat="43.45527" lon="2.22959">
        <ele>898</ele>
        <time>2019-03-30T16:00:36Z</time>
      </trkpt>
      <trkpt lat="43.4553" lon="2.22961">
        <ele>899</ele>
        <time>2019-03-30T16:00:38Z</time>
      </trkpt>
      <trkpt lat="43.45532" lon="2.22961">
        <ele>899</ele>
        <time>2019-03-30T16:00:39Z</time>
      </trkpt>
      <trkpt lat="43.45533" lon="2.22962">
        <ele>900</ele>
        <time>2019-03-30T16:00:40Z</time>
      </trkpt>
      <trkpt lat="43.45538" lon="2.22965">
        <ele>901</ele>
        <time>2019-03-30T16:00:44Z</time>
      </trkpt>
      <trkpt lat="43.45549" lon="2.22969">
        <ele>902</ele>
        <time>2019-03-30T16:00:50Z</time>
      </trkpt>
      <trkpt lat="43.45553" lon="2.2297">
        <ele>902</ele>
        <time>2019-03-30T16:00:52Z</time>
      </trkpt>
      <trkpt lat="43.45561" lon="2.22972">
        <ele>902</ele>
        <time>2019-03-30T16:00:56Z</time>
      </trkpt>
      <trkpt lat="43.45565" lon="2.22975">
        <ele>903</ele>
        <time>2019-03-30T16:00:59Z</time>
      </trkpt>
      <trkpt lat="43.4557" lon="2.22978">
        <ele>904</ele>
        <time>2019-03-30T16:01:02Z</time>
      </trkpt>
      <trkpt lat="43.45573" lon="2.22981">
        <ele>904</ele>
        <time>2019-03-30T16:01:04Z</time>
      </trkpt>
      <trkpt lat="43.45581" lon="2.22984">
        <ele>905</ele>
        <time>2019-03-30T16:01:08Z</time>
      </trkpt>
      <trkpt lat="43.4559" lon="2.22988">
        <ele>906</ele>
        <time>2019-03-30T16:01:13Z</time>
      </trkpt>
      <trkpt lat="43.45597" lon="2.2299">
        <ele>906</ele>
        <time>2019-03-30T16:01:17Z</time>
      </trkpt>
      <trkpt lat="43.456" lon="2.22992">
        <ele>907</ele>
        <time>2019-03-30T16:01:19Z</time>
      </trkpt>
      <trkpt lat="43.45612" lon="2.22998">
        <ele>908</ele>
        <time>2019-03-30T16:01:25Z</time>
      </trkpt>
      <trkpt lat="43.45622" lon="2.23005">
        <ele>908</ele>
        <time>2019-03-30T16:01:30Z</time>
      </trkpt>
      <trkpt lat="43.45625" lon="2.23006">
        <ele>909</ele>
        <time>2019-03-30T16:01:31Z</time>
      </trkpt>
      <trkpt lat="43.45629" lon="2.23008">
        <ele>910</ele>
        <time>2019-03-30T16:01:33Z</time>
      </trkpt>
      <trkpt lat="43.45637" lon="2.23013">
        <ele>910</ele>
        <time>2019-03-30T16:01:37Z</time>
      </trkpt>
      <trkpt lat="43.45639" lon="2.23015">
        <ele>910</ele>
        <time>2019-03-30T16:01:38Z</time>
      </trkpt>
      <trkpt lat="43.45647" lon="2.2302">
        <ele>911</ele>
        <time>2019-03-30T16:01:43Z</time>
      </trkpt>
      <trkpt lat="43.45649" lon="2.23021">
        <ele>911</ele>
        <time>2019-03-30T16:01:44Z</time>
      </trkpt>
      <trkpt lat="43.45651" lon="2.23021">
        <ele>911</ele>
        <time>2019-03-30T16:01:45Z</time>
      </trkpt>
      <trkpt lat="43.45654" lon="2.23022">
        <ele>911</ele>
        <time>2019-03-30T16:01:46Z</time>
      </trkpt>
      <trkpt lat="43.4566" lon="2.23026">
        <ele>911</ele>
        <time>2019-03-30T16:01:49Z</time>
      </trkpt>
      <trkpt lat="43.45665" lon="2.23028">
        <ele>912</ele>
        <time>2019-03-30T16:01:51Z</time>
      </trkpt>
      <trkpt lat="43.4567" lon="2.23031">
        <ele>912</ele>
        <time>2019-03-30T16:01:53Z</time>
      </trkpt>
      <trkpt lat="43.45672" lon="2.23032">
        <ele>912</ele>
        <time>2019-03-30T16:01:54Z</time>
      </trkpt>
      <trkpt lat="43.4568" lon="2.23038">
        <ele>913</ele>
        <time>2019-03-30T16:01:59Z</time>
      </trkpt>
      <trkpt lat="43.45684" lon="2.23039">
        <ele>913</ele>
        <time>2019-03-30T16:02:03Z</time>
      </trkpt>
      <trkpt lat="43.45686" lon="2.2304">
        <ele>913</ele>
        <time>2019-03-30T16:02:05Z</time>
      </trkpt>
      <trkpt lat="43.4569" lon="2.23041">
        <ele>913</ele>
        <time>2019-03-30T16:02:31Z</time>
      </trkpt>
      <trkpt lat="43.45691" lon="2.23041">
        <ele>913</ele>
        <time>2019-03-30T16:02:32Z</time>
      </trkpt>
      <trkpt lat="43.45697" lon="2.23047">
        <ele>912</ele>
        <time>2019-03-30T16:02:37Z</time>
      </trkpt>
      <trkpt lat="43.45699" lon="2.23049">
        <ele>912</ele>
        <time>2019-03-30T16:02:38Z</time>
      </trkpt>
      <trkpt lat="43.45709" lon="2.23055">
        <ele>912</ele>
        <time>2019-03-30T16:02:41Z</time>
      </trkpt>
      <trkpt lat="43.45722" lon="2.23063">
        <ele>911</ele>
        <time>2019-03-30T16:02:44Z</time>
      </trkpt>
      <trkpt lat="43.4573" lon="2.23065">
        <ele>911</ele>
        <time>2019-03-30T16:02:45Z</time>
      </trkpt>
      <trkpt lat="43.45737" lon="2.23068">
        <ele>910</ele>
        <time>2019-03-30T16:02:46Z</time>
      </trkpt>
      <trkpt lat="43.45744" lon="2.23072">
        <ele>910</ele>
        <time>2019-03-30T16:02:47Z</time>
      </trkpt>
      <trkpt lat="43.45756" lon="2.2308">
        <ele>908</ele>
        <time>2019-03-30T16:02:49Z</time>
      </trkpt>
      <trkpt lat="43.45763" lon="2.23084">
        <ele>907</ele>
        <time>2019-03-30T16:02:50Z</time>
      </trkpt>
      <trkpt lat="43.45771" lon="2.23089">
        <ele>905</ele>
        <time>2019-03-30T16:02:51Z</time>
      </trkpt>
      <trkpt lat="43.45779" lon="2.23095">
        <ele>904</ele>
        <time>2019-03-30T16:02:52Z</time>
      </trkpt>
      <trkpt lat="43.45788" lon="2.231">
        <ele>903</ele>
        <time>2019-03-30T16:02:53Z</time>
      </trkpt>
      <trkpt lat="43.45798" lon="2.23106">
        <ele>901</ele>
        <time>2019-03-30T16:02:54Z</time>
      </trkpt>
      <trkpt lat="43.45806" lon="2.23111">
        <ele>900</ele>
        <time>2019-03-30T16:02:55Z</time>
      </trkpt>
      <trkpt lat="43.45815" lon="2.23117">
        <ele>898</ele>
        <time>2019-03-30T16:02:56Z</time>
      </trkpt>
      <trkpt lat="43.45824" lon="2.23124">
        <ele>895</ele>
        <time>2019-03-30T16:02:57Z</time>
      </trkpt>
      <trkpt lat="43.45832" lon="2.23132">
        <ele>894</ele>
        <time>2019-03-30T16:02:58Z</time>
      </trkpt>
      <trkpt lat="43.4585" lon="2.23148">
        <ele>892</ele>
        <time>2019-03-30T16:03:00Z</time>
      </trkpt>
      <trkpt lat="43.45867" lon="2.23161">
        <ele>891</ele>
        <time>2019-03-30T16:03:02Z</time>
      </trkpt>
      <trkpt lat="43.45878" lon="2.2317">
        <ele>889</ele>
        <time>2019-03-30T16:03:03Z</time>
      </trkpt>
      <trkpt lat="43.45887" lon="2.23179">
        <ele>888</ele>
        <time>2019-03-30T16:03:04Z</time>
      </trkpt>
      <trkpt lat="43.45895" lon="2.23188">
        <ele>887</ele>
        <time>2019-03-30T16:03:05Z</time>
      </trkpt>
      <trkpt lat="43.45903" lon="2.23197">
        <ele>886</ele>
        <time>2019-03-30T16:03:06Z</time>
      </trkpt>
      <trkpt lat="43.45911" lon="2.23206">
        <ele>884</ele>
        <time>2019-03-30T16:03:07Z</time>
      </trkpt>
      <trkpt lat="43.45928" lon="2.23221">
        <ele>884</ele>
        <time>2019-03-30T16:03:09Z</time>
      </trkpt>
      <trkpt lat="43.45952" lon="2.23248">
        <ele>884</ele>
        <time>2019-03-30T16:03:13Z</time>
      </trkpt>
      <trkpt lat="43.4597" lon="2.23257">
        <ele>884</ele>
        <time>2019-03-30T16:03:16Z</time>
      </trkpt>
      <trkpt lat="43.46002" lon="2.2328">
        <ele>884</ele>
        <time>2019-03-30T16:03:22Z</time>
      </trkpt>
      <trkpt lat="43.46009" lon="2.23282">
        <ele>883</ele>
        <time>2019-03-30T16:03:23Z</time>
      </trkpt>
      <trkpt lat="43.46019" lon="2.23292">
        <ele>883</ele>
        <time>2019-03-30T16:03:25Z</time>
      </trkpt>
      <trkpt lat="43.46025" lon="2.23309">
        <ele>883</ele>
        <time>2019-03-30T16:03:27Z</time>
      </trkpt>
      <trkpt lat="43.46026" lon="2.23317">
        <ele>882</ele>
        <time>2019-03-30T16:03:28Z</time>
      </trkpt>
      <trkpt lat="43.46029" lon="2.2333">
        <ele>882</ele>
        <time>2019-03-30T16:03:30Z</time>
      </trkpt>
      <trkpt lat="43.46036" lon="2.23335">
        <ele>882</ele>
        <time>2019-03-30T16:03:31Z</time>
      </trkpt>
      <trkpt lat="43.46055" lon="2.23359">
        <ele>882</ele>
        <time>2019-03-30T16:03:35Z</time>
      </trkpt>
      <trkpt lat="43.46076" lon="2.2338">
        <ele>880</ele>
        <time>2019-03-30T16:03:38Z</time>
      </trkpt>
      <trkpt lat="43.46087" lon="2.23386">
        <ele>878</ele>
        <time>2019-03-30T16:03:39Z</time>
      </trkpt>
      <trkpt lat="43.46096" lon="2.23394">
        <ele>877</ele>
        <time>2019-03-30T16:03:40Z</time>
      </trkpt>
      <trkpt lat="43.46114" lon="2.23411">
        <ele>874</ele>
        <time>2019-03-30T16:03:42Z</time>
      </trkpt>
      <trkpt lat="43.46121" lon="2.23422">
        <ele>871</ele>
        <time>2019-03-30T16:03:43Z</time>
      </trkpt>
      <trkpt lat="43.46126" lon="2.23432">
        <ele>868</ele>
        <time>2019-03-30T16:03:44Z</time>
      </trkpt>
      <trkpt lat="43.46129" lon="2.23443">
        <ele>865</ele>
        <time>2019-03-30T16:03:45Z</time>
      </trkpt>
      <trkpt lat="43.46132" lon="2.23451">
        <ele>863</ele>
        <time>2019-03-30T16:03:46Z</time>
      </trkpt>
      <trkpt lat="43.46135" lon="2.23465">
        <ele>862</ele>
        <time>2019-03-30T16:03:48Z</time>
      </trkpt>
      <trkpt lat="43.46137" lon="2.23476">
        <ele>861</ele>
        <time>2019-03-30T16:03:50Z</time>
      </trkpt>
      <trkpt lat="43.46134" lon="2.23483">
        <ele>860</ele>
        <time>2019-03-30T16:03:53Z</time>
      </trkpt>
      <trkpt lat="43.46137" lon="2.23476">
        <ele>860</ele>
        <time>2019-03-30T16:03:55Z</time>
      </trkpt>
      <trkpt lat="43.46149" lon="2.23463">
        <ele>860</ele>
        <time>2019-03-30T16:03:58Z</time>
      </trkpt>
      <trkpt lat="43.46153" lon="2.23458">
        <ele>860</ele>
        <time>2019-03-30T16:03:59Z</time>
      </trkpt>
      <trkpt lat="43.46165" lon="2.23448">
        <ele>859</ele>
        <time>2019-03-30T16:04:02Z</time>
      </trkpt>
      <trkpt lat="43.46169" lon="2.23448">
        <ele>858</ele>
        <time>2019-03-30T16:04:03Z</time>
      </trkpt>
      <trkpt lat="43.4617" lon="2.2345">
        <ele>857</ele>
        <time>2019-03-30T16:04:05Z</time>
      </trkpt>
      <trkpt lat="43.46172" lon="2.2345">
        <ele>856</ele>
        <time>2019-03-30T16:04:06Z</time>
      </trkpt>
      <trkpt lat="43.46176" lon="2.23449">
        <ele>855</ele>
        <time>2019-03-30T16:04:07Z</time>
      </trkpt>
      <trkpt lat="43.4618" lon="2.23445">
        <ele>855</ele>
        <time>2019-03-30T16:04:08Z</time>
      </trkpt>
      <trkpt lat="43.46184" lon="2.2344">
        <ele>854</ele>
        <time>2019-03-30T16:04:09Z</time>
      </trkpt>
      <trkpt lat="43.4619" lon="2.23436">
        <ele>853</ele>
        <time>2019-03-30T16:04:10Z</time>
      </trkpt>
      <trkpt lat="43.46194" lon="2.23432">
        <ele>852</ele>
        <time>2019-03-30T16:04:11Z</time>
      </trkpt>
      <trkpt lat="43.46199" lon="2.23431">
        <ele>851</ele>
        <time>2019-03-30T16:04:12Z</time>
      </trkpt>
      <trkpt lat="43.46204" lon="2.23433">
        <ele>850</ele>
        <time>2019-03-30T16:04:13Z</time>
      </trkpt>
      <trkpt lat="43.46207" lon="2.23435">
        <ele>850</ele>
        <time>2019-03-30T16:04:14Z</time>
      </trkpt>
      <trkpt lat="43.46212" lon="2.23438">
        <ele>849</ele>
        <time>2019-03-30T16:04:15Z</time>
      </trkpt>
      <trkpt lat="43.46216" lon="2.23439">
        <ele>848</ele>
        <time>2019-03-30T16:04:16Z</time>
      </trkpt>
      <trkpt lat="43.4622" lon="2.2344">
        <ele>847</ele>
        <time>2019-03-30T16:04:17Z</time>
      </trkpt>
      <trkpt lat="43.46225" lon="2.2344">
        <ele>846</ele>
        <time>2019-03-30T16:04:18Z</time>
      </trkpt>
      <trkpt lat="43.46229" lon="2.2344">
        <ele>845</ele>
        <time>2019-03-30T16:04:19Z</time>
      </trkpt>
      <trkpt lat="43.46233" lon="2.23442">
        <ele>844</ele>
        <time>2019-03-30T16:04:20Z</time>
      </trkpt>
      <trkpt lat="43.46237" lon="2.23444">
        <ele>843</ele>
        <time>2019-03-30T16:04:21Z</time>
      </trkpt>
      <trkpt lat="43.46242" lon="2.23446">
        <ele>842</ele>
        <time>2019-03-30T16:04:22Z</time>
      </trkpt>
      <trkpt lat="43.46254" lon="2.23449">
        <ele>840</ele>
        <time>2019-03-30T16:04:24Z</time>
      </trkpt>
      <trkpt lat="43.46263" lon="2.23448">
        <ele>839</ele>
        <time>2019-03-30T16:04:25Z</time>
      </trkpt>
      <trkpt lat="43.4627" lon="2.23447">
        <ele>839</ele>
        <time>2019-03-30T16:04:26Z</time>
      </trkpt>
      <trkpt lat="43.46289" lon="2.23442">
        <ele>837</ele>
        <time>2019-03-30T16:04:29Z</time>
      </trkpt>
      <trkpt lat="43.46294" lon="2.23439">
        <ele>837</ele>
        <time>2019-03-30T16:04:30Z</time>
      </trkpt>
      <trkpt lat="43.46298" lon="2.23434">
        <ele>835</ele>
        <time>2019-03-30T16:04:31Z</time>
      </trkpt>
      <trkpt lat="43.463" lon="2.23426">
        <ele>833</ele>
        <time>2019-03-30T16:04:32Z</time>
      </trkpt>
      <trkpt lat="43.463" lon="2.2342">
        <ele>832</ele>
        <time>2019-03-30T16:04:33Z</time>
      </trkpt>
      <trkpt lat="43.46302" lon="2.2341">
        <ele>830</ele>
        <time>2019-03-30T16:04:35Z</time>
      </trkpt>
      <trkpt lat="43.46304" lon="2.23409">
        <ele>830</ele>
        <time>2019-03-30T16:04:36Z</time>
      </trkpt>
      <trkpt lat="43.46305" lon="2.2341">
        <ele>829</ele>
        <time>2019-03-30T16:04:37Z</time>
      </trkpt>
      <trkpt lat="43.46306" lon="2.23416">
        <ele>828</ele>
        <time>2019-03-30T16:04:39Z</time>
      </trkpt>
      <trkpt lat="43.46307" lon="2.23419">
        <ele>828</ele>
        <time>2019-03-30T16:04:40Z</time>
      </trkpt>
      <trkpt lat="43.46309" lon="2.23422">
        <ele>828</ele>
        <time>2019-03-30T16:04:43Z</time>
      </trkpt>
      <trkpt lat="43.46314" lon="2.23432">
        <ele>828</ele>
        <time>2019-03-30T16:10:36Z</time>
      </trkpt>
      <trkpt lat="43.46315" lon="2.23433">
        <ele>828</ele>
        <time>2019-03-30T16:10:37Z</time>
      </trkpt>
      <trkpt lat="43.46316" lon="2.2344">
        <ele>827</ele>
        <time>2019-03-30T16:10:40Z</time>
      </trkpt>
      <trkpt lat="43.46321" lon="2.23453">
        <ele>827</ele>
        <time>2019-03-30T16:10:44Z</time>
      </trkpt>
      <trkpt lat="43.46329" lon="2.23477">
        <ele>827</ele>
        <time>2019-03-30T16:10:50Z</time>
      </trkpt>
      <trkpt lat="43.46336" lon="2.23498">
        <ele>827</ele>
        <time>2019-03-30T16:10:54Z</time>
      </trkpt>
      <trkpt lat="43.46338" lon="2.23504">
        <ele>826</ele>
        <time>2019-03-30T16:10:55Z</time>
      </trkpt>
      <trkpt lat="43.46341" lon="2.23516">
        <ele>826</ele>
        <time>2019-03-30T16:10:57Z</time>
      </trkpt>
      <trkpt lat="43.46343" lon="2.23523">
        <ele>826</ele>
        <time>2019-03-30T16:10:58Z</time>
      </trkpt>
      <trkpt lat="43.46345" lon="2.2353">
        <ele>825</ele>
        <time>2019-03-30T16:10:59Z</time>
      </trkpt>
      <trkpt lat="43.46347" lon="2.23545">
        <ele>824</ele>
        <time>2019-03-30T16:11:01Z</time>
      </trkpt>
      <trkpt lat="43.46349" lon="2.23552">
        <ele>823</ele>
        <time>2019-03-30T16:11:02Z</time>
      </trkpt>
      <trkpt lat="43.46353" lon="2.23569">
        <ele>822</ele>
        <time>2019-03-30T16:11:04Z</time>
      </trkpt>
      <trkpt lat="43.46356" lon="2.23577">
        <ele>821</ele>
        <time>2019-03-30T16:11:05Z</time>
      </trkpt>
      <trkpt lat="43.4636" lon="2.23585">
        <ele>821</ele>
        <time>2019-03-30T16:11:06Z</time>
      </trkpt>
      <trkpt lat="43.46365" lon="2.23594">
        <ele>820</ele>
        <time>2019-03-30T16:11:07Z</time>
      </trkpt>
      <trkpt lat="43.46374" lon="2.23609">
        <ele>820</ele>
        <time>2019-03-30T16:11:09Z</time>
      </trkpt>
      <trkpt lat="43.46378" lon="2.23615">
        <ele>819</ele>
        <time>2019-03-30T16:11:10Z</time>
      </trkpt>
      <trkpt lat="43.46383" lon="2.2362">
        <ele>819</ele>
        <time>2019-03-30T16:11:11Z</time>
      </trkpt>
      <trkpt lat="43.46396" lon="2.23632">
        <ele>819</ele>
        <time>2019-03-30T16:11:14Z</time>
      </trkpt>
      <trkpt lat="43.46399" lon="2.23635">
        <ele>818</ele>
        <time>2019-03-30T16:11:15Z</time>
      </trkpt>
      <trkpt lat="43.46407" lon="2.2364">
        <ele>817</ele>
        <time>2019-03-30T16:11:18Z</time>
      </trkpt>
      <trkpt lat="43.46408" lon="2.23643">
        <ele>817</ele>
        <time>2019-03-30T16:11:19Z</time>
      </trkpt>
      <trkpt lat="43.4641" lon="2.23645">
        <ele>816</ele>
        <time>2019-03-30T16:11:20Z</time>
      </trkpt>
      <trkpt lat="43.46418" lon="2.23648">
        <ele>815</ele>
        <time>2019-03-30T16:11:23Z</time>
      </trkpt>
      <trkpt lat="43.46419" lon="2.2365">
        <ele>815</ele>
        <time>2019-03-30T16:11:24Z</time>
      </trkpt>
      <trkpt lat="43.46421" lon="2.23651">
        <ele>815</ele>
        <time>2019-03-30T16:11:25Z</time>
      </trkpt>
      <trkpt lat="43.46438" lon="2.2366">
        <ele>814</ele>
        <time>2019-03-30T16:11:29Z</time>
      </trkpt>
      <trkpt lat="43.46453" lon="2.23665">
        <ele>813</ele>
        <time>2019-03-30T16:11:34Z</time>
      </trkpt>
      <trkpt lat="43.46453" lon="2.23665">
        <ele>813</ele>
        <time>2019-03-30T16:11:36Z</time>
      </trkpt>
      <trkpt lat="43.46449" lon="2.23674">
        <ele>811</ele>
        <time>2019-03-30T16:15:42Z</time>
      </trkpt>
      <trkpt lat="43.46447" lon="2.23675">
        <ele>811</ele>
        <time>2019-03-30T16:15:43Z</time>
      </trkpt>
      <trkpt lat="43.46437" lon="2.23679">
        <ele>812</ele>
        <time>2019-03-30T16:15:47Z</time>
      </trkpt>
      <trkpt lat="43.46435" lon="2.2368">
        <ele>812</ele>
        <time>2019-03-30T16:15:48Z</time>
      </trkpt>
      <trkpt lat="43.46423" lon="2.23686">
        <ele>811</ele>
        <time>2019-03-30T16:15:54Z</time>
      </trkpt>
      <trkpt lat="43.4642" lon="2.23688">
        <ele>811</ele>
        <time>2019-03-30T16:15:57Z</time>
      </trkpt>
      <trkpt lat="43.46414" lon="2.2369">
        <ele>811</ele>
        <time>2019-03-30T16:16:03Z</time>
      </trkpt>
      <trkpt lat="43.46411" lon="2.23691">
        <ele>811</ele>
        <time>2019-03-30T16:16:04Z</time>
      </trkpt>
      <trkpt lat="43.4641" lon="2.23691">
        <ele>811</ele>
        <time>2019-03-30T16:16:05Z</time>
      </trkpt>
      <trkpt lat="43.46401" lon="2.23694">
        <ele>810</ele>
        <time>2019-03-30T16:16:08Z</time>
      </trkpt>
      <trkpt lat="43.46389" lon="2.23696">
        <ele>810</ele>
        <time>2019-03-30T16:16:12Z</time>
      </trkpt>
      <trkpt lat="43.46386" lon="2.23696">
        <ele>811</ele>
        <time>2019-03-30T16:16:15Z</time>
      </trkpt>
      <trkpt lat="43.46379" lon="2.23698">
        <ele>810</ele>
        <time>2019-03-30T16:16:34Z</time>
      </trkpt>
      <trkpt lat="43.46371" lon="2.237">
        <ele>811</ele>
        <time>2019-03-30T16:16:39Z</time>
      </trkpt>
      <trkpt lat="43.4637" lon="2.237">
        <ele>811</ele>
        <time>2019-03-30T16:16:41Z</time>
      </trkpt>
      <trkpt lat="43.46362" lon="2.23702">
        <ele>811</ele>
        <time>2019-03-30T16:16:45Z</time>
      </trkpt>
      <trkpt lat="43.46343" lon="2.2371">
        <ele>812</ele>
        <time>2019-03-30T16:16:52Z</time>
      </trkpt>
      <trkpt lat="43.46342" lon="2.2371">
        <ele>812</ele>
        <time>2019-03-30T16:16:53Z</time>
      </trkpt>
      <trkpt lat="43.4634" lon="2.23711">
        <ele>812</ele>
        <time>2019-03-30T16:16:54Z</time>
      </trkpt>
      <trkpt lat="43.46336" lon="2.23713">
        <ele>812</ele>
        <time>2019-03-30T16:16:57Z</time>
      </trkpt>
      <trkpt lat="43.46333" lon="2.23714">
        <ele>812</ele>
        <time>2019-03-30T16:16:59Z</time>
      </trkpt>
      <trkpt lat="43.46331" lon="2.23715">
        <ele>813</ele>
        <time>2019-03-30T16:17:01Z</time>
      </trkpt>
      <trkpt lat="43.46328" lon="2.23716">
        <ele>813</ele>
        <time>2019-03-30T16:17:04Z</time>
      </trkpt>
      <trkpt lat="43.46326" lon="2.23718">
        <ele>814</ele>
        <time>2019-03-30T16:17:08Z</time>
      </trkpt>
      <trkpt lat="43.46324" lon="2.23719">
        <ele>813</ele>
        <time>2019-03-30T16:17:16Z</time>
      </trkpt>
      <trkpt lat="43.46323" lon="2.2372">
        <ele>813</ele>
        <time>2019-03-30T16:17:18Z</time>
      </trkpt>
      <trkpt lat="43.46327" lon="2.23722">
        <ele>813</ele>
        <time>2019-03-30T16:17:30Z</time>
      </trkpt>
      <trkpt lat="43.46325" lon="2.23721">
        <ele>813</ele>
        <time>2019-03-30T16:17:34Z</time>
      </trkpt>
      <trkpt lat="43.46324" lon="2.2372">
        <ele>814</ele>
        <time>2019-03-30T16:17:39Z</time>
      </trkpt>
      <trkpt lat="43.46322" lon="2.23719">
        <ele>814</ele>
        <time>2019-03-30T16:17:43Z</time>
      </trkpt>
      <trkpt lat="43.46322" lon="2.23719">
        <ele>813</ele>
        <time>2019-03-30T16:17:45Z</time>
      </trkpt>
      <trkpt lat="43.46323" lon="2.23719">
        <ele>813</ele>
        <time>2019-03-30T16:17:47Z</time>
      </trkpt>
      <trkpt lat="43.46323" lon="2.23719">
        <ele>813</ele>
        <time>2019-03-30T16:17:49Z</time>
      </trkpt>
      <trkpt lat="43.46323" lon="2.23719">
        <ele>813</ele>
        <time>2019-03-30T16:17:51Z</time>
      </trkpt>
      <trkpt lat="43.46323" lon="2.23722">
        <ele>813</ele>
        <time>2019-03-30T16:17:53Z</time>
      </trkpt>
      <trkpt lat="43.46323" lon="2.23722">
        <ele>813</ele>
        <time>2019-03-30T16:17:59Z</time>
      </trkpt>
      <trkpt lat="43.46323" lon="2.23722">
        <ele>813</ele>
        <time>2019-03-30T16:18:01Z</time>
      </trkpt>
      <trkpt lat="43.46324" lon="2.23722">
        <ele>814</ele>
        <time>2019-03-30T16:18:02Z</time>
      </trkpt>
      <trkpt lat="43.46324" lon="2.23722">
        <ele>814</ele>
        <time>2019-03-30T16:18:05Z</time>
      </trkpt>
      <trkpt lat="43.46325" lon="2.23722">
        <ele>814</ele>
        <time>2019-03-30T16:18:10Z</time>
      </trkpt>
      <trkpt lat="43.46326" lon="2.23722">
        <ele>814</ele>
        <time>2019-03-30T16:18:12Z</time>
      </trkpt>
      <trkpt lat="43.46327" lon="2.23725">
        <ele>813</ele>
        <time>2019-03-30T16:18:19Z</time>
      </trkpt>
      <trkpt lat="43.46326" lon="2.23727">
        <ele>813</ele>
        <time>2019-03-30T16:18:23Z</time>
      </trkpt>
      <trkpt lat="43.46322" lon="2.23732">
        <ele>813</ele>
        <time>2019-03-30T16:18:29Z</time>
      </trkpt>
      <trkpt lat="43.46312" lon="2.2374">
        <ele>812</ele>
        <time>2019-03-30T16:18:35Z</time>
      </trkpt>
      <trkpt lat="43.46301" lon="2.2375">
        <ele>813</ele>
        <time>2019-03-30T16:18:40Z</time>
      </trkpt>
      <trkpt lat="43.46297" lon="2.23755">
        <ele>814</ele>
        <time>2019-03-30T16:18:42Z</time>
      </trkpt>
      <trkpt lat="43.46287" lon="2.23764">
        <ele>815</ele>
        <time>2019-03-30T16:18:47Z</time>
      </trkpt>
      <trkpt lat="43.46275" lon="2.23775">
        <ele>815</ele>
        <time>2019-03-30T16:18:53Z</time>
      </trkpt>
      <trkpt lat="43.46264" lon="2.23784">
        <ele>815</ele>
        <time>2019-03-30T16:18:58Z</time>
      </trkpt>
      <trkpt lat="43.46254" lon="2.23792">
        <ele>815</ele>
        <time>2019-03-30T16:19:03Z</time>
      </trkpt>
      <trkpt lat="43.4625" lon="2.23796">
        <ele>816</ele>
        <time>2019-03-30T16:19:05Z</time>
      </trkpt>
      <trkpt lat="43.46246" lon="2.23798">
        <ele>816</ele>
        <time>2019-03-30T16:19:07Z</time>
      </trkpt>
      <trkpt lat="43.46241" lon="2.23803">
        <ele>817</ele>
        <time>2019-03-30T16:19:10Z</time>
      </trkpt>
      <trkpt lat="43.46237" lon="2.23806">
        <ele>817</ele>
        <time>2019-03-30T16:19:12Z</time>
      </trkpt>
      <trkpt lat="43.46226" lon="2.23809">
        <ele>817</ele>
        <time>2019-03-30T16:19:16Z</time>
      </trkpt>
      <trkpt lat="43.46212" lon="2.23814">
        <ele>818</ele>
        <time>2019-03-30T16:19:21Z</time>
      </trkpt>
      <trkpt lat="43.46194" lon="2.23818">
        <ele>818</ele>
        <time>2019-03-30T16:19:27Z</time>
      </trkpt>
      <trkpt lat="43.46189" lon="2.2382">
        <ele>818</ele>
        <time>2019-03-30T16:19:29Z</time>
      </trkpt>
      <trkpt lat="43.4617" lon="2.23821">
        <ele>819</ele>
        <time>2019-03-30T16:19:33Z</time>
      </trkpt>
      <trkpt lat="43.46166" lon="2.23821">
        <ele>820</ele>
        <time>2019-03-30T16:19:34Z</time>
      </trkpt>
      <trkpt lat="43.46157" lon="2.23819">
        <ele>822</ele>
        <time>2019-03-30T16:19:36Z</time>
      </trkpt>
      <trkpt lat="43.46148" lon="2.23817">
        <ele>822</ele>
        <time>2019-03-30T16:19:38Z</time>
      </trkpt>
      <trkpt lat="43.46131" lon="2.23807">
        <ele>822</ele>
        <time>2019-03-30T16:19:43Z</time>
      </trkpt>
      <trkpt lat="43.46119" lon="2.23793">
        <ele>822</ele>
        <time>2019-03-30T16:19:47Z</time>
      </trkpt>
      <trkpt lat="43.46118" lon="2.2379">
        <ele>822</ele>
        <time>2019-03-30T16:19:48Z</time>
      </trkpt>
      <trkpt lat="43.46109" lon="2.23774">
        <ele>821</ele>
        <time>2019-03-30T16:19:52Z</time>
      </trkpt>
      <trkpt lat="43.46107" lon="2.23765">
        <ele>821</ele>
        <time>2019-03-30T16:19:54Z</time>
      </trkpt>
      <trkpt lat="43.46104" lon="2.23752">
        <ele>821</ele>
        <time>2019-03-30T16:19:57Z</time>
      </trkpt>
      <trkpt lat="43.461" lon="2.23744">
        <ele>820</ele>
        <time>2019-03-30T16:19:59Z</time>
      </trkpt>
      <trkpt lat="43.46098" lon="2.23728">
        <ele>820</ele>
        <time>2019-03-30T16:20:03Z</time>
      </trkpt>
      <trkpt lat="43.46101" lon="2.23714">
        <ele>821</ele>
        <time>2019-03-30T16:20:07Z</time>
      </trkpt>
      <trkpt lat="43.46104" lon="2.23706">
        <ele>821</ele>
        <time>2019-03-30T16:20:09Z</time>
      </trkpt>
      <trkpt lat="43.46105" lon="2.23703">
        <ele>821</ele>
        <time>2019-03-30T16:20:10Z</time>
      </trkpt>
      <trkpt lat="43.46108" lon="2.23698">
        <ele>821</ele>
        <time>2019-03-30T16:20:12Z</time>
      </trkpt>
      <trkpt lat="43.46111" lon="2.23686">
        <ele>820</ele>
        <time>2019-03-30T16:20:18Z</time>
      </trkpt>
      <trkpt lat="43.4611" lon="2.23684">
        <ele>820</ele>
        <time>2019-03-30T16:20:19Z</time>
      </trkpt>
      <trkpt lat="43.46108" lon="2.23682">
        <ele>821</ele>
        <time>2019-03-30T16:20:21Z</time>
      </trkpt>
      <trkpt lat="43.46105" lon="2.23679">
        <ele>821</ele>
        <time>2019-03-30T16:20:23Z</time>
      </trkpt>
      <trkpt lat="43.46086" lon="2.23669">
        <ele>823</ele>
        <time>2019-03-30T16:20:35Z</time>
      </trkpt>
      <trkpt lat="43.46083" lon="2.23667">
        <ele>823</ele>
        <time>2019-03-30T16:20:36Z</time>
      </trkpt>
      <trkpt lat="43.46072" lon="2.23661">
        <ele>823</ele>
        <time>2019-03-30T16:20:40Z</time>
      </trkpt>
      <trkpt lat="43.46068" lon="2.2366">
        <ele>824</ele>
        <time>2019-03-30T16:20:41Z</time>
      </trkpt>
      <trkpt lat="43.46049" lon="2.23664">
        <ele>824</ele>
        <time>2019-03-30T16:20:45Z</time>
      </trkpt>
      <trkpt lat="43.4603" lon="2.23679">
        <ele>823</ele>
        <time>2019-03-30T16:20:49Z</time>
      </trkpt>
      <trkpt lat="43.4602" lon="2.237">
        <ele>823</ele>
        <time>2019-03-30T16:20:53Z</time>
      </trkpt>
      <trkpt lat="43.46007" lon="2.23714">
        <ele>824</ele>
        <time>2019-03-30T16:20:56Z</time>
      </trkpt>
      <trkpt lat="43.45994" lon="2.23723">
        <ele>825</ele>
        <time>2019-03-30T16:20:58Z</time>
      </trkpt>
      <trkpt lat="43.45986" lon="2.23728">
        <ele>825</ele>
        <time>2019-03-30T16:20:59Z</time>
      </trkpt>
      <trkpt lat="43.45978" lon="2.23732">
        <ele>825</ele>
        <time>2019-03-30T16:21:00Z</time>
      </trkpt>
      <trkpt lat="43.45967" lon="2.23753">
        <ele>825</ele>
        <time>2019-03-30T16:21:04Z</time>
      </trkpt>
      <trkpt lat="43.45959" lon="2.23761">
        <ele>826</ele>
        <time>2019-03-30T16:21:06Z</time>
      </trkpt>
      <trkpt lat="43.45958" lon="2.23768">
        <ele>826</ele>
        <time>2019-03-30T16:21:08Z</time>
      </trkpt>
      <trkpt lat="43.45964" lon="2.23784">
        <ele>827</ele>
        <time>2019-03-30T16:21:13Z</time>
      </trkpt>
      <trkpt lat="43.45975" lon="2.23799">
        <ele>828</ele>
        <time>2019-03-30T16:21:19Z</time>
      </trkpt>
      <trkpt lat="43.4598" lon="2.23808">
        <ele>829</ele>
        <time>2019-03-30T16:21:23Z</time>
      </trkpt>
      <trkpt lat="43.45981" lon="2.23812">
        <ele>830</ele>
        <time>2019-03-30T16:21:25Z</time>
      </trkpt>
      <trkpt lat="43.45982" lon="2.23815">
        <ele>830</ele>
        <time>2019-03-30T16:21:26Z</time>
      </trkpt>
      <trkpt lat="43.45985" lon="2.23819">
        <ele>830</ele>
        <time>2019-03-30T16:21:28Z</time>
      </trkpt>
      <trkpt lat="43.45988" lon="2.23822">
        <ele>830</ele>
        <time>2019-03-30T16:21:29Z</time>
      </trkpt>
      <trkpt lat="43.45995" lon="2.23827">
        <ele>831</ele>
        <time>2019-03-30T16:21:31Z</time>
      </trkpt>
      <trkpt lat="43.46006" lon="2.23838">
        <ele>832</ele>
        <time>2019-03-30T16:21:35Z</time>
      </trkpt>
      <trkpt lat="43.46009" lon="2.23841">
        <ele>832</ele>
        <time>2019-03-30T16:21:36Z</time>
      </trkpt>
      <trkpt lat="43.46021" lon="2.23861">
        <ele>833</ele>
        <time>2019-03-30T16:21:42Z</time>
      </trkpt>
      <trkpt lat="43.46022" lon="2.23865">
        <ele>833</ele>
        <time>2019-03-30T16:21:43Z</time>
      </trkpt>
      <trkpt lat="43.46022" lon="2.23879">
        <ele>834</ele>
        <time>2019-03-30T16:21:47Z</time>
      </trkpt>
      <trkpt lat="43.46021" lon="2.23883">
        <ele>835</ele>
        <time>2019-03-30T16:21:48Z</time>
      </trkpt>
      <trkpt lat="43.46024" lon="2.23891">
        <ele>836</ele>
        <time>2019-03-30T16:21:50Z</time>
      </trkpt>
      <trkpt lat="43.4603" lon="2.23904">
        <ele>837</ele>
        <time>2019-03-30T16:21:53Z</time>
      </trkpt>
      <trkpt lat="43.46031" lon="2.23909">
        <ele>837</ele>
        <time>2019-03-30T16:21:54Z</time>
      </trkpt>
      <trkpt lat="43.46031" lon="2.23923">
        <ele>837</ele>
        <time>2019-03-30T16:21:58Z</time>
      </trkpt>
      <trkpt lat="43.46032" lon="2.23924">
        <ele>838</ele>
        <time>2019-03-30T16:22:00Z</time>
      </trkpt>
      <trkpt lat="43.46031" lon="2.23936">
        <ele>839</ele>
        <time>2019-03-30T16:22:10Z</time>
      </trkpt>
      <trkpt lat="43.46031" lon="2.23939">
        <ele>839</ele>
        <time>2019-03-30T16:22:12Z</time>
      </trkpt>
      <trkpt lat="43.4603" lon="2.23942">
        <ele>839</ele>
        <time>2019-03-30T16:22:14Z</time>
      </trkpt>
      <trkpt lat="43.46031" lon="2.23956">
        <ele>840</ele>
        <time>2019-03-30T16:22:22Z</time>
      </trkpt>
      <trkpt lat="43.46033" lon="2.23965">
        <ele>840</ele>
        <time>2019-03-30T16:22:27Z</time>
      </trkpt>
      <trkpt lat="43.46033" lon="2.23966">
        <ele>840</ele>
        <time>2019-03-30T16:22:28Z</time>
      </trkpt>
      <trkpt lat="43.46032" lon="2.23972">
        <ele>842</ele>
        <time>2019-03-30T16:22:32Z</time>
      </trkpt>
      <trkpt lat="43.46031" lon="2.23973">
        <ele>842</ele>
        <time>2019-03-30T16:22:33Z</time>
      </trkpt>
      <trkpt lat="43.46028" lon="2.23985">
        <ele>842</ele>
        <time>2019-03-30T16:22:40Z</time>
      </trkpt>
      <trkpt lat="43.46027" lon="2.23988">
        <ele>842</ele>
        <time>2019-03-30T16:22:42Z</time>
      </trkpt>
      <trkpt lat="43.46026" lon="2.23992">
        <ele>842</ele>
        <time>2019-03-30T16:22:44Z</time>
      </trkpt>
      <trkpt lat="43.46025" lon="2.23998">
        <ele>842</ele>
        <time>2019-03-30T16:22:47Z</time>
      </trkpt>
      <trkpt lat="43.46025" lon="2.24">
        <ele>843</ele>
        <time>2019-03-30T16:22:48Z</time>
      </trkpt>
      <trkpt lat="43.46025" lon="2.24002">
        <ele>843</ele>
        <time>2019-03-30T16:22:49Z</time>
      </trkpt>
      <trkpt lat="43.46025" lon="2.24006">
        <ele>844</ele>
        <time>2019-03-30T16:22:51Z</time>
      </trkpt>
      <trkpt lat="43.46025" lon="2.2401">
        <ele>844</ele>
        <time>2019-03-30T16:22:54Z</time>
      </trkpt>
      <trkpt lat="43.46026" lon="2.24017">
        <ele>845</ele>
        <time>2019-03-30T16:22:57Z</time>
      </trkpt>
      <trkpt lat="43.46027" lon="2.24024">
        <ele>846</ele>
        <time>2019-03-30T16:23:01Z</time>
      </trkpt>
      <trkpt lat="43.46033" lon="2.24036">
        <ele>846</ele>
        <time>2019-03-30T16:23:08Z</time>
      </trkpt>
      <trkpt lat="43.46034" lon="2.24048">
        <ele>846</ele>
        <time>2019-03-30T16:23:12Z</time>
      </trkpt>
      <trkpt lat="43.46033" lon="2.24055">
        <ele>847</ele>
        <time>2019-03-30T16:23:14Z</time>
      </trkpt>
      <trkpt lat="43.46033" lon="2.24058">
        <ele>847</ele>
        <time>2019-03-30T16:23:15Z</time>
      </trkpt>
      <trkpt lat="43.46032" lon="2.24063">
        <ele>848</ele>
        <time>2019-03-30T16:23:17Z</time>
      </trkpt>
      <trkpt lat="43.46033" lon="2.24066">
        <ele>849</ele>
        <time>2019-03-30T16:23:19Z</time>
      </trkpt>
      <trkpt lat="43.46033" lon="2.24068">
        <ele>849</ele>
        <time>2019-03-30T16:23:20Z</time>
      </trkpt>
      <trkpt lat="43.46031" lon="2.24077">
        <ele>849</ele>
        <time>2019-03-30T16:23:25Z</time>
      </trkpt>
      <trkpt lat="43.46031" lon="2.24079">
        <ele>850</ele>
        <time>2019-03-30T16:23:26Z</time>
      </trkpt>
      <trkpt lat="43.4603" lon="2.24083">
        <ele>851</ele>
        <time>2019-03-30T16:23:28Z</time>
      </trkpt>
      <trkpt lat="43.46028" lon="2.24086">
        <ele>853</ele>
        <time>2019-03-30T16:23:30Z</time>
      </trkpt>
      <trkpt lat="43.46028" lon="2.24087">
        <ele>853</ele>
        <time>2019-03-30T16:23:31Z</time>
      </trkpt>
      <trkpt lat="43.4603" lon="2.24094">
        <ele>853</ele>
        <time>2019-03-30T16:23:35Z</time>
      </trkpt>
      <trkpt lat="43.46035" lon="2.24098">
        <ele>854</ele>
        <time>2019-03-30T16:23:38Z</time>
      </trkpt>
      <trkpt lat="43.46044" lon="2.24102">
        <ele>854</ele>
        <time>2019-03-30T16:23:43Z</time>
      </trkpt>
      <trkpt lat="43.46051" lon="2.24109">
        <ele>855</ele>
        <time>2019-03-30T16:23:48Z</time>
      </trkpt>
      <trkpt lat="43.46056" lon="2.2411">
        <ele>855</ele>
        <time>2019-03-30T16:23:51Z</time>
      </trkpt>
      <trkpt lat="43.46063" lon="2.24112">
        <ele>855</ele>
        <time>2019-03-30T16:23:55Z</time>
      </trkpt>
      <trkpt lat="43.46073" lon="2.24105">
        <ele>855</ele>
        <time>2019-03-30T16:24:00Z</time>
      </trkpt>
      <trkpt lat="43.46085" lon="2.24091">
        <ele>855</ele>
        <time>2019-03-30T16:24:05Z</time>
      </trkpt>
      <trkpt lat="43.46093" lon="2.24083">
        <ele>854</ele>
        <time>2019-03-30T16:24:10Z</time>
      </trkpt>
      <trkpt lat="43.46095" lon="2.24082">
        <ele>854</ele>
        <time>2019-03-30T16:24:12Z</time>
      </trkpt>
      <trkpt lat="43.46096" lon="2.24082">
        <ele>854</ele>
        <time>2019-03-30T16:24:14Z</time>
      </trkpt>
      <trkpt lat="43.46106" lon="2.24077">
        <ele>853</ele>
        <time>2019-03-30T16:28:28Z</time>
      </trkpt>
      <trkpt lat="43.46108" lon="2.24076">
        <ele>853</ele>
        <time>2019-03-30T16:28:29Z</time>
      </trkpt>
      <trkpt lat="43.4612" lon="2.24072">
        <ele>852</ele>
        <time>2019-03-30T16:28:34Z</time>
      </trkpt>
      <trkpt lat="43.46124" lon="2.2407">
        <ele>852</ele>
        <time>2019-03-30T16:28:35Z</time>
      </trkpt>
      <trkpt lat="43.46137" lon="2.24067">
        <ele>851</ele>
        <time>2019-03-30T16:28:39Z</time>
      </trkpt>
      <trkpt lat="43.46142" lon="2.24067">
        <ele>851</ele>
        <time>2019-03-30T16:28:40Z</time>
      </trkpt>
      <trkpt lat="43.46162" lon="2.24064">
        <ele>849</ele>
        <time>2019-03-30T16:28:44Z</time>
      </trkpt>
      <trkpt lat="43.46167" lon="2.24063">
        <ele>849</ele>
        <time>2019-03-30T16:28:45Z</time>
      </trkpt>
      <trkpt lat="43.46176" lon="2.24062">
        <ele>848</ele>
        <time>2019-03-30T16:28:47Z</time>
      </trkpt>
      <trkpt lat="43.46195" lon="2.24058">
        <ele>847</ele>
        <time>2019-03-30T16:28:50Z</time>
      </trkpt>
      <trkpt lat="43.46201" lon="2.24057">
        <ele>846</ele>
        <time>2019-03-30T16:28:51Z</time>
      </trkpt>
      <trkpt lat="43.46211" lon="2.24056">
        <ele>846</ele>
        <time>2019-03-30T16:28:52Z</time>
      </trkpt>
      <trkpt lat="43.46221" lon="2.24056">
        <ele>845</ele>
        <time>2019-03-30T16:28:53Z</time>
      </trkpt>
      <trkpt lat="43.46241" lon="2.24059">
        <ele>845</ele>
        <time>2019-03-30T16:28:55Z</time>
      </trkpt>
      <trkpt lat="43.46251" lon="2.24061">
        <ele>844</ele>
        <time>2019-03-30T16:28:56Z</time>
      </trkpt>
      <trkpt lat="43.46269" lon="2.24068">
        <ele>843</ele>
        <time>2019-03-30T16:28:58Z</time>
      </trkpt>
      <trkpt lat="43.46276" lon="2.24076">
        <ele>843</ele>
        <time>2019-03-30T16:28:59Z</time>
      </trkpt>
      <trkpt lat="43.46296" lon="2.24104">
        <ele>842</ele>
        <time>2019-03-30T16:29:02Z</time>
      </trkpt>
      <trkpt lat="43.46314" lon="2.24105">
        <ele>840</ele>
        <time>2019-03-30T16:29:04Z</time>
      </trkpt>
      <trkpt lat="43.46333" lon="2.24094">
        <ele>839</ele>
        <time>2019-03-30T16:29:06Z</time>
      </trkpt>
      <trkpt lat="43.46342" lon="2.24087">
        <ele>837</ele>
        <time>2019-03-30T16:29:07Z</time>
      </trkpt>
      <trkpt lat="43.46361" lon="2.24078">
        <ele>835</ele>
        <time>2019-03-30T16:29:09Z</time>
      </trkpt>
      <trkpt lat="43.46381" lon="2.24071">
        <ele>835</ele>
        <time>2019-03-30T16:29:11Z</time>
      </trkpt>
      <trkpt lat="43.46401" lon="2.24066">
        <ele>834</ele>
        <time>2019-03-30T16:29:13Z</time>
      </trkpt>
      <trkpt lat="43.46423" lon="2.2406">
        <ele>832</ele>
        <time>2019-03-30T16:29:15Z</time>
      </trkpt>
      <trkpt lat="43.46434" lon="2.24057">
        <ele>831</ele>
        <time>2019-03-30T16:29:16Z</time>
      </trkpt>
      <trkpt lat="43.46445" lon="2.24054">
        <ele>830</ele>
        <time>2019-03-30T16:29:17Z</time>
      </trkpt>
      <trkpt lat="43.46467" lon="2.24051">
        <ele>829</ele>
        <time>2019-03-30T16:29:19Z</time>
      </trkpt>
      <trkpt lat="43.46488" lon="2.2405">
        <ele>828</ele>
        <time>2019-03-30T16:29:21Z</time>
      </trkpt>
      <trkpt lat="43.46508" lon="2.24053">
        <ele>827</ele>
        <time>2019-03-30T16:29:23Z</time>
      </trkpt>
      <trkpt lat="43.46519" lon="2.24057">
        <ele>825</ele>
        <time>2019-03-30T16:29:24Z</time>
      </trkpt>
      <trkpt lat="43.4653" lon="2.24061">
        <ele>824</ele>
        <time>2019-03-30T16:29:25Z</time>
      </trkpt>
      <trkpt lat="43.46553" lon="2.24071">
        <ele>822</ele>
        <time>2019-03-30T16:29:27Z</time>
      </trkpt>
      <trkpt lat="43.4657" lon="2.24085">
        <ele>821</ele>
        <time>2019-03-30T16:29:29Z</time>
      </trkpt>
      <trkpt lat="43.46578" lon="2.24089">
        <ele>821</ele>
        <time>2019-03-30T16:29:30Z</time>
      </trkpt>
      <trkpt lat="43.46595" lon="2.24095">
        <ele>823</ele>
        <time>2019-03-30T16:29:32Z</time>
      </trkpt>
      <trkpt lat="43.46606" lon="2.241">
        <ele>825</ele>
        <time>2019-03-30T16:29:34Z</time>
      </trkpt>
      <trkpt lat="43.46611" lon="2.24103">
        <ele>826</ele>
        <time>2019-03-30T16:29:35Z</time>
      </trkpt>
      <trkpt lat="43.46615" lon="2.24107">
        <ele>827</ele>
        <time>2019-03-30T16:29:36Z</time>
      </trkpt>
      <trkpt lat="43.46619" lon="2.2411">
        <ele>828</ele>
        <time>2019-03-30T16:29:37Z</time>
      </trkpt>
      <trkpt lat="43.46622" lon="2.24113">
        <ele>829</ele>
        <time>2019-03-30T16:29:38Z</time>
      </trkpt>
      <trkpt lat="43.46628" lon="2.24119">
        <ele>830</ele>
        <time>2019-03-30T16:29:40Z</time>
      </trkpt>
      <trkpt lat="43.46636" lon="2.24129">
        <ele>831</ele>
        <time>2019-03-30T16:29:43Z</time>
      </trkpt>
      <trkpt lat="43.46639" lon="2.24133">
        <ele>832</ele>
        <time>2019-03-30T16:29:44Z</time>
      </trkpt>
      <trkpt lat="43.46641" lon="2.24136">
        <ele>832</ele>
        <time>2019-03-30T16:29:45Z</time>
      </trkpt>
      <trkpt lat="43.46643" lon="2.24139">
        <ele>832</ele>
        <time>2019-03-30T16:29:46Z</time>
      </trkpt>
      <trkpt lat="43.46645" lon="2.24141">
        <ele>832</ele>
        <time>2019-03-30T16:29:47Z</time>
      </trkpt>
      <trkpt lat="43.4665" lon="2.24146">
        <ele>832</ele>
        <time>2019-03-30T16:29:49Z</time>
      </trkpt>
      <trkpt lat="43.46652" lon="2.24152">
        <ele>833</ele>
        <time>2019-03-30T16:29:51Z</time>
      </trkpt>
      <trkpt lat="43.46655" lon="2.24154">
        <ele>833</ele>
        <time>2019-03-30T16:29:52Z</time>
      </trkpt>
      <trkpt lat="43.46665" lon="2.24164">
        <ele>833</ele>
        <time>2019-03-30T16:29:56Z</time>
      </trkpt>
      <trkpt lat="43.46669" lon="2.24165">
        <ele>833</ele>
        <time>2019-03-30T16:29:57Z</time>
      </trkpt>
      <trkpt lat="43.46671" lon="2.24167">
        <ele>834</ele>
        <time>2019-03-30T16:29:58Z</time>
      </trkpt>
      <trkpt lat="43.46678" lon="2.24172">
        <ele>835</ele>
        <time>2019-03-30T16:30:01Z</time>
      </trkpt>
      <trkpt lat="43.4668" lon="2.24174">
        <ele>835</ele>
        <time>2019-03-30T16:30:02Z</time>
      </trkpt>
      <trkpt lat="43.46682" lon="2.24175">
        <ele>835</ele>
        <time>2019-03-30T16:30:03Z</time>
      </trkpt>
      <trkpt lat="43.46688" lon="2.24181">
        <ele>836</ele>
        <time>2019-03-30T16:30:06Z</time>
      </trkpt>
      <trkpt lat="43.46699" lon="2.24187">
        <ele>837</ele>
        <time>2019-03-30T16:30:10Z</time>
      </trkpt>
      <trkpt lat="43.46701" lon="2.24188">
        <ele>837</ele>
        <time>2019-03-30T16:30:11Z</time>
      </trkpt>
      <trkpt lat="43.4671" lon="2.24194">
        <ele>838</ele>
        <time>2019-03-30T16:30:15Z</time>
      </trkpt>
      <trkpt lat="43.46717" lon="2.24197">
        <ele>839</ele>
        <time>2019-03-30T16:30:18Z</time>
      </trkpt>
      <trkpt lat="43.46719" lon="2.24198">
        <ele>839</ele>
        <time>2019-03-30T16:30:19Z</time>
      </trkpt>
      <trkpt lat="43.46725" lon="2.24202">
        <ele>840</ele>
        <time>2019-03-30T16:30:22Z</time>
      </trkpt>
      <trkpt lat="43.46732" lon="2.24207">
        <ele>840</ele>
        <time>2019-03-30T16:30:25Z</time>
      </trkpt>
      <trkpt lat="43.46736" lon="2.2421">
        <ele>841</ele>
        <time>2019-03-30T16:30:27Z</time>
      </trkpt>
      <trkpt lat="43.46746" lon="2.24217">
        <ele>841</ele>
        <time>2019-03-30T16:30:33Z</time>
      </trkpt>
      <trkpt lat="43.46747" lon="2.24218">
        <ele>841</ele>
        <time>2019-03-30T16:30:34Z</time>
      </trkpt>
      <trkpt lat="43.46753" lon="2.24225">
        <ele>842</ele>
        <time>2019-03-30T16:30:40Z</time>
      </trkpt>
      <trkpt lat="43.46754" lon="2.24227">
        <ele>842</ele>
        <time>2019-03-30T16:30:41Z</time>
      </trkpt>
      <trkpt lat="43.46762" lon="2.24234">
        <ele>843</ele>
        <time>2019-03-30T16:30:46Z</time>
      </trkpt>
      <trkpt lat="43.46765" lon="2.24235">
        <ele>843</ele>
        <time>2019-03-30T16:30:47Z</time>
      </trkpt>
      <trkpt lat="43.46769" lon="2.24241">
        <ele>844</ele>
        <time>2019-03-30T16:30:51Z</time>
      </trkpt>
      <trkpt lat="43.46771" lon="2.24244">
        <ele>845</ele>
        <time>2019-03-30T16:30:53Z</time>
      </trkpt>
      <trkpt lat="43.46774" lon="2.24248">
        <ele>845</ele>
        <time>2019-03-30T16:30:56Z</time>
      </trkpt>
      <trkpt lat="43.46772" lon="2.24252">
        <ele>845</ele>
        <time>2019-03-30T16:30:58Z</time>
      </trkpt>
      <trkpt lat="43.46773" lon="2.24254">
        <ele>846</ele>
        <time>2019-03-30T16:30:59Z</time>
      </trkpt>
      <trkpt lat="43.46776" lon="2.24261">
        <ele>847</ele>
        <time>2019-03-30T16:31:04Z</time>
      </trkpt>
      <trkpt lat="43.46776" lon="2.24264">
        <ele>847</ele>
        <time>2019-03-30T16:31:06Z</time>
      </trkpt>
      <trkpt lat="43.46778" lon="2.24269">
        <ele>847</ele>
        <time>2019-03-30T16:31:10Z</time>
      </trkpt>
      <trkpt lat="43.46781" lon="2.24276">
        <ele>847</ele>
        <time>2019-03-30T16:31:14Z</time>
      </trkpt>
      <trkpt lat="43.46783" lon="2.24279">
        <ele>848</ele>
        <time>2019-03-30T16:31:16Z</time>
      </trkpt>
      <trkpt lat="43.46781" lon="2.24285">
        <ele>848</ele>
        <time>2019-03-30T16:31:19Z</time>
      </trkpt>
      <trkpt lat="43.46781" lon="2.24291">
        <ele>848</ele>
        <time>2019-03-30T16:31:22Z</time>
      </trkpt>
      <trkpt lat="43.46786" lon="2.24301">
        <ele>849</ele>
        <time>2019-03-30T16:31:29Z</time>
      </trkpt>
      <trkpt lat="43.46788" lon="2.24304">
        <ele>850</ele>
        <time>2019-03-30T16:31:31Z</time>
      </trkpt>
      <trkpt lat="43.46789" lon="2.24308">
        <ele>850</ele>
        <time>2019-03-30T16:31:33Z</time>
      </trkpt>
      <trkpt lat="43.4679" lon="2.24313">
        <ele>850</ele>
        <time>2019-03-30T16:31:35Z</time>
      </trkpt>
      <trkpt lat="43.46793" lon="2.24318">
        <ele>850</ele>
        <time>2019-03-30T16:31:38Z</time>
      </trkpt>
      <trkpt lat="43.46793" lon="2.2432">
        <ele>850</ele>
        <time>2019-03-30T16:31:39Z</time>
      </trkpt>
      <trkpt lat="43.46799" lon="2.24333">
        <ele>851</ele>
        <time>2019-03-30T16:31:45Z</time>
      </trkpt>
      <trkpt lat="43.468" lon="2.24335">
        <ele>851</ele>
        <time>2019-03-30T16:31:46Z</time>
      </trkpt>
      <trkpt lat="43.46803" lon="2.24342">
        <ele>852</ele>
        <time>2019-03-30T16:31:50Z</time>
      </trkpt>
      <trkpt lat="43.46806" lon="2.24347">
        <ele>853</ele>
        <time>2019-03-30T16:31:53Z</time>
      </trkpt>
      <trkpt lat="43.46808" lon="2.2435">
        <ele>853</ele>
        <time>2019-03-30T16:31:55Z</time>
      </trkpt>
      <trkpt lat="43.46808" lon="2.24352">
        <ele>853</ele>
        <time>2019-03-30T16:31:56Z</time>
      </trkpt>
      <trkpt lat="43.46807" lon="2.24362">
        <ele>854</ele>
        <time>2019-03-30T16:32:00Z</time>
      </trkpt>
      <trkpt lat="43.46807" lon="2.24367">
        <ele>854</ele>
        <time>2019-03-30T16:32:02Z</time>
      </trkpt>
      <trkpt lat="43.46806" lon="2.24384">
        <ele>855</ele>
        <time>2019-03-30T16:32:08Z</time>
      </trkpt>
      <trkpt lat="43.46816" lon="2.24403">
        <ele>855</ele>
        <time>2019-03-30T16:32:16Z</time>
      </trkpt>
      <trkpt lat="43.46817" lon="2.24405">
        <ele>856</ele>
        <time>2019-03-30T16:32:17Z</time>
      </trkpt>
      <trkpt lat="43.46819" lon="2.24414">
        <ele>857</ele>
        <time>2019-03-30T16:32:21Z</time>
      </trkpt>
      <trkpt lat="43.46819" lon="2.24417">
        <ele>857</ele>
        <time>2019-03-30T16:32:22Z</time>
      </trkpt>
      <trkpt lat="43.46821" lon="2.24422">
        <ele>857</ele>
        <time>2019-03-30T16:32:24Z</time>
      </trkpt>
      <trkpt lat="43.46823" lon="2.24428">
        <ele>858</ele>
        <time>2019-03-30T16:32:27Z</time>
      </trkpt>
      <trkpt lat="43.46823" lon="2.2443">
        <ele>858</ele>
        <time>2019-03-30T16:32:28Z</time>
      </trkpt>
      <trkpt lat="43.46835" lon="2.24444">
        <ele>859</ele>
        <time>2019-03-30T16:32:35Z</time>
      </trkpt>
      <trkpt lat="43.46837" lon="2.24452">
        <ele>859</ele>
        <time>2019-03-30T16:32:38Z</time>
      </trkpt>
      <trkpt lat="43.46836" lon="2.24457">
        <ele>860</ele>
        <time>2019-03-30T16:32:41Z</time>
      </trkpt>
      <trkpt lat="43.46834" lon="2.2447">
        <ele>861</ele>
        <time>2019-03-30T16:32:48Z</time>
      </trkpt>
      <trkpt lat="43.46833" lon="2.24472">
        <ele>861</ele>
        <time>2019-03-30T16:32:49Z</time>
      </trkpt>
      <trkpt lat="43.46831" lon="2.24479">
        <ele>862</ele>
        <time>2019-03-30T16:32:53Z</time>
      </trkpt>
      <trkpt lat="43.4683" lon="2.24481">
        <ele>862</ele>
        <time>2019-03-30T16:32:54Z</time>
      </trkpt>
      <trkpt lat="43.46824" lon="2.24495">
        <ele>862</ele>
        <time>2019-03-30T16:33:01Z</time>
      </trkpt>
      <trkpt lat="43.46824" lon="2.24498">
        <ele>863</ele>
        <time>2019-03-30T16:33:03Z</time>
      </trkpt>
      <trkpt lat="43.46824" lon="2.24504">
        <ele>863</ele>
        <time>2019-03-30T16:33:06Z</time>
      </trkpt>
      <trkpt lat="43.46821" lon="2.24508">
        <ele>865</ele>
        <time>2019-03-30T16:33:08Z</time>
      </trkpt>
      <trkpt lat="43.46817" lon="2.24514">
        <ele>866</ele>
        <time>2019-03-30T16:33:12Z</time>
      </trkpt>
      <trkpt lat="43.46817" lon="2.24518">
        <ele>866</ele>
        <time>2019-03-30T16:33:14Z</time>
      </trkpt>
      <trkpt lat="43.46817" lon="2.24524">
        <ele>866</ele>
        <time>2019-03-30T16:33:17Z</time>
      </trkpt>
      <trkpt lat="43.46816" lon="2.24532">
        <ele>866</ele>
        <time>2019-03-30T16:33:21Z</time>
      </trkpt>
      <trkpt lat="43.46817" lon="2.24536">
        <ele>867</ele>
        <time>2019-03-30T16:33:24Z</time>
      </trkpt>
      <trkpt lat="43.46818" lon="2.2454">
        <ele>867</ele>
        <time>2019-03-30T16:33:27Z</time>
      </trkpt>
      <trkpt lat="43.4682" lon="2.24542">
        <ele>867</ele>
        <time>2019-03-30T16:33:28Z</time>
      </trkpt>
      <trkpt lat="43.4682" lon="2.24543">
        <ele>867</ele>
        <time>2019-03-30T16:33:29Z</time>
      </trkpt>
      <trkpt lat="43.46822" lon="2.24545">
        <ele>868</ele>
        <time>2019-03-30T16:33:31Z</time>
      </trkpt>
      <trkpt lat="43.46825" lon="2.24549">
        <ele>868</ele>
        <time>2019-03-30T16:33:34Z</time>
      </trkpt>
      <trkpt lat="43.46831" lon="2.24554">
        <ele>868</ele>
        <time>2019-03-30T16:33:38Z</time>
      </trkpt>
      <trkpt lat="43.46834" lon="2.24557">
        <ele>869</ele>
        <time>2019-03-30T16:33:40Z</time>
      </trkpt>
      <trkpt lat="43.46836" lon="2.2456">
        <ele>869</ele>
        <time>2019-03-30T16:33:42Z</time>
      </trkpt>
      <trkpt lat="43.46838" lon="2.24566">
        <ele>869</ele>
        <time>2019-03-30T16:33:46Z</time>
      </trkpt>
      <trkpt lat="43.46841" lon="2.24572">
        <ele>869</ele>
        <time>2019-03-30T16:33:52Z</time>
      </trkpt>
      <trkpt lat="43.46843" lon="2.24573">
        <ele>870</ele>
        <time>2019-03-30T16:33:54Z</time>
      </trkpt>
      <trkpt lat="43.46844" lon="2.24576">
        <ele>870</ele>
        <time>2019-03-30T16:33:57Z</time>
      </trkpt>
      <trkpt lat="43.46848" lon="2.24583">
        <ele>871</ele>
        <time>2019-03-30T16:34:04Z</time>
      </trkpt>
      <trkpt lat="43.46854" lon="2.24587">
        <ele>872</ele>
        <time>2019-03-30T16:34:11Z</time>
      </trkpt>
      <trkpt lat="43.46855" lon="2.24587">
        <ele>872</ele>
        <time>2019-03-30T16:34:12Z</time>
      </trkpt>
      <trkpt lat="43.46861" lon="2.2459">
        <ele>873</ele>
        <time>2019-03-30T16:34:16Z</time>
      </trkpt>
      <trkpt lat="43.46864" lon="2.24591">
        <ele>873</ele>
        <time>2019-03-30T16:34:18Z</time>
      </trkpt>
      <trkpt lat="43.46865" lon="2.24591">
        <ele>873</ele>
        <time>2019-03-30T16:34:19Z</time>
      </trkpt>
      <trkpt lat="43.46871" lon="2.24595">
        <ele>873</ele>
        <time>2019-03-30T16:34:23Z</time>
      </trkpt>
      <trkpt lat="43.46875" lon="2.246">
        <ele>874</ele>
        <time>2019-03-30T16:34:28Z</time>
      </trkpt>
      <trkpt lat="43.46877" lon="2.24601">
        <ele>874</ele>
        <time>2019-03-30T16:34:30Z</time>
      </trkpt>
      <trkpt lat="43.46878" lon="2.24602">
        <ele>874</ele>
        <time>2019-03-30T16:34:31Z</time>
      </trkpt>
      <trkpt lat="43.46882" lon="2.24607">
        <ele>874</ele>
        <time>2019-03-30T16:34:34Z</time>
      </trkpt>
      <trkpt lat="43.46885" lon="2.24609">
        <ele>875</ele>
        <time>2019-03-30T16:34:36Z</time>
      </trkpt>
      <trkpt lat="43.46887" lon="2.24609">
        <ele>875</ele>
        <time>2019-03-30T16:34:37Z</time>
      </trkpt>
      <trkpt lat="43.46889" lon="2.24611">
        <ele>875</ele>
        <time>2019-03-30T16:34:38Z</time>
      </trkpt>
      <trkpt lat="43.46893" lon="2.24615">
        <ele>876</ele>
        <time>2019-03-30T16:34:42Z</time>
      </trkpt>
      <trkpt lat="43.46894" lon="2.24616">
        <ele>876</ele>
        <time>2019-03-30T16:34:43Z</time>
      </trkpt>
      <trkpt lat="43.46895" lon="2.24617">
        <ele>876</ele>
        <time>2019-03-30T16:34:44Z</time>
      </trkpt>
      <trkpt lat="43.46902" lon="2.24619">
        <ele>877</ele>
        <time>2019-03-30T16:34:49Z</time>
      </trkpt>
      <trkpt lat="43.46906" lon="2.2462">
        <ele>877</ele>
        <time>2019-03-30T16:34:50Z</time>
      </trkpt>
      <trkpt lat="43.46909" lon="2.24623">
        <ele>878</ele>
        <time>2019-03-30T16:34:53Z</time>
      </trkpt>
      <trkpt lat="43.46911" lon="2.24624">
        <ele>878</ele>
        <time>2019-03-30T16:34:54Z</time>
      </trkpt>
      <trkpt lat="43.46915" lon="2.24624">
        <ele>878</ele>
        <time>2019-03-30T16:34:56Z</time>
      </trkpt>
      <trkpt lat="43.46922" lon="2.24626">
        <ele>878</ele>
        <time>2019-03-30T16:35:00Z</time>
      </trkpt>
      <trkpt lat="43.4693" lon="2.24627">
        <ele>878</ele>
        <time>2019-03-30T16:35:03Z</time>
      </trkpt>
      <trkpt lat="43.46935" lon="2.24628">
        <ele>879</ele>
        <time>2019-03-30T16:35:06Z</time>
      </trkpt>
      <trkpt lat="43.46937" lon="2.24628">
        <ele>879</ele>
        <time>2019-03-30T16:35:07Z</time>
      </trkpt>
      <trkpt lat="43.46945" lon="2.24631">
        <ele>881</ele>
        <time>2019-03-30T16:35:13Z</time>
      </trkpt>
      <trkpt lat="43.46956" lon="2.24632">
        <ele>881</ele>
        <time>2019-03-30T16:35:19Z</time>
      </trkpt>
      <trkpt lat="43.46965" lon="2.24634">
        <ele>882</ele>
        <time>2019-03-30T16:35:23Z</time>
      </trkpt>
      <trkpt lat="43.46973" lon="2.24639">
        <ele>882</ele>
        <time>2019-03-30T16:35:29Z</time>
      </trkpt>
      <trkpt lat="43.4698" lon="2.24642">
        <ele>882</ele>
        <time>2019-03-30T16:35:32Z</time>
      </trkpt>
      <trkpt lat="43.46993" lon="2.24648">
        <ele>884</ele>
        <time>2019-03-30T16:35:38Z</time>
      </trkpt>
      <trkpt lat="43.47007" lon="2.24655">
        <ele>884</ele>
        <time>2019-03-30T16:35:45Z</time>
      </trkpt>
      <trkpt lat="43.4701" lon="2.24656">
        <ele>884</ele>
        <time>2019-03-30T16:35:46Z</time>
      </trkpt>
      <trkpt lat="43.47011" lon="2.24658">
        <ele>885</ele>
        <time>2019-03-30T16:35:47Z</time>
      </trkpt>
      <trkpt lat="43.47014" lon="2.24664">
        <ele>885</ele>
        <time>2019-03-30T16:35:51Z</time>
      </trkpt>
      <trkpt lat="43.47017" lon="2.24668">
        <ele>885</ele>
        <time>2019-03-30T16:35:54Z</time>
      </trkpt>
      <trkpt lat="43.47019" lon="2.24672">
        <ele>886</ele>
        <time>2019-03-30T16:35:56Z</time>
      </trkpt>
      <trkpt lat="43.47022" lon="2.24675">
        <ele>886</ele>
        <time>2019-03-30T16:35:58Z</time>
      </trkpt>
      <trkpt lat="43.47026" lon="2.2468">
        <ele>886</ele>
        <time>2019-03-30T16:36:01Z</time>
      </trkpt>
      <trkpt lat="43.47026" lon="2.24682">
        <ele>886</ele>
        <time>2019-03-30T16:36:02Z</time>
      </trkpt>
      <trkpt lat="43.47029" lon="2.24688">
        <ele>887</ele>
        <time>2019-03-30T16:36:05Z</time>
      </trkpt>
      <trkpt lat="43.47035" lon="2.24695">
        <ele>887</ele>
        <time>2019-03-30T16:36:08Z</time>
      </trkpt>
      <trkpt lat="43.47041" lon="2.24707">
        <ele>888</ele>
        <time>2019-03-30T16:36:13Z</time>
      </trkpt>
      <trkpt lat="43.47041" lon="2.24716">
        <ele>888</ele>
        <time>2019-03-30T16:36:17Z</time>
      </trkpt>
      <trkpt lat="43.47045" lon="2.24725">
        <ele>889</ele>
        <time>2019-03-30T16:36:21Z</time>
      </trkpt>
      <trkpt lat="43.47047" lon="2.24738">
        <ele>889</ele>
        <time>2019-03-30T16:36:28Z</time>
      </trkpt>
      <trkpt lat="43.47047" lon="2.2474">
        <ele>889</ele>
        <time>2019-03-30T16:36:29Z</time>
      </trkpt>
      <trkpt lat="43.47047" lon="2.24749">
        <ele>890</ele>
        <time>2019-03-30T16:36:34Z</time>
      </trkpt>
      <trkpt lat="43.47047" lon="2.24752">
        <ele>890</ele>
        <time>2019-03-30T16:36:36Z</time>
      </trkpt>
      <trkpt lat="43.47047" lon="2.24754">
        <ele>890</ele>
        <time>2019-03-30T16:36:37Z</time>
      </trkpt>
      <trkpt lat="43.47046" lon="2.24756">
        <ele>891</ele>
        <time>2019-03-30T16:36:38Z</time>
      </trkpt>
      <trkpt lat="43.47044" lon="2.24766">
        <ele>891</ele>
        <time>2019-03-30T16:36:43Z</time>
      </trkpt>
      <trkpt lat="43.47042" lon="2.24778">
        <ele>892</ele>
        <time>2019-03-30T16:36:49Z</time>
      </trkpt>
      <trkpt lat="43.47041" lon="2.24783">
        <ele>892</ele>
        <time>2019-03-30T16:36:52Z</time>
      </trkpt>
      <trkpt lat="43.47039" lon="2.24796">
        <ele>892</ele>
        <time>2019-03-30T16:36:59Z</time>
      </trkpt>
      <trkpt lat="43.47039" lon="2.24799">
        <ele>893</ele>
        <time>2019-03-30T16:37:00Z</time>
      </trkpt>
      <trkpt lat="43.47038" lon="2.24807">
        <ele>894</ele>
        <time>2019-03-30T16:37:05Z</time>
      </trkpt>
      <trkpt lat="43.47039" lon="2.24812">
        <ele>894</ele>
        <time>2019-03-30T16:37:10Z</time>
      </trkpt>
      <trkpt lat="43.47039" lon="2.24813">
        <ele>894</ele>
        <time>2019-03-30T16:37:11Z</time>
      </trkpt>
      <trkpt lat="43.47035" lon="2.24835">
        <ele>895</ele>
        <time>2019-03-30T16:37:22Z</time>
      </trkpt>
      <trkpt lat="43.47035" lon="2.24837">
        <ele>895</ele>
        <time>2019-03-30T16:37:23Z</time>
      </trkpt>
      <trkpt lat="43.47034" lon="2.24845">
        <ele>896</ele>
        <time>2019-03-30T16:37:27Z</time>
      </trkpt>
      <trkpt lat="43.47032" lon="2.24851">
        <ele>896</ele>
        <time>2019-03-30T16:37:30Z</time>
      </trkpt>
      <trkpt lat="43.47031" lon="2.24853">
        <ele>896</ele>
        <time>2019-03-30T16:37:31Z</time>
      </trkpt>
      <trkpt lat="43.4703" lon="2.24856">
        <ele>896</ele>
        <time>2019-03-30T16:37:32Z</time>
      </trkpt>
      <trkpt lat="43.47025" lon="2.24873">
        <ele>897</ele>
        <time>2019-03-30T16:37:40Z</time>
      </trkpt>
      <trkpt lat="43.47024" lon="2.24877">
        <ele>897</ele>
        <time>2019-03-30T16:37:42Z</time>
      </trkpt>
      <trkpt lat="43.4702" lon="2.24891">
        <ele>898</ele>
        <time>2019-03-30T16:37:48Z</time>
      </trkpt>
      <trkpt lat="43.4702" lon="2.24898">
        <ele>898</ele>
        <time>2019-03-30T16:37:51Z</time>
      </trkpt>
      <trkpt lat="43.47017" lon="2.24904">
        <ele>899</ele>
        <time>2019-03-30T16:37:54Z</time>
      </trkpt>
      <trkpt lat="43.47014" lon="2.24916">
        <ele>899</ele>
        <time>2019-03-30T16:37:59Z</time>
      </trkpt>
      <trkpt lat="43.47011" lon="2.24925">
        <ele>899</ele>
        <time>2019-03-30T16:38:03Z</time>
      </trkpt>
      <trkpt lat="43.47009" lon="2.24938">
        <ele>900</ele>
        <time>2019-03-30T16:38:10Z</time>
      </trkpt>
      <trkpt lat="43.47006" lon="2.2495">
        <ele>901</ele>
        <time>2019-03-30T16:38:16Z</time>
      </trkpt>
      <trkpt lat="43.47006" lon="2.24951">
        <ele>901</ele>
        <time>2019-03-30T16:38:17Z</time>
      </trkpt>
      <trkpt lat="43.47003" lon="2.24964">
        <ele>901</ele>
        <time>2019-03-30T16:38:24Z</time>
      </trkpt>
      <trkpt lat="43.47003" lon="2.24966">
        <ele>902</ele>
        <time>2019-03-30T16:38:25Z</time>
      </trkpt>
      <trkpt lat="43.46995" lon="2.24978">
        <ele>903</ele>
        <time>2019-03-30T16:38:31Z</time>
      </trkpt>
      <trkpt lat="43.46994" lon="2.24985">
        <ele>903</ele>
        <time>2019-03-30T16:38:35Z</time>
      </trkpt>
      <trkpt lat="43.46992" lon="2.24992">
        <ele>903</ele>
        <time>2019-03-30T16:38:39Z</time>
      </trkpt>
      <trkpt lat="43.46988" lon="2.25005">
        <ele>904</ele>
        <time>2019-03-30T16:38:46Z</time>
      </trkpt>
      <trkpt lat="43.46988" lon="2.25007">
        <ele>904</ele>
        <time>2019-03-30T16:38:47Z</time>
      </trkpt>
      <trkpt lat="43.46988" lon="2.25012">
        <ele>905</ele>
        <time>2019-03-30T16:38:50Z</time>
      </trkpt>
      <trkpt lat="43.46986" lon="2.25018">
        <ele>905</ele>
        <time>2019-03-30T16:38:53Z</time>
      </trkpt>
      <trkpt lat="43.46985" lon="2.25022">
        <ele>906</ele>
        <time>2019-03-30T16:38:55Z</time>
      </trkpt>
      <trkpt lat="43.46981" lon="2.25032">
        <ele>906</ele>
        <time>2019-03-30T16:39:01Z</time>
      </trkpt>
      <trkpt lat="43.46981" lon="2.25036">
        <ele>906</ele>
        <time>2019-03-30T16:39:03Z</time>
      </trkpt>
      <trkpt lat="43.4698" lon="2.25039">
        <ele>907</ele>
        <time>2019-03-30T16:39:05Z</time>
      </trkpt>
      <trkpt lat="43.4698" lon="2.25041">
        <ele>907</ele>
        <time>2019-03-30T16:39:06Z</time>
      </trkpt>
      <trkpt lat="43.46978" lon="2.25043">
        <ele>907</ele>
        <time>2019-03-30T16:39:07Z</time>
      </trkpt>
      <trkpt lat="43.46976" lon="2.25054">
        <ele>907</ele>
        <time>2019-03-30T16:39:13Z</time>
      </trkpt>
      <trkpt lat="43.46975" lon="2.25064">
        <ele>908</ele>
        <time>2019-03-30T16:39:18Z</time>
      </trkpt>
      <trkpt lat="43.46975" lon="2.25065">
        <ele>908</ele>
        <time>2019-03-30T16:39:19Z</time>
      </trkpt>
      <trkpt lat="43.46971" lon="2.25075">
        <ele>909</ele>
        <time>2019-03-30T16:39:24Z</time>
      </trkpt>
      <trkpt lat="43.46969" lon="2.25085">
        <ele>909</ele>
        <time>2019-03-30T16:39:29Z</time>
      </trkpt>
      <trkpt lat="43.46969" lon="2.25091">
        <ele>909</ele>
        <time>2019-03-30T16:39:32Z</time>
      </trkpt>
      <trkpt lat="43.46969" lon="2.25095">
        <ele>909</ele>
        <time>2019-03-30T16:39:34Z</time>
      </trkpt>
      <trkpt lat="43.46967" lon="2.251">
        <ele>910</ele>
        <time>2019-03-30T16:39:37Z</time>
      </trkpt>
      <trkpt lat="43.46966" lon="2.25102">
        <ele>910</ele>
        <time>2019-03-30T16:39:38Z</time>
      </trkpt>
      <trkpt lat="43.46967" lon="2.25112">
        <ele>911</ele>
        <time>2019-03-30T16:39:43Z</time>
      </trkpt>
      <trkpt lat="43.46967" lon="2.25114">
        <ele>911</ele>
        <time>2019-03-30T16:39:44Z</time>
      </trkpt>
      <trkpt lat="43.46967" lon="2.25117">
        <ele>911</ele>
        <time>2019-03-30T16:39:46Z</time>
      </trkpt>
      <trkpt lat="43.46966" lon="2.25123">
        <ele>911</ele>
        <time>2019-03-30T16:39:49Z</time>
      </trkpt>
      <trkpt lat="43.46966" lon="2.25124">
        <ele>911</ele>
        <time>2019-03-30T16:39:50Z</time>
      </trkpt>
      <trkpt lat="43.46963" lon="2.25131">
        <ele>912</ele>
        <time>2019-03-30T16:39:54Z</time>
      </trkpt>
      <trkpt lat="43.46961" lon="2.25135">
        <ele>913</ele>
        <time>2019-03-30T16:39:56Z</time>
      </trkpt>
      <trkpt lat="43.4696" lon="2.25143">
        <ele>913</ele>
        <time>2019-03-30T16:40:00Z</time>
      </trkpt>
      <trkpt lat="43.4696" lon="2.25145">
        <ele>913</ele>
        <time>2019-03-30T16:40:01Z</time>
      </trkpt>
      <trkpt lat="43.46958" lon="2.25159">
        <ele>914</ele>
        <time>2019-03-30T16:40:08Z</time>
      </trkpt>
      <trkpt lat="43.46956" lon="2.25172">
        <ele>914</ele>
        <time>2019-03-30T16:40:14Z</time>
      </trkpt>
      <trkpt lat="43.46956" lon="2.25176">
        <ele>915</ele>
        <time>2019-03-30T16:40:16Z</time>
      </trkpt>
      <trkpt lat="43.46956" lon="2.25189">
        <ele>915</ele>
        <time>2019-03-30T16:40:22Z</time>
      </trkpt>
      <trkpt lat="43.46956" lon="2.25191">
        <ele>916</ele>
        <time>2019-03-30T16:40:23Z</time>
      </trkpt>
      <trkpt lat="43.46957" lon="2.25193">
        <ele>916</ele>
        <time>2019-03-30T16:40:24Z</time>
      </trkpt>
      <trkpt lat="43.46961" lon="2.25199">
        <ele>916</ele>
        <time>2019-03-30T16:40:28Z</time>
      </trkpt>
      <trkpt lat="43.46966" lon="2.25214">
        <ele>916</ele>
        <time>2019-03-30T16:40:33Z</time>
      </trkpt>
      <trkpt lat="43.46975" lon="2.25229">
        <ele>915</ele>
        <time>2019-03-30T16:40:38Z</time>
      </trkpt>
      <trkpt lat="43.46977" lon="2.25238">
        <ele>914</ele>
        <time>2019-03-30T16:40:40Z</time>
      </trkpt>
      <trkpt lat="43.4698" lon="2.25248">
        <ele>914</ele>
        <time>2019-03-30T16:40:43Z</time>
      </trkpt>
      <trkpt lat="43.46981" lon="2.25251">
        <ele>914</ele>
        <time>2019-03-30T16:40:44Z</time>
      </trkpt>
      <trkpt lat="43.46984" lon="2.25273">
        <ele>913</ele>
        <time>2019-03-30T16:40:49Z</time>
      </trkpt>
      <trkpt lat="43.46985" lon="2.25278">
        <ele>913</ele>
        <time>2019-03-30T16:40:50Z</time>
      </trkpt>
      <trkpt lat="43.4698" lon="2.25291">
        <ele>913</ele>
        <time>2019-03-30T16:40:52Z</time>
      </trkpt>
      <trkpt lat="43.46975" lon="2.25305">
        <ele>913</ele>
        <time>2019-03-30T16:40:54Z</time>
      </trkpt>
      <trkpt lat="43.46968" lon="2.25336">
        <ele>913</ele>
        <time>2019-03-30T16:41:00Z</time>
      </trkpt>
      <trkpt lat="43.46963" lon="2.25362">
        <ele>913</ele>
        <time>2019-03-30T16:41:06Z</time>
      </trkpt>
      <trkpt lat="43.46956" lon="2.25389">
        <ele>913</ele>
        <time>2019-03-30T16:41:13Z</time>
      </trkpt>
      <trkpt lat="43.46957" lon="2.25408">
        <ele>912</ele>
        <time>2019-03-30T16:41:17Z</time>
      </trkpt>
      <trkpt lat="43.46967" lon="2.25415">
        <ele>911</ele>
        <time>2019-03-30T16:41:20Z</time>
      </trkpt>
      <trkpt lat="43.46973" lon="2.25414">
        <ele>911</ele>
        <time>2019-03-30T16:41:22Z</time>
      </trkpt>
      <trkpt lat="43.46976" lon="2.25415">
        <ele>912</ele>
        <time>2019-03-30T16:41:24Z</time>
      </trkpt>
      <trkpt lat="43.46977" lon="2.25415">
        <ele>912</ele>
        <time>2019-03-30T16:41:25Z</time>
      </trkpt>
      <trkpt lat="43.46996" lon="2.25397">
        <ele>913</ele>
        <time>2019-03-30T16:42:03Z</time>
      </trkpt>
      <trkpt lat="43.46997" lon="2.25395">
        <ele>912</ele>
        <time>2019-03-30T16:42:04Z</time>
      </trkpt>
      <trkpt lat="43.46999" lon="2.25392">
        <ele>912</ele>
        <time>2019-03-30T16:42:05Z</time>
      </trkpt>
      <trkpt lat="43.47005" lon="2.25379">
        <ele>912</ele>
        <time>2019-03-30T16:42:09Z</time>
      </trkpt>
      <trkpt lat="43.47007" lon="2.25375">
        <ele>912</ele>
        <time>2019-03-30T16:42:10Z</time>
      </trkpt>
      <trkpt lat="43.47017" lon="2.25353">
        <ele>912</ele>
        <time>2019-03-30T16:42:15Z</time>
      </trkpt>
      <trkpt lat="43.47026" lon="2.25335">
        <ele>912</ele>
        <time>2019-03-30T16:42:18Z</time>
      </trkpt>
      <trkpt lat="43.47028" lon="2.25329">
        <ele>911</ele>
        <time>2019-03-30T16:42:19Z</time>
      </trkpt>
      <trkpt lat="43.4703" lon="2.25323">
        <ele>911</ele>
        <time>2019-03-30T16:42:20Z</time>
      </trkpt>
      <trkpt lat="43.47037" lon="2.25308">
        <ele>911</ele>
        <time>2019-03-30T16:42:23Z</time>
      </trkpt>
      <trkpt lat="43.47039" lon="2.25295">
        <ele>911</ele>
        <time>2019-03-30T16:42:25Z</time>
      </trkpt>
      <trkpt lat="43.47043" lon="2.25282">
        <ele>910</ele>
        <time>2019-03-30T16:42:27Z</time>
      </trkpt>
      <trkpt lat="43.47048" lon="2.25269">
        <ele>909</ele>
        <time>2019-03-30T16:42:29Z</time>
      </trkpt>
      <trkpt lat="43.47055" lon="2.25245">
        <ele>908</ele>
        <time>2019-03-30T16:42:32Z</time>
      </trkpt>
      <trkpt lat="43.47057" lon="2.25237">
        <ele>908</ele>
        <time>2019-03-30T16:42:33Z</time>
      </trkpt>
      <trkpt lat="43.4706" lon="2.25228">
        <ele>907</ele>
        <time>2019-03-30T16:42:34Z</time>
      </trkpt>
      <trkpt lat="43.47063" lon="2.25219">
        <ele>907</ele>
        <time>2019-03-30T16:42:35Z</time>
      </trkpt>
      <trkpt lat="43.47069" lon="2.25203">
        <ele>905</ele>
        <time>2019-03-30T16:42:37Z</time>
      </trkpt>
      <trkpt lat="43.47072" lon="2.25194">
        <ele>904</ele>
        <time>2019-03-30T16:42:38Z</time>
      </trkpt>
      <trkpt lat="43.47075" lon="2.25185">
        <ele>903</ele>
        <time>2019-03-30T16:42:39Z</time>
      </trkpt>
      <trkpt lat="43.47085" lon="2.25158">
        <ele>903</ele>
        <time>2019-03-30T16:42:42Z</time>
      </trkpt>
      <trkpt lat="43.47088" lon="2.2515">
        <ele>902</ele>
        <time>2019-03-30T16:42:43Z</time>
      </trkpt>
      <trkpt lat="43.47096" lon="2.25132">
        <ele>901</ele>
        <time>2019-03-30T16:42:45Z</time>
      </trkpt>
      <trkpt lat="43.47111" lon="2.25104">
        <ele>900</ele>
        <time>2019-03-30T16:42:48Z</time>
      </trkpt>
      <trkpt lat="43.4712" lon="2.25084">
        <ele>897</ele>
        <time>2019-03-30T16:42:50Z</time>
      </trkpt>
      <trkpt lat="43.47131" lon="2.25062">
        <ele>896</ele>
        <time>2019-03-30T16:42:52Z</time>
      </trkpt>
      <trkpt lat="43.47135" lon="2.25051">
        <ele>896</ele>
        <time>2019-03-30T16:42:53Z</time>
      </trkpt>
      <trkpt lat="43.47144" lon="2.25031">
        <ele>894</ele>
        <time>2019-03-30T16:42:55Z</time>
      </trkpt>
      <trkpt lat="43.47149" lon="2.25023">
        <ele>893</ele>
        <time>2019-03-30T16:42:56Z</time>
      </trkpt>
      <trkpt lat="43.47154" lon="2.25019">
        <ele>893</ele>
        <time>2019-03-30T16:42:57Z</time>
      </trkpt>
      <trkpt lat="43.47161" lon="2.25017">
        <ele>892</ele>
        <time>2019-03-30T16:42:58Z</time>
      </trkpt>
      <trkpt lat="43.47174" lon="2.2501">
        <ele>890</ele>
        <time>2019-03-30T16:43:00Z</time>
      </trkpt>
      <trkpt lat="43.47187" lon="2.25003">
        <ele>890</ele>
        <time>2019-03-30T16:43:02Z</time>
      </trkpt>
      <trkpt lat="43.47193" lon="2.25">
        <ele>889</ele>
        <time>2019-03-30T16:43:03Z</time>
      </trkpt>
      <trkpt lat="43.47204" lon="2.24996">
        <ele>888</ele>
        <time>2019-03-30T16:43:05Z</time>
      </trkpt>
      <trkpt lat="43.47215" lon="2.24992">
        <ele>886</ele>
        <time>2019-03-30T16:43:07Z</time>
      </trkpt>
      <trkpt lat="43.47221" lon="2.2499">
        <ele>884</ele>
        <time>2019-03-30T16:43:08Z</time>
      </trkpt>
      <trkpt lat="43.47228" lon="2.24987">
        <ele>883</ele>
        <time>2019-03-30T16:43:09Z</time>
      </trkpt>
      <trkpt lat="43.47235" lon="2.24985">
        <ele>882</ele>
        <time>2019-03-30T16:43:10Z</time>
      </trkpt>
      <trkpt lat="43.47243" lon="2.2498">
        <ele>880</ele>
        <time>2019-03-30T16:43:11Z</time>
      </trkpt>
      <trkpt lat="43.4725" lon="2.24977">
        <ele>879</ele>
        <time>2019-03-30T16:43:12Z</time>
      </trkpt>
      <trkpt lat="43.47256" lon="2.24975">
        <ele>878</ele>
        <time>2019-03-30T16:43:13Z</time>
      </trkpt>
      <trkpt lat="43.47263" lon="2.24976">
        <ele>876</ele>
        <time>2019-03-30T16:43:14Z</time>
      </trkpt>
      <trkpt lat="43.47271" lon="2.24976">
        <ele>875</ele>
        <time>2019-03-30T16:43:15Z</time>
      </trkpt>
      <trkpt lat="43.47278" lon="2.24976">
        <ele>874</ele>
        <time>2019-03-30T16:43:16Z</time>
      </trkpt>
      <trkpt lat="43.47291" lon="2.24971">
        <ele>874</ele>
        <time>2019-03-30T16:43:18Z</time>
      </trkpt>
      <trkpt lat="43.4731" lon="2.24969">
        <ele>871</ele>
        <time>2019-03-30T16:43:21Z</time>
      </trkpt>
      <trkpt lat="43.47317" lon="2.24967">
        <ele>870</ele>
        <time>2019-03-30T16:43:22Z</time>
      </trkpt>
      <trkpt lat="43.47322" lon="2.24966">
        <ele>869</ele>
        <time>2019-03-30T16:43:23Z</time>
      </trkpt>
      <trkpt lat="43.47327" lon="2.24965">
        <ele>866</ele>
        <time>2019-03-30T16:43:24Z</time>
      </trkpt>
      <trkpt lat="43.47333" lon="2.24963">
        <ele>865</ele>
        <time>2019-03-30T16:43:25Z</time>
      </trkpt>
      <trkpt lat="43.47343" lon="2.24959">
        <ele>863</ele>
        <time>2019-03-30T16:43:27Z</time>
      </trkpt>
      <trkpt lat="43.4735" lon="2.24957">
        <ele>863</ele>
        <time>2019-03-30T16:43:28Z</time>
      </trkpt>
      <trkpt lat="43.47368" lon="2.24953">
        <ele>862</ele>
        <time>2019-03-30T16:43:31Z</time>
      </trkpt>
      <trkpt lat="43.47373" lon="2.24952">
        <ele>860</ele>
        <time>2019-03-30T16:43:32Z</time>
      </trkpt>
      <trkpt lat="43.4738" lon="2.24949">
        <ele>859</ele>
        <time>2019-03-30T16:43:33Z</time>
      </trkpt>
      <trkpt lat="43.47388" lon="2.24945">
        <ele>858</ele>
        <time>2019-03-30T16:43:34Z</time>
      </trkpt>
      <trkpt lat="43.47395" lon="2.24943">
        <ele>857</ele>
        <time>2019-03-30T16:43:35Z</time>
      </trkpt>
      <trkpt lat="43.47402" lon="2.24942">
        <ele>856</ele>
        <time>2019-03-30T16:43:36Z</time>
      </trkpt>
      <trkpt lat="43.4741" lon="2.24941">
        <ele>855</ele>
        <time>2019-03-30T16:43:37Z</time>
      </trkpt>
      <trkpt lat="43.47417" lon="2.2494">
        <ele>853</ele>
        <time>2019-03-30T16:43:38Z</time>
      </trkpt>
      <trkpt lat="43.47424" lon="2.24939">
        <ele>852</ele>
        <time>2019-03-30T16:43:39Z</time>
      </trkpt>
      <trkpt lat="43.4743" lon="2.2494">
        <ele>849</ele>
        <time>2019-03-30T16:43:40Z</time>
      </trkpt>
      <trkpt lat="43.47437" lon="2.2494">
        <ele>848</ele>
        <time>2019-03-30T16:43:41Z</time>
      </trkpt>
      <trkpt lat="43.47445" lon="2.24941">
        <ele>846</ele>
        <time>2019-03-30T16:43:42Z</time>
      </trkpt>
      <trkpt lat="43.47462" lon="2.24946">
        <ele>845</ele>
        <time>2019-03-30T16:43:44Z</time>
      </trkpt>
      <trkpt lat="43.47471" lon="2.24948">
        <ele>844</ele>
        <time>2019-03-30T16:43:45Z</time>
      </trkpt>
      <trkpt lat="43.47479" lon="2.24948">
        <ele>842</ele>
        <time>2019-03-30T16:43:46Z</time>
      </trkpt>
      <trkpt lat="43.47488" lon="2.24948">
        <ele>841</ele>
        <time>2019-03-30T16:43:47Z</time>
      </trkpt>
      <trkpt lat="43.47497" lon="2.24948">
        <ele>840</ele>
        <time>2019-03-30T16:43:48Z</time>
      </trkpt>
      <trkpt lat="43.47505" lon="2.24948">
        <ele>839</ele>
        <time>2019-03-30T16:43:49Z</time>
      </trkpt>
      <trkpt lat="43.47513" lon="2.24948">
        <ele>837</ele>
        <time>2019-03-30T16:43:50Z</time>
      </trkpt>
      <trkpt lat="43.47521" lon="2.24948">
        <ele>836</ele>
        <time>2019-03-30T16:43:51Z</time>
      </trkpt>
      <trkpt lat="43.47534" lon="2.24951">
        <ele>835</ele>
        <time>2019-03-30T16:43:53Z</time>
      </trkpt>
      <trkpt lat="43.4754" lon="2.24954">
        <ele>834</ele>
        <time>2019-03-30T16:43:54Z</time>
      </trkpt>
      <trkpt lat="43.47546" lon="2.24956">
        <ele>832</ele>
        <time>2019-03-30T16:43:55Z</time>
      </trkpt>
      <trkpt lat="43.47553" lon="2.24957">
        <ele>831</ele>
        <time>2019-03-30T16:43:56Z</time>
      </trkpt>
      <trkpt lat="43.4756" lon="2.24958">
        <ele>830</ele>
        <time>2019-03-30T16:43:57Z</time>
      </trkpt>
      <trkpt lat="43.47573" lon="2.2496">
        <ele>828</ele>
        <time>2019-03-30T16:43:59Z</time>
      </trkpt>
      <trkpt lat="43.4759" lon="2.24961">
        <ele>827</ele>
        <time>2019-03-30T16:44:02Z</time>
      </trkpt>
      <trkpt lat="43.47603" lon="2.24964">
        <ele>825</ele>
        <time>2019-03-30T16:44:04Z</time>
      </trkpt>
      <trkpt lat="43.47613" lon="2.24965">
        <ele>824</ele>
        <time>2019-03-30T16:44:06Z</time>
      </trkpt>
      <trkpt lat="43.47624" lon="2.24966">
        <ele>822</ele>
        <time>2019-03-30T16:44:08Z</time>
      </trkpt>
      <trkpt lat="43.47631" lon="2.24967">
        <ele>820</ele>
        <time>2019-03-30T16:44:09Z</time>
      </trkpt>
      <trkpt lat="43.47637" lon="2.24969">
        <ele>818</ele>
        <time>2019-03-30T16:44:10Z</time>
      </trkpt>
      <trkpt lat="43.47643" lon="2.24972">
        <ele>817</ele>
        <time>2019-03-30T16:44:11Z</time>
      </trkpt>
      <trkpt lat="43.47649" lon="2.24974">
        <ele>815</ele>
        <time>2019-03-30T16:44:12Z</time>
      </trkpt>
      <trkpt lat="43.4766" lon="2.24981">
        <ele>812</ele>
        <time>2019-03-30T16:44:14Z</time>
      </trkpt>
      <trkpt lat="43.47667" lon="2.24982">
        <ele>811</ele>
        <time>2019-03-30T16:44:15Z</time>
      </trkpt>
      <trkpt lat="43.47677" lon="2.24983">
        <ele>810</ele>
        <time>2019-03-30T16:44:17Z</time>
      </trkpt>
      <trkpt lat="43.47682" lon="2.24984">
        <ele>810</ele>
        <time>2019-03-30T16:44:18Z</time>
      </trkpt>
      <trkpt lat="43.47694" lon="2.24988">
        <ele>808</ele>
        <time>2019-03-30T16:44:20Z</time>
      </trkpt>
      <trkpt lat="43.47701" lon="2.24991">
        <ele>806</ele>
        <time>2019-03-30T16:44:21Z</time>
      </trkpt>
      <trkpt lat="43.47708" lon="2.24992">
        <ele>805</ele>
        <time>2019-03-30T16:44:22Z</time>
      </trkpt>
      <trkpt lat="43.47722" lon="2.24995">
        <ele>803</ele>
        <time>2019-03-30T16:44:24Z</time>
      </trkpt>
      <trkpt lat="43.47728" lon="2.24997">
        <ele>801</ele>
        <time>2019-03-30T16:44:25Z</time>
      </trkpt>
      <trkpt lat="43.47733" lon="2.24999">
        <ele>800</ele>
        <time>2019-03-30T16:44:26Z</time>
      </trkpt>
      <trkpt lat="43.47739" lon="2.25002">
        <ele>800</ele>
        <time>2019-03-30T16:44:27Z</time>
      </trkpt>
      <trkpt lat="43.47744" lon="2.25005">
        <ele>799</ele>
        <time>2019-03-30T16:44:28Z</time>
      </trkpt>
      <trkpt lat="43.47751" lon="2.25006">
        <ele>798</ele>
        <time>2019-03-30T16:44:29Z</time>
      </trkpt>
      <trkpt lat="43.47758" lon="2.25006">
        <ele>796</ele>
        <time>2019-03-30T16:44:30Z</time>
      </trkpt>
      <trkpt lat="43.47763" lon="2.25007">
        <ele>796</ele>
        <time>2019-03-30T16:44:31Z</time>
      </trkpt>
      <trkpt lat="43.47768" lon="2.25009">
        <ele>795</ele>
        <time>2019-03-30T16:44:32Z</time>
      </trkpt>
      <trkpt lat="43.47775" lon="2.25012">
        <ele>795</ele>
        <time>2019-03-30T16:44:33Z</time>
      </trkpt>
      <trkpt lat="43.47781" lon="2.25015">
        <ele>794</ele>
        <time>2019-03-30T16:44:34Z</time>
      </trkpt>
      <trkpt lat="43.47788" lon="2.25019">
        <ele>793</ele>
        <time>2019-03-30T16:44:35Z</time>
      </trkpt>
      <trkpt lat="43.47798" lon="2.25025">
        <ele>791</ele>
        <time>2019-03-30T16:44:36Z</time>
      </trkpt>
      <trkpt lat="43.47815" lon="2.25037">
        <ele>789</ele>
        <time>2019-03-30T16:44:38Z</time>
      </trkpt>
      <trkpt lat="43.47823" lon="2.25043">
        <ele>788</ele>
        <time>2019-03-30T16:44:39Z</time>
      </trkpt>
      <trkpt lat="43.47841" lon="2.25058">
        <ele>786</ele>
        <time>2019-03-30T16:44:41Z</time>
      </trkpt>
      <trkpt lat="43.4785" lon="2.25067">
        <ele>786</ele>
        <time>2019-03-30T16:44:42Z</time>
      </trkpt>
      <trkpt lat="43.47857" lon="2.25076">
        <ele>785</ele>
        <time>2019-03-30T16:44:43Z</time>
      </trkpt>
      <trkpt lat="43.47872" lon="2.2509">
        <ele>784</ele>
        <time>2019-03-30T16:44:45Z</time>
      </trkpt>
      <trkpt lat="43.47885" lon="2.25102">
        <ele>782</ele>
        <time>2019-03-30T16:44:47Z</time>
      </trkpt>
      <trkpt lat="43.47896" lon="2.25111">
        <ele>780</ele>
        <time>2019-03-30T16:44:49Z</time>
      </trkpt>
      <trkpt lat="43.479" lon="2.25113">
        <ele>780</ele>
        <time>2019-03-30T16:44:50Z</time>
      </trkpt>
      <trkpt lat="43.47905" lon="2.25108">
        <ele>780</ele>
        <time>2019-03-30T16:44:53Z</time>
      </trkpt>
      <trkpt lat="43.47905" lon="2.25107">
        <ele>779</ele>
        <time>2019-03-30T16:44:55Z</time>
      </trkpt>
      <trkpt lat="43.47906" lon="2.25107">
        <ele>779</ele>
        <time>2019-03-30T16:44:56Z</time>
      </trkpt>
      <trkpt lat="43.4791" lon="2.25095">
        <ele>778</ele>
        <time>2019-03-30T16:46:01Z</time>
      </trkpt>
      <trkpt lat="43.4791" lon="2.25088">
        <ele>778</ele>
        <time>2019-03-30T16:46:02Z</time>
      </trkpt>
      <trkpt lat="43.47909" lon="2.25073">
        <ele>777</ele>
        <time>2019-03-30T16:46:04Z</time>
      </trkpt>
      <trkpt lat="43.47908" lon="2.25055">
        <ele>775</ele>
        <time>2019-03-30T16:46:06Z</time>
      </trkpt>
      <trkpt lat="43.47906" lon="2.25046">
        <ele>774</ele>
        <time>2019-03-30T16:46:07Z</time>
      </trkpt>
      <trkpt lat="43.47905" lon="2.25036">
        <ele>774</ele>
        <time>2019-03-30T16:46:08Z</time>
      </trkpt>
      <trkpt lat="43.47903" lon="2.25026">
        <ele>773</ele>
        <time>2019-03-30T16:46:09Z</time>
      </trkpt>
      <trkpt lat="43.47901" lon="2.25015">
        <ele>772</ele>
        <time>2019-03-30T16:46:10Z</time>
      </trkpt>
      <trkpt lat="43.47898" lon="2.24992">
        <ele>771</ele>
        <time>2019-03-30T16:46:12Z</time>
      </trkpt>
      <trkpt lat="43.47896" lon="2.2498">
        <ele>771</ele>
        <time>2019-03-30T16:46:13Z</time>
      </trkpt>
      <trkpt lat="43.47892" lon="2.24951">
        <ele>769</ele>
        <time>2019-03-30T16:46:15Z</time>
      </trkpt>
      <trkpt lat="43.4789" lon="2.24937">
        <ele>768</ele>
        <time>2019-03-30T16:46:16Z</time>
      </trkpt>
      <trkpt lat="43.47888" lon="2.24923">
        <ele>767</ele>
        <time>2019-03-30T16:46:17Z</time>
      </trkpt>
      <trkpt lat="43.47886" lon="2.24909">
        <ele>766</ele>
        <time>2019-03-30T16:46:18Z</time>
      </trkpt>
      <trkpt lat="43.47883" lon="2.24896">
        <ele>765</ele>
        <time>2019-03-30T16:46:19Z</time>
      </trkpt>
      <trkpt lat="43.47878" lon="2.24884">
        <ele>763</ele>
        <time>2019-03-30T16:46:20Z</time>
      </trkpt>
      <trkpt lat="43.47867" lon="2.2486">
        <ele>761</ele>
        <time>2019-03-30T16:46:22Z</time>
      </trkpt>
      <trkpt lat="43.47861" lon="2.2485">
        <ele>761</ele>
        <time>2019-03-30T16:46:23Z</time>
      </trkpt>
      <trkpt lat="43.47855" lon="2.2484">
        <ele>761</ele>
        <time>2019-03-30T16:46:24Z</time>
      </trkpt>
      <trkpt lat="43.47849" lon="2.24831">
        <ele>761</ele>
        <time>2019-03-30T16:46:25Z</time>
      </trkpt>
      <trkpt lat="43.47843" lon="2.24824">
        <ele>760</ele>
        <time>2019-03-30T16:46:26Z</time>
      </trkpt>
      <trkpt lat="43.47832" lon="2.24809">
        <ele>759</ele>
        <time>2019-03-30T16:46:28Z</time>
      </trkpt>
      <trkpt lat="43.47827" lon="2.248">
        <ele>758</ele>
        <time>2019-03-30T16:46:29Z</time>
      </trkpt>
      <trkpt lat="43.47821" lon="2.24782">
        <ele>757</ele>
        <time>2019-03-30T16:46:31Z</time>
      </trkpt>
      <trkpt lat="43.47821" lon="2.24771">
        <ele>756</ele>
        <time>2019-03-30T16:46:33Z</time>
      </trkpt>
      <trkpt lat="43.47822" lon="2.24767">
        <ele>756</ele>
        <time>2019-03-30T16:46:34Z</time>
      </trkpt>
      <trkpt lat="43.47822" lon="2.24763">
        <ele>756</ele>
        <time>2019-03-30T16:46:37Z</time>
      </trkpt>
      <trkpt lat="43.47818" lon="2.24753">
        <ele>756</ele>
        <time>2019-03-30T16:47:04Z</time>
      </trkpt>
      <trkpt lat="43.47812" lon="2.24754">
        <ele>757</ele>
        <time>2019-03-30T16:47:09Z</time>
      </trkpt>
      <trkpt lat="43.4781" lon="2.24754">
        <ele>757</ele>
        <time>2019-03-30T16:47:10Z</time>
      </trkpt>
      <trkpt lat="43.47805" lon="2.24756">
        <ele>758</ele>
        <time>2019-03-30T16:47:14Z</time>
      </trkpt>
      <trkpt lat="43.47801" lon="2.24756">
        <ele>759</ele>
        <time>2019-03-30T16:47:17Z</time>
      </trkpt>
      <trkpt lat="43.478" lon="2.24756">
        <ele>759</ele>
        <time>2019-03-30T16:47:18Z</time>
      </trkpt>
      <trkpt lat="43.47796" lon="2.24755">
        <ele>760</ele>
        <time>2019-03-30T16:47:21Z</time>
      </trkpt>
      <trkpt lat="43.47795" lon="2.24754">
        <ele>760</ele>
        <time>2019-03-30T16:47:22Z</time>
      </trkpt>
      <trkpt lat="43.47793" lon="2.24753">
        <ele>760</ele>
        <time>2019-03-30T16:47:24Z</time>
      </trkpt>
      <trkpt lat="43.47787" lon="2.24753">
        <ele>761</ele>
        <time>2019-03-30T16:47:28Z</time>
      </trkpt>
      <trkpt lat="43.47785" lon="2.24752">
        <ele>761</ele>
        <time>2019-03-30T16:47:30Z</time>
      </trkpt>
      <trkpt lat="43.47777" lon="2.24752">
        <ele>761</ele>
        <time>2019-03-30T16:47:34Z</time>
      </trkpt>
      <trkpt lat="43.47775" lon="2.24751">
        <ele>762</ele>
        <time>2019-03-30T16:47:35Z</time>
      </trkpt>
      <trkpt lat="43.47773" lon="2.24751">
        <ele>762</ele>
        <time>2019-03-30T16:47:36Z</time>
      </trkpt>
      <trkpt lat="43.47769" lon="2.2475">
        <ele>762</ele>
        <time>2019-03-30T16:47:39Z</time>
      </trkpt>
      <trkpt lat="43.47768" lon="2.2475">
        <ele>763</ele>
        <time>2019-03-30T16:47:40Z</time>
      </trkpt>
      <trkpt lat="43.47766" lon="2.2475">
        <ele>763</ele>
        <time>2019-03-30T16:47:41Z</time>
      </trkpt>
      <trkpt lat="43.47757" lon="2.24749">
        <ele>763</ele>
        <time>2019-03-30T16:47:46Z</time>
      </trkpt>
      <trkpt lat="43.47752" lon="2.2475">
        <ele>764</ele>
        <time>2019-03-30T16:47:49Z</time>
      </trkpt>
      <trkpt lat="43.47751" lon="2.2475">
        <ele>764</ele>
        <time>2019-03-30T16:47:50Z</time>
      </trkpt>
      <trkpt lat="43.4775" lon="2.24746">
        <ele>765</ele>
        <time>2019-03-30T16:47:54Z</time>
      </trkpt>
      <trkpt lat="43.47753" lon="2.24742">
        <ele>766</ele>
        <time>2019-03-30T16:48:27Z</time>
      </trkpt>
      <trkpt lat="43.47754" lon="2.24738">
        <ele>766</ele>
        <time>2019-03-30T16:48:30Z</time>
      </trkpt>
      <trkpt lat="43.47756" lon="2.24731">
        <ele>766</ele>
        <time>2019-03-30T16:48:37Z</time>
      </trkpt>
      <trkpt lat="43.47757" lon="2.24725">
        <ele>767</ele>
        <time>2019-03-30T16:48:42Z</time>
      </trkpt>
      <trkpt lat="43.4776" lon="2.24722">
        <ele>767</ele>
        <time>2019-03-30T16:48:46Z</time>
      </trkpt>
      <trkpt lat="43.47761" lon="2.24717">
        <ele>767</ele>
        <time>2019-03-30T16:48:50Z</time>
      </trkpt>
      <trkpt lat="43.47762" lon="2.24714">
        <ele>768</ele>
        <time>2019-03-30T16:48:52Z</time>
      </trkpt>
      <trkpt lat="43.47762" lon="2.24714">
        <ele>768</ele>
        <time>2019-03-30T16:48:54Z</time>
      </trkpt>
      <trkpt lat="43.47763" lon="2.24712">
        <ele>768</ele>
        <time>2019-03-30T16:48:56Z</time>
      </trkpt>
      <trkpt lat="43.47765" lon="2.24707">
        <ele>768</ele>
        <time>2019-03-30T16:49:00Z</time>
      </trkpt>
      <trkpt lat="43.47768" lon="2.24705">
        <ele>768</ele>
        <time>2019-03-30T16:49:02Z</time>
      </trkpt>
      <trkpt lat="43.47772" lon="2.24698">
        <ele>768</ele>
        <time>2019-03-30T16:49:06Z</time>
      </trkpt>
      <trkpt lat="43.47772" lon="2.24695">
        <ele>768</ele>
        <time>2019-03-30T16:49:07Z</time>
      </trkpt>
      <trkpt lat="43.4777" lon="2.24686">
        <ele>766</ele>
        <time>2019-03-30T16:49:11Z</time>
      </trkpt>
      <trkpt lat="43.4777" lon="2.24684">
        <ele>766</ele>
        <time>2019-03-30T16:49:12Z</time>
      </trkpt>
      <trkpt lat="43.4777" lon="2.24682">
        <ele>766</ele>
        <time>2019-03-30T16:49:13Z</time>
      </trkpt>
      <trkpt lat="43.47766" lon="2.2468">
        <ele>765</ele>
        <time>2019-03-30T16:49:16Z</time>
      </trkpt>
      <trkpt lat="43.47765" lon="2.2468">
        <ele>765</ele>
        <time>2019-03-30T16:49:17Z</time>
      </trkpt>
      <trkpt lat="43.47761" lon="2.24682">
        <ele>765</ele>
        <time>2019-03-30T16:49:21Z</time>
      </trkpt>
      <trkpt lat="43.4776" lon="2.24682">
        <ele>765</ele>
        <time>2019-03-30T16:49:22Z</time>
      </trkpt>
      <trkpt lat="43.47755" lon="2.24678">
        <ele>766</ele>
        <time>2019-03-30T16:49:26Z</time>
      </trkpt>
      <trkpt lat="43.47747" lon="2.24672">
        <ele>764</ele>
        <time>2019-03-30T16:49:30Z</time>
      </trkpt>
      <trkpt lat="43.47745" lon="2.24669">
        <ele>762</ele>
        <time>2019-03-30T16:49:31Z</time>
      </trkpt>
      <trkpt lat="43.47743" lon="2.24665">
        <ele>761</ele>
        <time>2019-03-30T16:49:32Z</time>
      </trkpt>
      <trkpt lat="43.4774" lon="2.24661">
        <ele>758</ele>
        <time>2019-03-30T16:49:33Z</time>
      </trkpt>
      <trkpt lat="43.47738" lon="2.24656">
        <ele>756</ele>
        <time>2019-03-30T16:49:34Z</time>
      </trkpt>
      <trkpt lat="43.47736" lon="2.24651">
        <ele>754</ele>
        <time>2019-03-30T16:49:35Z</time>
      </trkpt>
      <trkpt lat="43.47735" lon="2.24644">
        <ele>752</ele>
        <time>2019-03-30T16:49:36Z</time>
      </trkpt>
      <trkpt lat="43.47735" lon="2.24629">
        <ele>750</ele>
        <time>2019-03-30T16:49:38Z</time>
      </trkpt>
      <trkpt lat="43.47743" lon="2.24614">
        <ele>749</ele>
        <time>2019-03-30T16:49:40Z</time>
      </trkpt>
      <trkpt lat="43.47747" lon="2.24606">
        <ele>748</ele>
        <time>2019-03-30T16:49:41Z</time>
      </trkpt>
      <trkpt lat="43.47752" lon="2.24598">
        <ele>748</ele>
        <time>2019-03-30T16:49:42Z</time>
      </trkpt>
      <trkpt lat="43.47765" lon="2.24574">
        <ele>746</ele>
        <time>2019-03-30T16:49:45Z</time>
      </trkpt>
      <trkpt lat="43.47769" lon="2.24568">
        <ele>746</ele>
        <time>2019-03-30T16:49:46Z</time>
      </trkpt>
      <trkpt lat="43.47783" lon="2.2455">
        <ele>745</ele>
        <time>2019-03-30T16:49:49Z</time>
      </trkpt>
      <trkpt lat="43.47792" lon="2.24539">
        <ele>744</ele>
        <time>2019-03-30T16:49:51Z</time>
      </trkpt>
      <trkpt lat="43.47796" lon="2.24534">
        <ele>744</ele>
        <time>2019-03-30T16:49:52Z</time>
      </trkpt>
      <trkpt lat="43.47805" lon="2.24525">
        <ele>743</ele>
        <time>2019-03-30T16:49:55Z</time>
      </trkpt>
      <trkpt lat="43.47811" lon="2.24521">
        <ele>742</ele>
        <time>2019-03-30T16:49:59Z</time>
      </trkpt>
      <trkpt lat="43.47812" lon="2.24519">
        <ele>742</ele>
        <time>2019-03-30T16:50:01Z</time>
      </trkpt>
      <trkpt lat="43.47818" lon="2.24516">
        <ele>741</ele>
        <time>2019-03-30T16:50:18Z</time>
      </trkpt>
      <trkpt lat="43.47821" lon="2.24515">
        <ele>741</ele>
        <time>2019-03-30T16:50:19Z</time>
      </trkpt>
      <trkpt lat="43.47837" lon="2.24512">
        <ele>741</ele>
        <time>2019-03-30T16:50:24Z</time>
      </trkpt>
      <trkpt lat="43.47851" lon="2.24508">
        <ele>740</ele>
        <time>2019-03-30T16:50:28Z</time>
      </trkpt>
      <trkpt lat="43.47864" lon="2.24505">
        <ele>739</ele>
        <time>2019-03-30T16:50:31Z</time>
      </trkpt>
      <trkpt lat="43.47879" lon="2.24503">
        <ele>737</ele>
        <time>2019-03-30T16:50:34Z</time>
      </trkpt>
      <trkpt lat="43.47897" lon="2.24501">
        <ele>736</ele>
        <time>2019-03-30T16:50:37Z</time>
      </trkpt>
      <trkpt lat="43.47911" lon="2.24499">
        <ele>736</ele>
        <time>2019-03-30T16:50:39Z</time>
      </trkpt>
      <trkpt lat="43.47919" lon="2.24497">
        <ele>735</ele>
        <time>2019-03-30T16:50:40Z</time>
      </trkpt>
      <trkpt lat="43.47935" lon="2.24493">
        <ele>734</ele>
        <time>2019-03-30T16:50:42Z</time>
      </trkpt>
      <trkpt lat="43.47944" lon="2.24493">
        <ele>733</ele>
        <time>2019-03-30T16:50:43Z</time>
      </trkpt>
      <trkpt lat="43.47953" lon="2.24494">
        <ele>733</ele>
        <time>2019-03-30T16:50:44Z</time>
      </trkpt>
      <trkpt lat="43.47972" lon="2.24496">
        <ele>732</ele>
        <time>2019-03-30T16:50:46Z</time>
      </trkpt>
      <trkpt lat="43.47981" lon="2.24496">
        <ele>731</ele>
        <time>2019-03-30T16:50:47Z</time>
      </trkpt>
      <trkpt lat="43.4799" lon="2.24497">
        <ele>730</ele>
        <time>2019-03-30T16:50:48Z</time>
      </trkpt>
      <trkpt lat="43.48004" lon="2.245">
        <ele>730</ele>
        <time>2019-03-30T16:50:50Z</time>
      </trkpt>
      <trkpt lat="43.48019" lon="2.24493">
        <ele>729</ele>
        <time>2019-03-30T16:50:53Z</time>
      </trkpt>
      <trkpt lat="43.48019" lon="2.24475">
        <ele>729</ele>
        <time>2019-03-30T16:50:56Z</time>
      </trkpt>
      <trkpt lat="43.48016" lon="2.2447">
        <ele>728</ele>
        <time>2019-03-30T16:50:57Z</time>
      </trkpt>
      <trkpt lat="43.48008" lon="2.2446">
        <ele>727</ele>
        <time>2019-03-30T16:50:59Z</time>
      </trkpt>
      <trkpt lat="43.48004" lon="2.24455">
        <ele>726</ele>
        <time>2019-03-30T16:51:00Z</time>
      </trkpt>
      <trkpt lat="43.48" lon="2.24449">
        <ele>726</ele>
        <time>2019-03-30T16:51:01Z</time>
      </trkpt>
      <trkpt lat="43.47997" lon="2.24444">
        <ele>725</ele>
        <time>2019-03-30T16:51:02Z</time>
      </trkpt>
      <trkpt lat="43.47994" lon="2.24437">
        <ele>725</ele>
        <time>2019-03-30T16:51:03Z</time>
      </trkpt>
      <trkpt lat="43.47992" lon="2.2443">
        <ele>724</ele>
        <time>2019-03-30T16:51:04Z</time>
      </trkpt>
      <trkpt lat="43.47987" lon="2.24412">
        <ele>723</ele>
        <time>2019-03-30T16:51:06Z</time>
      </trkpt>
      <trkpt lat="43.4798" lon="2.24395">
        <ele>722</ele>
        <time>2019-03-30T16:51:08Z</time>
      </trkpt>
      <trkpt lat="43.4797" lon="2.24381">
        <ele>720</ele>
        <time>2019-03-30T16:51:10Z</time>
      </trkpt>
      <trkpt lat="43.47964" lon="2.24376">
        <ele>719</ele>
        <time>2019-03-30T16:51:11Z</time>
      </trkpt>
      <trkpt lat="43.47957" lon="2.24373">
        <ele>718</ele>
        <time>2019-03-30T16:51:12Z</time>
      </trkpt>
      <trkpt lat="43.4795" lon="2.24371">
        <ele>717</ele>
        <time>2019-03-30T16:51:13Z</time>
      </trkpt>
      <trkpt lat="43.47944" lon="2.2437">
        <ele>716</ele>
        <time>2019-03-30T16:51:14Z</time>
      </trkpt>
      <trkpt lat="43.47938" lon="2.24371">
        <ele>715</ele>
        <time>2019-03-30T16:51:15Z</time>
      </trkpt>
      <trkpt lat="43.47931" lon="2.24375">
        <ele>714</ele>
        <time>2019-03-30T16:51:16Z</time>
      </trkpt>
      <trkpt lat="43.47925" lon="2.2438">
        <ele>713</ele>
        <time>2019-03-30T16:51:17Z</time>
      </trkpt>
      <trkpt lat="43.47918" lon="2.24384">
        <ele>712</ele>
        <time>2019-03-30T16:51:18Z</time>
      </trkpt>
      <trkpt lat="43.47902" lon="2.2439">
        <ele>712</ele>
        <time>2019-03-30T16:51:20Z</time>
      </trkpt>
      <trkpt lat="43.47886" lon="2.24392">
        <ele>710</ele>
        <time>2019-03-30T16:51:22Z</time>
      </trkpt>
      <trkpt lat="43.47869" lon="2.2439">
        <ele>709</ele>
        <time>2019-03-30T16:51:24Z</time>
      </trkpt>
      <trkpt lat="43.47859" lon="2.24387">
        <ele>708</ele>
        <time>2019-03-30T16:51:25Z</time>
      </trkpt>
      <trkpt lat="43.4785" lon="2.24383">
        <ele>707</ele>
        <time>2019-03-30T16:51:26Z</time>
      </trkpt>
      <trkpt lat="43.47842" lon="2.24382">
        <ele>705</ele>
        <time>2019-03-30T16:51:27Z</time>
      </trkpt>
      <trkpt lat="43.47834" lon="2.24382">
        <ele>704</ele>
        <time>2019-03-30T16:51:28Z</time>
      </trkpt>
      <trkpt lat="43.47818" lon="2.24386">
        <ele>703</ele>
        <time>2019-03-30T16:51:30Z</time>
      </trkpt>
      <trkpt lat="43.47811" lon="2.2439">
        <ele>702</ele>
        <time>2019-03-30T16:51:31Z</time>
      </trkpt>
      <trkpt lat="43.47803" lon="2.24392">
        <ele>702</ele>
        <time>2019-03-30T16:51:32Z</time>
      </trkpt>
      <trkpt lat="43.47795" lon="2.24393">
        <ele>701</ele>
        <time>2019-03-30T16:51:33Z</time>
      </trkpt>
      <trkpt lat="43.4779" lon="2.24389">
        <ele>701</ele>
        <time>2019-03-30T16:51:34Z</time>
      </trkpt>
      <trkpt lat="43.47786" lon="2.24383">
        <ele>700</ele>
        <time>2019-03-30T16:51:35Z</time>
      </trkpt>
      <trkpt lat="43.47782" lon="2.24376">
        <ele>700</ele>
        <time>2019-03-30T16:51:36Z</time>
      </trkpt>
      <trkpt lat="43.47783" lon="2.24355">
        <ele>699</ele>
        <time>2019-03-30T16:51:39Z</time>
      </trkpt>
      <trkpt lat="43.47785" lon="2.24352">
        <ele>699</ele>
        <time>2019-03-30T16:51:40Z</time>
      </trkpt>
      <trkpt lat="43.47787" lon="2.24343">
        <ele>700</ele>
        <time>2019-03-30T16:51:43Z</time>
      </trkpt>
      <trkpt lat="43.47788" lon="2.24333">
        <ele>700</ele>
        <time>2019-03-30T16:51:46Z</time>
      </trkpt>
      <trkpt lat="43.4779" lon="2.24321">
        <ele>701</ele>
        <time>2019-03-30T16:51:50Z</time>
      </trkpt>
      <trkpt lat="43.47793" lon="2.24314">
        <ele>701</ele>
        <time>2019-03-30T16:51:53Z</time>
      </trkpt>
      <trkpt lat="43.47795" lon="2.24306">
        <ele>701</ele>
        <time>2019-03-30T16:51:56Z</time>
      </trkpt>
      <trkpt lat="43.47797" lon="2.24303">
        <ele>701</ele>
        <time>2019-03-30T16:51:57Z</time>
      </trkpt>
      <trkpt lat="43.47801" lon="2.24294">
        <ele>703</ele>
        <time>2019-03-30T16:52:00Z</time>
      </trkpt>
      <trkpt lat="43.47803" lon="2.24285">
        <ele>703</ele>
        <time>2019-03-30T16:52:03Z</time>
      </trkpt>
      <trkpt lat="43.47805" lon="2.24279">
        <ele>704</ele>
        <time>2019-03-30T16:52:05Z</time>
      </trkpt>
      <trkpt lat="43.47807" lon="2.24266">
        <ele>704</ele>
        <time>2019-03-30T16:52:09Z</time>
      </trkpt>
      <trkpt lat="43.47806" lon="2.24262">
        <ele>704</ele>
        <time>2019-03-30T16:52:10Z</time>
      </trkpt>
      <trkpt lat="43.47802" lon="2.24242">
        <ele>705</ele>
        <time>2019-03-30T16:52:15Z</time>
      </trkpt>
      <trkpt lat="43.478" lon="2.24234">
        <ele>705</ele>
        <time>2019-03-30T16:52:17Z</time>
      </trkpt>
      <trkpt lat="43.47795" lon="2.2422">
        <ele>705</ele>
        <time>2019-03-30T16:52:21Z</time>
      </trkpt>
      <trkpt lat="43.47793" lon="2.24207">
        <ele>706</ele>
        <time>2019-03-30T16:52:25Z</time>
      </trkpt>
      <trkpt lat="43.47791" lon="2.24201">
        <ele>706</ele>
        <time>2019-03-30T16:52:27Z</time>
      </trkpt>
      <trkpt lat="43.47785" lon="2.24182">
        <ele>706</ele>
        <time>2019-03-30T16:52:32Z</time>
      </trkpt>
      <trkpt lat="43.47772" lon="2.24156">
        <ele>707</ele>
        <time>2019-03-30T16:52:39Z</time>
      </trkpt>
      <trkpt lat="43.47761" lon="2.24138">
        <ele>707</ele>
        <time>2019-03-30T16:52:44Z</time>
      </trkpt>
      <trkpt lat="43.47754" lon="2.24128">
        <ele>707</ele>
        <time>2019-03-30T16:52:47Z</time>
      </trkpt>
      <trkpt lat="43.47747" lon="2.24115">
        <ele>708</ele>
        <time>2019-03-30T16:52:51Z</time>
      </trkpt>
      <trkpt lat="43.47741" lon="2.24097">
        <ele>709</ele>
        <time>2019-03-30T16:52:57Z</time>
      </trkpt>
      <trkpt lat="43.47742" lon="2.24082">
        <ele>710</ele>
        <time>2019-03-30T16:53:04Z</time>
      </trkpt>
      <trkpt lat="43.47742" lon="2.24078">
        <ele>710</ele>
        <time>2019-03-30T16:53:08Z</time>
      </trkpt>
      <trkpt lat="43.47742" lon="2.2407">
        <ele>709</ele>
        <time>2019-03-30T16:53:58Z</time>
      </trkpt>
      <trkpt lat="43.47742" lon="2.24065">
        <ele>709</ele>
        <time>2019-03-30T16:53:59Z</time>
      </trkpt>
      <trkpt lat="43.47741" lon="2.24051">
        <ele>708</ele>
        <time>2019-03-30T16:54:02Z</time>
      </trkpt>
      <trkpt lat="43.47739" lon="2.2404">
        <ele>707</ele>
        <time>2019-03-30T16:54:05Z</time>
      </trkpt>
      <trkpt lat="43.47737" lon="2.2402">
        <ele>706</ele>
        <time>2019-03-30T16:54:09Z</time>
      </trkpt>
      <trkpt lat="43.47736" lon="2.24014">
        <ele>706</ele>
        <time>2019-03-30T16:54:10Z</time>
      </trkpt>
      <trkpt lat="43.47735" lon="2.23988">
        <ele>705</ele>
        <time>2019-03-30T16:54:14Z</time>
      </trkpt>
      <trkpt lat="43.47736" lon="2.23979">
        <ele>705</ele>
        <time>2019-03-30T16:54:15Z</time>
      </trkpt>
      <trkpt lat="43.47737" lon="2.23937">
        <ele>705</ele>
        <time>2019-03-30T16:54:19Z</time>
      </trkpt>
      <trkpt lat="43.4774" lon="2.23925">
        <ele>705</ele>
        <time>2019-03-30T16:54:20Z</time>
      </trkpt>
      <trkpt lat="43.47743" lon="2.23914">
        <ele>704</ele>
        <time>2019-03-30T16:54:21Z</time>
      </trkpt>
      <trkpt lat="43.47751" lon="2.23897">
        <ele>703</ele>
        <time>2019-03-30T16:54:23Z</time>
      </trkpt>
      <trkpt lat="43.47769" lon="2.23883">
        <ele>701</ele>
        <time>2019-03-30T16:54:25Z</time>
      </trkpt>
      <trkpt lat="43.47777" lon="2.23877">
        <ele>700</ele>
        <time>2019-03-30T16:54:26Z</time>
      </trkpt>
      <trkpt lat="43.47785" lon="2.23869">
        <ele>698</ele>
        <time>2019-03-30T16:54:27Z</time>
      </trkpt>
      <trkpt lat="43.47792" lon="2.2386">
        <ele>698</ele>
        <time>2019-03-30T16:54:28Z</time>
      </trkpt>
      <trkpt lat="43.47799" lon="2.2385">
        <ele>697</ele>
        <time>2019-03-30T16:54:29Z</time>
      </trkpt>
      <trkpt lat="43.47813" lon="2.23829">
        <ele>694</ele>
        <time>2019-03-30T16:54:31Z</time>
      </trkpt>
      <trkpt lat="43.47821" lon="2.23821">
        <ele>693</ele>
        <time>2019-03-30T16:54:32Z</time>
      </trkpt>
      <trkpt lat="43.47828" lon="2.23814">
        <ele>691</ele>
        <time>2019-03-30T16:54:33Z</time>
      </trkpt>
      <trkpt lat="43.47844" lon="2.23797">
        <ele>690</ele>
        <time>2019-03-30T16:54:35Z</time>
      </trkpt>
      <trkpt lat="43.47852" lon="2.23788">
        <ele>689</ele>
        <time>2019-03-30T16:54:36Z</time>
      </trkpt>
      <trkpt lat="43.47861" lon="2.23779">
        <ele>689</ele>
        <time>2019-03-30T16:54:37Z</time>
      </trkpt>
      <trkpt lat="43.47879" lon="2.23761">
        <ele>688</ele>
        <time>2019-03-30T16:54:39Z</time>
      </trkpt>
      <trkpt lat="43.47889" lon="2.23753">
        <ele>687</ele>
        <time>2019-03-30T16:54:40Z</time>
      </trkpt>
      <trkpt lat="43.47899" lon="2.23745">
        <ele>686</ele>
        <time>2019-03-30T16:54:41Z</time>
      </trkpt>
      <trkpt lat="43.47907" lon="2.23735">
        <ele>685</ele>
        <time>2019-03-30T16:54:42Z</time>
      </trkpt>
      <trkpt lat="43.47915" lon="2.23725">
        <ele>684</ele>
        <time>2019-03-30T16:54:43Z</time>
      </trkpt>
      <trkpt lat="43.47922" lon="2.23714">
        <ele>683</ele>
        <time>2019-03-30T16:54:44Z</time>
      </trkpt>
      <trkpt lat="43.4793" lon="2.23701">
        <ele>682</ele>
        <time>2019-03-30T16:54:45Z</time>
      </trkpt>
      <trkpt lat="43.47936" lon="2.23687">
        <ele>681</ele>
        <time>2019-03-30T16:54:46Z</time>
      </trkpt>
      <trkpt lat="43.47943" lon="2.23674">
        <ele>681</ele>
        <time>2019-03-30T16:54:47Z</time>
      </trkpt>
      <trkpt lat="43.47949" lon="2.23661">
        <ele>680</ele>
        <time>2019-03-30T16:54:48Z</time>
      </trkpt>
      <trkpt lat="43.47962" lon="2.23633">
        <ele>678</ele>
        <time>2019-03-30T16:54:50Z</time>
      </trkpt>
      <trkpt lat="43.47969" lon="2.2362">
        <ele>677</ele>
        <time>2019-03-30T16:54:51Z</time>
      </trkpt>
      <trkpt lat="43.47977" lon="2.23607">
        <ele>676</ele>
        <time>2019-03-30T16:54:52Z</time>
      </trkpt>
      <trkpt lat="43.47984" lon="2.23594">
        <ele>675</ele>
        <time>2019-03-30T16:54:53Z</time>
      </trkpt>
      <trkpt lat="43.48" lon="2.23569">
        <ele>674</ele>
        <time>2019-03-30T16:54:55Z</time>
      </trkpt>
      <trkpt lat="43.48017" lon="2.23546">
        <ele>672</ele>
        <time>2019-03-30T16:54:57Z</time>
      </trkpt>
      <trkpt lat="43.48026" lon="2.23536">
        <ele>671</ele>
        <time>2019-03-30T16:54:58Z</time>
      </trkpt>
      <trkpt lat="43.48036" lon="2.23528">
        <ele>671</ele>
        <time>2019-03-30T16:54:59Z</time>
      </trkpt>
      <trkpt lat="43.48055" lon="2.23514">
        <ele>669</ele>
        <time>2019-03-30T16:55:01Z</time>
      </trkpt>
      <trkpt lat="43.48064" lon="2.23508">
        <ele>668</ele>
        <time>2019-03-30T16:55:02Z</time>
      </trkpt>
      <trkpt lat="43.48072" lon="2.23504">
        <ele>666</ele>
        <time>2019-03-30T16:55:03Z</time>
      </trkpt>
      <trkpt lat="43.48091" lon="2.23501">
        <ele>665</ele>
        <time>2019-03-30T16:55:05Z</time>
      </trkpt>
      <trkpt lat="43.48121" lon="2.23503">
        <ele>664</ele>
        <time>2019-03-30T16:55:08Z</time>
      </trkpt>
      <trkpt lat="43.48131" lon="2.23504">
        <ele>663</ele>
        <time>2019-03-30T16:55:09Z</time>
      </trkpt>
      <trkpt lat="43.48141" lon="2.23507">
        <ele>663</ele>
        <time>2019-03-30T16:55:10Z</time>
      </trkpt>
      <trkpt lat="43.48161" lon="2.23516">
        <ele>661</ele>
        <time>2019-03-30T16:55:12Z</time>
      </trkpt>
      <trkpt lat="43.48171" lon="2.23521">
        <ele>659</ele>
        <time>2019-03-30T16:55:13Z</time>
      </trkpt>
      <trkpt lat="43.48179" lon="2.23528">
        <ele>658</ele>
        <time>2019-03-30T16:55:14Z</time>
      </trkpt>
      <trkpt lat="43.48188" lon="2.23533">
        <ele>656</ele>
        <time>2019-03-30T16:55:15Z</time>
      </trkpt>
      <trkpt lat="43.48199" lon="2.23537">
        <ele>655</ele>
        <time>2019-03-30T16:55:16Z</time>
      </trkpt>
      <trkpt lat="43.48209" lon="2.23541">
        <ele>653</ele>
        <time>2019-03-30T16:55:17Z</time>
      </trkpt>
      <trkpt lat="43.48219" lon="2.23544">
        <ele>652</ele>
        <time>2019-03-30T16:55:18Z</time>
      </trkpt>
      <trkpt lat="43.48228" lon="2.23549">
        <ele>651</ele>
        <time>2019-03-30T16:55:19Z</time>
      </trkpt>
      <trkpt lat="43.48239" lon="2.23553">
        <ele>650</ele>
        <time>2019-03-30T16:55:20Z</time>
      </trkpt>
      <trkpt lat="43.4825" lon="2.23557">
        <ele>649</ele>
        <time>2019-03-30T16:55:21Z</time>
      </trkpt>
      <trkpt lat="43.48265" lon="2.23561">
        <ele>648</ele>
        <time>2019-03-30T16:55:22Z</time>
      </trkpt>
      <trkpt lat="43.48275" lon="2.23565">
        <ele>647</ele>
        <time>2019-03-30T16:55:23Z</time>
      </trkpt>
      <trkpt lat="43.48285" lon="2.23571">
        <ele>647</ele>
        <time>2019-03-30T16:55:24Z</time>
      </trkpt>
      <trkpt lat="43.48291" lon="2.23579">
        <ele>645</ele>
        <time>2019-03-30T16:55:25Z</time>
      </trkpt>
      <trkpt lat="43.48298" lon="2.23595">
        <ele>644</ele>
        <time>2019-03-30T16:55:27Z</time>
      </trkpt>
      <trkpt lat="43.48304" lon="2.23607">
        <ele>643</ele>
        <time>2019-03-30T16:55:29Z</time>
      </trkpt>
      <trkpt lat="43.48307" lon="2.23608">
        <ele>643</ele>
        <time>2019-03-30T16:55:30Z</time>
      </trkpt>
      <trkpt lat="43.48307" lon="2.23603">
        <ele>643</ele>
        <time>2019-03-30T16:55:32Z</time>
      </trkpt>
      <trkpt lat="43.48308" lon="2.23599">
        <ele>644</ele>
        <time>2019-03-30T16:55:36Z</time>
      </trkpt>
      <trkpt lat="43.48307" lon="2.23592">
        <ele>643</ele>
        <time>2019-03-30T16:55:41Z</time>
      </trkpt>
      <trkpt lat="43.48306" lon="2.23589">
        <ele>643</ele>
        <time>2019-03-30T16:55:42Z</time>
      </trkpt>
      <trkpt lat="43.48306" lon="2.23586">
        <ele>643</ele>
        <time>2019-03-30T16:55:43Z</time>
      </trkpt>
      <trkpt lat="43.48305" lon="2.23583">
        <ele>643</ele>
        <time>2019-03-30T16:55:46Z</time>
      </trkpt>
      <trkpt lat="43.48305" lon="2.23581">
        <ele>642</ele>
        <time>2019-03-30T16:55:56Z</time>
      </trkpt>
      <trkpt lat="43.48306" lon="2.2358">
        <ele>642</ele>
        <time>2019-03-30T16:55:57Z</time>
      </trkpt>
      <trkpt lat="43.48308" lon="2.23581">
        <ele>642</ele>
        <time>2019-03-30T16:55:58Z</time>
      </trkpt>
      <trkpt lat="43.4831" lon="2.23582">
        <ele>641</ele>
        <time>2019-03-30T16:56:00Z</time>
      </trkpt>
      <trkpt lat="43.48312" lon="2.23582">
        <ele>640</ele>
        <time>2019-03-30T16:56:01Z</time>
      </trkpt>
      <trkpt lat="43.48314" lon="2.23582">
        <ele>639</ele>
        <time>2019-03-30T16:56:02Z</time>
      </trkpt>
      <trkpt lat="43.48317" lon="2.23582">
        <ele>637</ele>
        <time>2019-03-30T16:56:03Z</time>
      </trkpt>
      <trkpt lat="43.48322" lon="2.2358">
        <ele>636</ele>
        <time>2019-03-30T16:56:04Z</time>
      </trkpt>
      <trkpt lat="43.48327" lon="2.23578">
        <ele>634</ele>
        <time>2019-03-30T16:56:05Z</time>
      </trkpt>
      <trkpt lat="43.48335" lon="2.23578">
        <ele>633</ele>
        <time>2019-03-30T16:56:06Z</time>
      </trkpt>
      <trkpt lat="43.48341" lon="2.23579">
        <ele>631</ele>
        <time>2019-03-30T16:56:07Z</time>
      </trkpt>
      <trkpt lat="43.48346" lon="2.23579">
        <ele>629</ele>
        <time>2019-03-30T16:56:08Z</time>
      </trkpt>
      <trkpt lat="43.48351" lon="2.23577">
        <ele>628</ele>
        <time>2019-03-30T16:56:09Z</time>
      </trkpt>
      <trkpt lat="43.48357" lon="2.23576">
        <ele>626</ele>
        <time>2019-03-30T16:56:10Z</time>
      </trkpt>
      <trkpt lat="43.48362" lon="2.23576">
        <ele>624</ele>
        <time>2019-03-30T16:56:11Z</time>
      </trkpt>
      <trkpt lat="43.48371" lon="2.23573">
        <ele>623</ele>
        <time>2019-03-30T16:56:12Z</time>
      </trkpt>
      <trkpt lat="43.48379" lon="2.23569">
        <ele>620</ele>
        <time>2019-03-30T16:56:13Z</time>
      </trkpt>
      <trkpt lat="43.48385" lon="2.23565">
        <ele>618</ele>
        <time>2019-03-30T16:56:14Z</time>
      </trkpt>
      <trkpt lat="43.4839" lon="2.23559">
        <ele>616</ele>
        <time>2019-03-30T16:56:15Z</time>
      </trkpt>
      <trkpt lat="43.48395" lon="2.23554">
        <ele>615</ele>
        <time>2019-03-30T16:56:16Z</time>
      </trkpt>
      <trkpt lat="43.48399" lon="2.23548">
        <ele>613</ele>
        <time>2019-03-30T16:56:17Z</time>
      </trkpt>
      <trkpt lat="43.48404" lon="2.23543">
        <ele>610</ele>
        <time>2019-03-30T16:56:18Z</time>
      </trkpt>
      <trkpt lat="43.48411" lon="2.23538">
        <ele>609</ele>
        <time>2019-03-30T16:56:19Z</time>
      </trkpt>
      <trkpt lat="43.48415" lon="2.23533">
        <ele>607</ele>
        <time>2019-03-30T16:56:20Z</time>
      </trkpt>
      <trkpt lat="43.4842" lon="2.23527">
        <ele>606</ele>
        <time>2019-03-30T16:56:21Z</time>
      </trkpt>
      <trkpt lat="43.48425" lon="2.23521">
        <ele>605</ele>
        <time>2019-03-30T16:56:22Z</time>
      </trkpt>
      <trkpt lat="43.48429" lon="2.23515">
        <ele>604</ele>
        <time>2019-03-30T16:56:23Z</time>
      </trkpt>
      <trkpt lat="43.48437" lon="2.23508">
        <ele>602</ele>
        <time>2019-03-30T16:56:25Z</time>
      </trkpt>
      <trkpt lat="43.48441" lon="2.23505">
        <ele>601</ele>
        <time>2019-03-30T16:56:26Z</time>
      </trkpt>
      <trkpt lat="43.48444" lon="2.23502">
        <ele>599</ele>
        <time>2019-03-30T16:56:27Z</time>
      </trkpt>
      <trkpt lat="43.4845" lon="2.235">
        <ele>597</ele>
        <time>2019-03-30T16:56:28Z</time>
      </trkpt>
      <trkpt lat="43.48455" lon="2.23497">
        <ele>595</ele>
        <time>2019-03-30T16:56:29Z</time>
      </trkpt>
      <trkpt lat="43.48459" lon="2.23496">
        <ele>594</ele>
        <time>2019-03-30T16:56:30Z</time>
      </trkpt>
      <trkpt lat="43.48464" lon="2.23492">
        <ele>592</ele>
        <time>2019-03-30T16:56:31Z</time>
      </trkpt>
      <trkpt lat="43.48468" lon="2.23489">
        <ele>590</ele>
        <time>2019-03-30T16:56:32Z</time>
      </trkpt>
      <trkpt lat="43.48471" lon="2.23485">
        <ele>589</ele>
        <time>2019-03-30T16:56:33Z</time>
      </trkpt>
      <trkpt lat="43.48474" lon="2.23483">
        <ele>588</ele>
        <time>2019-03-30T16:56:34Z</time>
      </trkpt>
      <trkpt lat="43.48477" lon="2.23483">
        <ele>587</ele>
        <time>2019-03-30T16:56:35Z</time>
      </trkpt>
      <trkpt lat="43.48483" lon="2.23486">
        <ele>585</ele>
        <time>2019-03-30T16:56:37Z</time>
      </trkpt>
      <trkpt lat="43.48487" lon="2.23487">
        <ele>584</ele>
        <time>2019-03-30T16:56:38Z</time>
      </trkpt>
      <trkpt lat="43.48494" lon="2.23488">
        <ele>582</ele>
        <time>2019-03-30T16:56:40Z</time>
      </trkpt>
      <trkpt lat="43.48497" lon="2.23488">
        <ele>581</ele>
        <time>2019-03-30T16:56:41Z</time>
      </trkpt>
      <trkpt lat="43.485" lon="2.23487">
        <ele>580</ele>
        <time>2019-03-30T16:56:42Z</time>
      </trkpt>
      <trkpt lat="43.48501" lon="2.23485">
        <ele>579</ele>
        <time>2019-03-30T16:56:43Z</time>
      </trkpt>
      <trkpt lat="43.48503" lon="2.23482">
        <ele>577</ele>
        <time>2019-03-30T16:56:44Z</time>
      </trkpt>
      <trkpt lat="43.48505" lon="2.23479">
        <ele>576</ele>
        <time>2019-03-30T16:56:45Z</time>
      </trkpt>
      <trkpt lat="43.48507" lon="2.23477">
        <ele>575</ele>
        <time>2019-03-30T16:56:46Z</time>
      </trkpt>
      <trkpt lat="43.48511" lon="2.23476">
        <ele>574</ele>
        <time>2019-03-30T16:56:47Z</time>
      </trkpt>
      <trkpt lat="43.48514" lon="2.23474">
        <ele>573</ele>
        <time>2019-03-30T16:56:48Z</time>
      </trkpt>
      <trkpt lat="43.48516" lon="2.23472">
        <ele>572</ele>
        <time>2019-03-30T16:56:49Z</time>
      </trkpt>
      <trkpt lat="43.48518" lon="2.23469">
        <ele>570</ele>
        <time>2019-03-30T16:56:50Z</time>
      </trkpt>
      <trkpt lat="43.48519" lon="2.23467">
        <ele>568</ele>
        <time>2019-03-30T16:56:51Z</time>
      </trkpt>
      <trkpt lat="43.4852" lon="2.23465">
        <ele>567</ele>
        <time>2019-03-30T16:56:52Z</time>
      </trkpt>
      <trkpt lat="43.48522" lon="2.23464">
        <ele>566</ele>
        <time>2019-03-30T16:56:53Z</time>
      </trkpt>
      <trkpt lat="43.48526" lon="2.2346">
        <ele>564</ele>
        <time>2019-03-30T16:56:55Z</time>
      </trkpt>
      <trkpt lat="43.48528" lon="2.23459">
        <ele>564</ele>
        <time>2019-03-30T16:56:56Z</time>
      </trkpt>
      <trkpt lat="43.48532" lon="2.23459">
        <ele>563</ele>
        <time>2019-03-30T16:56:57Z</time>
      </trkpt>
      <trkpt lat="43.48535" lon="2.23458">
        <ele>563</ele>
        <time>2019-03-30T16:56:58Z</time>
      </trkpt>
      <trkpt lat="43.48537" lon="2.23458">
        <ele>562</ele>
        <time>2019-03-30T16:56:59Z</time>
      </trkpt>
      <trkpt lat="43.48543" lon="2.23457">
        <ele>560</ele>
        <time>2019-03-30T16:57:01Z</time>
      </trkpt>
      <trkpt lat="43.48546" lon="2.23456">
        <ele>559</ele>
        <time>2019-03-30T16:57:03Z</time>
      </trkpt>
      <trkpt lat="43.48551" lon="2.23454">
        <ele>557</ele>
        <time>2019-03-30T16:57:06Z</time>
      </trkpt>
      <trkpt lat="43.48553" lon="2.23453">
        <ele>557</ele>
        <time>2019-03-30T16:57:07Z</time>
      </trkpt>
      <trkpt lat="43.48554" lon="2.23453">
        <ele>556</ele>
        <time>2019-03-30T16:57:08Z</time>
      </trkpt>
      <trkpt lat="43.48556" lon="2.23453">
        <ele>555</ele>
        <time>2019-03-30T16:57:09Z</time>
      </trkpt>
      <trkpt lat="43.48558" lon="2.23454">
        <ele>553</ele>
        <time>2019-03-30T16:57:11Z</time>
      </trkpt>
      <trkpt lat="43.48559" lon="2.23454">
        <ele>553</ele>
        <time>2019-03-30T16:57:12Z</time>
      </trkpt>
      <trkpt lat="43.48561" lon="2.23454">
        <ele>552</ele>
        <time>2019-03-30T16:57:13Z</time>
      </trkpt>
      <trkpt lat="43.48565" lon="2.23453">
        <ele>550</ele>
        <time>2019-03-30T16:57:15Z</time>
      </trkpt>
      <trkpt lat="43.4857" lon="2.23452">
        <ele>548</ele>
        <time>2019-03-30T16:57:17Z</time>
      </trkpt>
      <trkpt lat="43.48574" lon="2.23452">
        <ele>547</ele>
        <time>2019-03-30T16:57:19Z</time>
      </trkpt>
      <trkpt lat="43.48575" lon="2.23451">
        <ele>547</ele>
        <time>2019-03-30T16:57:20Z</time>
      </trkpt>
      <trkpt lat="43.48577" lon="2.2345">
        <ele>545</ele>
        <time>2019-03-30T16:57:21Z</time>
      </trkpt>
      <trkpt lat="43.4858" lon="2.23447">
        <ele>544</ele>
        <time>2019-03-30T16:57:23Z</time>
      </trkpt>
      <trkpt lat="43.48582" lon="2.23442">
        <ele>542</ele>
        <time>2019-03-30T16:57:25Z</time>
      </trkpt>
      <trkpt lat="43.48582" lon="2.23441">
        <ele>542</ele>
        <time>2019-03-30T16:57:26Z</time>
      </trkpt>
      <trkpt lat="43.48583" lon="2.23439">
        <ele>541</ele>
        <time>2019-03-30T16:57:27Z</time>
      </trkpt>
      <trkpt lat="43.48584" lon="2.23436">
        <ele>539</ele>
        <time>2019-03-30T16:57:29Z</time>
      </trkpt>
      <trkpt lat="43.48596" lon="2.23423">
        <ele>532</ele>
        <time>2019-03-30T16:57:48Z</time>
      </trkpt>
      <trkpt lat="43.48595" lon="2.23424">
        <ele>531</ele>
        <time>2019-03-30T16:57:49Z</time>
      </trkpt>
      <trkpt lat="43.48595" lon="2.23423">
        <ele>531</ele>
        <time>2019-03-30T16:57:51Z</time>
      </trkpt>
      <trkpt lat="43.48597" lon="2.23421">
        <ele>530</ele>
        <time>2019-03-30T16:57:53Z</time>
      </trkpt>
      <trkpt lat="43.48598" lon="2.23421">
        <ele>530</ele>
        <time>2019-03-30T16:57:54Z</time>
      </trkpt>
      <trkpt lat="43.48602" lon="2.23421">
        <ele>528</ele>
        <time>2019-03-30T16:57:57Z</time>
      </trkpt>
      <trkpt lat="43.48604" lon="2.2342">
        <ele>528</ele>
        <time>2019-03-30T16:57:58Z</time>
      </trkpt>
      <trkpt lat="43.48609" lon="2.2342">
        <ele>527</ele>
        <time>2019-03-30T16:58:01Z</time>
      </trkpt>
      <trkpt lat="43.48612" lon="2.23417">
        <ele>526</ele>
        <time>2019-03-30T16:58:04Z</time>
      </trkpt>
      <trkpt lat="43.48612" lon="2.23415">
        <ele>525</ele>
        <time>2019-03-30T16:58:05Z</time>
      </trkpt>
      <trkpt lat="43.48614" lon="2.23412">
        <ele>525</ele>
        <time>2019-03-30T16:58:07Z</time>
      </trkpt>
      <trkpt lat="43.48617" lon="2.23409">
        <ele>523</ele>
        <time>2019-03-30T16:58:11Z</time>
      </trkpt>
      <trkpt lat="43.48618" lon="2.23409">
        <ele>523</ele>
        <time>2019-03-30T16:58:12Z</time>
      </trkpt>
      <trkpt lat="43.48621" lon="2.2341">
        <ele>522</ele>
        <time>2019-03-30T16:58:14Z</time>
      </trkpt>
      <trkpt lat="43.48629" lon="2.23411">
        <ele>521</ele>
        <time>2019-03-30T16:58:21Z</time>
      </trkpt>
      <trkpt lat="43.48632" lon="2.23408">
        <ele>520</ele>
        <time>2019-03-30T16:58:25Z</time>
      </trkpt>
      <trkpt lat="43.48635" lon="2.23407">
        <ele>519</ele>
        <time>2019-03-30T16:58:30Z</time>
      </trkpt>
      <trkpt lat="43.48635" lon="2.23407">
        <ele>519</ele>
        <time>2019-03-30T16:58:31Z</time>
      </trkpt>
      <trkpt lat="43.48636" lon="2.23407">
        <ele>519</ele>
        <time>2019-03-30T16:58:32Z</time>
      </trkpt>
      <trkpt lat="43.48633" lon="2.23406">
        <ele>515</ele>
        <time>2019-03-30T17:06:44Z</time>
      </trkpt>
      <trkpt lat="43.48635" lon="2.23406">
        <ele>514</ele>
        <time>2019-03-30T17:06:45Z</time>
      </trkpt>
      <trkpt lat="43.48638" lon="2.23407">
        <ele>512</ele>
        <time>2019-03-30T17:06:46Z</time>
      </trkpt>
      <trkpt lat="43.48643" lon="2.23408">
        <ele>511</ele>
        <time>2019-03-30T17:06:48Z</time>
      </trkpt>
      <trkpt lat="43.48649" lon="2.23405">
        <ele>510</ele>
        <time>2019-03-30T17:06:50Z</time>
      </trkpt>
      <trkpt lat="43.48654" lon="2.234">
        <ele>508</ele>
        <time>2019-03-30T17:06:52Z</time>
      </trkpt>
      <trkpt lat="43.48656" lon="2.23399">
        <ele>507</ele>
        <time>2019-03-30T17:06:53Z</time>
      </trkpt>
      <trkpt lat="43.48657" lon="2.23397">
        <ele>506</ele>
        <time>2019-03-30T17:06:54Z</time>
      </trkpt>
      <trkpt lat="43.48661" lon="2.23393">
        <ele>504</ele>
        <time>2019-03-30T17:06:56Z</time>
      </trkpt>
      <trkpt lat="43.48663" lon="2.23392">
        <ele>503</ele>
        <time>2019-03-30T17:06:57Z</time>
      </trkpt>
      <trkpt lat="43.48664" lon="2.23392">
        <ele>502</ele>
        <time>2019-03-30T17:06:58Z</time>
      </trkpt>
      <trkpt lat="43.48667" lon="2.23392">
        <ele>502</ele>
        <time>2019-03-30T17:06:59Z</time>
      </trkpt>
      <trkpt lat="43.48669" lon="2.23392">
        <ele>501</ele>
        <time>2019-03-30T17:07:00Z</time>
      </trkpt>
      <trkpt lat="43.48678" lon="2.2339">
        <ele>499</ele>
        <time>2019-03-30T17:07:03Z</time>
      </trkpt>
      <trkpt lat="43.48681" lon="2.23388">
        <ele>498</ele>
        <time>2019-03-30T17:07:04Z</time>
      </trkpt>
      <trkpt lat="43.48684" lon="2.23386">
        <ele>498</ele>
        <time>2019-03-30T17:07:05Z</time>
      </trkpt>
      <trkpt lat="43.48687" lon="2.23385">
        <ele>496</ele>
        <time>2019-03-30T17:07:06Z</time>
      </trkpt>
      <trkpt lat="43.48691" lon="2.23384">
        <ele>495</ele>
        <time>2019-03-30T17:07:07Z</time>
      </trkpt>
      <trkpt lat="43.48694" lon="2.23383">
        <ele>494</ele>
        <time>2019-03-30T17:07:08Z</time>
      </trkpt>
      <trkpt lat="43.48698" lon="2.23381">
        <ele>492</ele>
        <time>2019-03-30T17:07:09Z</time>
      </trkpt>
      <trkpt lat="43.48705" lon="2.23377">
        <ele>490</ele>
        <time>2019-03-30T17:07:11Z</time>
      </trkpt>
      <trkpt lat="43.48708" lon="2.23374">
        <ele>489</ele>
        <time>2019-03-30T17:07:12Z</time>
      </trkpt>
      <trkpt lat="43.48711" lon="2.23371">
        <ele>488</ele>
        <time>2019-03-30T17:07:13Z</time>
      </trkpt>
      <trkpt lat="43.48714" lon="2.23366">
        <ele>486</ele>
        <time>2019-03-30T17:07:15Z</time>
      </trkpt>
      <trkpt lat="43.48716" lon="2.23364">
        <ele>485</ele>
        <time>2019-03-30T17:07:17Z</time>
      </trkpt>
      <trkpt lat="43.48723" lon="2.23361">
        <ele>484</ele>
        <time>2019-03-30T17:07:22Z</time>
      </trkpt>
      <trkpt lat="43.48728" lon="2.2336">
        <ele>483</ele>
        <time>2019-03-30T17:07:24Z</time>
      </trkpt>
      <trkpt lat="43.4873" lon="2.23359">
        <ele>482</ele>
        <time>2019-03-30T17:07:25Z</time>
      </trkpt>
      <trkpt lat="43.48733" lon="2.23357">
        <ele>481</ele>
        <time>2019-03-30T17:07:26Z</time>
      </trkpt>
      <trkpt lat="43.48736" lon="2.23355">
        <ele>480</ele>
        <time>2019-03-30T17:07:27Z</time>
      </trkpt>
      <trkpt lat="43.48739" lon="2.23353">
        <ele>479</ele>
        <time>2019-03-30T17:07:28Z</time>
      </trkpt>
      <trkpt lat="43.48741" lon="2.23351">
        <ele>478</ele>
        <time>2019-03-30T17:07:29Z</time>
      </trkpt>
      <trkpt lat="43.48743" lon="2.23349">
        <ele>477</ele>
        <time>2019-03-30T17:07:30Z</time>
      </trkpt>
      <trkpt lat="43.48748" lon="2.23347">
        <ele>476</ele>
        <time>2019-03-30T17:07:32Z</time>
      </trkpt>
      <trkpt lat="43.4875" lon="2.23346">
        <ele>475</ele>
        <time>2019-03-30T17:07:33Z</time>
      </trkpt>
      <trkpt lat="43.48752" lon="2.23345">
        <ele>474</ele>
        <time>2019-03-30T17:07:34Z</time>
      </trkpt>
      <trkpt lat="43.48753" lon="2.23344">
        <ele>473</ele>
        <time>2019-03-30T17:07:35Z</time>
      </trkpt>
      <trkpt lat="43.48755" lon="2.23341">
        <ele>472</ele>
        <time>2019-03-30T17:07:38Z</time>
      </trkpt>
      <trkpt lat="43.48758" lon="2.2334">
        <ele>472</ele>
        <time>2019-03-30T17:07:40Z</time>
      </trkpt>
      <trkpt lat="43.48764" lon="2.2334">
        <ele>471</ele>
        <time>2019-03-30T17:07:44Z</time>
      </trkpt>
      <trkpt lat="43.48768" lon="2.23339">
        <ele>470</ele>
        <time>2019-03-30T17:07:46Z</time>
      </trkpt>
      <trkpt lat="43.48772" lon="2.23337">
        <ele>469</ele>
        <time>2019-03-30T17:07:49Z</time>
      </trkpt>
      <trkpt lat="43.48776" lon="2.23332">
        <ele>468</ele>
        <time>2019-03-30T17:07:55Z</time>
      </trkpt>
      <trkpt lat="43.48778" lon="2.23331">
        <ele>467</ele>
        <time>2019-03-30T17:08:37Z</time>
      </trkpt>
      <trkpt lat="43.48778" lon="2.23332">
        <ele>467</ele>
        <time>2019-03-30T17:08:39Z</time>
      </trkpt>
      <trkpt lat="43.48785" lon="2.23335">
        <ele>467</ele>
        <time>2019-03-30T17:18:14Z</time>
      </trkpt>
      <trkpt lat="43.48792" lon="2.23335">
        <ele>466</ele>
        <time>2019-03-30T17:18:16Z</time>
      </trkpt>
      <trkpt lat="43.48796" lon="2.23334">
        <ele>466</ele>
        <time>2019-03-30T17:18:17Z</time>
      </trkpt>
      <trkpt lat="43.48807" lon="2.23328">
        <ele>465</ele>
        <time>2019-03-30T17:18:19Z</time>
      </trkpt>
      <trkpt lat="43.48812" lon="2.23325">
        <ele>465</ele>
        <time>2019-03-30T17:18:20Z</time>
      </trkpt>
      <trkpt lat="43.48816" lon="2.2332">
        <ele>464</ele>
        <time>2019-03-30T17:18:21Z</time>
      </trkpt>
      <trkpt lat="43.4882" lon="2.23314">
        <ele>463</ele>
        <time>2019-03-30T17:18:22Z</time>
      </trkpt>
      <trkpt lat="43.48824" lon="2.23307">
        <ele>462</ele>
        <time>2019-03-30T17:18:23Z</time>
      </trkpt>
      <trkpt lat="43.48838" lon="2.23287">
        <ele>461</ele>
        <time>2019-03-30T17:18:26Z</time>
      </trkpt>
      <trkpt lat="43.48844" lon="2.23282">
        <ele>460</ele>
        <time>2019-03-30T17:18:27Z</time>
      </trkpt>
      <trkpt lat="43.4885" lon="2.23278">
        <ele>460</ele>
        <time>2019-03-30T17:18:28Z</time>
      </trkpt>
      <trkpt lat="43.4887" lon="2.23269">
        <ele>458</ele>
        <time>2019-03-30T17:18:31Z</time>
      </trkpt>
      <trkpt lat="43.48891" lon="2.23272">
        <ele>458</ele>
        <time>2019-03-30T17:18:34Z</time>
      </trkpt>
      <trkpt lat="43.48918" lon="2.23289">
        <ele>457</ele>
        <time>2019-03-30T17:18:38Z</time>
      </trkpt>
      <trkpt lat="43.48931" lon="2.23295">
        <ele>455</ele>
        <time>2019-03-30T17:18:40Z</time>
      </trkpt>
      <trkpt lat="43.48937" lon="2.23296">
        <ele>454</ele>
        <time>2019-03-30T17:18:41Z</time>
      </trkpt>
      <trkpt lat="43.48947" lon="2.23293">
        <ele>452</ele>
        <time>2019-03-30T17:18:43Z</time>
      </trkpt>
      <trkpt lat="43.4895" lon="2.2329">
        <ele>452</ele>
        <time>2019-03-30T17:18:44Z</time>
      </trkpt>
      <trkpt lat="43.48952" lon="2.23285">
        <ele>451</ele>
        <time>2019-03-30T17:18:45Z</time>
      </trkpt>
      <trkpt lat="43.48954" lon="2.23274">
        <ele>450</ele>
        <time>2019-03-30T17:18:47Z</time>
      </trkpt>
      <trkpt lat="43.48954" lon="2.23267">
        <ele>450</ele>
        <time>2019-03-30T17:18:48Z</time>
      </trkpt>
      <trkpt lat="43.48945" lon="2.23253">
        <ele>448</ele>
        <time>2019-03-30T17:18:50Z</time>
      </trkpt>
      <trkpt lat="43.48938" lon="2.23247">
        <ele>447</ele>
        <time>2019-03-30T17:18:51Z</time>
      </trkpt>
      <trkpt lat="43.48931" lon="2.23242">
        <ele>446</ele>
        <time>2019-03-30T17:18:52Z</time>
      </trkpt>
      <trkpt lat="43.48924" lon="2.23235">
        <ele>445</ele>
        <time>2019-03-30T17:18:53Z</time>
      </trkpt>
      <trkpt lat="43.48917" lon="2.23228">
        <ele>443</ele>
        <time>2019-03-30T17:18:54Z</time>
      </trkpt>
      <trkpt lat="43.4891" lon="2.23222">
        <ele>441</ele>
        <time>2019-03-30T17:18:55Z</time>
      </trkpt>
      <trkpt lat="43.48902" lon="2.23216">
        <ele>440</ele>
        <time>2019-03-30T17:18:56Z</time>
      </trkpt>
      <trkpt lat="43.48894" lon="2.23213">
        <ele>439</ele>
        <time>2019-03-30T17:18:57Z</time>
      </trkpt>
      <trkpt lat="43.48877" lon="2.23209">
        <ele>437</ele>
        <time>2019-03-30T17:18:59Z</time>
      </trkpt>
      <trkpt lat="43.48869" lon="2.23206">
        <ele>437</ele>
        <time>2019-03-30T17:19:00Z</time>
      </trkpt>
      <trkpt lat="43.48861" lon="2.23203">
        <ele>436</ele>
        <time>2019-03-30T17:19:01Z</time>
      </trkpt>
      <trkpt lat="43.4885" lon="2.23197">
        <ele>434</ele>
        <time>2019-03-30T17:19:03Z</time>
      </trkpt>
      <trkpt lat="43.48846" lon="2.23195">
        <ele>433</ele>
        <time>2019-03-30T17:19:04Z</time>
      </trkpt>
      <trkpt lat="43.48843" lon="2.23193">
        <ele>432</ele>
        <time>2019-03-30T17:19:05Z</time>
      </trkpt>
      <trkpt lat="43.48823" lon="2.23185">
        <ele>431</ele>
        <time>2019-03-30T17:19:09Z</time>
      </trkpt>
      <trkpt lat="43.48813" lon="2.2318">
        <ele>430</ele>
        <time>2019-03-30T17:19:11Z</time>
      </trkpt>
      <trkpt lat="43.48804" lon="2.23177">
        <ele>429</ele>
        <time>2019-03-30T17:19:13Z</time>
      </trkpt>
      <trkpt lat="43.48797" lon="2.23177">
        <ele>428</ele>
        <time>2019-03-30T17:19:16Z</time>
      </trkpt>
      <trkpt lat="43.48792" lon="2.23177">
        <ele>428</ele>
        <time>2019-03-30T17:19:18Z</time>
      </trkpt>
      <trkpt lat="43.48791" lon="2.23174">
        <ele>428</ele>
        <time>2019-03-30T17:19:20Z</time>
      </trkpt>
      <trkpt lat="43.48792" lon="2.23173">
        <ele>427</ele>
        <time>2019-03-30T17:19:21Z</time>
      </trkpt>
      <trkpt lat="43.48799" lon="2.23169">
        <ele>426</ele>
        <time>2019-03-30T17:19:24Z</time>
      </trkpt>
      <trkpt lat="43.48802" lon="2.23168">
        <ele>425</ele>
        <time>2019-03-30T17:19:25Z</time>
      </trkpt>
      <trkpt lat="43.48805" lon="2.23166">
        <ele>424</ele>
        <time>2019-03-30T17:19:26Z</time>
      </trkpt>
      <trkpt lat="43.4881" lon="2.23163">
        <ele>423</ele>
        <time>2019-03-30T17:19:27Z</time>
      </trkpt>
      <trkpt lat="43.48814" lon="2.23161">
        <ele>421</ele>
        <time>2019-03-30T17:19:28Z</time>
      </trkpt>
      <trkpt lat="43.48818" lon="2.23157">
        <ele>420</ele>
        <time>2019-03-30T17:19:29Z</time>
      </trkpt>
      <trkpt lat="43.48823" lon="2.23154">
        <ele>419</ele>
        <time>2019-03-30T17:19:30Z</time>
      </trkpt>
      <trkpt lat="43.48827" lon="2.23151">
        <ele>417</ele>
        <time>2019-03-30T17:19:31Z</time>
      </trkpt>
      <trkpt lat="43.48831" lon="2.23149">
        <ele>416</ele>
        <time>2019-03-30T17:19:32Z</time>
      </trkpt>
      <trkpt lat="43.48835" lon="2.23147">
        <ele>415</ele>
        <time>2019-03-30T17:19:33Z</time>
      </trkpt>
      <trkpt lat="43.4884" lon="2.23143">
        <ele>413</ele>
        <time>2019-03-30T17:19:34Z</time>
      </trkpt>
      <trkpt lat="43.48843" lon="2.23137">
        <ele>412</ele>
        <time>2019-03-30T17:19:35Z</time>
      </trkpt>
      <trkpt lat="43.48847" lon="2.2313">
        <ele>411</ele>
        <time>2019-03-30T17:19:36Z</time>
      </trkpt>
      <trkpt lat="43.4885" lon="2.23125">
        <ele>409</ele>
        <time>2019-03-30T17:19:37Z</time>
      </trkpt>
      <trkpt lat="43.48855" lon="2.23121">
        <ele>408</ele>
        <time>2019-03-30T17:19:38Z</time>
      </trkpt>
      <trkpt lat="43.48862" lon="2.23119">
        <ele>407</ele>
        <time>2019-03-30T17:19:39Z</time>
      </trkpt>
      <trkpt lat="43.48868" lon="2.23115">
        <ele>405</ele>
        <time>2019-03-30T17:19:40Z</time>
      </trkpt>
      <trkpt lat="43.48875" lon="2.23109">
        <ele>403</ele>
        <time>2019-03-30T17:19:41Z</time>
      </trkpt>
      <trkpt lat="43.48882" lon="2.23105">
        <ele>400</ele>
        <time>2019-03-30T17:19:42Z</time>
      </trkpt>
      <trkpt lat="43.48889" lon="2.23101">
        <ele>397</ele>
        <time>2019-03-30T17:19:43Z</time>
      </trkpt>
      <trkpt lat="43.48896" lon="2.231">
        <ele>396</ele>
        <time>2019-03-30T17:19:44Z</time>
      </trkpt>
      <trkpt lat="43.48904" lon="2.23099">
        <ele>395</ele>
        <time>2019-03-30T17:19:45Z</time>
      </trkpt>
      <trkpt lat="43.48912" lon="2.23097">
        <ele>394</ele>
        <time>2019-03-30T17:19:46Z</time>
      </trkpt>
      <trkpt lat="43.48921" lon="2.23094">
        <ele>393</ele>
        <time>2019-03-30T17:19:47Z</time>
      </trkpt>
      <trkpt lat="43.48929" lon="2.23091">
        <ele>392</ele>
        <time>2019-03-30T17:19:48Z</time>
      </trkpt>
      <trkpt lat="43.48937" lon="2.23088">
        <ele>392</ele>
        <time>2019-03-30T17:19:49Z</time>
      </trkpt>
      <trkpt lat="43.48945" lon="2.23089">
        <ele>392</ele>
        <time>2019-03-30T17:19:50Z</time>
      </trkpt>
      <trkpt lat="43.48959" lon="2.23096">
        <ele>391</ele>
        <time>2019-03-30T17:19:52Z</time>
      </trkpt>
      <trkpt lat="43.48965" lon="2.231">
        <ele>390</ele>
        <time>2019-03-30T17:19:53Z</time>
      </trkpt>
      <trkpt lat="43.48971" lon="2.23103">
        <ele>390</ele>
        <time>2019-03-30T17:19:54Z</time>
      </trkpt>
      <trkpt lat="43.48996" lon="2.23118">
        <ele>390</ele>
        <time>2019-03-30T17:19:58Z</time>
      </trkpt>
      <trkpt lat="43.49017" lon="2.23136">
        <ele>390</ele>
        <time>2019-03-30T17:20:01Z</time>
      </trkpt>
      <trkpt lat="43.49023" lon="2.23143">
        <ele>389</ele>
        <time>2019-03-30T17:20:02Z</time>
      </trkpt>
      <trkpt lat="43.49029" lon="2.23151">
        <ele>388</ele>
        <time>2019-03-30T17:20:03Z</time>
      </trkpt>
      <trkpt lat="43.49058" lon="2.23175">
        <ele>387</ele>
        <time>2019-03-30T17:20:07Z</time>
      </trkpt>
      <trkpt lat="43.49067" lon="2.23181">
        <ele>385</ele>
        <time>2019-03-30T17:20:08Z</time>
      </trkpt>
      <trkpt lat="43.49076" lon="2.23188">
        <ele>384</ele>
        <time>2019-03-30T17:20:09Z</time>
      </trkpt>
      <trkpt lat="43.49086" lon="2.23194">
        <ele>383</ele>
        <time>2019-03-30T17:20:10Z</time>
      </trkpt>
      <trkpt lat="43.49096" lon="2.232">
        <ele>381</ele>
        <time>2019-03-30T17:20:11Z</time>
      </trkpt>
      <trkpt lat="43.49106" lon="2.23206">
        <ele>380</ele>
        <time>2019-03-30T17:20:12Z</time>
      </trkpt>
      <trkpt lat="43.49117" lon="2.23211">
        <ele>379</ele>
        <time>2019-03-30T17:20:13Z</time>
      </trkpt>
      <trkpt lat="43.49128" lon="2.23216">
        <ele>378</ele>
        <time>2019-03-30T17:20:14Z</time>
      </trkpt>
      <trkpt lat="43.4914" lon="2.2322">
        <ele>377</ele>
        <time>2019-03-30T17:20:15Z</time>
      </trkpt>
      <trkpt lat="43.49163" lon="2.23228">
        <ele>374</ele>
        <time>2019-03-30T17:20:17Z</time>
      </trkpt>
      <trkpt lat="43.49174" lon="2.23236">
        <ele>372</ele>
        <time>2019-03-30T17:20:18Z</time>
      </trkpt>
      <trkpt lat="43.49184" lon="2.23243">
        <ele>371</ele>
        <time>2019-03-30T17:20:19Z</time>
      </trkpt>
      <trkpt lat="43.49195" lon="2.2325">
        <ele>370</ele>
        <time>2019-03-30T17:20:20Z</time>
      </trkpt>
      <trkpt lat="43.49205" lon="2.23257">
        <ele>369</ele>
        <time>2019-03-30T17:20:21Z</time>
      </trkpt>
      <trkpt lat="43.49226" lon="2.23269">
        <ele>367</ele>
        <time>2019-03-30T17:20:23Z</time>
      </trkpt>
      <trkpt lat="43.49236" lon="2.23274">
        <ele>366</ele>
        <time>2019-03-30T17:20:24Z</time>
      </trkpt>
      <trkpt lat="43.49255" lon="2.23282">
        <ele>364</ele>
        <time>2019-03-30T17:20:26Z</time>
      </trkpt>
      <trkpt lat="43.49265" lon="2.23285">
        <ele>363</ele>
        <time>2019-03-30T17:20:27Z</time>
      </trkpt>
      <trkpt lat="43.49284" lon="2.23291">
        <ele>361</ele>
        <time>2019-03-30T17:20:29Z</time>
      </trkpt>
      <trkpt lat="43.49294" lon="2.23293">
        <ele>359</ele>
        <time>2019-03-30T17:20:30Z</time>
      </trkpt>
      <trkpt lat="43.49303" lon="2.23296">
        <ele>357</ele>
        <time>2019-03-30T17:20:31Z</time>
      </trkpt>
      <trkpt lat="43.49311" lon="2.233">
        <ele>356</ele>
        <time>2019-03-30T17:20:32Z</time>
      </trkpt>
      <trkpt lat="43.49325" lon="2.23311">
        <ele>354</ele>
        <time>2019-03-30T17:20:34Z</time>
      </trkpt>
      <trkpt lat="43.49332" lon="2.2333">
        <ele>352</ele>
        <time>2019-03-30T17:20:36Z</time>
      </trkpt>
      <trkpt lat="43.49335" lon="2.23342">
        <ele>351</ele>
        <time>2019-03-30T17:20:37Z</time>
      </trkpt>
      <trkpt lat="43.49338" lon="2.23353">
        <ele>349</ele>
        <time>2019-03-30T17:20:38Z</time>
      </trkpt>
      <trkpt lat="43.4934" lon="2.23365">
        <ele>348</ele>
        <time>2019-03-30T17:20:39Z</time>
      </trkpt>
      <trkpt lat="43.49342" lon="2.2339">
        <ele>346</ele>
        <time>2019-03-30T17:20:41Z</time>
      </trkpt>
      <trkpt lat="43.49335" lon="2.23415">
        <ele>344</ele>
        <time>2019-03-30T17:20:43Z</time>
      </trkpt>
      <trkpt lat="43.49329" lon="2.23427">
        <ele>343</ele>
        <time>2019-03-30T17:20:44Z</time>
      </trkpt>
      <trkpt lat="43.49323" lon="2.23439">
        <ele>341</ele>
        <time>2019-03-30T17:20:45Z</time>
      </trkpt>
      <trkpt lat="43.49318" lon="2.2345">
        <ele>340</ele>
        <time>2019-03-30T17:20:46Z</time>
      </trkpt>
      <trkpt lat="43.49314" lon="2.23463">
        <ele>339</ele>
        <time>2019-03-30T17:20:47Z</time>
      </trkpt>
      <trkpt lat="43.49308" lon="2.23487">
        <ele>338</ele>
        <time>2019-03-30T17:20:49Z</time>
      </trkpt>
      <trkpt lat="43.49305" lon="2.23499">
        <ele>337</ele>
        <time>2019-03-30T17:20:50Z</time>
      </trkpt>
      <trkpt lat="43.49302" lon="2.2351">
        <ele>336</ele>
        <time>2019-03-30T17:20:51Z</time>
      </trkpt>
      <trkpt lat="43.493" lon="2.2352">
        <ele>335</ele>
        <time>2019-03-30T17:20:52Z</time>
      </trkpt>
      <trkpt lat="43.49296" lon="2.23535">
        <ele>334</ele>
        <time>2019-03-30T17:20:54Z</time>
      </trkpt>
      <trkpt lat="43.49297" lon="2.23539">
        <ele>334</ele>
        <time>2019-03-30T17:20:55Z</time>
      </trkpt>
      <trkpt lat="43.49296" lon="2.2354">
        <ele>334</ele>
        <time>2019-03-30T17:20:56Z</time>
      </trkpt>
      <trkpt lat="43.49299" lon="2.23539">
        <ele>334</ele>
        <time>2019-03-30T17:20:57Z</time>
      </trkpt>
      <trkpt lat="43.49301" lon="2.23539">
        <ele>334</ele>
        <time>2019-03-30T17:20:59Z</time>
      </trkpt>
      <trkpt lat="43.49301" lon="2.23539">
        <ele>334</ele>
        <time>2019-03-30T17:21:00Z</time>
      </trkpt>
      <trkpt lat="43.49301" lon="2.23535">
        <ele>334</ele>
        <time>2019-03-30T17:21:22Z</time>
      </trkpt>
      <trkpt lat="43.49304" lon="2.23528">
        <ele>333</ele>
        <time>2019-03-30T17:21:24Z</time>
      </trkpt>
      <trkpt lat="43.49312" lon="2.23512">
        <ele>333</ele>
        <time>2019-03-30T17:21:27Z</time>
      </trkpt>
      <trkpt lat="43.49314" lon="2.23505">
        <ele>332</ele>
        <time>2019-03-30T17:21:28Z</time>
      </trkpt>
      <trkpt lat="43.49324" lon="2.23491">
        <ele>332</ele>
        <time>2019-03-30T17:21:31Z</time>
      </trkpt>
      <trkpt lat="43.49328" lon="2.23487">
        <ele>331</ele>
        <time>2019-03-30T17:21:32Z</time>
      </trkpt>
      <trkpt lat="43.49331" lon="2.23482">
        <ele>331</ele>
        <time>2019-03-30T17:21:33Z</time>
      </trkpt>
      <trkpt lat="43.49335" lon="2.23477">
        <ele>330</ele>
        <time>2019-03-30T17:21:34Z</time>
      </trkpt>
      <trkpt lat="43.4934" lon="2.23471">
        <ele>328</ele>
        <time>2019-03-30T17:21:35Z</time>
      </trkpt>
      <trkpt lat="43.49345" lon="2.23466">
        <ele>327</ele>
        <time>2019-03-30T17:21:36Z</time>
      </trkpt>
      <trkpt lat="43.49352" lon="2.23457">
        <ele>326</ele>
        <time>2019-03-30T17:21:38Z</time>
      </trkpt>
      <trkpt lat="43.49356" lon="2.23452">
        <ele>326</ele>
        <time>2019-03-30T17:21:39Z</time>
      </trkpt>
      <trkpt lat="43.49361" lon="2.23447">
        <ele>326</ele>
        <time>2019-03-30T17:21:40Z</time>
      </trkpt>
      <trkpt lat="43.49372" lon="2.2344">
        <ele>325</ele>
        <time>2019-03-30T17:21:42Z</time>
      </trkpt>
      <trkpt lat="43.49378" lon="2.23436">
        <ele>325</ele>
        <time>2019-03-30T17:21:43Z</time>
      </trkpt>
      <trkpt lat="43.49384" lon="2.23432">
        <ele>325</ele>
        <time>2019-03-30T17:21:44Z</time>
      </trkpt>
      <trkpt lat="43.49395" lon="2.23423">
        <ele>324</ele>
        <time>2019-03-30T17:21:46Z</time>
      </trkpt>
      <trkpt lat="43.49402" lon="2.23417">
        <ele>322</ele>
        <time>2019-03-30T17:21:47Z</time>
      </trkpt>
      <trkpt lat="43.49408" lon="2.23409">
        <ele>321</ele>
        <time>2019-03-30T17:21:48Z</time>
      </trkpt>
      <trkpt lat="43.49412" lon="2.23402">
        <ele>321</ele>
        <time>2019-03-30T17:21:49Z</time>
      </trkpt>
      <trkpt lat="43.49416" lon="2.23388">
        <ele>319</ele>
        <time>2019-03-30T17:21:51Z</time>
      </trkpt>
      <trkpt lat="43.49417" lon="2.23378">
        <ele>318</ele>
        <time>2019-03-30T17:21:53Z</time>
      </trkpt>
      <trkpt lat="43.49417" lon="2.23372">
        <ele>317</ele>
        <time>2019-03-30T17:21:55Z</time>
      </trkpt>
      <trkpt lat="43.49417" lon="2.23364">
        <ele>317</ele>
        <time>2019-03-30T17:21:58Z</time>
      </trkpt>
      <trkpt lat="43.49418" lon="2.23362">
        <ele>317</ele>
        <time>2019-03-30T17:21:59Z</time>
      </trkpt>
      <trkpt lat="43.49419" lon="2.23356">
        <ele>317</ele>
        <time>2019-03-30T17:22:02Z</time>
      </trkpt>
      <trkpt lat="43.49423" lon="2.23347">
        <ele>317</ele>
        <time>2019-03-30T17:22:05Z</time>
      </trkpt>
      <trkpt lat="43.49425" lon="2.23339">
        <ele>315</ele>
        <time>2019-03-30T17:22:08Z</time>
      </trkpt>
      <trkpt lat="43.49425" lon="2.23336">
        <ele>315</ele>
        <time>2019-03-30T17:22:10Z</time>
      </trkpt>
      <trkpt lat="43.49425" lon="2.23334">
        <ele>315</ele>
        <time>2019-03-30T17:22:11Z</time>
      </trkpt>
      <trkpt lat="43.49428" lon="2.23323">
        <ele>314</ele>
        <time>2019-03-30T17:22:17Z</time>
      </trkpt>
      <trkpt lat="43.49429" lon="2.2332">
        <ele>314</ele>
        <time>2019-03-30T17:22:19Z</time>
      </trkpt>
      <trkpt lat="43.49432" lon="2.23312">
        <ele>314</ele>
        <time>2019-03-30T17:22:25Z</time>
      </trkpt>
      <trkpt lat="43.49434" lon="2.23307">
        <ele>314</ele>
        <time>2019-03-30T17:22:27Z</time>
      </trkpt>
      <trkpt lat="43.49439" lon="2.23298">
        <ele>313</ele>
        <time>2019-03-30T17:22:31Z</time>
      </trkpt>
      <trkpt lat="43.4944" lon="2.23296">
        <ele>313</ele>
        <time>2019-03-30T17:22:32Z</time>
      </trkpt>
      <trkpt lat="43.49443" lon="2.23289">
        <ele>313</ele>
        <time>2019-03-30T17:22:35Z</time>
      </trkpt>
      <trkpt lat="43.49445" lon="2.23285">
        <ele>313</ele>
        <time>2019-03-30T17:22:37Z</time>
      </trkpt>
      <trkpt lat="43.49447" lon="2.23278">
        <ele>312</ele>
        <time>2019-03-30T17:22:40Z</time>
      </trkpt>
      <trkpt lat="43.49449" lon="2.23266">
        <ele>312</ele>
        <time>2019-03-30T17:22:43Z</time>
      </trkpt>
      <trkpt lat="43.49453" lon="2.23246">
        <ele>312</ele>
        <time>2019-03-30T17:22:47Z</time>
      </trkpt>
      <trkpt lat="43.49454" lon="2.23237">
        <ele>311</ele>
        <time>2019-03-30T17:22:50Z</time>
      </trkpt>
      <trkpt lat="43.49454" lon="2.23237">
        <ele>311</ele>
        <time>2019-03-30T17:22:51Z</time>
      </trkpt>
      <trkpt lat="43.49455" lon="2.23234">
        <ele>310</ele>
        <time>2019-03-30T17:23:40Z</time>
      </trkpt>
      <trkpt lat="43.49457" lon="2.23226">
        <ele>310</ele>
        <time>2019-03-30T17:23:43Z</time>
      </trkpt>
      <trkpt lat="43.49462" lon="2.23209">
        <ele>310</ele>
        <time>2019-03-30T17:23:47Z</time>
      </trkpt>
      <trkpt lat="43.49464" lon="2.23203">
        <ele>310</ele>
        <time>2019-03-30T17:23:48Z</time>
      </trkpt>
      <trkpt lat="43.49466" lon="2.23197">
        <ele>309</ele>
        <time>2019-03-30T17:23:49Z</time>
      </trkpt>
      <trkpt lat="43.49471" lon="2.23184">
        <ele>308</ele>
        <time>2019-03-30T17:23:51Z</time>
      </trkpt>
      <trkpt lat="43.49488" lon="2.23168">
        <ele>307</ele>
        <time>2019-03-30T17:23:54Z</time>
      </trkpt>
      <trkpt lat="43.49509" lon="2.23154">
        <ele>306</ele>
        <time>2019-03-30T17:23:57Z</time>
      </trkpt>
      <trkpt lat="43.49524" lon="2.23145">
        <ele>304</ele>
        <time>2019-03-30T17:23:59Z</time>
      </trkpt>
      <trkpt lat="43.49532" lon="2.2314">
        <ele>302</ele>
        <time>2019-03-30T17:24:00Z</time>
      </trkpt>
      <trkpt lat="43.49538" lon="2.23133">
        <ele>301</ele>
        <time>2019-03-30T17:24:01Z</time>
      </trkpt>
      <trkpt lat="43.4955" lon="2.23118">
        <ele>299</ele>
        <time>2019-03-30T17:24:03Z</time>
      </trkpt>
      <trkpt lat="43.49571" lon="2.23094">
        <ele>299</ele>
        <time>2019-03-30T17:24:07Z</time>
      </trkpt>
      <trkpt lat="43.49575" lon="2.2309">
        <ele>299</ele>
        <time>2019-03-30T17:24:08Z</time>
      </trkpt>
      <trkpt lat="43.49587" lon="2.23081">
        <ele>300</ele>
        <time>2019-03-30T17:24:12Z</time>
      </trkpt>
      <trkpt lat="43.496" lon="2.23072">
        <ele>300</ele>
        <time>2019-03-30T17:24:17Z</time>
      </trkpt>
      <trkpt lat="43.49622" lon="2.23063">
        <ele>301</ele>
        <time>2019-03-30T17:24:24Z</time>
      </trkpt>
      <trkpt lat="43.49625" lon="2.23062">
        <ele>301</ele>
        <time>2019-03-30T17:24:25Z</time>
      </trkpt>
      <trkpt lat="43.49635" lon="2.2306">
        <ele>302</ele>
        <time>2019-03-30T17:24:28Z</time>
      </trkpt>
      <trkpt lat="43.49638" lon="2.2306">
        <ele>302</ele>
        <time>2019-03-30T17:24:29Z</time>
      </trkpt>
      <trkpt lat="43.4964" lon="2.23061">
        <ele>303</ele>
        <time>2019-03-30T17:24:30Z</time>
      </trkpt>
      <trkpt lat="43.49647" lon="2.23064">
        <ele>304</ele>
        <time>2019-03-30T17:24:33Z</time>
      </trkpt>
      <trkpt lat="43.49657" lon="2.2307">
        <ele>304</ele>
        <time>2019-03-30T17:24:36Z</time>
      </trkpt>
      <trkpt lat="43.49664" lon="2.23073">
        <ele>305</ele>
        <time>2019-03-30T17:24:38Z</time>
      </trkpt>
      <trkpt lat="43.49671" lon="2.23078">
        <ele>306</ele>
        <time>2019-03-30T17:24:40Z</time>
      </trkpt>
      <trkpt lat="43.49678" lon="2.2308">
        <ele>307</ele>
        <time>2019-03-30T17:24:42Z</time>
      </trkpt>
      <trkpt lat="43.49681" lon="2.23082">
        <ele>307</ele>
        <time>2019-03-30T17:24:43Z</time>
      </trkpt>
      <trkpt lat="43.49688" lon="2.23083">
        <ele>309</ele>
        <time>2019-03-30T17:24:45Z</time>
      </trkpt>
      <trkpt lat="43.49696" lon="2.23084">
        <ele>309</ele>
        <time>2019-03-30T17:24:47Z</time>
      </trkpt>
      <trkpt lat="43.49699" lon="2.23084">
        <ele>310</ele>
        <time>2019-03-30T17:24:48Z</time>
      </trkpt>
      <trkpt lat="43.49706" lon="2.23083">
        <ele>311</ele>
        <time>2019-03-30T17:24:50Z</time>
      </trkpt>
      <trkpt lat="43.49713" lon="2.2308">
        <ele>312</ele>
        <time>2019-03-30T17:24:52Z</time>
      </trkpt>
      <trkpt lat="43.49717" lon="2.23078">
        <ele>312</ele>
        <time>2019-03-30T17:24:53Z</time>
      </trkpt>
      <trkpt lat="43.49728" lon="2.2307">
        <ele>314</ele>
        <time>2019-03-30T17:24:56Z</time>
      </trkpt>
      <trkpt lat="43.49731" lon="2.23066">
        <ele>314</ele>
        <time>2019-03-30T17:24:57Z</time>
      </trkpt>
      <trkpt lat="43.49737" lon="2.2306">
        <ele>315</ele>
        <time>2019-03-30T17:24:59Z</time>
      </trkpt>
      <trkpt lat="43.49746" lon="2.23048">
        <ele>315</ele>
        <time>2019-03-30T17:25:03Z</time>
      </trkpt>
      <trkpt lat="43.49751" lon="2.23039">
        <ele>316</ele>
        <time>2019-03-30T17:25:06Z</time>
      </trkpt>
      <trkpt lat="43.49756" lon="2.23029">
        <ele>317</ele>
        <time>2019-03-30T17:25:09Z</time>
      </trkpt>
      <trkpt lat="43.49758" lon="2.23023">
        <ele>318</ele>
        <time>2019-03-30T17:25:11Z</time>
      </trkpt>
      <trkpt lat="43.49762" lon="2.23015">
        <ele>319</ele>
        <time>2019-03-30T17:25:14Z</time>
      </trkpt>
      <trkpt lat="43.49764" lon="2.23008">
        <ele>320</ele>
        <time>2019-03-30T17:25:16Z</time>
      </trkpt>
      <trkpt lat="43.49767" lon="2.22999">
        <ele>320</ele>
        <time>2019-03-30T17:25:18Z</time>
      </trkpt>
      <trkpt lat="43.49771" lon="2.22987">
        <ele>321</ele>
        <time>2019-03-30T17:25:21Z</time>
      </trkpt>
      <trkpt lat="43.49774" lon="2.22978">
        <ele>321</ele>
        <time>2019-03-30T17:25:23Z</time>
      </trkpt>
      <trkpt lat="43.49778" lon="2.22961">
        <ele>323</ele>
        <time>2019-03-30T17:25:27Z</time>
      </trkpt>
      <trkpt lat="43.49782" lon="2.2295">
        <ele>324</ele>
        <time>2019-03-30T17:25:30Z</time>
      </trkpt>
      <trkpt lat="43.49785" lon="2.22938">
        <ele>325</ele>
        <time>2019-03-30T17:25:33Z</time>
      </trkpt>
      <trkpt lat="43.49786" lon="2.22934">
        <ele>325</ele>
        <time>2019-03-30T17:25:34Z</time>
      </trkpt>
      <trkpt lat="43.4979" lon="2.22923">
        <ele>326</ele>
        <time>2019-03-30T17:25:37Z</time>
      </trkpt>
      <trkpt lat="43.49791" lon="2.22919">
        <ele>326</ele>
        <time>2019-03-30T17:25:38Z</time>
      </trkpt>
      <trkpt lat="43.49795" lon="2.22907">
        <ele>327</ele>
        <time>2019-03-30T17:25:41Z</time>
      </trkpt>
      <trkpt lat="43.498" lon="2.229">
        <ele>328</ele>
        <time>2019-03-30T17:25:43Z</time>
      </trkpt>
      <trkpt lat="43.49802" lon="2.22898">
        <ele>328</ele>
        <time>2019-03-30T17:25:44Z</time>
      </trkpt>
      <trkpt lat="43.49811" lon="2.22887">
        <ele>330</ele>
        <time>2019-03-30T17:25:48Z</time>
      </trkpt>
      <trkpt lat="43.49814" lon="2.22885">
        <ele>330</ele>
        <time>2019-03-30T17:25:49Z</time>
      </trkpt>
      <trkpt lat="43.49822" lon="2.2288">
        <ele>331</ele>
        <time>2019-03-30T17:25:52Z</time>
      </trkpt>
      <trkpt lat="43.49829" lon="2.22877">
        <ele>332</ele>
        <time>2019-03-30T17:25:55Z</time>
      </trkpt>
      <trkpt lat="43.49831" lon="2.22875">
        <ele>332</ele>
        <time>2019-03-30T17:25:56Z</time>
      </trkpt>
      <trkpt lat="43.49837" lon="2.2287">
        <ele>333</ele>
        <time>2019-03-30T17:25:58Z</time>
      </trkpt>
      <trkpt lat="43.4984" lon="2.22868">
        <ele>333</ele>
        <time>2019-03-30T17:25:59Z</time>
      </trkpt>
      <trkpt lat="43.4985" lon="2.22863">
        <ele>334</ele>
        <time>2019-03-30T17:26:02Z</time>
      </trkpt>
      <trkpt lat="43.49852" lon="2.2286">
        <ele>335</ele>
        <time>2019-03-30T17:26:03Z</time>
      </trkpt>
      <trkpt lat="43.49862" lon="2.22855">
        <ele>335</ele>
        <time>2019-03-30T17:26:06Z</time>
      </trkpt>
      <trkpt lat="43.49865" lon="2.22853">
        <ele>335</ele>
        <time>2019-03-30T17:26:07Z</time>
      </trkpt>
      <trkpt lat="43.49879" lon="2.22841">
        <ele>336</ele>
        <time>2019-03-30T17:26:12Z</time>
      </trkpt>
      <trkpt lat="43.49902" lon="2.22825">
        <ele>336</ele>
        <time>2019-03-30T17:26:19Z</time>
      </trkpt>
      <trkpt lat="43.49908" lon="2.22822">
        <ele>335</ele>
        <time>2019-03-30T17:26:23Z</time>
      </trkpt>
      <trkpt lat="43.49911" lon="2.2282">
        <ele>335</ele>
        <time>2019-03-30T17:26:27Z</time>
      </trkpt>
      <trkpt lat="43.49917" lon="2.22819">
        <ele>334</ele>
        <time>2019-03-30T17:27:46Z</time>
      </trkpt>
      <trkpt lat="43.4992" lon="2.22817">
        <ele>334</ele>
        <time>2019-03-30T17:27:47Z</time>
      </trkpt>
      <trkpt lat="43.49926" lon="2.22809">
        <ele>333</ele>
        <time>2019-03-30T17:27:50Z</time>
      </trkpt>
      <trkpt lat="43.49933" lon="2.22796">
        <ele>332</ele>
        <time>2019-03-30T17:27:53Z</time>
      </trkpt>
      <trkpt lat="43.49939" lon="2.22787">
        <ele>331</ele>
        <time>2019-03-30T17:27:55Z</time>
      </trkpt>
      <trkpt lat="43.4994" lon="2.22782">
        <ele>331</ele>
        <time>2019-03-30T17:27:56Z</time>
      </trkpt>
      <trkpt lat="43.49941" lon="2.22764">
        <ele>330</ele>
        <time>2019-03-30T17:27:59Z</time>
      </trkpt>
      <trkpt lat="43.49943" lon="2.22744">
        <ele>329</ele>
        <time>2019-03-30T17:28:02Z</time>
      </trkpt>
      <trkpt lat="43.49945" lon="2.22737">
        <ele>328</ele>
        <time>2019-03-30T17:28:03Z</time>
      </trkpt>
      <trkpt lat="43.4995" lon="2.22721">
        <ele>327</ele>
        <time>2019-03-30T17:28:05Z</time>
      </trkpt>
      <trkpt lat="43.49952" lon="2.22711">
        <ele>326</ele>
        <time>2019-03-30T17:28:06Z</time>
      </trkpt>
      <trkpt lat="43.49953" lon="2.22699">
        <ele>326</ele>
        <time>2019-03-30T17:28:07Z</time>
      </trkpt>
      <trkpt lat="43.49954" lon="2.22686">
        <ele>324</ele>
        <time>2019-03-30T17:28:08Z</time>
      </trkpt>
      <trkpt lat="43.49955" lon="2.22671">
        <ele>323</ele>
        <time>2019-03-30T17:28:09Z</time>
      </trkpt>
      <trkpt lat="43.49955" lon="2.22656">
        <ele>321</ele>
        <time>2019-03-30T17:28:10Z</time>
      </trkpt>
      <trkpt lat="43.49956" lon="2.22641">
        <ele>320</ele>
        <time>2019-03-30T17:28:11Z</time>
      </trkpt>
      <trkpt lat="43.49954" lon="2.22626">
        <ele>318</ele>
        <time>2019-03-30T17:28:12Z</time>
      </trkpt>
      <trkpt lat="43.49951" lon="2.22612">
        <ele>317</ele>
        <time>2019-03-30T17:28:13Z</time>
      </trkpt>
      <trkpt lat="43.49947" lon="2.22597">
        <ele>315</ele>
        <time>2019-03-30T17:28:14Z</time>
      </trkpt>
      <trkpt lat="43.49943" lon="2.22582">
        <ele>314</ele>
        <time>2019-03-30T17:28:15Z</time>
      </trkpt>
      <trkpt lat="43.49939" lon="2.22565">
        <ele>312</ele>
        <time>2019-03-30T17:28:16Z</time>
      </trkpt>
      <trkpt lat="43.49937" lon="2.22549">
        <ele>310</ele>
        <time>2019-03-30T17:28:17Z</time>
      </trkpt>
      <trkpt lat="43.49937" lon="2.22533">
        <ele>308</ele>
        <time>2019-03-30T17:28:18Z</time>
      </trkpt>
      <trkpt lat="43.49939" lon="2.22504">
        <ele>307</ele>
        <time>2019-03-30T17:28:20Z</time>
      </trkpt>
      <trkpt lat="43.49939" lon="2.22482">
        <ele>308</ele>
        <time>2019-03-30T17:28:22Z</time>
      </trkpt>
      <trkpt lat="43.49939" lon="2.22473">
        <ele>309</ele>
        <time>2019-03-30T17:28:23Z</time>
      </trkpt>
      <trkpt lat="43.49937" lon="2.22465">
        <ele>311</ele>
        <time>2019-03-30T17:28:24Z</time>
      </trkpt>
      <trkpt lat="43.49936" lon="2.22458">
        <ele>313</ele>
        <time>2019-03-30T17:28:25Z</time>
      </trkpt>
      <trkpt lat="43.49934" lon="2.22451">
        <ele>314</ele>
        <time>2019-03-30T17:28:26Z</time>
      </trkpt>
      <trkpt lat="43.49932" lon="2.22444">
        <ele>315</ele>
        <time>2019-03-30T17:28:27Z</time>
      </trkpt>
      <trkpt lat="43.4993" lon="2.22437">
        <ele>316</ele>
        <time>2019-03-30T17:28:28Z</time>
      </trkpt>
      <trkpt lat="43.4992" lon="2.22416">
        <ele>316</ele>
        <time>2019-03-30T17:28:31Z</time>
      </trkpt>
      <trkpt lat="43.49908" lon="2.22407">
        <ele>316</ele>
        <time>2019-03-30T17:28:33Z</time>
      </trkpt>
      <trkpt lat="43.499" lon="2.22402">
        <ele>315</ele>
        <time>2019-03-30T17:28:34Z</time>
      </trkpt>
      <trkpt lat="43.49892" lon="2.22398">
        <ele>314</ele>
        <time>2019-03-30T17:28:35Z</time>
      </trkpt>
      <trkpt lat="43.49874" lon="2.22394">
        <ele>312</ele>
        <time>2019-03-30T17:28:37Z</time>
      </trkpt>
      <trkpt lat="43.49869" lon="2.2239">
        <ele>310</ele>
        <time>2019-03-30T17:28:38Z</time>
      </trkpt>
      <trkpt lat="43.49866" lon="2.22384">
        <ele>309</ele>
        <time>2019-03-30T17:28:39Z</time>
      </trkpt>
      <trkpt lat="43.49871" lon="2.22371">
        <ele>308</ele>
        <time>2019-03-30T17:28:41Z</time>
      </trkpt>
      <trkpt lat="43.49876" lon="2.22366">
        <ele>308</ele>
        <time>2019-03-30T17:28:42Z</time>
      </trkpt>
      <trkpt lat="43.4988" lon="2.22362">
        <ele>308</ele>
        <time>2019-03-30T17:28:43Z</time>
      </trkpt>
      <trkpt lat="43.49882" lon="2.22358">
        <ele>308</ele>
        <time>2019-03-30T17:28:44Z</time>
      </trkpt>
      <trkpt lat="43.49885" lon="2.22353">
        <ele>309</ele>
        <time>2019-03-30T17:28:46Z</time>
      </trkpt>
      <trkpt lat="43.49887" lon="2.22351">
        <ele>310</ele>
        <time>2019-03-30T17:28:48Z</time>
      </trkpt>
      <trkpt lat="43.49887" lon="2.22349">
        <ele>311</ele>
        <time>2019-03-30T17:28:50Z</time>
      </trkpt>
      <trkpt lat="43.49889" lon="2.22346">
        <ele>312</ele>
        <time>2019-03-30T17:29:39Z</time>
      </trkpt>
      <trkpt lat="43.49889" lon="2.22346">
        <ele>312</ele>
        <time>2019-03-30T17:29:40Z</time>
      </trkpt>
      <trkpt lat="43.49892" lon="2.22341">
        <ele>312</ele>
        <time>2019-03-30T17:29:44Z</time>
      </trkpt>
      <trkpt lat="43.49894" lon="2.22337">
        <ele>313</ele>
        <time>2019-03-30T17:29:47Z</time>
      </trkpt>
      <trkpt lat="43.49898" lon="2.2233">
        <ele>313</ele>
        <time>2019-03-30T17:29:52Z</time>
      </trkpt>
      <trkpt lat="43.49899" lon="2.22328">
        <ele>313</ele>
        <time>2019-03-30T17:29:53Z</time>
      </trkpt>
      <trkpt lat="43.499" lon="2.22325">
        <ele>314</ele>
        <time>2019-03-30T17:29:55Z</time>
      </trkpt>
      <trkpt lat="43.49903" lon="2.22323">
        <ele>314</ele>
        <time>2019-03-30T17:29:57Z</time>
      </trkpt>
      <trkpt lat="43.49905" lon="2.2232">
        <ele>315</ele>
        <time>2019-03-30T17:29:59Z</time>
      </trkpt>
      <trkpt lat="43.49908" lon="2.22311">
        <ele>315</ele>
        <time>2019-03-30T17:30:03Z</time>
      </trkpt>
      <trkpt lat="43.49908" lon="2.2231">
        <ele>316</ele>
        <time>2019-03-30T17:30:04Z</time>
      </trkpt>
      <trkpt lat="43.49909" lon="2.22309">
        <ele>316</ele>
        <time>2019-03-30T17:30:05Z</time>
      </trkpt>
      <trkpt lat="43.49908" lon="2.22306">
        <ele>316</ele>
        <time>2019-03-30T17:30:07Z</time>
      </trkpt>
      <trkpt lat="43.49903" lon="2.22314">
        <ele>316</ele>
        <time>2019-03-30T17:30:11Z</time>
      </trkpt>
      <trkpt lat="43.49899" lon="2.22327">
        <ele>315</ele>
        <time>2019-03-30T17:30:15Z</time>
      </trkpt>
      <trkpt lat="43.49899" lon="2.2233">
        <ele>314</ele>
        <time>2019-03-30T17:30:17Z</time>
      </trkpt>
      <trkpt lat="43.49899" lon="2.2233">
        <ele>314</ele>
        <time>2019-03-30T17:30:18Z</time>
      </trkpt>
      <trkpt lat="43.499" lon="2.22327">
        <ele>314</ele>
        <time>2019-03-30T17:30:33Z</time>
      </trkpt>
      <trkpt lat="43.499" lon="2.22325">
        <ele>314</ele>
        <time>2019-03-30T17:30:34Z</time>
      </trkpt>
      <trkpt lat="43.49905" lon="2.22316">
        <ele>315</ele>
        <time>2019-03-30T17:30:38Z</time>
      </trkpt>
      <trkpt lat="43.4991" lon="2.223">
        <ele>315</ele>
        <time>2019-03-30T17:30:42Z</time>
      </trkpt>
      <trkpt lat="43.49911" lon="2.22291">
        <ele>316</ele>
        <time>2019-03-30T17:30:44Z</time>
      </trkpt>
      <trkpt lat="43.49912" lon="2.22279">
        <ele>317</ele>
        <time>2019-03-30T17:30:47Z</time>
      </trkpt>
      <trkpt lat="43.49913" lon="2.22272">
        <ele>318</ele>
        <time>2019-03-30T17:30:49Z</time>
      </trkpt>
      <trkpt lat="43.49914" lon="2.22263">
        <ele>318</ele>
        <time>2019-03-30T17:30:51Z</time>
      </trkpt>
      <trkpt lat="43.49914" lon="2.22253">
        <ele>318</ele>
        <time>2019-03-30T17:30:53Z</time>
      </trkpt>
      <trkpt lat="43.49915" lon="2.22241">
        <ele>318</ele>
        <time>2019-03-30T17:30:55Z</time>
      </trkpt>
      <trkpt lat="43.49917" lon="2.2222">
        <ele>317</ele>
        <time>2019-03-30T17:30:58Z</time>
      </trkpt>
      <trkpt lat="43.4992" lon="2.22208">
        <ele>317</ele>
        <time>2019-03-30T17:31:00Z</time>
      </trkpt>
      <trkpt lat="43.49929" lon="2.22193">
        <ele>317</ele>
        <time>2019-03-30T17:31:03Z</time>
      </trkpt>
      <trkpt lat="43.49938" lon="2.22181">
        <ele>317</ele>
        <time>2019-03-30T17:31:06Z</time>
      </trkpt>
      <trkpt lat="43.49948" lon="2.22171">
        <ele>317</ele>
        <time>2019-03-30T17:31:09Z</time>
      </trkpt>
      <trkpt lat="43.4996" lon="2.22164">
        <ele>318</ele>
        <time>2019-03-30T17:31:12Z</time>
      </trkpt>
      <trkpt lat="43.49964" lon="2.22163">
        <ele>318</ele>
        <time>2019-03-30T17:31:13Z</time>
      </trkpt>
      <trkpt lat="43.49976" lon="2.22161">
        <ele>319</ele>
        <time>2019-03-30T17:31:16Z</time>
      </trkpt>
      <trkpt lat="43.49981" lon="2.22161">
        <ele>319</ele>
        <time>2019-03-30T17:31:17Z</time>
      </trkpt>
      <trkpt lat="43.49993" lon="2.22158">
        <ele>320</ele>
        <time>2019-03-30T17:31:20Z</time>
      </trkpt>
      <trkpt lat="43.50004" lon="2.22151">
        <ele>321</ele>
        <time>2019-03-30T17:31:23Z</time>
      </trkpt>
      <trkpt lat="43.5001" lon="2.22145">
        <ele>322</ele>
        <time>2019-03-30T17:31:25Z</time>
      </trkpt>
      <trkpt lat="43.50016" lon="2.22135">
        <ele>323</ele>
        <time>2019-03-30T17:31:28Z</time>
      </trkpt>
      <trkpt lat="43.50017" lon="2.22131">
        <ele>323</ele>
        <time>2019-03-30T17:31:29Z</time>
      </trkpt>
      <trkpt lat="43.50022" lon="2.22117">
        <ele>323</ele>
        <time>2019-03-30T17:31:32Z</time>
      </trkpt>
      <trkpt lat="43.50025" lon="2.22106">
        <ele>323</ele>
        <time>2019-03-30T17:31:34Z</time>
      </trkpt>
      <trkpt lat="43.50031" lon="2.22081">
        <ele>323</ele>
        <time>2019-03-30T17:31:37Z</time>
      </trkpt>
      <trkpt lat="43.50032" lon="2.22071">
        <ele>322</ele>
        <time>2019-03-30T17:31:38Z</time>
      </trkpt>
      <trkpt lat="43.5003" lon="2.22059">
        <ele>321</ele>
        <time>2019-03-30T17:31:39Z</time>
      </trkpt>
      <trkpt lat="43.50027" lon="2.22047">
        <ele>320</ele>
        <time>2019-03-30T17:31:40Z</time>
      </trkpt>
      <trkpt lat="43.50022" lon="2.22035">
        <ele>319</ele>
        <time>2019-03-30T17:31:41Z</time>
      </trkpt>
      <trkpt lat="43.50016" lon="2.22023">
        <ele>317</ele>
        <time>2019-03-30T17:31:42Z</time>
      </trkpt>
      <trkpt lat="43.50009" lon="2.2201">
        <ele>316</ele>
        <time>2019-03-30T17:31:43Z</time>
      </trkpt>
      <trkpt lat="43.50002" lon="2.21997">
        <ele>314</ele>
        <time>2019-03-30T17:31:44Z</time>
      </trkpt>
      <trkpt lat="43.49995" lon="2.21984">
        <ele>312</ele>
        <time>2019-03-30T17:31:45Z</time>
      </trkpt>
      <trkpt lat="43.49989" lon="2.21972">
        <ele>311</ele>
        <time>2019-03-30T17:31:46Z</time>
      </trkpt>
      <trkpt lat="43.49983" lon="2.21961">
        <ele>309</ele>
        <time>2019-03-30T17:31:47Z</time>
      </trkpt>
      <trkpt lat="43.49978" lon="2.21951">
        <ele>308</ele>
        <time>2019-03-30T17:31:48Z</time>
      </trkpt>
      <trkpt lat="43.49973" lon="2.21943">
        <ele>307</ele>
        <time>2019-03-30T17:31:49Z</time>
      </trkpt>
      <trkpt lat="43.49969" lon="2.21934">
        <ele>305</ele>
        <time>2019-03-30T17:31:50Z</time>
      </trkpt>
      <trkpt lat="43.49969" lon="2.21923">
        <ele>305</ele>
        <time>2019-03-30T17:31:51Z</time>
      </trkpt>
      <trkpt lat="43.49973" lon="2.21913">
        <ele>304</ele>
        <time>2019-03-30T17:31:52Z</time>
      </trkpt>
      <trkpt lat="43.4998" lon="2.21905">
        <ele>302</ele>
        <time>2019-03-30T17:31:53Z</time>
      </trkpt>
      <trkpt lat="43.4999" lon="2.21902">
        <ele>301</ele>
        <time>2019-03-30T17:31:54Z</time>
      </trkpt>
      <trkpt lat="43.5" lon="2.21902">
        <ele>299</ele>
        <time>2019-03-30T17:31:55Z</time>
      </trkpt>
      <trkpt lat="43.50009" lon="2.21901">
        <ele>298</ele>
        <time>2019-03-30T17:31:56Z</time>
      </trkpt>
      <trkpt lat="43.50019" lon="2.21898">
        <ele>296</ele>
        <time>2019-03-30T17:31:57Z</time>
      </trkpt>
      <trkpt lat="43.50027" lon="2.21889">
        <ele>295</ele>
        <time>2019-03-30T17:31:58Z</time>
      </trkpt>
      <trkpt lat="43.50035" lon="2.21879">
        <ele>294</ele>
        <time>2019-03-30T17:31:59Z</time>
      </trkpt>
      <trkpt lat="43.50047" lon="2.21855">
        <ele>292</ele>
        <time>2019-03-30T17:32:01Z</time>
      </trkpt>
      <trkpt lat="43.50051" lon="2.21842">
        <ele>291</ele>
        <time>2019-03-30T17:32:02Z</time>
      </trkpt>
      <trkpt lat="43.50055" lon="2.21828">
        <ele>291</ele>
        <time>2019-03-30T17:32:03Z</time>
      </trkpt>
      <trkpt lat="43.50066" lon="2.21788">
        <ele>290</ele>
        <time>2019-03-30T17:32:06Z</time>
      </trkpt>
      <trkpt lat="43.50077" lon="2.21747">
        <ele>288</ele>
        <time>2019-03-30T17:32:09Z</time>
      </trkpt>
      <trkpt lat="43.5008" lon="2.21732">
        <ele>287</ele>
        <time>2019-03-30T17:32:10Z</time>
      </trkpt>
      <trkpt lat="43.50083" lon="2.21718">
        <ele>286</ele>
        <time>2019-03-30T17:32:11Z</time>
      </trkpt>
      <trkpt lat="43.50089" lon="2.21688">
        <ele>285</ele>
        <time>2019-03-30T17:32:13Z</time>
      </trkpt>
      <trkpt lat="43.50094" lon="2.21658">
        <ele>283</ele>
        <time>2019-03-30T17:32:15Z</time>
      </trkpt>
      <trkpt lat="43.50097" lon="2.21644">
        <ele>282</ele>
        <time>2019-03-30T17:32:16Z</time>
      </trkpt>
      <trkpt lat="43.50098" lon="2.21628">
        <ele>280</ele>
        <time>2019-03-30T17:32:17Z</time>
      </trkpt>
      <trkpt lat="43.50099" lon="2.21613">
        <ele>279</ele>
        <time>2019-03-30T17:32:18Z</time>
      </trkpt>
      <trkpt lat="43.50099" lon="2.21597">
        <ele>278</ele>
        <time>2019-03-30T17:32:19Z</time>
      </trkpt>
      <trkpt lat="43.50098" lon="2.2158">
        <ele>276</ele>
        <time>2019-03-30T17:32:20Z</time>
      </trkpt>
      <trkpt lat="43.50098" lon="2.21565">
        <ele>275</ele>
        <time>2019-03-30T17:32:21Z</time>
      </trkpt>
      <trkpt lat="43.50098" lon="2.2155">
        <ele>274</ele>
        <time>2019-03-30T17:32:22Z</time>
      </trkpt>
      <trkpt lat="43.50097" lon="2.21535">
        <ele>272</ele>
        <time>2019-03-30T17:32:23Z</time>
      </trkpt>
      <trkpt lat="43.50095" lon="2.21521">
        <ele>271</ele>
        <time>2019-03-30T17:32:24Z</time>
      </trkpt>
      <trkpt lat="43.50092" lon="2.21508">
        <ele>270</ele>
        <time>2019-03-30T17:32:25Z</time>
      </trkpt>
      <trkpt lat="43.50088" lon="2.2149">
        <ele>270</ele>
        <time>2019-03-30T17:32:27Z</time>
      </trkpt>
      <trkpt lat="43.50088" lon="2.21475">
        <ele>271</ele>
        <time>2019-03-30T17:32:29Z</time>
      </trkpt>
      <trkpt lat="43.5009" lon="2.21469">
        <ele>271</ele>
        <time>2019-03-30T17:32:30Z</time>
      </trkpt>
      <trkpt lat="43.50106" lon="2.21457">
        <ele>273</ele>
        <time>2019-03-30T17:32:33Z</time>
      </trkpt>
      <trkpt lat="43.50117" lon="2.21451">
        <ele>273</ele>
        <time>2019-03-30T17:32:35Z</time>
      </trkpt>
      <trkpt lat="43.50133" lon="2.21443">
        <ele>274</ele>
        <time>2019-03-30T17:32:38Z</time>
      </trkpt>
      <trkpt lat="43.50139" lon="2.21441">
        <ele>274</ele>
        <time>2019-03-30T17:32:39Z</time>
      </trkpt>
      <trkpt lat="43.50152" lon="2.21433">
        <ele>274</ele>
        <time>2019-03-30T17:32:41Z</time>
      </trkpt>
      <trkpt lat="43.50158" lon="2.21427">
        <ele>274</ele>
        <time>2019-03-30T17:32:42Z</time>
      </trkpt>
      <trkpt lat="43.50163" lon="2.21408">
        <ele>273</ele>
        <time>2019-03-30T17:32:44Z</time>
      </trkpt>
      <trkpt lat="43.50161" lon="2.21397">
        <ele>272</ele>
        <time>2019-03-30T17:32:45Z</time>
      </trkpt>
      <trkpt lat="43.50157" lon="2.21388">
        <ele>271</ele>
        <time>2019-03-30T17:32:46Z</time>
      </trkpt>
      <trkpt lat="43.50152" lon="2.21378">
        <ele>270</ele>
        <time>2019-03-30T17:32:47Z</time>
      </trkpt>
      <trkpt lat="43.50151" lon="2.2136">
        <ele>269</ele>
        <time>2019-03-30T17:32:49Z</time>
      </trkpt>
      <trkpt lat="43.50163" lon="2.21352">
        <ele>268</ele>
        <time>2019-03-30T17:32:51Z</time>
      </trkpt>
      <trkpt lat="43.5017" lon="2.21351">
        <ele>268</ele>
        <time>2019-03-30T17:32:52Z</time>
      </trkpt>
      <trkpt lat="43.50176" lon="2.21351">
        <ele>267</ele>
        <time>2019-03-30T17:32:53Z</time>
      </trkpt>
      <trkpt lat="43.50198" lon="2.21351">
        <ele>267</ele>
        <time>2019-03-30T17:32:56Z</time>
      </trkpt>
      <trkpt lat="43.5021" lon="2.2135">
        <ele>266</ele>
        <time>2019-03-30T17:32:58Z</time>
      </trkpt>
      <trkpt lat="43.50215" lon="2.21349">
        <ele>266</ele>
        <time>2019-03-30T17:32:59Z</time>
      </trkpt>
      <trkpt lat="43.50219" lon="2.21347">
        <ele>266</ele>
        <time>2019-03-30T17:33:00Z</time>
      </trkpt>
      <trkpt lat="43.50227" lon="2.2133">
        <ele>266</ele>
        <time>2019-03-30T17:33:03Z</time>
      </trkpt>
      <trkpt lat="43.50223" lon="2.21313">
        <ele>267</ele>
        <time>2019-03-30T17:33:06Z</time>
      </trkpt>
      <trkpt lat="43.50211" lon="2.21301">
        <ele>268</ele>
        <time>2019-03-30T17:33:11Z</time>
      </trkpt>
      <trkpt lat="43.50209" lon="2.21299">
        <ele>268</ele>
        <time>2019-03-30T17:33:12Z</time>
      </trkpt>
      <trkpt lat="43.50204" lon="2.21296">
        <ele>268</ele>
        <time>2019-03-30T17:33:16Z</time>
      </trkpt>
      <trkpt lat="43.50204" lon="2.21296">
        <ele>268</ele>
        <time>2019-03-30T17:33:17Z</time>
      </trkpt>
    </trkseg>
  </trk>
</gpx>